
Distance (Route):
Temperature : 0.3°C
Humidity : 91.2%
Pressure : 0hPa| Receiver | Frames | First received | Last received |
|---|---|---|---|
| PETON7-10 | 416 | 2026-09-01 02:30:58 | 2026-09-01 04:23:25 |
| PG1ADW-2 | 252 | 2026-09-01 02:30:43 | 2026-09-01 04:11:39 |
| OE5DRO-10 | 245 | 2026-09-01 02:28:55 | 2026-09-01 04:00:54 |
| OE8JPQ-2 | 182 | 2026-09-01 02:26:12 | 2026-09-01 03:41:59 |
| OE3JTB-15 | 177 | 2026-09-01 02:27:18 | 2026-09-01 04:23:15 |
| OE5DXL-15 | 145 | 2026-09-01 02:35:58 | 2026-09-01 03:53:32 |
| OE5MMP-10 | 64 | 2026-09-01 03:19:38 | 2026-09-01 03:31:09 |
| S52SK | 22 | 2026-09-01 02:16:47 | 2026-09-01 02:30:11 |
| OE3OSB-13 | 18 | 2026-09-01 02:33:04 | 2026-09-01 04:20:15 |
| DB0NH | 15 | 2026-09-01 03:20:05 | 2026-09-01 03:31:48 |
| NBG1-10 | 9 | 2026-09-01 03:19:12 | 2026-09-01 03:31:08 |
| OM5KV | 5 | 2026-09-01 04:13:28 | 2026-09-01 04:21:47 |
| ATIDSZ-14 | 2 | 2026-09-01 04:13:29 | 2026-09-01 04:21:46 |
| Receiver | Date | Latitude | Longitude | Direction | Speed | Altitude | Climb | Temperature | Humidity | Pressure | Voltage | Killtimer | Uptime | BKT | XDATA |
|---|---|---|---|---|---|---|---|---|---|---|---|---|---|---|---|
| PETON7-10 | 2026-09-01 04:23:25 | 47.00288 | 17.31795 | 91° | 53km/h | 3637m | -3.1m/s | 0.3°C | 91.2% | 0hPa | 2.7V | 00:00:00 | 00:00:00 | 00:00:00 | |
| OE3JTB-15 | 2026-09-01 04:23:15 | 47.00287 | 17.31601 | 90° | 53km/h | 3670m | -3.2m/s | 0.1°C | 89.1% | 0hPa | 2.6V | 00:00:00 | 00:00:00 | 00:00:00 | |
| PETON7-10 | 2026-09-01 04:23:10 | 47.00286 | 17.31506 | 90° | 53km/h | 3687m | -3.1m/s | 0.0°C | 89.3% | 0hPa | 2.7V | 00:00:00 | 00:00:00 | 00:00:00 | |
| PETON7-10 | 2026-09-01 04:22:55 | 47.00277 | 17.31216 | 85° | 53km/h | 3736m | -3.5m/s | -0.3°C | 91.4% | 0hPa | 2.7V | 00:00:00 | 02:36:27 | 00:00:00 | |
| OE3JTB-15 | 2026-09-01 04:22:46 | 47.00265 | 17.31043 | 84° | 53km/h | 3764m | -3.4m/s | -0.4°C | 90.8% | 0hPa | 2.7V | 00:00:00 | 00:00:00 | 00:00:00 | |
| PETON7-10 | 2026-09-01 04:22:40 | 47.00256 | 17.30927 | 84° | 53km/h | 3783m | -3.2m/s | -0.6°C | 91.1% | 0hPa | 2.7V | 00:00:00 | 00:00:00 | 00:00:00 | |
| PETON7-10 | 2026-09-01 04:22:25 | 47.00224 | 17.30635 | 79° | 53km/h | 3831m | -3.4m/s | -0.8°C | 90.4% | 0hPa | 2.7V | 07:35:00 | 00:00:00 | 00:00:00 | |
| OE3JTB-15 | 2026-09-01 04:22:17 | 47.00201 | 17.30480 | 77° | 55km/h | 3857m | -3.3m/s | -1.1°C | 91.4% | 0hPa | 2.7V | 07:35:00 | 02:35:49 | 00:00:00 | |
| PETON7-10 | 2026-09-01 04:22:09 | 47.00175 | 17.30325 | 75° | 53km/h | 3883m | -3.2m/s | -1.2°C | 93.6% | 0hPa | 2.7V | 00:00:00 | 02:35:41 | 00:00:00 | |
| PETON7-10 | 2026-09-01 04:21:53 | 47.00115 | 17.30018 | 74° | 53km/h | 3934m | -3.1m/s | -1.3°C | 93.6% | 0hPa | 2.7V | 00:00:00 | 00:00:00 | 00:00:00 | |
| OE3JTB-15 | 2026-09-01 04:21:48 | 47.00097 | 17.29922 | 75° | 53km/h | 3950m | -3.2m/s | -1.4°C | 94.2% | 0hPa | 2.7V | 00:00:00 | 00:00:00 | 00:00:00 | |
| OM5KV | 2026-09-01 04:21:47 | 47.00093 | 17.29902 | 76° | 53km/h | 3953m | -3.3m/s | -1.5°C | 92.3% | 0hPa | 2.7V | 07:36:00 | 00:00:00 | 00:00:00 | |
| ATIDSZ-14 | 2026-09-01 04:21:46 | 47.00093 | 17.29902 | 76° | 53km/h | 3953m | -3.3m/s | -1.5°C | 92.3% | 0hPa | 2.7V | 00:00:00 | 00:00:00 | 00:00:00 | |
| OM5KV | 2026-09-01 04:21:42 | 47.00079 | 17.29826 | 76° | 53km/h | 3966m | -3.3m/s | -1.6°C | 92.3% | 0hPa | 2.7V | 07:36:00 | 00:00:00 | 00:00:00 | |
| OM5KV | 2026-09-01 04:21:41 | 47.00072 | 17.29788 | 77° | 53km/h | 3972m | -3.3m/s | -1.7°C | 92.4% | 0hPa | 2.7V | 07:36:00 | 00:00:00 | 00:00:00 | |
| OM5KV | 2026-09-01 04:21:37 | 47.00059 | 17.29712 | 77° | 53km/h | 3985m | -3.2m/s | -1.8°C | 92.9% | 0hPa | 2.7V | 07:36:00 | 00:00:00 | 00:00:00 | |
| OE3JTB-15 | 2026-09-01 04:21:19 | 47.00004 | 17.29378 | 78° | 53km/h | 4043m | -3.2m/s | -2.0°C | 90.4% | 0hPa | 2.7V | 00:00:00 | 00:00:00 | 00:00:00 | |
| PETON7-10 | 2026-09-01 04:21:16 | 46.99997 | 17.29321 | 80° | 53km/h | 4053m | -3.2m/s | -2.1°C | 89.8% | 0hPa | 2.7V | 00:00:00 | 00:00:00 | 00:00:00 | |
| PETON7-10 | 2026-09-01 04:21:01 | 46.99967 | 17.29035 | 82° | 53km/h | 4099m | -3.1m/s | -2.3°C | 87.1% | 0hPa | 2.7V | 00:00:00 | 02:34:33 | 00:00:00 | |
| OE3JTB-15 | 2026-09-01 04:20:50 | 46.99951 | 17.28820 | 85° | 57km/h | 4130m | -2.7m/s | -2.4°C | 85.9% | 0hPa | 2.7V | 00:00:00 | 02:34:22 | 00:00:00 | |
| PETON7-10 | 2026-09-01 04:20:46 | 46.99945 | 17.28739 | 86° | 57km/h | 4141m | -2.3m/s | -2.4°C | 86.3% | 0hPa | 2.7V | 00:00:00 | 00:00:00 | 00:00:00 | |
| PETON7-10 | 2026-09-01 04:20:31 | 46.99926 | 17.28430 | 86° | 57km/h | 4181m | -2.7m/s | -2.7°C | 87.4% | 0hPa | 2.7V | 00:00:00 | 00:00:00 | 00:00:00 | |
| OE3JTB-15 | 2026-09-01 04:20:21 | 46.99914 | 17.28219 | 86° | 60km/h | 4210m | -2.8m/s | -2.9°C | 87.1% | 0hPa | 2.7V | 00:00:00 | 00:00:00 | 00:00:00 | |
| PETON7-10 | 2026-09-01 04:20:16 | 46.99908 | 17.28112 | 87° | 58km/h | 4224m | -2.7m/s | -3.1°C | 88.1% | 0hPa | 2.7V | 00:00:00 | 02:33:48 | 00:00:00 | |
| OE3OSB-13 | 2026-09-01 04:20:15 | 46.99907 | 17.28090 | 85° | 58km/h | 4226m | -2.7m/s | -3.2°C | 86.3% | -1.0hPa | 2.7V | 00:00:00 | 00:00:00 | 00:00:00 | |
| PETON7-10 | 2026-09-01 04:20:01 | 46.99890 | 17.27785 | 85° | 62km/h | 4264m | -2.6m/s | -3.4°C | 89.8% | 0hPa | 2.7V | 07:37:00 | 00:00:00 | 00:00:00 | |
| OE3JTB-15 | 2026-09-01 04:19:52 | 46.99878 | 17.27581 | 85° | 62km/h | 4287m | -2.3m/s | -3.6°C | 88.4% | 0hPa | 2.7V | 00:00:00 | 00:00:00 | 00:00:00 | |
| PETON7-10 | 2026-09-01 04:19:46 | 46.99868 | 17.27444 | 85° | 62km/h | 4302m | -2.3m/s | -3.7°C | 88.7% | 0hPa | 2.7V | 00:00:00 | 00:00:00 | 00:00:00 | |
| PETON7-10 | 2026-09-01 04:19:31 | 46.99846 | 17.27104 | 84° | 60km/h | 4338m | -2.7m/s | -3.7°C | 85.1% | 0hPa | 2.7V | 00:00:00 | 02:33:03 | 00:00:00 | |
| OE3JTB-15 | 2026-09-01 04:19:23 | 46.99832 | 17.26924 | 84° | 62km/h | 4360m | -2.7m/s | -3.4°C | 84.2% | 0hPa | 2.7V | 00:00:00 | 02:32:55 | 00:00:00 | |
| PETON7-10 | 2026-09-01 04:19:16 | 46.99821 | 17.26768 | 85° | 60km/h | 4378m | -2.5m/s | -3.4°C | 85.1% | 0hPa | 2.7V | 00:00:00 | 00:00:00 | 00:00:00 | |
| OE3OSB-13 | 2026-09-01 04:19:13 | 46.99815 | 17.26679 | 83° | 60km/h | 4388m | -2.7m/s | -3.5°C | 83.6% | -1.0hPa | 2.7V | 00:00:00 | 00:00:00 | 00:00:00 | |
| PETON7-10 | 2026-09-01 04:19:01 | 46.99798 | 17.26430 | 85° | 62km/h | 4417m | -2.7m/s | -3.7°C | 86.5% | 0hPa | 2.7V | 00:00:00 | 00:00:00 | 00:00:00 | |
| OE3JTB-15 | 2026-09-01 04:18:54 | 46.99787 | 17.26270 | 83° | 64km/h | 4435m | -2.6m/s | -3.9°C | 87.1% | 0hPa | 2.7V | 00:00:00 | 00:00:00 | 00:00:00 | |
| PETON7-10 | 2026-09-01 04:18:46 | 46.99771 | 17.26087 | 84° | 64km/h | 4457m | -2.9m/s | -3.9°C | 85.8% | 0hPa | 2.7V | 00:00:00 | 02:32:18 | 00:00:00 | |
| PETON7-10 | 2026-09-01 04:18:31 | 46.99739 | 17.25735 | 83° | 66km/h | 4498m | -2.6m/s | -4.2°C | 86.0% | 0hPa | 2.7V | 00:00:00 | 00:00:00 | 00:00:00 | |
| OE3JTB-15 | 2026-09-01 04:18:25 | 46.99725 | 17.25592 | 83° | 66km/h | 4515m | -2.8m/s | -4.3°C | 86.3% | 0hPa | 2.6V | 07:39:00 | 00:00:00 | 00:00:00 | |
| PETON7-10 | 2026-09-01 04:18:16 | 46.99704 | 17.25376 | 83° | 66km/h | 4540m | -2.6m/s | -4.4°C | 85.6% | 0hPa | 2.6V | 00:00:00 | 00:00:00 | 00:00:00 | |
| OE3OSB-13 | 2026-09-01 04:18:11 | 46.99689 | 17.25231 | 80° | 66km/h | 4557m | -3.0m/s | -4.5°C | 83.9% | -1.0hPa | 2.6V | 00:00:00 | 00:00:00 | 00:00:00 | |
| PETON7-10 | 2026-09-01 04:18:01 | 46.99668 | 17.25010 | 83° | 68km/h | 4584m | -3.0m/s | -4.7°C | 86.0% | 0hPa | 2.6V | 07:39:00 | 02:31:33 | 00:00:00 | |
| OE3JTB-15 | 2026-09-01 04:17:56 | 46.99657 | 17.24887 | 84° | 68km/h | 4599m | -2.6m/s | -4.8°C | 86.7% | 0hPa | 2.6V | 00:00:00 | 02:31:28 | 00:00:00 | |
| PETON7-10 | 2026-09-01 04:17:46 | 46.99634 | 17.24639 | 85° | 68km/h | 4628m | -2.8m/s | -5.1°C | 87.7% | 0hPa | 2.6V | 00:00:00 | 00:00:00 | 00:00:00 | |
| PETON7-10 | 2026-09-01 04:17:31 | 46.99604 | 17.24264 | 84° | 68km/h | 4673m | -2.9m/s | -5.4°C | 87.0% | 0hPa | 2.6V | 00:00:00 | 00:00:00 | 00:00:00 | |
| OE3JTB-15 | 2026-09-01 04:17:27 | 46.99596 | 17.24163 | 84° | 68km/h | 4685m | -3.0m/s | -5.4°C | 83.3% | 0hPa | 2.6V | 00:00:00 | 00:00:00 | 00:00:00 | |
| PETON7-10 | 2026-09-01 04:17:16 | 46.99575 | 17.23886 | 84° | 68km/h | 4718m | -3.1m/s | -5.6°C | 80.7% | 0hPa | 2.6V | 00:00:00 | 02:30:48 | 00:00:00 | |
| OE3OSB-13 | 2026-09-01 04:17:08 | 46.99561 | 17.23686 | 84° | 66km/h | 4742m | -2.9m/s | -5.9°C | 79.9% | -1.0hPa | 2.6V | 00:00:00 | 00:00:00 | 00:00:00 | |
| PETON7-10 | 2026-09-01 04:17:01 | 46.99546 | 17.23511 | 84° | 68km/h | 4763m | -3.1m/s | -6.1°C | 82.8% | 0hPa | 2.6V | 00:00:00 | 00:00:00 | 00:00:00 | |
| OE3JTB-15 | 2026-09-01 04:16:58 | 46.99540 | 17.23435 | 84° | 68km/h | 4772m | -2.7m/s | -6.2°C | 83.8% | 0hPa | 2.6V | 00:00:00 | 00:00:00 | 00:00:00 | |
| PETON7-10 | 2026-09-01 04:16:46 | 46.99515 | 17.23136 | 83° | 68km/h | 4807m | -3.4m/s | -6.5°C | 86.9% | 0hPa | 2.6V | 00:00:00 | 00:00:00 | 00:00:00 | |
| PETON7-10 | 2026-09-01 04:16:31 | 46.99482 | 17.22763 | 83° | 68km/h | 4855m | -3.0m/s | -7.0°C | 91.7% | 0hPa | 2.6V | 00:00:00 | 02:30:03 | 00:00:00 | |
| OE3JTB-15 | 2026-09-01 04:16:29 | 46.99478 | 17.22714 | 84° | 68km/h | 4861m | -3.2m/s | -7.0°C | 91.5% | 0hPa | 2.6V | 00:00:00 | 02:30:01 | 00:00:00 | |
| PETON7-10 | 2026-09-01 04:16:16 | 46.99450 | 17.22391 | 84° | 68km/h | 4902m | -3.2m/s | -7.4°C | 95.0% | 0hPa | 2.6V | 00:00:00 | 00:00:00 | 00:00:00 | |
| OE3OSB-13 | 2026-09-01 04:16:06 | 46.99430 | 17.22142 | 82° | 68km/h | 4936m | -3.3m/s | -7.7°C | 94.0% | -1.0hPa | 2.7V | 00:00:00 | 00:00:00 | 00:00:00 | |
| PETON7-10 | 2026-09-01 04:16:01 | 46.99419 | 17.22018 | 83° | 68km/h | 4952m | -3.4m/s | -7.8°C | 97.5% | 0hPa | 2.7V | 07:41:00 | 00:00:00 | 00:00:00 | |
| OE3JTB-15 | 2026-09-01 04:16:00 | 46.99417 | 17.21993 | 83° | 68km/h | 4955m | -3.2m/s | -7.9°C | 97.6% | 0hPa | 2.7V | 00:00:00 | 00:00:00 | 00:00:00 | |
| PETON7-10 | 2026-09-01 04:15:46 | 46.99389 | 17.21646 | 84° | 68km/h | 5000m | -3.2m/s | -8.3°C | 0% | 0hPa | 2.7V | 00:00:00 | 02:29:18 | 00:00:00 | |
| PETON7-10 | 2026-09-01 04:15:31 | 46.99359 | 17.21275 | 83° | 69km/h | 5048m | -3.1m/s | -8.5°C | 98.1% | 0hPa | 2.7V | 00:00:00 | 00:00:00 | 00:00:00 | |
| PETON7-10 | 2026-09-01 04:15:16 | 46.99326 | 17.20894 | 84° | 69km/h | 5095m | -2.9m/s | -8.9°C | 97.4% | 0hPa | 2.6V | 00:00:00 | 00:00:00 | 00:00:00 | |
| OE3JTB-15 | 2026-09-01 04:15:02 | 46.99291 | 17.20540 | 83° | 68km/h | 5137m | -2.8m/s | -9.1°C | 93.3% | 0hPa | 2.6V | 00:00:00 | 02:28:34 | 00:00:00 | |
| PETON7-10 | 2026-09-01 04:15:01 | 46.99289 | 17.20514 | 82° | 68km/h | 5140m | -2.9m/s | -9.1°C | 93.3% | 0hPa | 2.6V | 00:00:00 | 02:28:33 | 00:00:00 | |
| PETON7-10 | 2026-09-01 04:14:46 | 46.99249 | 17.20141 | 80° | 68km/h | 5186m | -3.4m/s | -9.5°C | 93.0% | 0hPa | 2.6V | 00:00:00 | 00:00:00 | 00:00:00 | |
| OE3JTB-15 | 2026-09-01 04:14:33 | 46.99211 | 17.19820 | 81° | 68km/h | 5228m | -3.1m/s | -9.9°C | 94.4% | 0hPa | 2.7V | 07:43:00 | 00:00:00 | 00:00:00 | |
| PETON7-10 | 2026-09-01 04:14:31 | 46.99205 | 17.19771 | 82° | 68km/h | 5234m | -2.8m/s | -9.9°C | 94.6% | 0hPa | 2.7V | 00:00:00 | 00:00:00 | 00:00:00 | |
| PETON7-10 | 2026-09-01 04:14:16 | 46.99160 | 17.19402 | 80° | 69km/h | 5283m | -3.4m/s | -10.4°C | 95.1% | 0hPa | 2.7V | 00:00:00 | 02:27:48 | 00:00:00 | |
| OE3JTB-15 | 2026-09-01 04:14:04 | 46.99124 | 17.19099 | 81° | 71km/h | 5322m | -3.3m/s | -10.6°C | 96.1% | 0hPa | 2.7V | 00:00:00 | 00:00:00 | 00:00:00 | |
| OE3OSB-13 | 2026-09-01 04:14:02 | 46.99119 | 17.19047 | 81° | 69km/h | 5329m | -3.6m/s | -10.6°C | 91.5% | -1.0hPa | 2.7V | 00:00:00 | 00:00:00 | 00:00:00 | |
| PETON7-10 | 2026-09-01 04:14:01 | 46.99116 | 17.19021 | 81° | 71km/h | 5332m | -3.3m/s | -10.5°C | 91.9% | 0hPa | 2.7V | 07:43:00 | 00:00:00 | 00:00:00 | |
| PETON7-10 | 2026-09-01 04:13:46 | 46.99079 | 17.18631 | 84° | 71km/h | 5384m | -3.5m/s | -10.4°C | 73.5% | 0hPa | 2.7V | 00:00:00 | 00:00:00 | 00:00:00 | |
| OE3JTB-15 | 2026-09-01 04:13:35 | 46.99058 | 17.18345 | 84° | 69km/h | 5422m | -3.6m/s | -10.0°C | 53.3% | 0hPa | 2.7V | 00:00:00 | 02:27:07 | 00:00:00 | |
| PETON7-10 | 2026-09-01 04:13:31 | 46.99051 | 17.18242 | 86° | 69km/h | 5436m | -3.3m/s | -10.0°C | 48.2% | 0hPa | 2.7V | 00:00:00 | 02:27:03 | 00:00:00 | |
| ATIDSZ-14 | 2026-09-01 04:13:29 | 46.99048 | 17.18191 | 85° | 69km/h | 5443m | -3.7m/s | -10.1°C | 46.3% | 0hPa | 2.7V | 07:45:00 | 00:00:00 | 00:00:00 | |
| OM5KV | 2026-09-01 04:13:28 | 46.99048 | 17.18191 | 85° | 69km/h | 5443m | -3.7m/s | -10.1°C | 46.3% | 0hPa | 2.7V | 07:45:00 | 00:00:00 | 00:00:00 | |
| PETON7-10 | 2026-09-01 04:13:10 | 46.99022 | 17.17707 | 87° | 69km/h | 5514m | -3.9m/s | -10.0°C | 26.6% | 0hPa | 2.7V | 00:00:00 | 00:00:00 | 00:00:00 | |
| OE3JTB-15 | 2026-09-01 04:13:06 | 46.99017 | 17.17605 | 87° | 69km/h | 5529m | -3.7m/s | -10.1°C | 24.0% | 0hPa | 2.7V | 00:00:00 | 00:00:00 | 00:00:00 | |
| PETON7-10 | 2026-09-01 04:12:55 | 46.99007 | 17.17319 | 90° | 69km/h | 5569m | -3.7m/s | -10.4°C | 18.7% | 0hPa | 2.7V | 00:00:00 | 00:00:00 | 00:00:00 | |
| OE3JTB-15 | 2026-09-01 04:12:37 | 46.99008 | 17.16853 | 92° | 66km/h | 5636m | -3.8m/s | -10.8°C | 14.1% | 0hPa | 2.7V | 00:00:00 | 00:00:00 | 00:00:00 | |
| PETON7-10 | 2026-09-01 04:12:31 | 46.99010 | 17.16701 | 92° | 66km/h | 5659m | -3.8m/s | -10.6°C | 5.3% | 0hPa | 2.7V | 00:00:00 | 02:26:03 | 00:00:00 | |
| PETON7-10 | 2026-09-01 04:12:14 | 46.99016 | 17.16284 | 93° | 64km/h | 5722m | -3.5m/s | -10.8°C | 3.0% | 0hPa | 2.7V | 00:00:00 | 00:00:00 | 00:00:00 | |
| OE3JTB-15 | 2026-09-01 04:12:08 | 46.99017 | 17.16142 | 91° | 62km/h | 5744m | -3.6m/s | -11.0°C | 2.9% | 0hPa | 2.7V | 00:00:00 | 02:25:40 | 00:00:00 | |
| PETON7-10 | 2026-09-01 04:11:52 | 46.99028 | 17.15768 | 96° | 62km/h | 5802m | -3.8m/s | -11.4°C | 2.9% | 0hPa | 2.7V | 00:00:00 | 00:00:00 | 00:00:00 | |
| PG1ADW-2 | 2026-09-01 04:11:39 | 46.99046 | 17.15473 | 97° | 64km/h | 5849m | -3.9m/s | -11.6°C | 3.0% | 0hPa | 2.7V | 00:00:00 | 00:00:00 | 00:00:00 | |
| PETON7-10 | 2026-09-01 04:11:37 | 46.99050 | 17.15428 | 98° | 64km/h | 5857m | -3.7m/s | -11.6°C | 3.0% | 0hPa | 2.7V | 07:46:00 | 02:25:09 | 00:00:00 | |
| PETON7-10 | 2026-09-01 04:11:22 | 46.99092 | 17.15079 | 102° | 68km/h | 5912m | -3.3m/s | -11.8°C | 3.1% | 0hPa | 2.7V | 00:00:00 | 00:00:00 | 00:00:00 | |
| PG1ADW-2 | 2026-09-01 04:11:17 | 46.99110 | 17.14959 | 103° | 69km/h | 5930m | -3.8m/s | -12.0°C | 3.2% | 0hPa | 2.6V | 00:00:00 | 00:00:00 | 00:00:00 | |
| OE3JTB-15 | 2026-09-01 04:11:10 | 46.99134 | 17.14788 | 104° | 73km/h | 5956m | -3.4m/s | -11.9°C | 3.3% | 0hPa | 2.6V | 00:00:00 | 00:00:00 | 00:00:00 | |
| PETON7-10 | 2026-09-01 04:11:07 | 46.99145 | 17.14713 | 102° | 71km/h | 5967m | -3.5m/s | -11.8°C | 3.4% | 0hPa | 2.6V | 00:00:00 | 00:00:00 | 00:00:00 | |
| PG1ADW-2 | 2026-09-01 04:10:57 | 46.99181 | 17.14454 | 102° | 75km/h | 6004m | -3.6m/s | -11.8°C | 4.1% | 0hPa | 2.6V | 00:00:00 | 00:00:00 | 00:00:00 | |
| PETON7-10 | 2026-09-01 04:10:52 | 46.99200 | 17.14321 | 102° | 75km/h | 6023m | -3.9m/s | -11.9°C | 4.4% | 0hPa | 2.6V | 00:00:00 | 02:24:24 | 00:00:00 | |
| PETON7-10 | 2026-09-01 04:10:37 | 46.99255 | 17.13910 | 100° | 77km/h | 6078m | -3.9m/s | -12.2°C | 5.4% | 0hPa | 2.6V | 00:00:00 | 00:00:00 | 00:00:00 | |
| PETON7-10 | 2026-09-01 04:10:22 | 46.99301 | 17.13491 | 99° | 77km/h | 6136m | -3.9m/s | -12.6°C | 6.5% | 0hPa | 2.6V | 00:00:00 | 00:00:00 | 00:00:00 | |
| PG1ADW-2 | 2026-09-01 04:10:17 | 46.99314 | 17.13351 | 98° | 78km/h | 6155m | -3.5m/s | -12.8°C | 6.9% | 0hPa | 2.6V | 00:00:00 | 00:00:00 | 00:00:00 | |
| OE3JTB-15 | 2026-09-01 04:10:12 | 46.99328 | 17.13210 | 98° | 78km/h | 6173m | -3.8m/s | -12.9°C | 6.9% | 0hPa | 2.6V | 00:00:00 | 00:00:00 | 00:00:00 | |
| PETON7-10 | 2026-09-01 04:10:07 | 46.99340 | 17.13067 | 97° | 78km/h | 6191m | -3.6m/s | -13.0°C | 7.0% | 0hPa | 2.5V | 00:00:00 | 02:23:39 | 00:00:00 | |
| PG1ADW-2 | 2026-09-01 04:09:57 | 46.99363 | 17.12779 | 96° | 80km/h | 6229m | -3.8m/s | -13.3°C | 7.0% | 0hPa | 2.5V | 07:48:00 | 00:00:00 | 00:00:00 | |
| PETON7-10 | 2026-09-01 04:09:52 | 46.99375 | 17.12634 | 97° | 80km/h | 6248m | -3.8m/s | -13.4°C | 7.0% | 0hPa | 2.5V | 00:00:00 | 00:00:00 | 00:00:00 | |
| OE3JTB-15 | 2026-09-01 04:09:43 | 46.99394 | 17.12370 | 96° | 82km/h | 6283m | -3.7m/s | -13.7°C | 6.9% | 0hPa | 2.6V | 00:00:00 | 00:00:00 | 00:00:00 | |
| PETON7-10 | 2026-09-01 04:09:37 | 46.99408 | 17.12193 | 96° | 82km/h | 6305m | -3.9m/s | -13.9°C | 7.0% | 0hPa | 2.6V | 07:48:00 | 00:00:00 | 00:00:00 | |
| PETON7-10 | 2026-09-01 04:09:22 | 46.99438 | 17.11743 | 95° | 82km/h | 6363m | -3.9m/s | -14.4°C | 7.1% | 0hPa | 2.6V | 00:00:00 | 02:22:54 | 00:00:00 | |
| PG1ADW-2 | 2026-09-01 04:09:17 | 46.99447 | 17.11592 | 96° | 82km/h | 6382m | -3.5m/s | -14.5°C | 7.1% | 0hPa | 2.6V | 00:00:00 | 02:22:49 | 00:00:00 | |
| PETON7-10 | 2026-09-01 04:09:07 | 46.99466 | 17.11290 | 96° | 82km/h | 6419m | -3.8m/s | -14.8°C | 6.5% | 0hPa | 2.7V | 00:00:00 | 00:00:00 | 00:00:00 | |
| PG1ADW-2 | 2026-09-01 04:08:57 | 46.99484 | 17.10989 | 96° | 82km/h | 6456m | -3.4m/s | -15.1°C | 6.2% | 0hPa | 2.5V | 00:00:00 | 00:00:00 | 00:00:00 | |
| PETON7-10 | 2026-09-01 04:08:52 | 46.99492 | 17.10838 | 95° | 82km/h | 6474m | -3.7m/s | -15.2°C | 6.1% | 0hPa | 2.5V | 00:00:00 | 00:00:00 | 00:00:00 | |
| PETON7-10 | 2026-09-01 04:08:37 | 46.99518 | 17.10386 | 95° | 82km/h | 6530m | -3.5m/s | -15.7°C | 7.3% | 0hPa | 2.5V | 00:00:00 | 02:22:09 | 00:00:00 | |
| PETON7-10 | 2026-09-01 04:08:22 | 46.99546 | 17.09928 | 96° | 82km/h | 6584m | -3.7m/s | -16.2°C | 9.1% | 0hPa | 2.5V | 00:00:00 | 00:00:00 | 00:00:00 | |
| PG1ADW-2 | 2026-09-01 04:08:17 | 46.99556 | 17.09776 | 95° | 82km/h | 6603m | -3.9m/s | -16.3°C | 9.7% | 0hPa | 2.6V | 00:00:00 | 00:00:00 | 00:00:00 | |
| PETON7-10 | 2026-09-01 04:08:07 | 46.99576 | 17.09472 | 96° | 82km/h | 6639m | -3.3m/s | -16.7°C | 12.7% | 0hPa | 2.6V | 00:00:00 | 00:00:00 | 00:00:00 | |
| PG1ADW-2 | 2026-09-01 04:07:57 | 46.99597 | 17.09170 | 96° | 80km/h | 6676m | -3.6m/s | -17.0°C | 13.6% | 0hPa | 2.6V | 00:00:00 | 02:21:29 | 00:00:00 | |
| OE3JTB-15 | 2026-09-01 04:07:53 | 46.99605 | 17.09050 | 96° | 78km/h | 6690m | -3.6m/s | -17.1°C | 14.1% | 0hPa | 2.6V | 00:00:00 | 00:00:00 | 00:00:00 | |
| PETON7-10 | 2026-09-01 04:07:52 | 46.99607 | 17.09020 | 97° | 80km/h | 6694m | -3.6m/s | -17.2°C | 14.2% | 0hPa | 2.6V | 00:00:00 | 02:21:24 | 00:00:00 | |
| PETON7-10 | 2026-09-01 04:07:37 | 46.99638 | 17.08580 | 96° | 77km/h | 6748m | -3.5m/s | -17.7°C | 16.3% | 0hPa | 2.6V | 07:50:00 | 00:00:00 | 00:00:00 | |
| OE3JTB-15 | 2026-09-01 04:07:24 | 46.99666 | 17.08210 | 97° | 77km/h | 6795m | -3.5m/s | -18.0°C | 18.8% | 0hPa | 2.6V | 00:00:00 | 00:00:00 | 00:00:00 | |
| PG1ADW-2 | 2026-09-01 04:07:17 | 46.99683 | 17.08016 | 99° | 77km/h | 6819m | -3.3m/s | -18.2°C | 19.2% | 0hPa | 2.6V | 07:50:00 | 00:00:00 | 00:00:00 | |
| PETON7-10 | 2026-09-01 04:07:07 | 46.99708 | 17.07738 | 98° | 77km/h | 6854m | -3.6m/s | -18.6°C | 20.4% | 0hPa | 2.5V | 00:00:00 | 02:20:39 | 00:00:00 | |
| PG1ADW-2 | 2026-09-01 04:06:57 | 46.99734 | 17.07458 | 99° | 77km/h | 6891m | -3.2m/s | -18.8°C | 22.0% | 0hPa | 2.5V | 00:00:00 | 00:00:00 | 00:00:00 | |
| OE3JTB-15 | 2026-09-01 04:06:55 | 46.99739 | 17.07402 | 99° | 78km/h | 6898m | -3.2m/s | -18.9°C | 21.9% | 0hPa | 2.5V | 00:00:00 | 02:20:27 | 00:00:00 | |
| PETON7-10 | 2026-09-01 04:06:52 | 46.99747 | 17.07317 | 98° | 78km/h | 6908m | -3.3m/s | -18.9°C | 20.9% | 0hPa | 2.5V | 00:00:00 | 00:00:00 | 00:00:00 | |
| PETON7-10 | 2026-09-01 04:06:37 | 46.99792 | 17.06892 | 100° | 78km/h | 6959m | -3.4m/s | -19.4°C | 19.8% | 0hPa | 2.6V | 00:00:00 | 00:00:00 | 00:00:00 | |
| OE3JTB-15 | 2026-09-01 04:06:26 | 46.99827 | 17.06577 | 100° | 84km/h | 6997m | -3.3m/s | -19.7°C | 20.5% | 0hPa | 2.6V | 00:00:00 | 00:00:00 | 00:00:00 | |
| PETON7-10 | 2026-09-01 04:06:22 | 46.99841 | 17.06463 | 100° | 78km/h | 7010m | -3.4m/s | -19.9°C | 20.9% | 0hPa | 2.5V | 00:00:00 | 02:19:54 | 00:00:00 | |
| PG1ADW-2 | 2026-09-01 04:06:17 | 46.99858 | 17.06320 | 100° | 80km/h | 7027m | -3.3m/s | -20.0°C | 21.3% | 0hPa | 2.5V | 00:00:00 | 00:00:00 | 00:00:00 | |
| PETON7-10 | 2026-09-01 04:06:07 | 46.99892 | 17.06030 | 101° | 80km/h | 7062m | -3.4m/s | -20.3°C | 21.8% | 0hPa | 2.6V | 00:00:00 | 00:00:00 | 00:00:00 | |
| PG1ADW-2 | 2026-09-01 04:05:57 | 46.99927 | 17.05739 | 100° | 80km/h | 7097m | -3.3m/s | -20.6°C | 21.2% | 0hPa | 2.5V | 00:00:00 | 00:00:00 | 00:00:00 | |
| PETON7-10 | 2026-09-01 04:05:52 | 46.99945 | 17.05592 | 101° | 80km/h | 7114m | -3.5m/s | -20.7°C | 21.2% | 0hPa | 2.5V | 00:00:00 | 00:00:00 | 00:00:00 | |
| PETON7-10 | 2026-09-01 04:05:37 | 46.99996 | 17.05147 | 99° | 82km/h | 7166m | -3.4m/s | -21.2°C | 21.4% | 0hPa | 2.5V | 07:52:00 | 02:19:09 | 00:00:00 | |
| PETON7-10 | 2026-09-01 04:05:22 | 47.00046 | 17.04699 | 99° | 82km/h | 7216m | -3.4m/s | -21.6°C | 23.8% | 0hPa | 2.5V | 00:00:00 | 00:00:00 | 00:00:00 | |
| PG1ADW-2 | 2026-09-01 04:05:17 | 47.00062 | 17.04548 | 99° | 84km/h | 7234m | -3.3m/s | -21.8°C | 24.3% | 0hPa | 2.5V | 00:00:00 | 02:18:49 | 00:00:00 | |
| PETON7-10 | 2026-09-01 04:05:07 | 47.00095 | 17.04247 | 99° | 84km/h | 7266m | -3.4m/s | -22.1°C | 24.3% | 0hPa | 2.5V | 00:00:00 | 00:00:00 | 00:00:00 | |
| PG1ADW-2 | 2026-09-01 04:04:57 | 47.00127 | 17.03940 | 99° | 84km/h | 7300m | -3.4m/s | -22.3°C | 23.9% | 0hPa | 2.5V | 00:00:00 | 00:00:00 | 00:00:00 | |
| PETON7-10 | 2026-09-01 04:04:52 | 47.00143 | 17.03788 | 99° | 84km/h | 7317m | -3.5m/s | -22.5°C | 23.5% | 0hPa | 2.5V | 00:00:00 | 02:18:24 | 00:00:00 | |
| PETON7-10 | 2026-09-01 04:04:37 | 47.00190 | 17.03323 | 100° | 86km/h | 7368m | -3.1m/s | -22.9°C | 24.7% | 0hPa | 2.5V | 00:00:00 | 00:00:00 | 00:00:00 | |
| PETON7-10 | 2026-09-01 04:04:22 | 47.00238 | 17.02853 | 99° | 88km/h | 7423m | -4.0m/s | -23.4°C | 23.3% | 0hPa | 2.5V | 00:00:00 | 00:00:00 | 00:00:00 | |
| PG1ADW-2 | 2026-09-01 04:04:17 | 47.00253 | 17.02692 | 98° | 88km/h | 7441m | -3.4m/s | -23.5°C | 23.3% | 0hPa | 2.5V | 00:00:00 | 00:00:00 | 00:00:00 | |
| OE3JTB-15 | 2026-09-01 04:04:08 | 47.00282 | 17.02399 | 99° | 89km/h | 7474m | -3.9m/s | -23.7°C | 22.6% | 0hPa | 2.5V | 00:00:00 | 02:17:40 | 00:00:00 | |
| PETON7-10 | 2026-09-01 04:04:07 | 47.00286 | 17.02367 | 99° | 88km/h | 7478m | -3.4m/s | -23.8°C | 22.6% | 0hPa | 2.5V | 00:00:00 | 02:17:39 | 00:00:00 | |
| PG1ADW-2 | 2026-09-01 04:03:57 | 47.00321 | 17.02045 | 99° | 89km/h | 7515m | -3.5m/s | -23.9°C | 20.6% | 0hPa | 2.5V | 00:00:00 | 02:17:29 | 00:00:00 | |
| PETON7-10 | 2026-09-01 04:03:52 | 47.00338 | 17.01882 | 100° | 89km/h | 7533m | -3.6m/s | -24.1°C | 21.5% | 0hPa | 2.5V | 00:00:00 | 00:00:00 | 00:00:00 | |
| OE3JTB-15 | 2026-09-01 04:03:39 | 47.00383 | 17.01457 | 99° | 91km/h | 7581m | -3.9m/s | -24.5°C | 35.8% | 0hPa | 2.6V | 00:00:00 | 00:00:00 | 00:00:00 | |
| PETON7-10 | 2026-09-01 04:03:37 | 47.00390 | 17.01391 | 99° | 91km/h | 7588m | -4.1m/s | -24.5°C | 36.1% | 0hPa | 2.5V | 07:54:00 | 00:00:00 | 00:00:00 | |
| PETON7-10 | 2026-09-01 04:03:22 | 47.00445 | 17.00891 | 100° | 93km/h | 7645m | -3.8m/s | -25.0°C | 39.5% | 0hPa | 2.5V | 00:00:00 | 02:16:54 | 00:00:00 | |
| PG1ADW-2 | 2026-09-01 04:03:17 | 47.00465 | 17.00722 | 101° | 93km/h | 7663m | -2.9m/s | -25.2°C | 40.2% | 0hPa | 2.5V | 00:00:00 | 00:00:00 | 00:00:00 | |
| OE3JTB-15 | 2026-09-01 04:03:10 | 47.00492 | 17.00484 | 101° | 95km/h | 7690m | -3.7m/s | -25.4°C | 39.7% | 0hPa | 2.6V | 00:00:00 | 00:00:00 | 00:00:00 | |
| PETON7-10 | 2026-09-01 04:03:07 | 47.00504 | 17.00382 | 101° | 95km/h | 7701m | -3.8m/s | -25.5°C | 39.3% | 0hPa | 2.6V | 00:00:00 | 00:00:00 | 00:00:00 | |
| PG1ADW-2 | 2026-09-01 04:02:57 | 47.00543 | 17.00038 | 100° | 95km/h | 7739m | -3.7m/s | -25.8°C | 40.6% | 0hPa | 2.6V | 00:00:00 | 00:00:00 | 00:00:00 | |
| PETON7-10 | 2026-09-01 04:02:52 | 47.00562 | 16.99863 | 100° | 97km/h | 7757m | -3.3m/s | -26.0°C | 39.6% | 0hPa | 2.6V | 00:00:00 | 00:00:00 | 00:00:00 | |
| OE3JTB-15 | 2026-09-01 04:02:41 | 47.00605 | 16.99478 | 99° | 97km/h | 7800m | -4.2m/s | -26.3°C | 39.0% | 0hPa | 2.6V | 00:00:00 | 02:16:13 | 00:00:00 | |
| PETON7-10 | 2026-09-01 04:02:37 | 47.00620 | 16.99337 | 99° | 97km/h | 7815m | -3.2m/s | -26.4°C | 37.9% | 0hPa | 2.6V | 00:00:00 | 02:16:09 | 00:00:00 | |
| PETON7-10 | 2026-09-01 04:02:22 | 47.00677 | 16.98804 | 99° | 99km/h | 7871m | -4.5m/s | -26.9°C | 36.7% | 0hPa | 2.6V | 00:00:00 | 00:00:00 | 00:00:00 | |
| PG1ADW-2 | 2026-09-01 04:02:17 | 47.00696 | 16.98624 | 99° | 99km/h | 7890m | -3.7m/s | -27.1°C | 41.7% | 0hPa | 2.5V | 00:00:00 | 00:00:00 | 00:00:00 | |
| OE3JTB-15 | 2026-09-01 04:02:12 | 47.00716 | 16.98443 | 100° | 99km/h | 7910m | -3.9m/s | -27.2°C | 44.9% | 0hPa | 2.5V | 00:00:00 | 00:00:00 | 00:00:00 | |
| PETON7-10 | 2026-09-01 04:02:07 | 47.00737 | 16.98263 | 100° | 99km/h | 7928m | -4.0m/s | -27.4°C | 41.7% | 0hPa | 2.5V | 00:00:00 | 00:00:00 | 00:00:00 | |
| PG1ADW-2 | 2026-09-01 04:01:57 | 47.00777 | 16.97903 | 99° | 99km/h | 7967m | -4.0m/s | -27.6°C | 39.0% | 0hPa | 2.5V | 07:56:00 | 00:00:00 | 00:00:00 | |
| PETON7-10 | 2026-09-01 04:01:52 | 47.00797 | 16.97724 | 99° | 99km/h | 7986m | -4.2m/s | -27.8°C | 38.1% | 0hPa | 2.5V | 00:00:00 | 02:15:24 | 00:00:00 | |
| OE3JTB-15 | 2026-09-01 04:01:43 | 47.00829 | 16.97399 | 98° | 99km/h | 8022m | -4.1m/s | -28.1°C | 42.7% | 0hPa | 2.5V | 00:00:00 | 00:00:00 | 00:00:00 | |
| PETON7-10 | 2026-09-01 04:01:37 | 47.00850 | 16.97184 | 98° | 99km/h | 8046m | -4.2m/s | -28.3°C | 45.4% | 0hPa | 2.5V | 07:56:00 | 00:00:00 | 00:00:00 | |
| PETON7-10 | 2026-09-01 04:01:22 | 47.00898 | 16.96641 | 97° | 99km/h | 8105m | -4.0m/s | -28.5°C | 44.7% | 0hPa | 2.6V | 00:00:00 | 00:00:00 | 00:00:00 | |
| PG1ADW-2 | 2026-09-01 04:01:17 | 47.00913 | 16.96459 | 97° | 99km/h | 8124m | -3.6m/s | -28.6°C | 44.8% | 0hPa | 2.6V | 00:00:00 | 02:14:49 | 00:00:00 | |
| OE3JTB-15 | 2026-09-01 04:01:14 | 47.00922 | 16.96350 | 97° | 100km/h | 8137m | -4.4m/s | -28.7°C | 44.6% | 0hPa | 2.5V | 00:00:00 | 02:14:46 | 00:00:00 | |
| PETON7-10 | 2026-09-01 04:01:07 | 47.00943 | 16.96093 | 98° | 100km/h | 8164m | -3.4m/s | -28.9°C | 42.7% | 0hPa | 2.5V | 00:00:00 | 02:14:39 | 00:00:00 | |
| OE3OSB-13 | 2026-09-01 04:01:06 | 47.00949 | 16.96020 | 96° | 99km/h | 8172m | -3.5m/s | -29.0°C | 39.9% | -1.0hPa | 2.5V | 00:00:00 | 00:00:00 | 00:00:00 | |
| PG1ADW-2 | 2026-09-01 04:00:57 | 47.00971 | 16.95728 | 97° | 100km/h | 8204m | -3.6m/s | -29.2°C | 42.7% | 0hPa | 2.5V | 00:00:00 | 00:00:00 | 00:00:00 | |
| OE5DRO-10 | 2026-09-01 04:00:54 | 47.00980 | 16.95618 | 96° | 100km/h | 8216m | -4.3m/s | -29.2°C | 41.9% | 0hPa | 2.5V | 07:57:00 | 00:00:00 | 00:00:00 | |
| PETON7-10 | 2026-09-01 04:00:52 | 47.00985 | 16.95544 | 97° | 100km/h | 8224m | -4.1m/s | -29.3°C | 41.5% | 0hPa | 2.6V | 00:00:00 | 00:00:00 | 00:00:00 | |
| OE3JTB-15 | 2026-09-01 04:00:45 | 47.01004 | 16.95286 | 97° | 100km/h | 8252m | -3.6m/s | -29.4°C | 41.8% | 0hPa | 2.5V | 07:57:00 | 00:00:00 | 00:00:00 | |
| PETON7-10 | 2026-09-01 04:00:37 | 47.01026 | 16.94992 | 96° | 100km/h | 8284m | -4.2m/s | -29.6°C | 39.3% | 0hPa | 2.5V | 00:00:00 | 00:00:00 | 00:00:00 | |
| OE5DRO-10 | 2026-09-01 04:00:33 | 47.01036 | 16.94845 | 96° | 100km/h | 8301m | -4.5m/s | -29.8°C | 39.1% | 0hPa | 2.5V | 00:00:00 | 00:00:00 | 00:00:00 | |
| PETON7-10 | 2026-09-01 04:00:22 | 47.01060 | 16.94440 | 96° | 100km/h | 8347m | -3.8m/s | -30.1°C | 42.0% | 0hPa | 2.5V | 00:00:00 | 02:13:54 | 00:00:00 | |
| OE3JTB-15 | 2026-09-01 04:00:16 | 47.01073 | 16.94218 | 96° | 100km/h | 8372m | -4.4m/s | -30.3°C | 39.5% | 0hPa | 2.5V | 00:00:00 | 00:00:00 | 00:00:00 | |
| OE5DRO-10 | 2026-09-01 04:00:14 | 47.01078 | 16.94143 | 95° | 100km/h | 8380m | -4.1m/s | -30.3°C | 38.5% | 0hPa | 2.5V | 00:00:00 | 00:00:00 | 00:00:00 | |
| PETON7-10 | 2026-09-01 04:00:07 | 47.01093 | 16.93882 | 95° | 100km/h | 8409m | -4.1m/s | -30.4°C | 35.0% | 0hPa | 2.5V | 00:00:00 | 00:00:00 | 00:00:00 | |
| OE3OSB-13 | 2026-09-01 04:00:03 | 47.01102 | 16.93733 | 94° | 100km/h | 8426m | -4.5m/s | -30.5°C | 30.2% | -1.0hPa | 2.5V | 00:00:00 | 00:00:00 | 00:00:00 | |
| PG1ADW-2 | 2026-09-01 03:59:57 | 47.01112 | 16.93510 | 94° | 99km/h | 8452m | -4.6m/s | -30.7°C | 32.3% | 0hPa | 2.5V | 00:00:00 | 02:13:29 | 00:00:00 | |
| OE5DRO-10 | 2026-09-01 03:59:55 | 47.01115 | 16.93436 | 94° | 99km/h | 8461m | -3.8m/s | -30.7°C | 31.8% | 0hPa | 2.5V | 00:00:00 | 00:00:00 | 00:00:00 | |
| PETON7-10 | 2026-09-01 03:59:52 | 47.01120 | 16.93325 | 95° | 99km/h | 8473m | -4.4m/s | -30.8°C | 31.1% | 0hPa | 2.6V | 00:00:00 | 00:00:00 | 00:00:00 | |
| OE3JTB-15 | 2026-09-01 03:59:47 | 47.01128 | 16.93140 | 94° | 99km/h | 8494m | -3.5m/s | -31.0°C | 31.7% | 0hPa | 2.6V | 00:00:00 | 02:13:19 | 00:00:00 | |
| PETON7-10 | 2026-09-01 03:59:37 | 47.01143 | 16.92777 | 94° | 99km/h | 8536m | -4.2m/s | -31.3°C | 30.4% | 0hPa | 2.6V | 07:58:00 | 02:13:09 | 00:00:00 | |
| PETON7-10 | 2026-09-01 03:59:22 | 47.01169 | 16.92233 | 95° | 99km/h | 8601m | -4.5m/s | -31.7°C | 28.7% | 0hPa | 2.6V | 00:00:00 | 00:00:00 | 00:00:00 | |
| OE3JTB-15 | 2026-09-01 03:59:18 | 47.01176 | 16.92089 | 95° | 99km/h | 8618m | -4.5m/s | -31.9°C | 28.9% | 0hPa | 2.5V | 00:00:00 | 00:00:00 | 00:00:00 | |
| PG1ADW-2 | 2026-09-01 03:59:17 | 47.01178 | 16.92053 | 95° | 99km/h | 8622m | -4.0m/s | -31.9°C | 28.7% | 0hPa | 2.6V | 07:58:00 | 00:00:00 | 00:00:00 | |
| PETON7-10 | 2026-09-01 03:59:07 | 47.01195 | 16.91691 | 94° | 99km/h | 8667m | -4.2m/s | -32.3°C | 27.9% | 0hPa | 2.5V | 00:00:00 | 00:00:00 | 00:00:00 | |
| OE5DRO-10 | 2026-09-01 03:58:59 | 47.01209 | 16.91401 | 95° | 99km/h | 8702m | -4.5m/s | -32.6°C | 27.2% | 0hPa | 2.5V | 00:00:00 | 00:00:00 | 00:00:00 | |
| PG1ADW-2 | 2026-09-01 03:58:57 | 47.01213 | 16.91328 | 94° | 99km/h | 8711m | -4.3m/s | -32.7°C | 27.4% | 0hPa | 2.5V | 00:00:00 | 00:00:00 | 00:00:00 | |
| PETON7-10 | 2026-09-01 03:58:52 | 47.01221 | 16.91145 | 95° | 99km/h | 8734m | -4.5m/s | -32.9°C | 27.4% | 0hPa | 2.5V | 00:00:00 | 02:12:24 | 00:00:00 | |
| OE3JTB-15 | 2026-09-01 03:58:49 | 47.01226 | 16.91036 | 95° | 99km/h | 8747m | -4.2m/s | -33.0°C | 27.0% | 0hPa | 2.5V | 00:00:00 | 00:00:00 | 00:00:00 | |
| OE5DRO-10 | 2026-09-01 03:58:40 | 47.01242 | 16.90707 | 94° | 99km/h | 8786m | -4.3m/s | -33.4°C | 27.7% | 0hPa | 2.5V | 00:00:00 | 00:00:00 | 00:00:00 | |
| PG1ADW-2 | 2026-09-01 03:58:37 | 47.01246 | 16.90597 | 94° | 99km/h | 8799m | -4.2m/s | -33.5°C | 28.0% | 0hPa | 2.5V | 00:00:00 | 02:12:09 | 00:00:00 | |
| PETON7-10 | 2026-09-01 03:58:22 | 47.01267 | 16.90048 | 94° | 100km/h | 8865m | -3.8m/s | -34.1°C | 28.0% | 0hPa | 2.5V | 00:00:00 | 00:00:00 | 00:00:00 | |
| OE5DRO-10 | 2026-09-01 03:58:21 | 47.01268 | 16.90011 | 95° | 100km/h | 8869m | -3.8m/s | -34.2°C | 28.1% | 0hPa | 2.5V | 00:00:00 | 00:00:00 | 00:00:00 | |
| PG1ADW-2 | 2026-09-01 03:58:17 | 47.01275 | 16.89864 | 94° | 100km/h | 8886m | -3.9m/s | -34.3°C | 28.1% | 0hPa | 2.6V | 00:00:00 | 00:00:00 | 00:00:00 | |
| PETON7-10 | 2026-09-01 03:58:07 | 47.01290 | 16.89497 | 94° | 100km/h | 8930m | -4.6m/s | -34.7°C | 27.6% | 0hPa | 2.6V | 00:00:00 | 02:11:39 | 00:00:00 | |
| OE5DRO-10 | 2026-09-01 03:58:02 | 47.01299 | 16.89312 | 94° | 100km/h | 8954m | -4.1m/s | -34.9°C | 27.9% | 0hPa | 2.6V | 00:00:00 | 00:00:00 | 00:00:00 | |
| PG1ADW-2 | 2026-09-01 03:57:57 | 47.01309 | 16.89127 | 95° | 102km/h | 8975m | -4.3m/s | -35.1°C | 28.3% | 0hPa | 2.6V | 00:00:00 | 00:00:00 | 00:00:00 | |
| PETON7-10 | 2026-09-01 03:57:52 | 47.01319 | 16.88941 | 95° | 102km/h | 8996m | -4.8m/s | -35.3°C | 27.9% | 0hPa | 2.6V | 00:00:00 | 00:00:00 | 00:00:00 | |
| PETON7-10 | 2026-09-01 03:57:37 | 47.01353 | 16.88379 | 96° | 102km/h | 9067m | -4.8m/s | -35.8°C | 27.3% | 0hPa | 2.5V | 00:00:00 | 00:00:00 | 00:00:00 | |
| OE5DRO-10 | 2026-09-01 03:57:24 | 47.01382 | 16.87892 | 95° | 100km/h | 9126m | -4.7m/s | -36.2°C | 24.5% | 0hPa | 2.5V | 08:00:00 | 00:00:00 | 00:00:00 | |
| PETON7-10 | 2026-09-01 03:57:22 | 47.01386 | 16.87818 | 95° | 100km/h | 9135m | -4.2m/s | -36.3°C | 24.3% | 0hPa | 2.5V | 00:00:00 | 02:10:54 | 00:00:00 | |
| PG1ADW-2 | 2026-09-01 03:57:17 | 47.01396 | 16.87631 | 95° | 100km/h | 9158m | -4.1m/s | -36.4°C | 22.8% | 0hPa | 2.5V | 00:00:00 | 02:10:49 | 00:00:00 | |
| PETON7-10 | 2026-09-01 03:57:07 | 47.01414 | 16.87260 | 94° | 99km/h | 9205m | -4.9m/s | -36.8°C | 22.1% | 0hPa | 2.5V | 08:00:00 | 00:00:00 | 00:00:00 | |
| OE5DRO-10 | 2026-09-01 03:57:05 | 47.01417 | 16.87186 | 94° | 99km/h | 9215m | -4.9m/s | -36.8°C | 22.2% | 0hPa | 2.6V | 00:00:00 | 00:00:00 | 00:00:00 | |
| PG1ADW-2 | 2026-09-01 03:56:57 | 47.01428 | 16.86893 | 94° | 99km/h | 9254m | -4.7m/s | -37.2°C | 22.6% | 0hPa | 2.6V | 00:00:00 | 00:00:00 | 00:00:00 | |
| PETON7-10 | 2026-09-01 03:56:52 | 47.01435 | 16.86710 | 93° | 99km/h | 9277m | -4.6m/s | -37.4°C | 23.0% | 0hPa | 2.6V | 00:00:00 | 00:00:00 | 00:00:00 | |
| OE5DRO-10 | 2026-09-01 03:56:38 | 47.01452 | 16.86198 | 92° | 99km/h | 9342m | -4.5m/s | -38.0°C | 24.2% | 0hPa | 2.6V | 00:00:00 | 00:00:00 | 00:00:00 | |
| PETON7-10 | 2026-09-01 03:56:37 | 47.01453 | 16.86162 | 93° | 99km/h | 9346m | -3.9m/s | -38.1°C | 24.2% | 0hPa | 2.6V | 00:00:00 | 02:10:09 | 00:00:00 | |
| OE3JTB-15 | 2026-09-01 03:56:34 | 47.01456 | 16.86053 | 92° | 99km/h | 9359m | -4.9m/s | -38.2°C | 24.4% | 0hPa | 2.6V | 08:01:00 | 00:00:00 | 00:00:00 | |
| PETON7-10 | 2026-09-01 03:56:22 | 47.01462 | 16.85616 | 91° | 97km/h | 9416m | -4.6m/s | -38.7°C | 25.1% | 0hPa | 2.5V | 00:00:00 | 00:00:00 | 00:00:00 | |
| OE5DRO-10 | 2026-09-01 03:56:19 | 47.01463 | 16.85507 | 90° | 97km/h | 9431m | -4.5m/s | -38.9°C | 25.3% | 0hPa | 2.6V | 00:00:00 | 00:00:00 | 00:00:00 | |
| PG1ADW-2 | 2026-09-01 03:56:17 | 47.01463 | 16.85435 | 90° | 97km/h | 9440m | -4.8m/s | -39.0°C | 25.4% | 0hPa | 2.5V | 00:00:00 | 00:00:00 | 00:00:00 | |
| PETON7-10 | 2026-09-01 03:56:07 | 47.01465 | 16.85075 | 91° | 97km/h | 9484m | -4.6m/s | -39.4°C | 25.4% | 0hPa | 2.5V | 00:00:00 | 00:00:00 | 00:00:00 | |
| OE3JTB-15 | 2026-09-01 03:56:05 | 47.01466 | 16.85003 | 91° | 95km/h | 9494m | -4.8m/s | -39.5°C | 25.1% | 0hPa | 2.5V | 00:00:00 | 00:00:00 | 00:00:00 | |
| OE5DRO-10 | 2026-09-01 03:56:00 | 47.01466 | 16.84825 | 90° | 95km/h | 9519m | -4.4m/s | -39.6°C | 24.4% | 0hPa | 2.5V | 00:00:00 | 00:00:00 | 00:00:00 | |
| PG1ADW-2 | 2026-09-01 03:55:57 | 47.01466 | 16.84718 | 91° | 95km/h | 9533m | -4.9m/s | -39.7°C | 24.1% | 0hPa | 2.5V | 00:00:00 | 02:09:29 | 00:00:00 | |
| PETON7-10 | 2026-09-01 03:55:52 | 47.01466 | 16.84542 | 91° | 95km/h | 9557m | -4.5m/s | -39.9°C | 23.6% | 0hPa | 2.5V | 00:00:00 | 02:09:24 | 00:00:00 | |
| OE5DRO-10 | 2026-09-01 03:55:41 | 47.01470 | 16.84155 | 92° | 95km/h | 9607m | -4.4m/s | -40.3°C | 24.4% | 0hPa | 2.5V | 00:00:00 | 00:00:00 | 00:00:00 | |
| PG1ADW-2 | 2026-09-01 03:55:38 | 47.01472 | 16.84015 | 92° | 95km/h | 9626m | -4.4m/s | -40.4°C | 25.2% | 0hPa | 2.5V | 00:00:00 | 00:00:00 | 00:00:00 | |
| PETON7-10 | 2026-09-01 03:55:37 | 47.01472 | 16.84015 | 92° | 95km/h | 9626m | -4.4m/s | -40.4°C | 25.2% | 0hPa | 2.5V | 00:00:00 | 00:00:00 | 00:00:00 | |
| OE3JTB-15 | 2026-09-01 03:55:36 | 47.01473 | 16.83980 | 93° | 95km/h | 9630m | -4.6m/s | -40.4°C | 24.9% | 0hPa | 2.6V | 00:00:00 | 02:09:08 | 00:00:00 | |
| PETON7-10 | 2026-09-01 03:55:22 | 47.01481 | 16.83492 | 92° | 95km/h | 9694m | -4.3m/s | -40.9°C | 25.8% | 0hPa | 2.6V | 00:00:00 | 00:00:00 | 00:00:00 | |
| PG1ADW-2 | 2026-09-01 03:55:17 | 47.01484 | 16.83318 | 92° | 93km/h | 9718m | -4.3m/s | -41.1°C | 26.0% | 0hPa | 2.6V | 08:02:00 | 00:00:00 | 00:00:00 | |
| OE3JTB-15 | 2026-09-01 03:55:07 | 47.01490 | 16.82971 | 91° | 95km/h | 9763m | -4.8m/s | -41.6°C | 26.0% | 0hPa | 2.6V | 00:00:00 | 00:00:00 | 00:00:00 | |
| OE5DRO-10 | 2026-09-01 03:55:03 | 47.01492 | 16.82832 | 93° | 95km/h | 9780m | -4.2m/s | -41.7°C | 26.1% | 0hPa | 2.5V | 00:00:00 | 00:00:00 | 00:00:00 | |
| PG1ADW-2 | 2026-09-01 03:54:57 | 47.01498 | 16.82623 | 93° | 95km/h | 9808m | -4.3m/s | -42.0°C | 26.5% | 0hPa | 2.5V | 00:00:00 | 00:00:00 | 00:00:00 | |
| PETON7-10 | 2026-09-01 03:54:52 | 47.01504 | 16.82448 | 93° | 95km/h | 9831m | -4.9m/s | -42.2°C | 26.6% | 0hPa | 2.5V | 08:03:00 | 00:00:00 | 00:00:00 | |
| OE5DRO-10 | 2026-09-01 03:54:44 | 47.01515 | 16.82166 | 95° | 95km/h | 9868m | -4.3m/s | -42.4°C | 24.9% | 0hPa | 2.6V | 00:00:00 | 00:00:00 | 00:00:00 | |
| OE3JTB-15 | 2026-09-01 03:54:38 | 47.01525 | 16.81953 | 94° | 95km/h | 9895m | -4.4m/s | -42.6°C | 25.5% | 0hPa | 2.6V | 00:00:00 | 00:00:00 | 00:00:00 | |
| PETON7-10 | 2026-09-01 03:54:37 | 47.01526 | 16.81918 | 95° | 95km/h | 9900m | -5.1m/s | -42.7°C | 25.5% | 0hPa | 2.6V | 00:00:00 | 00:00:00 | 00:00:00 | |
| OE5DRO-10 | 2026-09-01 03:54:25 | 47.01549 | 16.81496 | 95° | 95km/h | 9955m | -4.5m/s | -43.0°C | 24.4% | 0hPa | 2.6V | 08:03:00 | 00:00:00 | 00:00:00 | |
| PETON7-10 | 2026-09-01 03:54:22 | 47.01555 | 16.81391 | 95° | 95km/h | 9969m | -4.5m/s | -43.1°C | 24.7% | 0hPa | 2.5V | 00:00:00 | 02:07:54 | 00:00:00 | |
| PG1ADW-2 | 2026-09-01 03:54:17 | 47.01564 | 16.81216 | 96° | 95km/h | 9992m | -4.5m/s | -43.3°C | 25.5% | 0hPa | 2.5V | 00:00:00 | 00:00:00 | 00:00:00 | |
| OE3JTB-15 | 2026-09-01 03:54:09 | 47.01580 | 16.80935 | 95° | 95km/h | 10029m | -4.5m/s | -43.7°C | 26.7% | 0hPa | 2.6V | 00:00:00 | 02:07:41 | 00:00:00 | |
| PETON7-10 | 2026-09-01 03:54:07 | 47.01585 | 16.80865 | 96° | 95km/h | 10039m | -4.5m/s | -43.7°C | 27.0% | 0hPa | 2.6V | 00:00:00 | 00:00:00 | 00:00:00 | |
| OE5DRO-10 | 2026-09-01 03:54:06 | 47.01587 | 16.80830 | 96° | 95km/h | 10043m | -4.6m/s | -43.8°C | 27.0% | 0hPa | 2.5V | 00:00:00 | 00:00:00 | 00:00:00 | |
| PG1ADW-2 | 2026-09-01 03:53:57 | 47.01610 | 16.80516 | 96° | 95km/h | 10085m | -4.5m/s | -44.2°C | 28.8% | 0hPa | 2.5V | 00:00:00 | 00:00:00 | 00:00:00 | |
| PETON7-10 | 2026-09-01 03:53:52 | 47.01623 | 16.80340 | 97° | 95km/h | 10107m | -4.3m/s | -44.4°C | 30.4% | 0hPa | 2.5V | 00:00:00 | 00:00:00 | 00:00:00 | |
| OE5DRO-10 | 2026-09-01 03:53:47 | 47.01636 | 16.80166 | 96° | 95km/h | 10130m | -4.8m/s | -44.6°C | 32.0% | 0hPa | 2.5V | 00:00:00 | 00:00:00 | 00:00:00 | |
| OE3JTB-15 | 2026-09-01 03:53:40 | 47.01655 | 16.79920 | 96° | 93km/h | 10163m | -4.5m/s | -44.9°C | 33.1% | 0hPa | 2.5V | 00:00:00 | 00:00:00 | 00:00:00 | |
| PETON7-10 | 2026-09-01 03:53:37 | 47.01662 | 16.79815 | 97° | 95km/h | 10176m | -4.7m/s | -45.0°C | 33.0% | 0hPa | 2.6V | 00:00:00 | 02:07:09 | 00:00:00 | |
| OE5DXL-15 | 2026-09-01 03:53:32 | 47.01674 | 16.79640 | 97° | 93km/h | 10200m | -4.4m/s | -45.3°C | 32.6% | 0hPa | 2.6V | 00:00:00 | 00:00:00 | 00:00:00 | |
| OE5DRO-10 | 2026-09-01 03:53:28 | 47.01682 | 16.79501 | 95° | 93km/h | 10218m | -4.8m/s | -45.4°C | 33.3% | 0hPa | 2.6V | 00:00:00 | 00:00:00 | 00:00:00 | |
| PETON7-10 | 2026-09-01 03:53:22 | 47.01693 | 16.79294 | 94° | 93km/h | 10245m | -5.0m/s | -45.7°C | 33.4% | 0hPa | 2.5V | 00:00:00 | 00:00:00 | 00:00:00 | |
| PG1ADW-2 | 2026-09-01 03:53:17 | 47.01700 | 16.79122 | 94° | 93km/h | 10268m | -4.2m/s | -45.9°C | 33.5% | 0hPa | 2.5V | 00:00:00 | 02:06:49 | 00:00:00 | |
| OE3JTB-15 | 2026-09-01 03:53:11 | 47.01708 | 16.78917 | 93° | 93km/h | 10296m | -4.6m/s | -46.1°C | 34.3% | 0hPa | 2.5V | 00:00:00 | 00:00:00 | 00:00:00 | |
| OE5DRO-10 | 2026-09-01 03:53:09 | 47.01710 | 16.78849 | 93° | 93km/h | 10305m | -4.2m/s | -46.2°C | 34.6% | 0hPa | 2.5V | 00:00:00 | 00:00:00 | 00:00:00 | |
| PETON7-10 | 2026-09-01 03:53:07 | 47.01711 | 16.78781 | 93° | 93km/h | 10314m | -3.9m/s | -46.3°C | 34.8% | 0hPa | 2.5V | 00:00:00 | 00:00:00 | 00:00:00 | |
| PG1ADW-2 | 2026-09-01 03:52:57 | 47.01714 | 16.78439 | 90° | 93km/h | 10358m | -4.6m/s | -46.7°C | 34.8% | 0hPa | 2.5V | 00:00:00 | 00:00:00 | 00:00:00 | |
| OE5DXL-15 | 2026-09-01 03:52:54 | 47.01714 | 16.78336 | 90° | 95km/h | 10371m | -4.2m/s | -46.8°C | 34.5% | 0hPa | 2.5V | 08:05:00 | 00:00:00 | 00:00:00 | |
| PETON7-10 | 2026-09-01 03:52:52 | 47.01713 | 16.78267 | 90° | 95km/h | 10380m | -4.3m/s | -46.8°C | 34.0% | 0hPa | 2.6V | 00:00:00 | 02:06:24 | 00:00:00 | |
| OE5DRO-10 | 2026-09-01 03:52:50 | 47.01712 | 16.78198 | 89° | 95km/h | 10389m | -4.4m/s | -46.8°C | 33.3% | 0hPa | 2.6V | 00:00:00 | 00:00:00 | 00:00:00 | |
| OE3JTB-15 | 2026-09-01 03:52:42 | 47.01709 | 16.77919 | 90° | 95km/h | 10426m | -4.6m/s | -47.1°C | 33.0% | 0hPa | 2.6V | 00:00:00 | 02:06:14 | 00:00:00 | |
| PETON7-10 | 2026-09-01 03:52:37 | 47.01707 | 16.77744 | 90° | 95km/h | 10448m | -4.5m/s | -47.2°C | 32.5% | 0hPa | 2.6V | 08:05:00 | 00:00:00 | 00:00:00 | |
| OE5DRO-10 | 2026-09-01 03:52:31 | 47.01701 | 16.77532 | 87° | 95km/h | 10476m | -5.0m/s | -47.5°C | 31.3% | 0hPa | 2.5V | 00:00:00 | 00:00:00 | 00:00:00 | |
| OE5DXL-15 | 2026-09-01 03:52:24 | 47.01690 | 16.77283 | 88° | 95km/h | 10511m | -4.9m/s | -47.7°C | 29.2% | 0hPa | 2.5V | 00:00:00 | 00:00:00 | 00:00:00 | |
| PETON7-10 | 2026-09-01 03:52:22 | 47.01687 | 16.77213 | 86° | 95km/h | 10521m | -4.8m/s | -47.8°C | 28.9% | 0hPa | 2.5V | 00:00:00 | 00:00:00 | 00:00:00 | |
| PG1ADW-2 | 2026-09-01 03:52:17 | 47.01678 | 16.77037 | 86° | 95km/h | 10547m | -5.1m/s | -48.0°C | 28.4% | 0hPa | 2.5V | 08:05:00 | 00:00:00 | 00:00:00 | |
| OE3JTB-15 | 2026-09-01 03:52:13 | 47.01670 | 16.76896 | 86° | 95km/h | 10567m | -5.1m/s | -48.2°C | 28.2% | 0hPa | 2.6V | 08:05:00 | 00:00:00 | 00:00:00 | |
| OE5DRO-10 | 2026-09-01 03:52:12 | 47.01668 | 16.76861 | 86° | 95km/h | 10572m | -5.3m/s | -48.2°C | 28.2% | 0hPa | 2.6V | 00:00:00 | 00:00:00 | 00:00:00 | |
| PETON7-10 | 2026-09-01 03:52:07 | 47.01660 | 16.76686 | 85° | 95km/h | 10598m | -5.1m/s | -48.5°C | 28.9% | 0hPa | 2.6V | 00:00:00 | 02:05:39 | 00:00:00 | |
| OE5DXL-15 | 2026-09-01 03:51:54 | 47.01630 | 16.76233 | 84° | 97km/h | 10665m | -5.3m/s | -49.1°C | 29.5% | 0hPa | 2.6V | 00:00:00 | 00:00:00 | 00:00:00 | |
| OE5DRO-10 | 2026-09-01 03:51:53 | 47.01627 | 16.76199 | 84° | 95km/h | 10670m | -5.3m/s | -49.2°C | 29.5% | 0hPa | 2.6V | 00:00:00 | 00:00:00 | 00:00:00 | |
| PETON7-10 | 2026-09-01 03:51:52 | 47.01624 | 16.76164 | 83° | 95km/h | 10675m | -4.7m/s | -49.2°C | 29.4% | 0hPa | 2.6V | 00:00:00 | 00:00:00 | 00:00:00 | |
| OE3JTB-15 | 2026-09-01 03:51:44 | 47.01604 | 16.75883 | 84° | 97km/h | 10715m | -4.8m/s | -49.5°C | 27.4% | 0hPa | 2.6V | 00:00:00 | 00:00:00 | 00:00:00 | |
| PG1ADW-2 | 2026-09-01 03:51:37 | 47.01586 | 16.75636 | 84° | 97km/h | 10751m | -5.3m/s | -49.5°C | 25.3% | 0hPa | 2.6V | 00:00:00 | 00:00:00 | 00:00:00 | |
| PETON7-10 | 2026-09-01 03:51:36 | 47.01584 | 16.75601 | 85° | 97km/h | 10756m | -5.2m/s | -49.5°C | 25.3% | 0hPa | 2.6V | 00:00:00 | 00:00:00 | 00:00:00 | |
| OE5DRO-10 | 2026-09-01 03:51:34 | 47.01579 | 16.75529 | 85° | 97km/h | 10766m | -4.8m/s | -49.6°C | 25.0% | 0hPa | 2.6V | 08:06:00 | 00:00:00 | 00:00:00 | |
| OE5DXL-15 | 2026-09-01 03:51:23 | 47.01558 | 16.75136 | 86° | 99km/h | 10823m | -5.5m/s | -50.0°C | 25.0% | 0hPa | 2.6V | 00:00:00 | 00:00:00 | 00:00:00 | |
| PETON7-10 | 2026-09-01 03:51:21 | 47.01553 | 16.75064 | 86° | 99km/h | 10834m | -5.2m/s | -50.0°C | 25.0% | 0hPa | 2.5V | 00:00:00 | 02:04:53 | 00:00:00 | |
| OE5DRO-10 | 2026-09-01 03:51:15 | 47.01542 | 16.74849 | 86° | 99km/h | 10866m | -4.8m/s | -50.3°C | 25.4% | 0hPa | 2.5V | 00:00:00 | 00:00:00 | 00:00:00 | |
| PETON7-10 | 2026-09-01 03:51:06 | 47.01527 | 16.74523 | 88° | 99km/h | 10912m | -5.0m/s | -50.7°C | 26.2% | 0hPa | 2.5V | 00:00:00 | 00:00:00 | 00:00:00 | |
| PG1ADW-2 | 2026-09-01 03:50:57 | 47.01514 | 16.74199 | 87° | 99km/h | 10960m | -5.3m/s | -51.1°C | 26.9% | 0hPa | 2.6V | 00:00:00 | 00:00:00 | 00:00:00 | |
| OE5DRO-10 | 2026-09-01 03:50:56 | 47.01513 | 16.74163 | 87° | 99km/h | 10965m | -5.1m/s | -51.2°C | 26.9% | 0hPa | 2.6V | 00:00:00 | 00:00:00 | 00:00:00 | |
| OE5DXL-15 | 2026-09-01 03:50:53 | 47.01509 | 16.74054 | 88° | 99km/h | 10980m | -5.3m/s | -51.3°C | 27.4% | 0hPa | 2.6V | 00:00:00 | 00:00:00 | 00:00:00 | |
| PETON7-10 | 2026-09-01 03:50:51 | 47.01507 | 16.73982 | 89° | 99km/h | 10991m | -5.1m/s | -51.4°C | 27.6% | 0hPa | 2.6V | 00:00:00 | 00:00:00 | 00:00:00 | |
| OE3JTB-15 | 2026-09-01 03:50:46 | 47.01502 | 16.73801 | 89° | 99km/h | 11017m | -5.3m/s | -51.6°C | 28.0% | 0hPa | 2.6V | 00:00:00 | 00:00:00 | 00:00:00 | |
| OE5DRO-10 | 2026-09-01 03:50:37 | 47.01496 | 16.73475 | 90° | 99km/h | 11064m | -4.9m/s | -52.1°C | 28.8% | 0hPa | 2.5V | 00:00:00 | 00:00:00 | 00:00:00 | |
| PETON7-10 | 2026-09-01 03:50:36 | 47.01496 | 16.73439 | 90° | 99km/h | 11069m | -5.5m/s | -52.1°C | 28.9% | 0hPa | 2.5V | 00:00:00 | 02:04:08 | 00:00:00 | |
| OE5DXL-15 | 2026-09-01 03:50:23 | 47.01496 | 16.72969 | 91° | 100km/h | 11140m | -5.4m/s | -52.7°C | 30.4% | 0hPa | 2.5V | 00:00:00 | 00:00:00 | 00:00:00 | |
| PETON7-10 | 2026-09-01 03:50:21 | 47.01496 | 16.72897 | 91° | 99km/h | 11151m | -5.0m/s | -52.8°C | 30.7% | 0hPa | 2.5V | 08:07:00 | 00:00:00 | 00:00:00 | |
| PG1ADW-2 | 2026-09-01 03:50:17 | 47.01497 | 16.72751 | 91° | 100km/h | 11172m | -5.3m/s | -53.0°C | 31.2% | 0hPa | 2.5V | 00:00:00 | 00:00:00 | 00:00:00 | |
| PETON7-10 | 2026-09-01 03:50:06 | 47.01499 | 16.72347 | 91° | 102km/h | 11231m | -5.7m/s | -53.5°C | 32.1% | 0hPa | 2.5V | 00:00:00 | 00:00:00 | 00:00:00 | |
| OE5DRO-10 | 2026-09-01 03:49:59 | 47.01498 | 16.72085 | 90° | 102km/h | 11269m | -5.3m/s | -53.7°C | 32.8% | 0hPa | 2.5V | 00:00:00 | 00:00:00 | 00:00:00 | |
| PG1ADW-2 | 2026-09-01 03:49:57 | 47.01497 | 16.72010 | 89° | 102km/h | 11279m | -5.6m/s | -53.8°C | 33.0% | 0hPa | 2.5V | 00:00:00 | 00:00:00 | 00:00:00 | |
| OE5DXL-15 | 2026-09-01 03:49:53 | 47.01495 | 16.71858 | 90° | 104km/h | 11301m | -5.2m/s | -54.0°C | 33.4% | 0hPa | 2.5V | 00:00:00 | 00:00:00 | 00:00:00 | |
| PETON7-10 | 2026-09-01 03:49:51 | 47.01495 | 16.71782 | 90° | 102km/h | 11312m | -5.3m/s | -54.2°C | 33.5% | 0hPa | 2.6V | 00:00:00 | 02:03:23 | 00:00:00 | |
| OE3JTB-15 | 2026-09-01 03:49:48 | 47.01493 | 16.71669 | 89° | 106km/h | 11328m | -5.7m/s | -54.3°C | 34.0% | 0hPa | 2.6V | 00:00:00 | 02:03:20 | 00:00:00 | |
| OE5DRO-10 | 2026-09-01 03:49:40 | 47.01486 | 16.71363 | 89° | 106km/h | 11371m | -5.4m/s | -54.7°C | 34.6% | 0hPa | 2.6V | 00:00:00 | 00:00:00 | 00:00:00 | |
| PG1ADW-2 | 2026-09-01 03:49:37 | 47.01483 | 16.71248 | 88° | 106km/h | 11388m | -5.6m/s | -54.9°C | 34.8% | 0hPa | 2.5V | 00:00:00 | 00:00:00 | 00:00:00 | |
| PETON7-10 | 2026-09-01 03:49:36 | 47.01482 | 16.71209 | 88° | 106km/h | 11393m | -5.5m/s | -54.9°C | 34.9% | 0hPa | 2.5V | 00:00:00 | 00:00:00 | 00:00:00 | |
| OE5DXL-15 | 2026-09-01 03:49:23 | 47.01468 | 16.70701 | 89° | 110km/h | 11464m | -5.6m/s | 0°C | 0% | 0hPa | 2.5V | 00:00:00 | 00:00:00 | 00:00:00 | |
| OE3JTB-15 | 2026-09-01 03:49:19 | 47.01466 | 16.70540 | 90° | 110km/h | 11485m | -5.1m/s | -55.7°C | 35.3% | 0hPa | 2.5V | 00:00:00 | 00:00:00 | 00:00:00 | |
| PG1ADW-2 | 2026-09-01 03:49:17 | 47.01465 | 16.70460 | 90° | 110km/h | 11496m | -5.3m/s | -55.8°C | 34.9% | 0hPa | 2.6V | 08:08:00 | 02:02:49 | 00:00:00 | |
| PETON7-10 | 2026-09-01 03:49:06 | 47.01470 | 16.70010 | 93° | 110km/h | 11555m | -5.5m/s | -55.8°C | 33.8% | 0hPa | 2.6V | 00:00:00 | 02:02:38 | 00:00:00 | |
| OE5DRO-10 | 2026-09-01 03:49:02 | 47.01475 | 16.69846 | 92° | 110km/h | 11577m | -5.3m/s | -55.8°C | 33.4% | 0hPa | 2.6V | 00:00:00 | 00:00:00 | 00:00:00 | |
| PG1ADW-2 | 2026-09-01 03:48:57 | 47.01480 | 16.69643 | 93° | 110km/h | 11606m | -5.7m/s | -55.8°C | 33.3% | 0hPa | 2.6V | 00:00:00 | 00:00:00 | 00:00:00 | |
| OE5DXL-15 | 2026-09-01 03:48:53 | 47.01486 | 16.69481 | 94° | 110km/h | 11628m | -5.4m/s | -55.9°C | 33.2% | 0hPa | 2.6V | 00:00:00 | 00:00:00 | 00:00:00 | |
| PETON7-10 | 2026-09-01 03:48:51 | 47.01489 | 16.69399 | 95° | 110km/h | 11639m | -5.5m/s | -56.0°C | 33.2% | 0hPa | 2.6V | 00:00:00 | 00:00:00 | 00:00:00 | |
| OE3JTB-15 | 2026-09-01 03:48:50 | 47.01491 | 16.69358 | 95° | 110km/h | 11645m | -5.7m/s | -56.0°C | 33.3% | 0hPa | 2.5V | 00:00:00 | 00:00:00 | 00:00:00 | |
| OE5DRO-10 | 2026-09-01 03:48:43 | 47.01507 | 16.69076 | 96° | 110km/h | 11684m | -5.4m/s | -56.3°C | 33.3% | 0hPa | 2.5V | 08:09:00 | 00:00:00 | 00:00:00 | |
| PG1ADW-2 | 2026-09-01 03:48:37 | 47.01523 | 16.68836 | 96° | 110km/h | 11718m | -5.8m/s | -56.6°C | 33.4% | 0hPa | 2.5V | 00:00:00 | 00:00:00 | 00:00:00 | |
| PETON7-10 | 2026-09-01 03:48:36 | 47.01526 | 16.68795 | 96° | 110km/h | 11724m | -5.6m/s | -56.6°C | 33.4% | 0hPa | 2.5V | 00:00:00 | 00:00:00 | 00:00:00 | |
| OE5DRO-10 | 2026-09-01 03:48:24 | 47.01555 | 16.68310 | 96° | 111km/h | 11792m | -5.8m/s | -56.7°C | 31.7% | 0hPa | 2.5V | 00:00:00 | 00:00:00 | 00:00:00 | |
| OE5DXL-15 | 2026-09-01 03:48:23 | 47.01558 | 16.68270 | 97° | 113km/h | 11798m | -5.9m/s | -56.6°C | 31.5% | 0hPa | 2.5V | 08:09:00 | 00:00:00 | 00:00:00 | |
| PETON7-10 | 2026-09-01 03:48:21 | 47.01564 | 16.68189 | 97° | 113km/h | 11810m | -5.8m/s | -56.6°C | 31.1% | 0hPa | 2.5V | 00:00:00 | 02:01:53 | 00:00:00 | |
| PG1ADW-2 | 2026-09-01 03:48:17 | 47.01574 | 16.68026 | 95° | 113km/h | 11833m | -6.1m/s | -56.7°C | 30.4% | 0hPa | 2.5V | 00:00:00 | 00:00:00 | 00:00:00 | |
| PETON7-10 | 2026-09-01 03:48:06 | 47.01600 | 16.67568 | 95° | 115km/h | 11900m | -5.9m/s | -56.5°C | 27.7% | 0hPa | 2.5V | 08:09:00 | 00:00:00 | 00:00:00 | |
| OE5DRO-10 | 2026-09-01 03:48:05 | 47.01602 | 16.67526 | 95° | 117km/h | 11906m | -6.0m/s | -56.5°C | 27.3% | 0hPa | 2.6V | 00:00:00 | 00:00:00 | 00:00:00 | |
| PG1ADW-2 | 2026-09-01 03:47:57 | 47.01617 | 16.67186 | 93° | 117km/h | 11952m | -5.6m/s | -56.4°C | 25.6% | 0hPa | 2.6V | 00:00:00 | 02:01:29 | 00:00:00 | |
| OE5DXL-15 | 2026-09-01 03:47:53 | 47.01623 | 16.67014 | 93° | 117km/h | 11977m | -6.2m/s | -56.5°C | 24.7% | 0hPa | 2.6V | 00:00:00 | 00:00:00 | 00:00:00 | |
| OE3JTB-15 | 2026-09-01 03:47:52 | 47.01624 | 16.66971 | 93° | 117km/h | 11983m | -6.0m/s | -56.5°C | 24.6% | 0hPa | 2.6V | 08:10:00 | 00:00:00 | 00:00:00 | |
| PETON7-10 | 2026-09-01 03:47:51 | 47.01625 | 16.66929 | 93° | 117km/h | 11989m | -6.0m/s | -56.5°C | 24.4% | 0hPa | 2.5V | 00:00:00 | 00:00:00 | 00:00:00 | |
| OE5DRO-10 | 2026-09-01 03:47:46 | 47.01633 | 16.66712 | 93° | 117km/h | 12019m | -6.1m/s | -56.5°C | 23.2% | 0hPa | 2.5V | 00:00:00 | 00:00:00 | 00:00:00 | |
| PG1ADW-2 | 2026-09-01 03:47:37 | 47.01645 | 16.66323 | 93° | 115km/h | 12074m | -6.3m/s | -56.4°C | 21.4% | 0hPa | 2.5V | 00:00:00 | 00:00:00 | 00:00:00 | |
| PETON7-10 | 2026-09-01 03:47:36 | 47.01647 | 16.66280 | 94° | 115km/h | 12080m | -6.1m/s | -56.4°C | 21.2% | 0hPa | 2.5V | 00:00:00 | 02:01:08 | 00:00:00 | |
| OE5DRO-10 | 2026-09-01 03:47:27 | 47.01662 | 16.65892 | 94° | 115km/h | 12136m | -6.2m/s | -56.3°C | 20.1% | 0hPa | 2.5V | 00:00:00 | 00:00:00 | 00:00:00 | |
| OE5DXL-15 | 2026-09-01 03:47:23 | 47.01668 | 16.65723 | 93° | 115km/h | 12161m | -6.1m/s | -56.2°C | 19.3% | 0hPa | 2.5V | 00:00:00 | 00:00:00 | 00:00:00 | |
| PG1ADW-2 | 2026-09-01 03:47:17 | 47.01674 | 16.65468 | 92° | 115km/h | 12198m | -6.2m/s | -56.3°C | 18.7% | 0hPa | 2.5V | 00:00:00 | 00:00:00 | 00:00:00 | |
| OE5DRO-10 | 2026-09-01 03:47:08 | 47.01677 | 16.65086 | 90° | 117km/h | 12253m | -6.3m/s | -56.6°C | 18.1% | 0hPa | 2.6V | 00:00:00 | 00:00:00 | 00:00:00 | |
| PETON7-10 | 2026-09-01 03:47:06 | 47.01676 | 16.65001 | 90° | 117km/h | 12265m | -6.0m/s | -56.6°C | 17.9% | 0hPa | 2.6V | 00:00:00 | 00:00:00 | 00:00:00 | |
| PG1ADW-2 | 2026-09-01 03:46:57 | 47.01661 | 16.64615 | 85° | 122km/h | 12322m | -6.2m/s | -56.8°C | 16.8% | 0hPa | 2.6V | 00:00:00 | 00:00:00 | 00:00:00 | |
| OE3JTB-15 | 2026-09-01 03:46:54 | 47.01653 | 16.64484 | 85° | 124km/h | 12341m | -6.6m/s | -56.9°C | 16.4% | 0hPa | 2.6V | 00:00:00 | 02:00:26 | 00:00:00 | |
| OE5DXL-15 | 2026-09-01 03:46:53 | 47.01649 | 16.64440 | 84° | 124km/h | 12347m | -6.3m/s | -56.8°C | 16.2% | 0hPa | 2.6V | 00:00:00 | 00:00:00 | 00:00:00 | |
| PETON7-10 | 2026-09-01 03:46:51 | 47.01643 | 16.64352 | 84° | 124km/h | 12360m | -6.3m/s | -56.9°C | 16.0% | 0hPa | 2.5V | 00:00:00 | 02:00:23 | 00:00:00 | |
| OE5DRO-10 | 2026-09-01 03:46:49 | 47.01635 | 16.64262 | 83° | 124km/h | 12372m | -6.2m/s | -56.9°C | 15.9% | 0hPa | 2.5V | 00:00:00 | 00:00:00 | 00:00:00 | |
| PG1ADW-2 | 2026-09-01 03:46:37 | 47.01583 | 16.63718 | 84° | 128km/h | 12448m | -6.3m/s | -56.7°C | 14.9% | 0hPa | 2.5V | 00:00:00 | 02:00:09 | 00:00:00 | |
| PETON7-10 | 2026-09-01 03:46:36 | 47.01579 | 16.63671 | 84° | 128km/h | 12454m | -6.4m/s | -56.8°C | 14.8% | 0hPa | 2.5V | 00:00:00 | 00:00:00 | 00:00:00 | |
| OE5DRO-10 | 2026-09-01 03:46:30 | 47.01558 | 16.63391 | 85° | 128km/h | 12491m | -6.2m/s | -57.1°C | 15.0% | 0hPa | 2.5V | 00:00:00 | 00:00:00 | 00:00:00 | |
| OE3JTB-15 | 2026-09-01 03:46:25 | 47.01542 | 16.63156 | 84° | 126km/h | 12522m | -6.3m/s | -57.2°C | 14.8% | 0hPa | 2.5V | 00:00:00 | 00:00:00 | 00:00:00 | |
| OE5DXL-15 | 2026-09-01 03:46:23 | 47.01534 | 16.63062 | 84° | 128km/h | 12534m | -6.2m/s | -57.2°C | 14.6% | 0hPa | 2.5V | 00:00:00 | 00:00:00 | 00:00:00 | |
| PETON7-10 | 2026-09-01 03:46:21 | 47.01527 | 16.62969 | 84° | 126km/h | 12547m | -6.6m/s | -57.2°C | 14.5% | 0hPa | 2.5V | 00:00:00 | 00:00:00 | 00:00:00 | |
| PG1ADW-2 | 2026-09-01 03:46:17 | 47.01514 | 16.62782 | 85° | 128km/h | 12572m | -6.1m/s | -57.2°C | 14.2% | 0hPa | 2.5V | 08:11:00 | 00:00:00 | 00:00:00 | |
| OE5DRO-10 | 2026-09-01 03:46:11 | 47.01497 | 16.62504 | 85° | 128km/h | 12610m | -6.5m/s | -56.9°C | 13.4% | 0hPa | 2.6V | 00:00:00 | 00:00:00 | 00:00:00 | |
| PETON7-10 | 2026-09-01 03:46:06 | 47.01484 | 16.62270 | 86° | 128km/h | 12641m | -6.3m/s | -56.6°C | 12.7% | 0hPa | 2.6V | 00:00:00 | 01:59:38 | 00:00:00 | |
| OE3OSB-13 | 2026-09-01 03:46:05 | 47.01478 | 16.62176 | 84° | 126km/h | 12653m | -6.5m/s | -56.8°C | 8.3% | -1.0hPa | 2.6V | 00:00:00 | 00:00:00 | 00:00:00 | |
| OE3JTB-15 | 2026-09-01 03:45:56 | 47.01456 | 16.61801 | 86° | 126km/h | 12704m | -6.2m/s | -56.6°C | 12.2% | 0hPa | 2.6V | 00:00:00 | 00:00:00 | 00:00:00 | |
| OE5DXL-15 | 2026-09-01 03:45:53 | 47.01449 | 16.61660 | 85° | 126km/h | 12722m | -6.2m/s | -56.5°C | 11.9% | 0hPa | 2.6V | 00:00:00 | 00:00:00 | 00:00:00 | |
| OE5DRO-10 | 2026-09-01 03:45:52 | 47.01446 | 16.61613 | 86° | 128km/h | 12728m | -6.1m/s | -56.5°C | 11.9% | 0hPa | 2.6V | 08:12:00 | 00:00:00 | 00:00:00 | |
| PETON7-10 | 2026-09-01 03:45:51 | 47.01443 | 16.61566 | 85° | 128km/h | 12734m | -6.3m/s | -56.5°C | 11.8% | 0hPa | 2.5V | 08:12:00 | 00:00:00 | 00:00:00 | |
| PG1ADW-2 | 2026-09-01 03:45:38 | 47.01403 | 16.60908 | 86° | 124km/h | 12820m | -6.3m/s | -57.2°C | 11.7% | 0hPa | 2.6V | 00:00:00 | 00:00:00 | 00:00:00 | |
| PETON7-10 | 2026-09-01 03:45:36 | 47.01401 | 16.60861 | 86° | 124km/h | 12826m | -6.7m/s | -57.3°C | 11.7% | 0hPa | 2.6V | 00:00:00 | 00:00:00 | 00:00:00 | |
| OE5DRO-10 | 2026-09-01 03:45:33 | 47.01393 | 16.60721 | 86° | 124km/h | 12845m | -6.7m/s | -57.5°C | 11.6% | 0hPa | 2.6V | 00:00:00 | 00:00:00 | 00:00:00 | |
| OE3JTB-15 | 2026-09-01 03:45:27 | 47.01380 | 16.60445 | 87° | 124km/h | 12884m | -6.2m/s | -57.8°C | 11.4% | 0hPa | 2.6V | 00:00:00 | 01:58:59 | 00:00:00 | |
| OE5DXL-15 | 2026-09-01 03:45:23 | 47.01371 | 16.60263 | 86° | 124km/h | 12910m | -6.3m/s | -57.7°C | 11.2% | 0hPa | 2.6V | 00:00:00 | 00:00:00 | 00:00:00 | |
| PETON7-10 | 2026-09-01 03:45:21 | 47.01366 | 16.60173 | 87° | 124km/h | 12923m | -6.1m/s | -57.7°C | 11.0% | 0hPa | 2.6V | 00:00:00 | 01:58:53 | 00:00:00 | |
| PG1ADW-2 | 2026-09-01 03:45:17 | 47.01356 | 16.59992 | 86° | 124km/h | 12949m | -6.4m/s | -57.3°C | 10.4% | 0hPa | 2.6V | 00:00:00 | 01:58:49 | 00:00:00 | |
| OE5DRO-10 | 2026-09-01 03:45:14 | 47.01349 | 16.59856 | 86° | 124km/h | 12968m | -6.2m/s | -57.2°C | 10.3% | 0hPa | 2.5V | 00:00:00 | 00:00:00 | 00:00:00 | |
| PETON7-10 | 2026-09-01 03:45:06 | 47.01330 | 16.59491 | 87° | 126km/h | 13021m | -6.3m/s | -56.7°C | 9.8% | 0hPa | 2.5V | 00:00:00 | 00:00:00 | 00:00:00 | |
| OE3OSB-13 | 2026-09-01 03:45:02 | 47.01321 | 16.59305 | 86° | 126km/h | 13047m | -6.4m/s | -56.7°C | 5.8% | -1.0hPa | 2.5V | 00:00:00 | 00:00:00 | 00:00:00 | |
| OE3JTB-15 | 2026-09-01 03:44:58 | 47.01312 | 16.59118 | 87° | 122km/h | 13073m | -6.3m/s | -56.6°C | 9.6% | 0hPa | 2.5V | 00:00:00 | 00:00:00 | 00:00:00 | |
| PG1ADW-2 | 2026-09-01 03:44:57 | 47.01310 | 16.59071 | 87° | 124km/h | 13080m | -6.4m/s | -56.7°C | 9.4% | 0hPa | 2.5V | 00:00:00 | 00:00:00 | 00:00:00 | |
| OE5DRO-10 | 2026-09-01 03:44:55 | 47.01308 | 16.58980 | 89° | 124km/h | 13093m | -6.3m/s | -56.7°C | 9.5% | 0hPa | 2.5V | 00:00:00 | 00:00:00 | 00:00:00 | |
| OE5DXL-15 | 2026-09-01 03:44:53 | 47.01305 | 16.58887 | 88° | 120km/h | 13106m | -6.6m/s | -56.7°C | 9.4% | 0hPa | 2.6V | 00:00:00 | 00:00:00 | 00:00:00 | |
| PETON7-10 | 2026-09-01 03:44:51 | 47.01303 | 16.58795 | 89° | 124km/h | 13119m | -6.4m/s | -56.7°C | 9.4% | 0hPa | 2.6V | 00:00:00 | 00:00:00 | 00:00:00 | |
| PG1ADW-2 | 2026-09-01 03:44:37 | 47.01300 | 16.58156 | 92° | 117km/h | 13210m | -6.9m/s | -56.7°C | 9.2% | 0hPa | 2.6V | 00:00:00 | 00:00:00 | 00:00:00 | |
| PETON7-10 | 2026-09-01 03:44:36 | 47.01301 | 16.58110 | 92° | 119km/h | 13217m | -6.5m/s | -56.7°C | 9.2% | 0hPa | 2.6V | 00:00:00 | 01:58:08 | 00:00:00 | |
| OE3JTB-15 | 2026-09-01 03:44:29 | 47.01307 | 16.57801 | 93° | 115km/h | 13264m | -6.4m/s | -57.1°C | 9.4% | 0hPa | 2.6V | 00:00:00 | 00:00:00 | 00:00:00 | |
| OE5DXL-15 | 2026-09-01 03:44:23 | 47.01315 | 16.57544 | 93° | 115km/h | 13304m | -6.1m/s | -56.7°C | 9.1% | 0hPa | 2.6V | 00:00:00 | 00:00:00 | 00:00:00 | |
| PETON7-10 | 2026-09-01 03:44:21 | 47.01318 | 16.57458 | 93° | 115km/h | 13317m | -6.4m/s | -56.7°C | 9.1% | 0hPa | 2.6V | 00:00:00 | 00:00:00 | 00:00:00 | |
| PG1ADW-2 | 2026-09-01 03:44:17 | 47.01324 | 16.57287 | 93° | 115km/h | 13344m | -6.9m/s | -56.5°C | 8.8% | 0hPa | 2.5V | 00:00:00 | 00:00:00 | 00:00:00 | |
| PETON7-10 | 2026-09-01 03:44:06 | 47.01338 | 16.56821 | 92° | 115km/h | 13417m | -6.6m/s | -56.0°C | 8.1% | 0hPa | 2.6V | 00:00:00 | 00:00:00 | 00:00:00 | |
| OE3JTB-15 | 2026-09-01 03:44:00 | 47.01342 | 16.56565 | 91° | 113km/h | 13458m | -6.7m/s | -55.9°C | 7.8% | 0hPa | 2.6V | 00:00:00 | 01:57:32 | 00:00:00 | |
| OE5DRO-10 | 2026-09-01 03:43:58 | 47.01343 | 16.56479 | 91° | 113km/h | 13472m | -6.6m/s | -56.0°C | 7.8% | 0hPa | 2.6V | 00:00:00 | 00:00:00 | 00:00:00 | |
| PG1ADW-2 | 2026-09-01 03:43:57 | 47.01343 | 16.56436 | 91° | 113km/h | 13478m | -7.0m/s | -56.0°C | 7.8% | 0hPa | 2.5V | 00:00:00 | 01:57:29 | 00:00:00 | |
| OE5DXL-15 | 2026-09-01 03:43:53 | 47.01343 | 16.56265 | 90° | 111km/h | 13506m | -6.9m/s | -56.1°C | 7.7% | 0hPa | 2.5V | 08:14:00 | 00:00:00 | 00:00:00 | |
| PETON7-10 | 2026-09-01 03:43:51 | 47.01343 | 16.56180 | 90° | 111km/h | 13520m | -7.0m/s | -56.1°C | 7.6% | 0hPa | 2.5V | 00:00:00 | 01:57:23 | 00:00:00 | |
| OE5DRO-10 | 2026-09-01 03:43:39 | 47.01350 | 16.55683 | 93° | 110km/h | 13602m | -6.7m/s | -56.0°C | 7.1% | 0hPa | 2.5V | 00:00:00 | 00:00:00 | 00:00:00 | |
| PG1ADW-2 | 2026-09-01 03:43:37 | 47.01352 | 16.55601 | 93° | 110km/h | 13616m | -6.8m/s | -55.8°C | 6.8% | 0hPa | 2.5V | 00:00:00 | 00:00:00 | 00:00:00 | |
| PETON7-10 | 2026-09-01 03:43:36 | 47.01353 | 16.55560 | 92° | 110km/h | 13622m | -7.2m/s | -55.7°C | 6.8% | 0hPa | 2.5V | 08:14:00 | 00:00:00 | 00:00:00 | |
| OE3JTB-15 | 2026-09-01 03:43:27 | 47.01360 | 16.55191 | 91° | 100km/h | 13686m | -6.6m/s | -55.6°C | 6.5% | 0hPa | 2.6V | 08:14:00 | 00:00:00 | 00:00:00 | |
| OE5DXL-15 | 2026-09-01 03:43:23 | 47.01360 | 16.55030 | 91° | 100km/h | 13714m | -7.0m/s | -55.7°C | 6.4% | 0hPa | 2.5V | 00:00:00 | 00:00:00 | 00:00:00 | |
| PETON7-10 | 2026-09-01 03:43:21 | 47.01361 | 16.54950 | 91° | 102km/h | 13728m | -6.8m/s | -55.7°C | 6.4% | 0hPa | 2.5V | 00:00:00 | 00:00:00 | 00:00:00 | |
| OE5DRO-10 | 2026-09-01 03:43:20 | 47.01361 | 16.54910 | 90° | 100km/h | 13735m | -7.2m/s | -55.7°C | 6.4% | 0hPa | 2.5V | 00:00:00 | 00:00:00 | 00:00:00 | |
| PG1ADW-2 | 2026-09-01 03:43:17 | 47.01361 | 16.54793 | 92° | 99km/h | 13757m | -6.7m/s | -55.7°C | 6.4% | 0hPa | 2.5V | 08:14:00 | 00:00:00 | 00:00:00 | |
| PETON7-10 | 2026-09-01 03:43:06 | 47.01360 | 16.54382 | 90° | 95km/h | 13835m | -6.9m/s | -55.6°C | 6.2% | 0hPa | 2.5V | 00:00:00 | 01:56:38 | 00:00:00 | |
| OE5DRO-10 | 2026-09-01 03:43:01 | 47.01357 | 16.54203 | 88° | 95km/h | 13871m | -7.3m/s | -55.4°C | 5.9% | 0hPa | 2.5V | 08:14:00 | 00:00:00 | 00:00:00 | |
| PG1ADW-2 | 2026-09-01 03:42:57 | 47.01351 | 16.54064 | 87° | 95km/h | 13900m | -7.4m/s | -55.0°C | 5.7% | 0hPa | 2.6V | 00:00:00 | 00:00:00 | 00:00:00 | |
| OE5DXL-15 | 2026-09-01 03:42:53 | 47.01344 | 16.53927 | 86° | 97km/h | 13929m | -7.2m/s | -54.8°C | 5.6% | 0hPa | 2.6V | 00:00:00 | 01:56:25 | 00:00:00 | |
| PETON7-10 | 2026-09-01 03:42:51 | 47.01340 | 16.53858 | 86° | 97km/h | 13944m | -7.0m/s | -54.8°C | 5.6% | 0hPa | 2.6V | 00:00:00 | 00:00:00 | 00:00:00 | |
| OE5DRO-10 | 2026-09-01 03:42:42 | 47.01318 | 16.53543 | 84° | 99km/h | 14009m | -6.8m/s | -55.0°C | 5.6% | 0hPa | 2.5V | 00:00:00 | 00:00:00 | 00:00:00 | |
| PG1ADW-2 | 2026-09-01 03:42:37 | 47.01305 | 16.53364 | 86° | 97km/h | 14045m | -7.1m/s | -55.1°C | 5.8% | 0hPa | 2.5V | 00:00:00 | 01:56:09 | 00:00:00 | |
| PETON7-10 | 2026-09-01 03:42:36 | 47.01303 | 16.53329 | 85° | 99km/h | 14052m | -7.1m/s | -55.1°C | 5.7% | 0hPa | 2.5V | 00:00:00 | 00:00:00 | 00:00:00 | |
| OE3JTB-15 | 2026-09-01 03:42:30 | 47.01292 | 16.53111 | 88° | 93km/h | 14096m | -7.1m/s | -55.2°C | 5.8% | 0hPa | 2.5V | 00:00:00 | 00:00:00 | 00:00:00 | |
| OE5DRO-10 | 2026-09-01 03:42:23 | 47.01288 | 16.52858 | 91° | 93km/h | 14147m | -7.4m/s | -54.9°C | 5.6% | 0hPa | 2.5V | 00:00:00 | 00:00:00 | 00:00:00 | |
| PETON7-10 | 2026-09-01 03:42:21 | 47.01289 | 16.52787 | 91° | 91km/h | 14161m | -7.6m/s | -54.5°C | 5.4% | 0hPa | 2.5V | 00:00:00 | 01:55:53 | 00:00:00 | |
| PG1ADW-2 | 2026-09-01 03:42:17 | 47.01290 | 16.52647 | 90° | 88km/h | 14191m | -7.8m/s | -54.4°C | 5.4% | 0hPa | 2.5V | 00:00:00 | 00:00:00 | 00:00:00 | |
| PETON7-10 | 2026-09-01 03:42:06 | 47.01292 | 16.52279 | 91° | 84km/h | 14273m | -7.2m/s | -54.3°C | 5.2% | 0hPa | 2.5V | 00:00:00 | 00:00:00 | 00:00:00 | |
| OE5DRO-10 | 2026-09-01 03:42:04 | 47.01292 | 16.52216 | 90° | 82km/h | 14288m | -7.5m/s | -54.3°C | 5.2% | 0hPa | 2.6V | 00:00:00 | 00:00:00 | 00:00:00 | |
| OE3JTB-15 | 2026-09-01 03:42:01 | 47.01292 | 16.52121 | 90° | 82km/h | 14310m | -7.5m/s | -54.3°C | 5.2% | 0hPa | 2.6V | 00:00:00 | 01:55:33 | 00:00:00 | |
| OE8JPQ-2 | 2026-09-01 03:41:59 | 47.01292 | 16.52059 | 92° | 80km/h | 14324m | -7.1m/s | -54.4°C | 5.2% | 0hPa | 2.6V | 00:00:00 | 00:00:00 | 00:00:00 | |
| PG1ADW-2 | 2026-09-01 03:41:57 | 47.01293 | 16.51997 | 92° | 80km/h | 14339m | -7.1m/s | -54.4°C | 5.1% | 0hPa | 2.6V | 00:00:00 | 00:00:00 | 00:00:00 | |
| OE5DXL-15 | 2026-09-01 03:41:53 | 47.01295 | 16.51875 | 92° | 82km/h | 14368m | -7.5m/s | -54.5°C | 5.2% | 0hPa | 2.6V | 00:00:00 | 00:00:00 | 00:00:00 | |
| PETON7-10 | 2026-09-01 03:41:51 | 47.01296 | 16.51815 | 91° | 80km/h | 14383m | -7.7m/s | -54.5°C | 5.2% | 0hPa | 2.6V | 00:00:00 | 00:00:00 | 00:00:00 | |
| OE5DRO-10 | 2026-09-01 03:41:45 | 47.01296 | 16.51637 | 89° | 82km/h | 14428m | -7.1m/s | -54.8°C | 5.3% | 0hPa | 2.6V | 00:00:00 | 00:00:00 | 00:00:00 | |
| OE8JPQ-2 | 2026-09-01 03:41:39 | 47.01290 | 16.51459 | 86° | 84km/h | 14472m | -7.4m/s | -55.0°C | 5.3% | 0hPa | 2.6V | 00:00:00 | 01:55:11 | 00:00:00 | |
| PG1ADW-2 | 2026-09-01 03:41:37 | 47.01287 | 16.51399 | 86° | 84km/h | 14487m | -7.3m/s | -55.1°C | 5.4% | 0hPa | 2.6V | 00:00:00 | 00:00:00 | 00:00:00 | |
| PETON7-10 | 2026-09-01 03:41:36 | 47.01286 | 16.51370 | 84° | 84km/h | 14494m | -7.5m/s | -55.1°C | 5.4% | 0hPa | 2.6V | 00:00:00 | 01:55:08 | 00:00:00 | |
| OE3JTB-15 | 2026-09-01 03:41:32 | 47.01276 | 16.51248 | 84° | 84km/h | 14524m | -7.6m/s | -55.1°C | 5.4% | 0hPa | 2.6V | 00:00:00 | 00:00:00 | 00:00:00 | |
| OE5DRO-10 | 2026-09-01 03:41:26 | 47.01260 | 16.51060 | 83° | 84km/h | 14569m | -7.7m/s | -55.4°C | 5.5% | 0hPa | 2.5V | 00:00:00 | 00:00:00 | 00:00:00 | |
| OE5DXL-15 | 2026-09-01 03:41:23 | 47.01253 | 16.50966 | 85° | 80km/h | 14591m | -7.3m/s | -55.6°C | 5.5% | 0hPa | 2.5V | 00:00:00 | 00:00:00 | 00:00:00 | |
| PETON7-10 | 2026-09-01 03:41:21 | 47.01248 | 16.50904 | 83° | 82km/h | 14606m | -7.6m/s | -55.7°C | 5.5% | 0hPa | 2.5V | 08:16:00 | 00:00:00 | 00:00:00 | |
| OE8JPQ-2 | 2026-09-01 03:41:18 | 47.01240 | 16.50812 | 85° | 80km/h | 14629m | -7.5m/s | -55.8°C | 5.6% | 0hPa | 2.5V | 00:00:00 | 00:00:00 | 00:00:00 | |
| PG1ADW-2 | 2026-09-01 03:41:17 | 47.01237 | 16.50781 | 83° | 80km/h | 14636m | -7.8m/s | -55.8°C | 5.6% | 0hPa | 2.5V | 00:00:00 | 01:54:49 | 00:00:00 | |
| OE5DRO-10 | 2026-09-01 03:41:07 | 47.01217 | 16.50482 | 87° | 77km/h | 14711m | -7.9m/s | -55.7°C | 5.5% | 0hPa | 2.6V | 00:00:00 | 00:00:00 | 00:00:00 | |
| PETON7-10 | 2026-09-01 03:41:06 | 47.01216 | 16.50453 | 88° | 77km/h | 14719m | -7.9m/s | -55.7°C | 5.5% | 0hPa | 2.5V | 00:00:00 | 00:00:00 | 00:00:00 | |
| OE8JPQ-2 | 2026-09-01 03:40:58 | 47.01208 | 16.50223 | 87° | 58km/h | 14782m | -8.0m/s | -55.6°C | 5.5% | 0hPa | 2.5V | 00:00:00 | 00:00:00 | 00:00:00 | |
| PG1ADW-2 | 2026-09-01 03:40:57 | 47.01206 | 16.50194 | 86° | 73km/h | 14790m | -7.9m/s | -55.6°C | 5.5% | 0hPa | 2.5V | 00:00:00 | 00:00:00 | 00:00:00 | |
| OE5DXL-15 | 2026-09-01 03:40:53 | 47.01201 | 16.50082 | 85° | 71km/h | 14821m | -7.7m/s | -55.4°C | 5.3% | 0hPa | 2.5V | 00:00:00 | 00:00:00 | 00:00:00 | |
| PETON7-10 | 2026-09-01 03:40:51 | 47.01198 | 16.50027 | 86° | 71km/h | 14837m | -7.4m/s | -55.4°C | 5.3% | 0hPa | 2.6V | 00:00:00 | 01:54:23 | 00:00:00 | |
| OE5DRO-10 | 2026-09-01 03:40:48 | 47.01194 | 16.49947 | 85° | 69km/h | 14860m | -8.1m/s | -55.5°C | 5.3% | 0hPa | 2.6V | 00:00:00 | 00:00:00 | 00:00:00 | |
| PG1ADW-2 | 2026-09-01 03:40:37 | 47.01183 | 16.49661 | 86° | 71km/h | 14945m | -7.8m/s | -55.6°C | 5.3% | 0hPa | 2.6V | 00:00:00 | 00:00:00 | 00:00:00 | |
| PETON7-10 | 2026-09-01 03:40:35 | 47.01180 | 16.49611 | 86° | 69km/h | 14961m | -7.9m/s | -55.6°C | 5.3% | 0hPa | 2.6V | 00:00:00 | 00:00:00 | 00:00:00 | |
| OE3JTB-15 | 2026-09-01 03:40:33 | 47.01177 | 16.49560 | 87° | 68km/h | 14976m | -7.7m/s | -55.7°C | 5.4% | 0hPa | 2.5V | 00:00:00 | 01:54:05 | 00:00:00 | |
| OE5DRO-10 | 2026-09-01 03:40:29 | 47.01173 | 16.49458 | 84° | 71km/h | 15008m | -8.1m/s | -55.4°C | 5.2% | 0hPa | 2.5V | 00:00:00 | 00:00:00 | 00:00:00 | |
| OE5DXL-15 | 2026-09-01 03:40:23 | 47.01162 | 16.49303 | 84° | 69km/h | 15055m | -8.0m/s | -55.6°C | 5.2% | 0hPa | 2.5V | 00:00:00 | 00:00:00 | 00:00:00 | |
| PETON7-10 | 2026-09-01 03:40:20 | 47.01155 | 16.49222 | 84° | 71km/h | 15078m | -7.8m/s | -55.7°C | 5.3% | 0hPa | 2.5V | 00:00:00 | 00:00:00 | 00:00:00 | |
| PG1ADW-2 | 2026-09-01 03:40:17 | 47.01150 | 16.49141 | 87° | 69km/h | 15101m | -7.9m/s | -55.9°C | 5.4% | 0hPa | 2.5V | 08:17:00 | 00:00:00 | 00:00:00 | |
| OE5DRO-10 | 2026-09-01 03:40:10 | 47.01141 | 16.48961 | 89° | 68km/h | 15157m | -8.0m/s | -55.9°C | 5.4% | 0hPa | 2.6V | 08:17:00 | 00:00:00 | 00:00:00 | |
| PETON7-10 | 2026-09-01 03:40:05 | 47.01140 | 16.48834 | 90° | 66km/h | 15197m | -7.8m/s | -55.8°C | 5.3% | 0hPa | 2.5V | 00:00:00 | 01:53:37 | 00:00:00 | |
| PG1ADW-2 | 2026-09-01 03:39:57 | 47.01141 | 16.48633 | 91° | 64km/h | 15259m | -7.2m/s | -55.9°C | 5.4% | 0hPa | 2.5V | 00:00:00 | 01:53:29 | 00:00:00 | |
| OE5DXL-15 | 2026-09-01 03:39:53 | 47.01142 | 16.48537 | 90° | 62km/h | 15289m | -8.1m/s | -56.1°C | 5.5% | 0hPa | 2.5V | 00:00:00 | 00:00:00 | 00:00:00 | |
| OE5DRO-10 | 2026-09-01 03:39:51 | 47.01141 | 16.48490 | 89° | 62km/h | 15305m | -8.2m/s | -56.0°C | 5.5% | 0hPa | 2.5V | 00:00:00 | 00:00:00 | 00:00:00 | |
| PETON7-10 | 2026-09-01 03:39:50 | 47.01141 | 16.48466 | 89° | 62km/h | 15313m | -8.1m/s | -55.9°C | 5.4% | 0hPa | 2.5V | 00:00:00 | 00:00:00 | 00:00:00 | |
| OE3JTB-15 | 2026-09-01 03:39:44 | 47.01141 | 16.48326 | 90° | 57km/h | 15362m | -8.4m/s | -56.0°C | 5.3% | 0hPa | 2.6V | 00:00:00 | 00:00:00 | 00:00:00 | |
| PG1ADW-2 | 2026-09-01 03:39:37 | 47.01139 | 16.48164 | 88° | 60km/h | 15417m | -8.3m/s | -56.4°C | 5.5% | 0hPa | 2.5V | 00:00:00 | 00:00:00 | 00:00:00 | |
| PETON7-10 | 2026-09-01 03:39:35 | 47.01138 | 16.48119 | 88° | 60km/h | 15434m | -8.4m/s | -56.5°C | 5.5% | 0hPa | 2.5V | 00:00:00 | 00:00:00 | 00:00:00 | |
| OE5DRO-10 | 2026-09-01 03:39:32 | 47.01136 | 16.48052 | 87° | 60km/h | 15459m | -7.6m/s | -56.7°C | 5.6% | 0hPa | 2.5V | 00:00:00 | 00:00:00 | 00:00:00 | |
| OE5DXL-15 | 2026-09-01 03:39:23 | 47.01125 | 16.47853 | 85° | 55km/h | 15529m | -7.8m/s | -56.8°C | 5.7% | 0hPa | 2.5V | 08:18:00 | 00:00:00 | 00:00:00 | |
| PETON7-10 | 2026-09-01 03:39:20 | 47.01121 | 16.47789 | 84° | 58km/h | 15552m | -7.8m/s | -56.9°C | 5.8% | 0hPa | 2.6V | 00:00:00 | 01:52:52 | 00:00:00 | |
| PG1ADW-2 | 2026-09-01 03:39:16 | 47.01112 | 16.47702 | 82° | 55km/h | 15583m | -7.5m/s | -56.8°C | 5.7% | 0hPa | 2.6V | 00:00:00 | 00:00:00 | 00:00:00 | |
| OE5DRO-10 | 2026-09-01 03:39:13 | 47.01105 | 16.47636 | 82° | 51km/h | 15606m | -7.8m/s | -56.9°C | 5.8% | 0hPa | 2.5V | 00:00:00 | 00:00:00 | 00:00:00 | |
| PETON7-10 | 2026-09-01 03:39:05 | 47.01086 | 16.47471 | 79° | 46km/h | 15669m | -8.2m/s | -57.0°C | 5.9% | 0hPa | 2.5V | 08:18:00 | 00:00:00 | 00:00:00 | |
| PG1ADW-2 | 2026-09-01 03:38:56 | 47.01062 | 16.47312 | 72° | 42km/h | 15741m | -8.8m/s | -56.6°C | 5.6% | 0hPa | 2.5V | 00:00:00 | 00:00:00 | 00:00:00 | |
| OE5DRO-10 | 2026-09-01 03:38:54 | 47.01056 | 16.47282 | 71° | 42km/h | 15758m | -8.7m/s | -56.5°C | 5.6% | 0hPa | 2.5V | 00:00:00 | 00:00:00 | 00:00:00 | |
| OE5DXL-15 | 2026-09-01 03:38:53 | 47.01052 | 16.47267 | 70° | 44km/h | 15766m | -8.5m/s | -56.4°C | 5.5% | 0hPa | 2.5V | 00:00:00 | 00:00:00 | 00:00:00 | |
| PETON7-10 | 2026-09-01 03:38:50 | 47.01041 | 16.47225 | 68° | 42km/h | 15791m | -8.5m/s | -56.2°C | 5.5% | 0hPa | 2.5V | 00:00:00 | 00:00:00 | 00:00:00 | |
| PG1ADW-2 | 2026-09-01 03:38:36 | 47.00974 | 16.47030 | 60° | 46km/h | 15906m | -8.3m/s | -56.6°C | 5.5% | 0hPa | 2.5V | 00:00:00 | 01:52:08 | 00:00:00 | |
| PETON7-10 | 2026-09-01 03:38:35 | 47.00969 | 16.47016 | 60° | 46km/h | 15915m | -7.9m/s | -56.6°C | 5.5% | 0hPa | 2.5V | 00:00:00 | 01:52:07 | 00:00:00 | |
| OE5DXL-15 | 2026-09-01 03:38:23 | 47.00892 | 16.46846 | 55° | 51km/h | 16010m | -8.5m/s | -57.3°C | 5.7% | 0hPa | 2.5V | 00:00:00 | 00:00:00 | 00:00:00 | |
| PETON7-10 | 2026-09-01 03:38:20 | 47.00871 | 16.46803 | 57° | 51km/h | 16035m | -8.1m/s | -57.4°C | 5.7% | 0hPa | 2.5V | 00:00:00 | 00:00:00 | 00:00:00 | |
| OE5DRO-10 | 2026-09-01 03:38:16 | 47.00845 | 16.46741 | 60° | 53km/h | 16068m | -8.6m/s | -57.6°C | 5.8% | 0hPa | 2.6V | 00:00:00 | 00:00:00 | 00:00:00 | |
| PETON7-10 | 2026-09-01 03:38:05 | 47.00770 | 16.46556 | 61° | 53km/h | 16161m | -8.6m/s | -58.0°C | 5.9% | 0hPa | 2.5V | 00:00:00 | 00:00:00 | 00:00:00 | |
| OE5DRO-10 | 2026-09-01 03:37:57 | 47.00716 | 16.46419 | 64° | 55km/h | 16230m | -8.5m/s | -57.9°C | 5.8% | 0hPa | 2.5V | 00:00:00 | 00:00:00 | 00:00:00 | |
| PG1ADW-2 | 2026-09-01 03:37:56 | 47.00710 | 16.46401 | 64° | 57km/h | 16238m | -8.1m/s | -57.8°C | 5.8% | 0hPa | 2.5V | 00:00:00 | 00:00:00 | 00:00:00 | |
| OE8JPQ-2 | 2026-09-01 03:37:54 | 47.00697 | 16.46364 | 62° | 57km/h | 16255m | -8.6m/s | -57.8°C | 5.8% | 0hPa | 2.5V | 00:00:00 | 01:51:26 | 00:00:00 | |
| OE5DXL-15 | 2026-09-01 03:37:53 | 47.00690 | 16.46347 | 61° | 60km/h | 16264m | -9.0m/s | -57.8°C | 5.8% | 0hPa | 2.5V | 00:00:00 | 00:00:00 | 00:00:00 | |
| OE3JTB-15 | 2026-09-01 03:37:51 | 47.00677 | 16.46312 | 61° | 62km/h | 16282m | -9.1m/s | -57.9°C | 5.8% | 0hPa | 2.6V | 00:00:00 | 00:00:00 | 00:00:00 | |
| PETON7-10 | 2026-09-01 03:37:50 | 47.00669 | 16.46295 | 61° | 57km/h | 16291m | -8.5m/s | -57.9°C | 5.8% | 0hPa | 2.6V | 00:00:00 | 01:51:22 | 00:00:00 | |
| OE5DRO-10 | 2026-09-01 03:37:38 | 47.00594 | 16.46068 | 68° | 68km/h | 16394m | -8.1m/s | -58.2°C | 5.8% | 0hPa | 2.6V | 00:00:00 | 00:00:00 | 00:00:00 | |
| PG1ADW-2 | 2026-09-01 03:37:36 | 47.00582 | 16.46027 | 69° | 71km/h | 16410m | -8.5m/s | -58.3°C | 5.9% | 0hPa | 2.6V | 00:00:00 | 00:00:00 | 00:00:00 | |
| PETON7-10 | 2026-09-01 03:37:34 | 47.00571 | 16.45984 | 71° | 71km/h | 16428m | -8.7m/s | -58.3°C | 5.9% | 0hPa | 2.6V | 00:00:00 | 00:00:00 | 00:00:00 | |
| OE5DXL-15 | 2026-09-01 03:37:23 | 47.00512 | 16.45720 | 74° | 77km/h | 16521m | -8.6m/s | -58.2°C | 5.9% | 0hPa | 2.6V | 00:00:00 | 00:00:00 | 00:00:00 | |
| OE3JTB-15 | 2026-09-01 03:37:22 | 47.00507 | 16.45693 | 74° | 77km/h | 16530m | -8.8m/s | -58.2°C | 5.9% | 0hPa | 2.6V | 00:00:00 | 01:50:54 | 00:00:00 | |
| PETON7-10 | 2026-09-01 03:37:19 | 47.00490 | 16.45610 | 74° | 80km/h | 16555m | -8.4m/s | -58.1°C | 5.8% | 0hPa | 2.6V | 00:00:00 | 00:00:00 | 00:00:00 | |
| PG1ADW-2 | 2026-09-01 03:37:16 | 47.00472 | 16.45525 | 73° | 77km/h | 16581m | -8.6m/s | -58.1°C | 5.8% | 0hPa | 2.6V | 08:20:00 | 01:50:48 | 00:00:00 | |
| PETON7-10 | 2026-09-01 03:37:04 | 47.00414 | 16.45184 | 79° | 68km/h | 16686m | -9.0m/s | -57.4°C | 5.6% | 0hPa | 2.6V | 00:00:00 | 01:50:36 | 00:00:00 | |
| OE5DRO-10 | 2026-09-01 03:37:00 | 47.00399 | 16.45079 | 80° | 60km/h | 16720m | -9.0m/s | -57.0°C | 5.5% | 0hPa | 2.6V | 00:00:00 | 00:00:00 | 00:00:00 | |
| PG1ADW-2 | 2026-09-01 03:36:56 | 47.00389 | 16.44980 | 84° | 55km/h | 16757m | -9.7m/s | -56.9°C | 5.6% | 0hPa | 2.6V | 00:00:00 | 00:00:00 | 00:00:00 | |
| OE5DXL-15 | 2026-09-01 03:36:53 | 47.00384 | 16.44909 | 87° | 47km/h | 16784m | -8.9m/s | -56.5°C | 5.3% | 0hPa | 2.6V | 00:00:00 | 00:00:00 | 00:00:00 | |
| PETON7-10 | 2026-09-01 03:36:49 | 47.00380 | 16.44818 | 89° | 49km/h | 16820m | -9.2m/s | -56.3°C | 5.3% | 0hPa | 2.6V | 08:21:00 | 00:00:00 | 00:00:00 | |
| OE5DRO-10 | 2026-09-01 03:36:41 | 47.00385 | 16.44663 | 94° | 40km/h | 16894m | -9.4m/s | -55.8°C | 5.0% | 0hPa | 2.6V | 00:00:00 | 00:00:00 | 00:00:00 | |
| OE8JPQ-2 | 2026-09-01 03:36:40 | 47.00386 | 16.44645 | 95° | 38km/h | 16904m | -9.3m/s | -55.8°C | 5.0% | 0hPa | 2.6V | 00:00:00 | 01:50:12 | 00:00:00 | |
| PG1ADW-2 | 2026-09-01 03:36:36 | 47.00390 | 16.44578 | 96° | 37km/h | 16940m | -9.1m/s | -55.2°C | 4.8% | 0hPa | 2.6V | 00:00:00 | 00:00:00 | 00:00:00 | |
| PETON7-10 | 2026-09-01 03:36:34 | 47.00392 | 16.44548 | 97° | 37km/h | 16959m | -9.3m/s | -55.1°C | 4.8% | 0hPa | 2.6V | 00:00:00 | 00:00:00 | 00:00:00 | |
| OE3JTB-15 | 2026-09-01 03:36:24 | 47.00399 | 16.44410 | 97° | 24km/h | 17051m | -9.6m/s | -55.5°C | 5.0% | 0hPa | 2.6V | 00:00:00 | 00:00:00 | 00:00:00 | |
| OE5DXL-15 | 2026-09-01 03:36:23 | 47.00400 | 16.44397 | 98° | 22km/h | 17061m | -9.5m/s | -55.6°C | 5.1% | 0hPa | 2.6V | 00:00:00 | 00:00:00 | 00:00:00 | |
| OE5DRO-10 | 2026-09-01 03:36:22 | 47.00401 | 16.44385 | 101° | 26km/h | 17071m | -9.4m/s | -55.6°C | 5.1% | 0hPa | 2.6V | 00:00:00 | 00:00:00 | 00:00:00 | |
| OE8JPQ-2 | 2026-09-01 03:36:20 | 47.00404 | 16.44361 | 99° | 24km/h | 17089m | -9.2m/s | -55.5°C | 5.1% | 0hPa | 2.5V | 00:00:00 | 00:00:00 | 00:00:00 | |
| PETON7-10 | 2026-09-01 03:36:19 | 47.00405 | 16.44349 | 98° | 26km/h | 17098m | -8.9m/s | -55.4°C | 5.1% | 0hPa | 2.6V | 00:00:00 | 01:49:51 | 00:00:00 | |
| PG1ADW-2 | 2026-09-01 03:36:16 | 47.00408 | 16.44313 | 100° | 20km/h | 17125m | -8.5m/s | -55.2°C | 5.0% | 0hPa | 2.6V | 00:00:00 | 00:00:00 | 00:00:00 | |
| PETON7-10 | 2026-09-01 03:36:04 | 47.00417 | 16.44211 | 96° | 15km/h | 17234m | -9.9m/s | -54.5°C | 4.7% | 0hPa | 2.6V | 00:00:00 | 00:00:00 | 00:00:00 | |
| OE8JPQ-2 | 2026-09-01 03:36:00 | 47.00418 | 16.44191 | 96° | 15km/h | 17271m | -8.6m/s | -54.2°C | 4.5% | 0hPa | 2.6V | 00:00:00 | 00:00:00 | 00:00:00 | |
| OE3JTB-15 | 2026-09-01 03:35:55 | 47.00416 | 16.44167 | 74° | 18km/h | 17317m | -9.6m/s | -54.4°C | 4.6% | 0hPa | 2.6V | 00:00:00 | 01:49:27 | 00:00:00 | |
| OE5DXL-15 | 2026-09-01 03:35:53 | 47.00414 | 16.44158 | 83° | 20km/h | 17336m | -8.8m/s | -54.4°C | 4.5% | 0hPa | 2.6V | 00:00:00 | 00:00:00 | 00:00:00 | |
| PETON7-10 | 2026-09-01 03:35:49 | 47.00411 | 16.44136 | 75° | 18km/h | 17372m | -10.2m/s | -54.6°C | 4.6% | 0hPa | 2.6V | 00:00:00 | 00:00:00 | 00:00:00 | |
| OE5DRO-10 | 2026-09-01 03:35:44 | 47.00405 | 16.44108 | 80° | 20km/h | 17420m | -9.4m/s | -54.8°C | 4.6% | 0hPa | 2.6V | 00:00:00 | 00:00:00 | 00:00:00 | |
| OE8JPQ-2 | 2026-09-01 03:35:40 | 47.00399 | 16.44080 | 73° | 22km/h | 17457m | -9.0m/s | -55.1°C | 4.7% | 0hPa | 2.6V | 00:00:00 | 01:49:12 | 00:00:00 | |
| PG1ADW-2 | 2026-09-01 03:35:36 | 47.00390 | 16.44053 | 58° | 24km/h | 17495m | -10.1m/s | -55.3°C | 4.7% | 0hPa | 2.6V | 00:00:00 | 00:00:00 | 00:00:00 | |
| PETON7-10 | 2026-09-01 03:35:34 | 47.00384 | 16.44041 | 59° | 22km/h | 17514m | -9.3m/s | -55.4°C | 4.8% | 0hPa | 2.6V | 00:00:00 | 01:49:06 | 00:00:00 | |
| OE3JTB-15 | 2026-09-01 03:35:26 | 47.00359 | 16.43990 | 55° | 31km/h | 17588m | -9.2m/s | -55.6°C | 4.8% | 0hPa | 2.6V | 00:00:00 | 00:00:00 | 00:00:00 | |
| OE5DRO-10 | 2026-09-01 03:35:25 | 47.00356 | 16.43983 | 52° | 27km/h | 17597m | -8.9m/s | -55.6°C | 4.8% | 0hPa | 2.6V | 00:00:00 | 00:00:00 | 00:00:00 | |
| OE5DXL-15 | 2026-09-01 03:35:23 | 47.00347 | 16.43969 | 43° | 33km/h | 17616m | -10.1m/s | -55.6°C | 4.8% | 0hPa | 2.5V | 00:00:00 | 00:00:00 | 00:00:00 | |
| OE8JPQ-2 | 2026-09-01 03:35:20 | 47.00333 | 16.43951 | 46° | 31km/h | 17645m | -9.1m/s | -55.8°C | 4.8% | 0hPa | 2.5V | 00:00:00 | 00:00:00 | 00:00:00 | |
| PETON7-10 | 2026-09-01 03:35:19 | 47.00329 | 16.43944 | 46° | 31km/h | 17654m | -9.2m/s | -55.9°C | 4.9% | 0hPa | 2.6V | 00:00:00 | 00:00:00 | 00:00:00 | |
| PG1ADW-2 | 2026-09-01 03:35:16 | 47.00313 | 16.43925 | 37° | 35km/h | 17682m | -9.9m/s | -56.0°C | 4.9% | 0hPa | 2.5V | 00:00:00 | 00:00:00 | 00:00:00 | |
| OE5DRO-10 | 2026-09-01 03:35:06 | 47.00253 | 16.43852 | 45° | 42km/h | 17777m | -9.2m/s | -56.5°C | 5.1% | 0hPa | 2.6V | 00:00:00 | 00:00:00 | 00:00:00 | |
| PETON7-10 | 2026-09-01 03:35:04 | 47.00240 | 16.43833 | 44° | 42km/h | 17796m | -9.6m/s | -56.7°C | 5.2% | 0hPa | 2.6V | 00:00:00 | 00:00:00 | 00:00:00 | |
| OE8JPQ-2 | 2026-09-01 03:35:00 | 47.00213 | 16.43794 | 48° | 44km/h | 17835m | -9.9m/s | -56.7°C | 5.3% | 0hPa | 2.6V | 00:00:00 | 00:00:00 | 00:00:00 | |
| OE3JTB-15 | 2026-09-01 03:34:57 | 47.00191 | 16.43760 | 46° | 44km/h | 17863m | -9.9m/s | -56.7°C | 5.3% | 0hPa | 2.6V | 00:00:00 | 00:00:00 | 00:00:00 | |
| PG1ADW-2 | 2026-09-01 03:34:56 | 47.00184 | 16.43749 | 50° | 46km/h | 17873m | -9.7m/s | -56.7°C | 5.3% | 0hPa | 2.6V | 00:00:00 | 00:00:00 | 00:00:00 | |
| OE5DXL-15 | 2026-09-01 03:34:53 | 47.00164 | 16.43709 | 56° | 44km/h | 17902m | -9.2m/s | -56.6°C | 5.2% | 0hPa | 2.6V | 08:23:00 | 00:00:00 | 00:00:00 | |
| PETON7-10 | 2026-09-01 03:34:49 | 47.00139 | 16.43653 | 62° | 46km/h | 17939m | -9.7m/s | -56.8°C | 5.4% | 0hPa | 2.6V | 00:00:00 | 01:48:21 | 00:00:00 | |
| OE5DRO-10 | 2026-09-01 03:34:47 | 47.00127 | 16.43622 | 62° | 46km/h | 17959m | -9.9m/s | -56.8°C | 5.5% | 0hPa | 2.6V | 00:00:00 | 00:00:00 | 00:00:00 | |
| OE8JPQ-2 | 2026-09-01 03:34:40 | 47.00094 | 16.43514 | 74° | 42km/h | 18027m | -10.3m/s | -55.9°C | 5.2% | 0hPa | 2.6V | 00:00:00 | 01:48:12 | 00:00:00 | |
| PG1ADW-2 | 2026-09-01 03:34:36 | 47.00082 | 16.43451 | 78° | 42km/h | 18068m | -9.8m/s | -55.7°C | 5.1% | 0hPa | 2.6V | 00:00:00 | 01:48:08 | 00:00:00 | |
| PETON7-10 | 2026-09-01 03:34:34 | 47.00076 | 16.43419 | 76° | 42km/h | 18087m | -10.1m/s | -55.7°C | 5.1% | 0hPa | 2.6V | 08:23:00 | 00:00:00 | 00:00:00 | |
| OE5DRO-10 | 2026-09-01 03:34:28 | 47.00061 | 16.43324 | 78° | 37km/h | 18146m | -10.0m/s | -55.2°C | 4.8% | 0hPa | 2.5V | 08:23:00 | 00:00:00 | 00:00:00 | |
| OE5DXL-15 | 2026-09-01 03:34:23 | 47.00050 | 16.43249 | 75° | 33km/h | 18196m | -9.4m/s | -55.0°C | 4.7% | 0hPa | 2.5V | 00:00:00 | 00:00:00 | 00:00:00 | |
| OE3JTB-15 | 2026-09-01 03:34:21 | 47.00046 | 16.43222 | 79° | 33km/h | 18216m | -10.7m/s | -55.0°C | 4.8% | 0hPa | 2.5V | 00:00:00 | 01:47:53 | 00:00:00 | |
| OE8JPQ-2 | 2026-09-01 03:34:19 | 47.00041 | 16.43194 | 76° | 31km/h | 18237m | -10.1m/s | -54.8°C | 4.7% | 0hPa | 2.5V | 08:23:00 | 00:00:00 | 00:00:00 | |
| OE5DRO-10 | 2026-09-01 03:34:09 | 47.00020 | 16.43071 | 79° | 29km/h | 18336m | -10.5m/s | -54.9°C | 4.7% | 0hPa | 2.5V | 00:00:00 | 00:00:00 | 00:00:00 | |
| PETON7-10 | 2026-09-01 03:34:04 | 47.00012 | 16.43017 | 73° | 29km/h | 18388m | -9.4m/s | -55.0°C | 4.7% | 0hPa | 2.5V | 00:00:00 | 01:47:36 | 00:00:00 | |
| OE8JPQ-2 | 2026-09-01 03:33:59 | 47.00002 | 16.42969 | 69° | 33km/h | 18439m | -9.7m/s | -55.1°C | 4.7% | 0hPa | 2.5V | 00:00:00 | 00:00:00 | 00:00:00 | |
| PG1ADW-2 | 2026-09-01 03:33:56 | 46.99993 | 16.42941 | 66° | 33km/h | 18469m | -10.5m/s | -55.1°C | 4.7% | 0hPa | 2.5V | 00:00:00 | 00:00:00 | 00:00:00 | |
| OE5DXL-15 | 2026-09-01 03:33:53 | 46.99984 | 16.42909 | 69° | 31km/h | 18500m | -10.1m/s | -55.2°C | 4.8% | 0hPa | 2.5V | 00:00:00 | 00:00:00 | 00:00:00 | |
| OE3JTB-15 | 2026-09-01 03:33:52 | 46.99981 | 16.42898 | 66° | 33km/h | 18509m | -9.6m/s | -55.2°C | 4.8% | 0hPa | 2.5V | 00:00:00 | 00:00:00 | 00:00:00 | |
| OE5DRO-10 | 2026-09-01 03:33:50 | 46.99974 | 16.42875 | 68° | 31km/h | 18529m | -10.5m/s | -55.2°C | 4.7% | 0hPa | 2.6V | 00:00:00 | 00:00:00 | 00:00:00 | |
| PETON7-10 | 2026-09-01 03:33:49 | 46.99971 | 16.42863 | 70° | 31km/h | 18540m | -10.5m/s | -55.2°C | 4.8% | 0hPa | 2.6V | 00:00:00 | 00:00:00 | 00:00:00 | |
| OE8JPQ-2 | 2026-09-01 03:33:39 | 46.99941 | 16.42749 | 76° | 29km/h | 18642m | -10.9m/s | -55.6°C | 4.9% | 0hPa | 2.6V | 00:00:00 | 01:47:11 | 00:00:00 | |
| PG1ADW-2 | 2026-09-01 03:33:36 | 46.99934 | 16.42718 | 72° | 27km/h | 18673m | -10.4m/s | -55.5°C | 4.9% | 0hPa | 2.6V | 00:00:00 | 00:00:00 | 00:00:00 | |
| PETON7-10 | 2026-09-01 03:33:34 | 46.99931 | 16.42698 | 78° | 29km/h | 18694m | -10.3m/s | -55.6°C | 5.0% | 0hPa | 2.6V | 00:00:00 | 00:00:00 | 00:00:00 | |
| OE5DRO-10 | 2026-09-01 03:33:31 | 46.99926 | 16.42667 | 84° | 26km/h | 18724m | -10.5m/s | -55.4°C | 4.9% | 0hPa | 2.6V | 00:00:00 | 00:00:00 | 00:00:00 | |
| OE3JTB-15 | 2026-09-01 03:33:23 | 46.99924 | 16.42578 | 93° | 16km/h | 18807m | -10.6m/s | -55.6°C | 4.9% | 0hPa | 2.5V | 00:00:00 | 00:00:00 | 00:00:00 | |
| PG1ADW-2 | 2026-09-01 03:33:16 | 46.99923 | 16.42513 | 86° | 13km/h | 18881m | -10.2m/s | -55.4°C | 4.9% | 0hPa | 2.5V | 00:00:00 | 01:46:48 | 00:00:00 | |
| OE5DRO-10 | 2026-09-01 03:33:12 | 46.99920 | 16.42490 | 77° | 13km/h | 18923m | -11.0m/s | -55.5°C | 4.9% | 0hPa | 2.5V | 00:00:00 | 00:00:00 | 00:00:00 | |
| PETON7-10 | 2026-09-01 03:33:04 | 46.99908 | 16.42463 | 46° | 15km/h | 19006m | -11.5m/s | -55.3°C | 4.8% | 0hPa | 2.5V | 00:00:00 | 00:00:00 | 00:00:00 | |
| OE8JPQ-2 | 2026-09-01 03:32:59 | 46.99899 | 16.42445 | 45° | 16km/h | 19060m | -11.2m/s | -55.2°C | 4.7% | 0hPa | 2.6V | 00:00:00 | 00:00:00 | 00:00:00 | |
| PG1ADW-2 | 2026-09-01 03:32:56 | 46.99892 | 16.42432 | 56° | 16km/h | 19093m | -10.5m/s | -55.5°C | 4.7% | 0hPa | 2.6V | 00:00:00 | 00:00:00 | 00:00:00 | |
| OE3JTB-15 | 2026-09-01 03:32:54 | 46.99886 | 16.42423 | 51° | 20km/h | 19113m | -10.2m/s | -55.6°C | 4.8% | 0hPa | 2.6V | 00:00:00 | 01:46:26 | 00:00:00 | |
| OE5DRO-10 | 2026-09-01 03:32:53 | 46.99884 | 16.42418 | 60° | 16km/h | 19123m | -10.6m/s | -55.7°C | 4.8% | 0hPa | 2.6V | 00:00:00 | 00:00:00 | 00:00:00 | |
| PETON7-10 | 2026-09-01 03:32:49 | 46.99874 | 16.42397 | 62° | 16km/h | 19166m | -10.4m/s | -55.9°C | 4.9% | 0hPa | 2.6V | 00:00:00 | 00:00:00 | 00:00:00 | |
| OE8JPQ-2 | 2026-09-01 03:32:39 | 46.99862 | 16.42342 | 83° | 22km/h | 19275m | -10.7m/s | -56.1°C | 5.0% | 0hPa | 2.6V | 00:00:00 | 01:46:11 | 00:00:00 | |
| PG1ADW-2 | 2026-09-01 03:32:36 | 46.99861 | 16.42322 | 87° | 22km/h | 19307m | -11.0m/s | -56.0°C | 4.9% | 0hPa | 2.6V | 00:00:00 | 00:00:00 | 00:00:00 | |
| OE5DRO-10 | 2026-09-01 03:32:34 | 46.99860 | 16.42308 | 86° | 22km/h | 19328m | -10.6m/s | -55.9°C | 4.9% | 0hPa | 2.6V | 00:00:00 | 00:00:00 | 00:00:00 | |
| OE3JTB-15 | 2026-09-01 03:32:25 | 46.99857 | 16.42230 | 84° | 15km/h | 19428m | -11.9m/s | -55.9°C | 4.9% | 0hPa | 2.5V | 08:25:00 | 00:00:00 | 00:00:00 | |
| OE5DXL-15 | 2026-09-01 03:32:23 | 46.99855 | 16.42213 | 76° | 16km/h | 19451m | -10.9m/s | -56.1°C | 4.9% | 0hPa | 2.5V | 00:00:00 | 00:00:00 | 00:00:00 | |
| OE8JPQ-2 | 2026-09-01 03:32:19 | 46.99852 | 16.42183 | 70° | 15km/h | 19497m | -11.5m/s | -56.2°C | 4.9% | 0hPa | 2.5V | 00:00:00 | 00:00:00 | 00:00:00 | |
| PG1ADW-2 | 2026-09-01 03:32:16 | 46.99848 | 16.42166 | 72° | 15km/h | 19530m | -10.9m/s | -56.2°C | 4.9% | 0hPa | 2.6V | 00:00:00 | 00:00:00 | 00:00:00 | |
| OE5DRO-10 | 2026-09-01 03:32:15 | 46.99847 | 16.42160 | 57° | 15km/h | 19541m | -11.7m/s | -56.3°C | 4.9% | 0hPa | 2.6V | 00:00:00 | 00:00:00 | 00:00:00 | |
| PETON7-10 | 2026-09-01 03:32:04 | 46.99824 | 16.42127 | 36° | 20km/h | 19665m | -11.7m/s | -56.8°C | 5.1% | 0hPa | 2.6V | 00:00:00 | 00:00:00 | 00:00:00 | |
| OE8JPQ-2 | 2026-09-01 03:31:59 | 46.99807 | 16.42106 | 36° | 26km/h | 19722m | -11.4m/s | -57.1°C | 5.3% | 0hPa | 2.6V | 00:00:00 | 00:00:00 | 00:00:00 | |
| OE5DRO-10 | 2026-09-01 03:31:56 | 46.99795 | 16.42091 | 47° | 27km/h | 19757m | -11.4m/s | -57.2°C | 5.4% | 0hPa | 2.6V | 00:00:00 | 00:00:00 | 00:00:00 | |
| OE3JTB-15 | 2026-09-01 03:31:55 | 46.99792 | 16.42085 | 48° | 29km/h | 19768m | -11.2m/s | -57.1°C | 5.4% | 0hPa | 2.6V | 00:00:00 | 00:00:00 | 00:00:00 | |
| OE5DXL-15 | 2026-09-01 03:31:53 | 46.99783 | 16.42073 | 41° | 29km/h | 19791m | -12.0m/s | -56.8°C | 5.2% | 0hPa | 2.6V | 00:00:00 | 00:00:00 | 00:00:00 | |
| PETON7-10 | 2026-09-01 03:31:49 | 46.99766 | 16.42044 | 49° | 29km/h | 19838m | -11.3m/s | -56.8°C | 5.1% | 0hPa | 2.5V | 00:00:00 | 01:45:21 | 00:00:00 | |
| DB0NH | 2026-09-01 03:31:48 | 46.99762 | 16.42037 | 54° | 20km/h | 19850m | -12.2m/s | -56.9°C | 5.2% | 0hPa | 2.5V | 00:00:00 | 01:45:20 | 00:00:00 | |
| OE8JPQ-2 | 2026-09-01 03:31:39 | 46.99733 | 16.41950 | 73° | 27km/h | 19956m | -11.6m/s | -57.1°C | 5.4% | 0hPa | 2.5V | 00:00:00 | 01:45:11 | 00:00:00 | |
| OE5DRO-10 | 2026-09-01 03:31:37 | 46.99730 | 16.41927 | 82° | 27km/h | 19980m | -12.3m/s | -56.9°C | 5.3% | 0hPa | 2.5V | 08:26:00 | 00:00:00 | 00:00:00 | |
| PG1ADW-2 | 2026-09-01 03:31:36 | 46.99728 | 16.41914 | 81° | 26km/h | 19992m | -12.1m/s | -56.8°C | 5.4% | 0hPa | 2.6V | 00:00:00 | 00:00:00 | 00:00:00 | |
| PETON7-10 | 2026-09-01 03:31:34 | 46.99726 | 16.41889 | 89° | 26km/h | 20016m | -11.8m/s | -56.9°C | 5.4% | 0hPa | 2.6V | 00:00:00 | 00:00:00 | 00:00:00 | |
| OE3JTB-15 | 2026-09-01 03:31:26 | 46.99727 | 16.41799 | 96° | 16km/h | 20111m | -12.0m/s | -56.8°C | 5.6% | 0hPa | 2.5V | 00:00:00 | 01:44:58 | 00:00:00 | |
| OE5DXL-15 | 2026-09-01 03:31:23 | 46.99727 | 16.41773 | 86° | 15km/h | 20146m | -11.5m/s | -56.6°C | 5.5% | 0hPa | 2.5V | 00:00:00 | 00:00:00 | 00:00:00 | |
| OE8JPQ-2 | 2026-09-01 03:31:19 | 46.99724 | 16.41749 | 59° | 15km/h | 20195m | -11.9m/s | -55.7°C | 5.1% | 0hPa | 2.5V | 08:26:00 | 00:00:00 | 00:00:00 | |
| OE5DRO-10 | 2026-09-01 03:31:18 | 46.99722 | 16.41744 | 49° | 15km/h | 20207m | -11.4m/s | -55.6°C | 5.1% | 0hPa | 2.6V | 00:00:00 | 00:00:00 | 00:00:00 | |
| PG1ADW-2 | 2026-09-01 03:31:16 | 46.99717 | 16.41736 | 50° | 15km/h | 20230m | -12.4m/s | -55.4°C | 5.0% | 0hPa | 2.6V | 08:26:00 | 00:00:00 | 00:00:00 | |
| OE5MMP-10 | 2026-09-01 03:31:09 | 46.99695 | 16.41708 | 44° | 15km/h | 20316m | -12.5m/s | -55.1°C | 4.9% | 0hPa | 2.5V | 00:00:00 | 01:44:41 | 00:00:00 | |
| NBG1-10 | 2026-09-01 03:31:08 | 46.99693 | 16.41703 | 58° | 13km/h | 20329m | -12.0m/s | -55.1°C | 4.9% | 0hPa | 2.5V | 00:00:00 | 01:44:40 | 00:00:00 | |
| PETON7-10 | 2026-09-01 03:31:04 | 46.99684 | 16.41684 | 55° | 9km/h | 20377m | -12.0m/s | -54.9°C | 4.8% | 0hPa | 2.5V | 00:00:00 | 01:44:36 | 00:00:00 | |
| DB0NH | 2026-09-01 03:31:03 | 46.99682 | 16.41680 | 62° | 15km/h | 20389m | -12.1m/s | -54.8°C | 4.8% | 0hPa | 2.5V | 00:00:00 | 01:44:35 | 00:00:00 | |
| OE8JPQ-2 | 2026-09-01 03:30:59 | 46.99676 | 16.41667 | 49° | 11km/h | 20437m | -12.1m/s | -54.6°C | 4.7% | 0hPa | 2.5V | 00:00:00 | 00:00:00 | 00:00:00 | |
| OE3JTB-15 | 2026-09-01 03:30:57 | 46.99673 | 16.41662 | 40° | 11km/h | 20461m | -12.0m/s | -54.6°C | 4.8% | 0hPa | 2.5V | 00:00:00 | 00:00:00 | 00:00:00 | |
| PG1ADW-2 | 2026-09-01 03:30:56 | 46.99671 | 16.41661 | 47° | 11km/h | 20473m | -11.0m/s | -54.5°C | 4.7% | 0hPa | 2.5V | 00:00:00 | 00:00:00 | 00:00:00 | |
| OE5DXL-15 | 2026-09-01 03:30:53 | 46.99666 | 16.41658 | 21° | 11km/h | 20508m | -12.8m/s | -54.5°C | 4.7% | 0hPa | 2.5V | 00:00:00 | 00:00:00 | 00:00:00 | |
| PETON7-10 | 2026-09-01 03:30:49 | 46.99657 | 16.41656 | 2° | 15km/h | 20558m | -12.7m/s | -54.7°C | 4.8% | 0hPa | 2.5V | 00:00:00 | 00:00:00 | 00:00:00 | |
| OE5DRO-10 | 2026-09-01 03:30:40 | 46.99627 | 16.41652 | 18° | 13km/h | 20668m | -13.0m/s | -54.6°C | 4.9% | 0hPa | 2.6V | 00:00:00 | 00:00:00 | 00:00:00 | |
| OE5MMP-10 | 2026-09-01 03:30:39 | 46.99624 | 16.41650 | 35° | 15km/h | 20680m | -12.1m/s | -54.6°C | 4.9% | 0hPa | 2.5V | 00:00:00 | 01:44:11 | 00:00:00 | |
| NBG1-10 | 2026-09-01 03:30:35 | 46.99613 | 16.41633 | 56° | 13km/h | 20728m | -12.5m/s | -54.4°C | 4.9% | 0hPa | 2.6V | 00:00:00 | 01:44:07 | 00:00:00 | |
| PETON7-10 | 2026-09-01 03:30:34 | 46.99611 | 16.41628 | 63° | 11km/h | 20740m | -11.8m/s | -54.3°C | 4.8% | 0hPa | 2.6V | 00:00:00 | 00:00:00 | 00:00:00 | |
| DB0NH | 2026-09-01 03:30:33 | 46.99609 | 16.41623 | 63° | 13km/h | 20752m | -11.9m/s | -54.3°C | 4.8% | 0hPa | 2.6V | 00:00:00 | 01:44:05 | 00:00:00 | |
| OE5MMP-10 | 2026-09-01 03:30:29 | 46.99603 | 16.41607 | 62° | 9km/h | 20801m | -12.9m/s | -54.2°C | 4.8% | 0hPa | 2.6V | 00:00:00 | 01:44:01 | 00:00:00 | |
| OE3JTB-15 | 2026-09-01 03:30:28 | 46.99602 | 16.41604 | 70° | 9km/h | 20814m | -12.7m/s | -54.2°C | 4.8% | 0hPa | 2.6V | 00:00:00 | 00:00:00 | 00:00:00 | |
| OE5DXL-15 | 2026-09-01 03:30:23 | 46.99599 | 16.41592 | 92° | 11km/h | 20876m | -12.6m/s | -53.7°C | 4.6% | 0hPa | 2.6V | 08:27:00 | 00:00:00 | 00:00:00 | |
| OE5DRO-10 | 2026-09-01 03:30:21 | 46.99599 | 16.41584 | 80° | 13km/h | 20900m | -12.7m/s | -53.8°C | 4.6% | 0hPa | 2.5V | 00:00:00 | 00:00:00 | 00:00:00 | |
| PETON7-10 | 2026-09-01 03:30:19 | 46.99599 | 16.41576 | 97° | 15km/h | 20926m | -12.5m/s | -53.7°C | 4.6% | 0hPa | 2.5V | 00:00:00 | 01:43:51 | 00:00:00 | |
| PG1ADW-2 | 2026-09-01 03:30:16 | 46.99600 | 16.41560 | 98° | 11km/h | 20964m | -12.9m/s | -53.7°C | 4.6% | 0hPa | 2.5V | 00:00:00 | 00:00:00 | 00:00:00 | |
| OE5MMP-10 | 2026-09-01 03:30:08 | 46.99611 | 16.41518 | 126° | 9km/h | 21066m | -12.4m/s | -53.0°C | 4.4% | 0hPa | 2.6V | 08:27:00 | 01:43:40 | 00:00:00 | |
| PETON7-10 | 2026-09-01 03:30:04 | 46.99619 | 16.41505 | 144° | 7km/h | 21117m | -12.1m/s | -53.1°C | 4.4% | 0hPa | 2.5V | 08:27:00 | 00:00:00 | 00:00:00 | |
| NBG1-10 | 2026-09-01 03:30:02 | 46.99623 | 16.41502 | 149° | 11km/h | 21142m | -12.2m/s | -53.2°C | 4.5% | 0hPa | 2.6V | 00:00:00 | 01:43:34 | 00:00:00 | |
| OE3JTB-15 | 2026-09-01 03:29:59 | 46.99628 | 16.41501 | 184° | 9km/h | 21180m | -12.2m/s | -53.3°C | 4.5% | 0hPa | 2.6V | 00:00:00 | 01:43:31 | 00:00:00 | |
| OE5MMP-10 | 2026-09-01 03:29:58 | 46.99630 | 16.41501 | 177° | 5km/h | 21193m | -12.9m/s | -53.3°C | 4.5% | 0hPa | 2.6V | 00:00:00 | 01:43:30 | 00:00:00 | |
| PG1ADW-2 | 2026-09-01 03:29:56 | 46.99632 | 16.41502 | 234° | 7km/h | 21219m | -12.5m/s | -53.5°C | 4.6% | 0hPa | 2.6V | 00:00:00 | 00:00:00 | 00:00:00 | |
| OE5DXL-15 | 2026-09-01 03:29:53 | 46.99634 | 16.41509 | 246° | 7km/h | 21257m | -12.8m/s | -53.6°C | 4.6% | 0hPa | 2.6V | 00:00:00 | 00:00:00 | 00:00:00 | |
| PETON7-10 | 2026-09-01 03:29:49 | 46.99632 | 16.41517 | 328° | 7km/h | 21308m | -13.4m/s | -53.3°C | 4.6% | 0hPa | 2.6V | 00:00:00 | 00:00:00 | 00:00:00 | |
| OE5MMP-10 | 2026-09-01 03:29:48 | 46.99631 | 16.41518 | 330° | 7km/h | 21322m | -14.0m/s | -53.2°C | 4.5% | 0hPa | 2.6V | 00:00:00 | 01:43:20 | 00:00:00 | |
| OE5DRO-10 | 2026-09-01 03:29:43 | 46.99622 | 16.41524 | 337° | 9km/h | 21388m | -12.8m/s | -52.8°C | 4.4% | 0hPa | 2.6V | 00:00:00 | 00:00:00 | 00:00:00 | |
| OE8JPQ-2 | 2026-09-01 03:29:39 | 46.99615 | 16.41525 | 23° | 9km/h | 21443m | -12.9m/s | -52.7°C | 4.3% | 0hPa | 2.7V | 00:00:00 | 01:43:11 | 00:00:00 | |
| OE5MMP-10 | 2026-09-01 03:29:38 | 46.99614 | 16.41524 | 42° | 9km/h | 21457m | -14.4m/s | -52.7°C | 4.3% | 0hPa | 2.7V | 00:00:00 | 01:43:10 | 00:00:00 | |
| PG1ADW-2 | 2026-09-01 03:29:36 | 46.99612 | 16.41520 | 46° | 11km/h | 21484m | -12.6m/s | -52.8°C | 4.3% | 0hPa | 2.6V | 00:00:00 | 00:00:00 | 00:00:00 | |
| PETON7-10 | 2026-09-01 03:29:34 | 46.99610 | 16.41516 | 81° | 9km/h | 21512m | -14.7m/s | -52.9°C | 4.4% | 0hPa | 2.6V | 00:00:00 | 01:43:06 | 00:00:00 | |
| DB0NH | 2026-09-01 03:29:33 | 46.99610 | 16.41512 | 92° | 11km/h | 21526m | -13.6m/s | -53.0°C | 4.4% | 0hPa | 2.6V | 00:00:00 | 01:43:05 | 00:00:00 | |
| OE5MMP-10 | 2026-09-01 03:29:28 | 46.99612 | 16.41495 | 104° | 11km/h | 21593m | -14.0m/s | -52.8°C | 4.4% | 0hPa | 2.5V | 00:00:00 | 01:43:00 | 00:00:00 | |
| OE5DRO-10 | 2026-09-01 03:29:24 | 46.99617 | 16.41482 | 138° | 11km/h | 21648m | -15.5m/s | -52.9°C | 4.3% | 0hPa | 2.5V | 00:00:00 | 00:00:00 | 00:00:00 | |
| OE5DXL-15 | 2026-09-01 03:29:23 | 46.99619 | 16.41480 | 149° | 13km/h | 21663m | -15.1m/s | -52.9°C | 4.3% | 0hPa | 2.5V | 00:00:00 | 00:00:00 | 00:00:00 | |
| PETON7-10 | 2026-09-01 03:29:19 | 46.99629 | 16.41477 | 181° | 11km/h | 21719m | -14.6m/s | -53.2°C | 4.5% | 0hPa | 2.5V | 00:00:00 | 00:00:00 | 00:00:00 | |
| OE5MMP-10 | 2026-09-01 03:29:18 | 46.99632 | 16.41477 | 183° | 11km/h | 21733m | -13.8m/s | -53.2°C | 4.4% | 0hPa | 2.5V | 00:00:00 | 01:42:50 | 00:00:00 | |
| OE3JTB-15 | 2026-09-01 03:29:16 | 46.99639 | 16.41478 | 187° | 15km/h | 21759m | -12.5m/s | -53.3°C | 4.5% | 0hPa | 2.5V | 00:00:00 | 00:00:00 | 00:00:00 | |
| OE5MMP-10 | 2026-09-01 03:29:08 | 46.99657 | 16.41478 | 120° | 13km/h | 21871m | -13.4m/s | -53.2°C | 4.5% | 0hPa | 2.5V | 00:00:00 | 01:42:40 | 00:00:00 | |
| OE5DRO-10 | 2026-09-01 03:29:05 | 46.99660 | 16.41468 | 126° | 16km/h | 21912m | -15.3m/s | -53.2°C | 4.5% | 0hPa | 2.5V | 00:00:00 | 00:00:00 | 00:00:00 | |
| PETON7-10 | 2026-09-01 03:29:04 | 46.99662 | 16.41465 | 118° | 16km/h | 21926m | -14.5m/s | -53.2°C | 4.4% | 0hPa | 2.5V | 00:00:00 | 00:00:00 | 00:00:00 | |
| OE8JPQ-2 | 2026-09-01 03:28:59 | 46.99675 | 16.41450 | 162° | 16km/h | 21995m | -13.9m/s | -53.2°C | 4.4% | 0hPa | 2.5V | 00:00:00 | 00:00:00 | 00:00:00 | |
| OE5MMP-10 | 2026-09-01 03:28:58 | 46.99680 | 16.41448 | 164° | 20km/h | 22008m | -12.6m/s | -53.2°C | 4.4% | 0hPa | 2.5V | 00:00:00 | 01:42:30 | 00:00:00 | |
| PG1ADW-2 | 2026-09-01 03:28:56 | 46.99689 | 16.41443 | 158° | 15km/h | 22037m | -15.3m/s | -53.1°C | 4.4% | 0hPa | 2.5V | 00:00:00 | 00:00:00 | 00:00:00 | |
| OE5DXL-15 | 2026-09-01 03:28:53 | 46.99705 | 16.41432 | 148° | 13km/h | 22081m | -14.7m/s | -52.9°C | 4.4% | 0hPa | 2.5V | 00:00:00 | 00:00:00 | 00:00:00 | |
| PETON7-10 | 2026-09-01 03:28:49 | 46.99722 | 16.41424 | 182° | 11km/h | 22138m | -12.5m/s | -53.0°C | 4.4% | 0hPa | 2.5V | 00:00:00 | 01:42:21 | 00:00:00 | |
| OE5MMP-10 | 2026-09-01 03:28:48 | 46.99725 | 16.41425 | 206° | 11km/h | 22153m | -15.9m/s | -53.0°C | 4.4% | 0hPa | 2.5V | 00:00:00 | 01:42:20 | 00:00:00 | |
| OE3JTB-15 | 2026-09-01 03:28:47 | 46.99728 | 16.41427 | 210° | 11km/h | 22169m | -16.8m/s | -53.1°C | 4.4% | 0hPa | 2.5V | 00:00:00 | 00:00:00 | 00:00:00 | |
| OE5DRO-10 | 2026-09-01 03:28:46 | 46.99731 | 16.41430 | 219° | 11km/h | 22184m | -14.3m/s | -53.1°C | 4.4% | 0hPa | 2.5V | 08:29:00 | 00:00:00 | 00:00:00 | |
| OE8JPQ-2 | 2026-09-01 03:28:39 | 46.99738 | 16.41452 | 309° | 11km/h | 22311m | -19.4m/s | -53.3°C | 4.4% | 0hPa | 2.5V | 00:00:00 | 01:42:11 | 00:00:00 | |
| OE5MMP-10 | 2026-09-01 03:28:38 | 46.99736 | 16.41453 | 343° | 13km/h | 22330m | -18.4m/s | -53.4°C | 4.4% | 0hPa | 2.5V | 08:29:00 | 01:42:10 | 00:00:00 | |
| PG1ADW-2 | 2026-09-01 03:28:36 | 46.99732 | 16.41454 | 4° | 11km/h | 22364m | -16.0m/s | -53.4°C | 4.4% | 0hPa | 2.7V | 00:00:00 | 00:00:00 | 00:00:00 | |
| PETON7-10 | 2026-09-01 03:28:34 | 46.99725 | 16.41453 | 7° | 11km/h | 22394m | -13.5m/s | -53.5°C | 4.5% | 0hPa | 2.7V | 00:00:00 | 00:00:00 | 00:00:00 | |
| DB0NH | 2026-09-01 03:28:33 | 46.99721 | 16.41453 | 7° | 9km/h | 22407m | -12.3m/s | -53.5°C | 4.5% | 0hPa | 2.5V | 00:00:00 | 01:42:05 | 00:00:00 | |
| OE5MMP-10 | 2026-09-01 03:28:28 | 46.99705 | 16.41458 | 330° | 11km/h | 22473m | -15.8m/s | -53.6°C | 4.4% | 0hPa | 2.5V | 00:00:00 | 01:42:00 | 00:00:00 | |
| OE5DRO-10 | 2026-09-01 03:28:27 | 46.99701 | 16.41460 | 334° | 9km/h | 22488m | -15.3m/s | -53.6°C | 4.5% | 0hPa | 2.5V | 00:00:00 | 00:00:00 | 00:00:00 | |
| OE5DXL-15 | 2026-09-01 03:28:23 | 46.99690 | 16.41468 | 351° | 9km/h | 22547m | -17.8m/s | -53.9°C | 4.6% | 0hPa | 2.5V | 00:00:00 | 00:00:00 | 00:00:00 | |
| OE8JPQ-2 | 2026-09-01 03:28:19 | 46.99685 | 16.41463 | 50° | 9km/h | 22612m | -15.9m/s | -53.9°C | 4.6% | 0hPa | 2.5V | 00:00:00 | 00:00:00 | 08:30:00 | |
| OE5MMP-10 | 2026-09-01 03:28:18 | 46.99684 | 16.41461 | 40° | 7km/h | 22628m | -16.8m/s | -53.8°C | 4.6% | 0hPa | 2.6V | 00:00:00 | 01:41:50 | 00:00:00 | |
| PG1ADW-2 | 2026-09-01 03:28:16 | 46.99681 | 16.41458 | 19° | 9km/h | 22663m | -16.6m/s | -53.7°C | 4.5% | 0hPa | 2.6V | 00:00:00 | 00:00:00 | 08:30:00 | |
| OE5MMP-10 | 2026-09-01 03:28:08 | 46.99668 | 16.41448 | 79° | 11km/h | 22785m | -13.6m/s | -54.0°C | 4.6% | 0hPa | 2.5V | 00:00:00 | 01:41:40 | 00:00:00 | |
| OE3JTB-15 | 2026-09-01 03:28:07 | 46.99667 | 16.41443 | 72° | 13km/h | 22798m | -12.2m/s | -54.0°C | 4.6% | 0hPa | 2.5V | 00:00:00 | 01:41:39 | 00:00:00 | |
| PETON7-10 | 2026-09-01 03:28:04 | 46.99663 | 16.41427 | 78° | 11km/h | 22835m | -11.5m/s | -54.0°C | 4.6% | 0hPa | 2.5V | 00:00:00 | 01:41:36 | 00:00:00 | |
| OE8JPQ-2 | 2026-09-01 03:27:59 | 46.99662 | 16.41414 | 71° | 13km/h | 22904m | -13.3m/s | -54.0°C | 4.5% | 0hPa | 2.5V | 00:00:00 | 00:00:00 | 00:00:00 | |
| OE5MMP-10 | 2026-09-01 03:27:58 | 46.99661 | 16.41412 | 35° | 13km/h | 22919m | -16.1m/s | -54.0°C | 4.5% | 0hPa | 2.5V | 00:00:00 | 01:41:30 | 00:00:00 | |
| PG1ADW-2 | 2026-09-01 03:27:56 | 46.99659 | 16.41409 | 88° | 13km/h | 22950m | -14.9m/s | -54.0°C | 4.6% | 0hPa | 2.5V | 00:00:00 | 01:41:28 | 00:00:00 | |
| OE5DXL-15 | 2026-09-01 03:27:53 | 46.99662 | 16.41400 | 140° | 13km/h | 22996m | -16.3m/s | -54.0°C | 4.6% | 0hPa | 2.5V | 00:00:00 | 00:00:00 | 00:00:00 | |
| PETON7-10 | 2026-09-01 03:27:49 | 46.99678 | 16.41392 | 173° | 13km/h | 23054m | -14.4m/s | -54.1°C | 4.8% | 0hPa | 2.5V | 00:00:00 | 00:00:00 | 08:30:00 | |
| OE5MMP-10 | 2026-09-01 03:27:48 | 46.99683 | 16.41391 | 184° | 11km/h | 23069m | -15.9m/s | -54.1°C | 4.8% | 0hPa | 2.7V | 00:00:00 | 01:41:20 | 00:00:00 | |
| OE8JPQ-2 | 2026-09-01 03:27:39 | 46.99704 | 16.41409 | 271° | 13km/h | 23214m | -19.7m/s | -54.1°C | 4.5% | 0hPa | 2.7V | 00:00:00 | 01:41:11 | 00:00:00 | |
| OE5MMP-10 | 2026-09-01 03:27:38 | 46.99704 | 16.41413 | 278° | 13km/h | 23242m | -35.2m/s | -54.0°C | 4.4% | 0hPa | 2.7V | 00:00:00 | 01:41:10 | 00:00:00 | |
| PG1ADW-2 | 2026-09-01 03:27:36 | 46.99701 | 16.41420 | 308° | 15km/h | 23311m | -32.9m/s | -53.6°C | 4.2% | 0hPa | 2.5V | 00:00:00 | 00:00:00 | 00:00:00 | |
| PETON7-10 | 2026-09-01 03:27:34 | 46.99697 | 16.41427 | 316° | 15km/h | 23373m | -29.3m/s | -53.7°C | 4.3% | 0hPa | 2.5V | 00:00:00 | 00:00:00 | 00:00:00 | |
| OE3JTB-15 | 2026-09-01 03:27:32 | 46.99691 | 16.41434 | 323° | 15km/h | 23425m | -22.2m/s | -53.8°C | 4.4% | 0hPa | 2.5V | 00:00:00 | 00:00:00 | 08:30:00 | |
| OE5DRO-10 | 2026-09-01 03:27:30 | 46.99686 | 16.41441 | 321° | 13km/h | 23454m | -5.9m/s | -53.9°C | 4.7% | 0hPa | 2.7V | 00:00:00 | 00:00:00 | 00:00:00 | |
| OE5MMP-10 | 2026-09-01 03:27:28 | 46.99680 | 16.41449 | 314° | 15km/h | 23450m | 5.5m/s | -53.9°C | 4.6% | 0hPa | 2.7V | 00:00:00 | 01:41:00 | 00:00:00 | |
| OE5DXL-15 | 2026-09-01 03:27:23 | 46.99667 | 16.41466 | 300° | 16km/h | 23423m | 6.0m/s | -53.9°C | 4.6% | 0hPa | 2.7V | 00:00:00 | 00:00:00 | 00:00:00 | |
| PETON7-10 | 2026-09-01 03:27:19 | 46.99659 | 16.41484 | 316° | 16km/h | 23399m | 5.5m/s | -53.9°C | 4.5% | 0hPa | 2.5V | 00:00:00 | 01:40:51 | 00:00:00 | |
| OE5MMP-10 | 2026-09-01 03:27:18 | 46.99656 | 16.41487 | 308° | 13km/h | 23393m | 6.6m/s | -53.9°C | 4.6% | 0hPa | 2.5V | 00:00:00 | 01:40:50 | 00:00:00 | |
| PG1ADW-2 | 2026-09-01 03:27:16 | 46.99653 | 16.41493 | 328° | 16km/h | 23381m | 6.9m/s | -54.0°C | 4.6% | 0hPa | 2.5V | 00:00:00 | 00:00:00 | 00:00:00 | |
| OE5DRO-10 | 2026-09-01 03:27:11 | 46.99643 | 16.41507 | 289° | 20km/h | 23353m | 5.4m/s | -54.0°C | 4.6% | 0hPa | 2.7V | 00:00:00 | 00:00:00 | 00:00:00 | |
| OE5MMP-10 | 2026-09-01 03:27:08 | 46.99640 | 16.41528 | 274° | 20km/h | 23335m | 7.3m/s | -54.1°C | 4.5% | 0hPa | 2.7V | 00:00:00 | 01:40:40 | 08:30:00 | |
| PETON7-10 | 2026-09-01 03:27:04 | 46.99637 | 16.41561 | 291° | 18km/h | 23311m | 4.0m/s | -54.2°C | 4.5% | 0hPa | 2.5V | 00:00:00 | 00:00:00 | 00:00:00 | |
| OE3JTB-15 | 2026-09-01 03:27:03 | 46.99635 | 16.41568 | 290° | 15km/h | 23306m | 6.7m/s | -54.3°C | 4.6% | 0hPa | 2.5V | 00:00:00 | 00:00:00 | 00:00:00 | |
| OE8JPQ-2 | 2026-09-01 03:26:59 | 46.99630 | 16.41594 | 292° | 15km/h | 23282m | 4.3m/s | -54.5°C | 4.7% | 0hPa | 2.5V | 00:00:00 | 00:00:00 | 00:00:00 | |
| OE5MMP-10 | 2026-09-01 03:26:58 | 46.99629 | 16.41600 | 280° | 16km/h | 23277m | 5.9m/s | -54.5°C | 4.8% | 0hPa | 2.5V | 00:00:00 | 01:40:30 | 00:00:00 | |
| PG1ADW-2 | 2026-09-01 03:26:56 | 46.99630 | 16.41611 | 243° | 15km/h | 23265m | 5.3m/s | -54.5°C | 4.7% | 0hPa | 2.5V | 00:00:00 | 00:00:00 | 00:00:00 | |
| OE5DXL-15 | 2026-09-01 03:26:53 | 46.99636 | 16.41630 | 253° | 13km/h | 23248m | 4.9m/s | -54.5°C | 4.7% | 0hPa | 2.5V | 00:00:00 | 00:00:00 | 00:00:00 | |
| OE5DRO-10 | 2026-09-01 03:26:52 | 46.99638 | 16.41637 | 248° | 13km/h | 23242m | 6.8m/s | -54.5°C | 4.7% | 0hPa | 2.5V | 00:00:00 | 00:00:00 | 00:00:00 | |
| PETON7-10 | 2026-09-01 03:26:49 | 46.99643 | 16.41653 | 255° | 11km/h | 23223m | 6.6m/s | -54.5°C | 4.7% | 0hPa | 2.5V | 00:00:00 | 00:00:00 | 00:00:00 | |
| OE5MMP-10 | 2026-09-01 03:26:48 | 46.99643 | 16.41656 | 241° | 11km/h | 23218m | 3.9m/s | -54.5°C | 4.7% | 0hPa | 2.5V | 00:00:00 | 01:40:20 | 00:00:00 | |
| NBG1-10 | 2026-09-01 03:26:42 | 46.99656 | 16.41665 | 209° | 9km/h | 23182m | 5.7m/s | -54.4°C | 4.7% | 0hPa | 2.5V | 00:00:00 | 01:40:14 | 00:00:00 | |
| OE8JPQ-2 | 2026-09-01 03:26:39 | 46.99665 | 16.41678 | 246° | 11km/h | 23163m | 5.2m/s | -54.3°C | 4.7% | 0hPa | 2.5V | 00:00:00 | 01:40:11 | 00:00:00 | |
| OE5MMP-10 | 2026-09-01 03:26:38 | 46.99666 | 16.41682 | 261° | 11km/h | 23158m | 4.8m/s | -54.3°C | 4.7% | 0hPa | 2.5V | 00:00:00 | 01:40:10 | 00:00:00 | |
| PG1ADW-2 | 2026-09-01 03:26:36 | 46.99669 | 16.41690 | 237° | 9km/h | 23146m | 5.5m/s | -54.4°C | 4.7% | 0hPa | 2.5V | 00:00:00 | 01:40:08 | 00:00:00 | |
| PETON7-10 | 2026-09-01 03:26:34 | 46.99671 | 16.41694 | 225° | 11km/h | 23134m | 6.2m/s | -54.4°C | 4.7% | 0hPa | 2.5V | 00:00:00 | 01:40:06 | 00:00:00 | |
| OE5DRO-10 | 2026-09-01 03:26:33 | 46.99672 | 16.41694 | 160° | 9km/h | 23129m | 4.6m/s | -54.4°C | 4.7% | 0hPa | 2.5V | 00:00:00 | 00:00:00 | 00:00:00 | |
| OE5MMP-10 | 2026-09-01 03:26:28 | 46.99687 | 16.41686 | 158° | 9km/h | 23100m | 4.0m/s | -54.3°C | 4.7% | 0hPa | 2.5V | 00:00:00 | 01:40:00 | 00:00:00 | |
| OE5DXL-15 | 2026-09-01 03:26:23 | 46.99703 | 16.41684 | 179° | 9km/h | 23071m | 5.6m/s | -54.3°C | 4.7% | 0hPa | 2.5V | 00:00:00 | 00:00:00 | 00:00:00 | |
| PETON7-10 | 2026-09-01 03:26:19 | 46.99708 | 16.41684 | 151° | 9km/h | 23047m | 5.5m/s | -54.3°C | 4.7% | 0hPa | 2.5V | 00:00:00 | 00:00:00 | 00:00:00 | |
| OE5MMP-10 | 2026-09-01 03:26:18 | 46.99708 | 16.41683 | 57° | 9km/h | 23041m | 6.1m/s | -54.3°C | 4.7% | 0hPa | 2.7V | 00:00:00 | 01:39:50 | 00:00:00 | |
| PG1ADW-2 | 2026-09-01 03:26:16 | 46.99709 | 16.41680 | 114° | 9km/h | 23032m | 5.4m/s | -54.3°C | 4.7% | 0hPa | 2.7V | 00:00:00 | 00:00:00 | 00:00:00 | |
| OE5DRO-10 | 2026-09-01 03:26:14 | 46.99713 | 16.41676 | 163° | 11km/h | 23021m | 4.6m/s | -54.3°C | 4.7% | 0hPa | 2.5V | 00:00:00 | 00:00:00 | 00:00:00 | |
| OE5MMP-10 | 2026-09-01 03:26:08 | 46.99726 | 16.41669 | 102° | 9km/h | 22989m | 5.0m/s | -54.2°C | 4.6% | 0hPa | 2.5V | 00:00:00 | 01:39:40 | 00:00:00 | |
| OE3JTB-15 | 2026-09-01 03:26:05 | 46.99725 | 16.41660 | 61° | 11km/h | 22971m | 5.0m/s | -54.2°C | 4.6% | 0hPa | 2.7V | 00:00:00 | 00:00:00 | 00:00:00 | |
| PETON7-10 | 2026-09-01 03:26:04 | 46.99724 | 16.41656 | 83° | 11km/h | 22965m | 6.8m/s | -54.2°C | 4.7% | 0hPa | 2.5V | 00:00:00 | 00:00:00 | 00:00:00 | |
| OE8JPQ-2 | 2026-09-01 03:25:59 | 46.99724 | 16.41639 | 98° | 13km/h | 22937m | 6.6m/s | -54.3°C | 4.7% | 0hPa | 2.5V | 00:00:00 | 00:00:00 | 00:00:00 | |
| OE5MMP-10 | 2026-09-01 03:25:58 | 46.99725 | 16.41635 | 107° | 11km/h | 22930m | 6.4m/s | -54.3°C | 4.7% | 0hPa | 2.5V | 00:00:00 | 01:39:30 | 00:00:00 | |
| PG1ADW-2 | 2026-09-01 03:25:56 | 46.99726 | 16.41627 | 104° | 13km/h | 22919m | 6.7m/s | -54.4°C | 4.7% | 0hPa | 2.5V | 00:00:00 | 00:00:00 | 00:00:00 | |
| OE5DRO-10 | 2026-09-01 03:25:55 | 46.99726 | 16.41625 | 81° | 13km/h | 22912m | 5.9m/s | -54.4°C | 4.8% | 0hPa | 2.5V | 00:00:00 | 00:00:00 | 08:30:00 | |
| OE5DXL-15 | 2026-09-01 03:25:53 | 46.99725 | 16.41621 | 71° | 13km/h | 22901m | 7.0m/s | -54.3°C | 4.7% | 0hPa | 2.7V | 00:00:00 | 00:00:00 | 08:30:00 | |
| PETON7-10 | 2026-09-01 03:25:49 | 46.99717 | 16.41601 | 51° | 15km/h | 22877m | 5.6m/s | -54.3°C | 4.7% | 0hPa | 2.5V | 00:00:00 | 01:39:21 | 00:00:00 | |
| OE5MMP-10 | 2026-09-01 03:25:48 | 46.99715 | 16.41596 | 57° | 15km/h | 22872m | 5.4m/s | -54.3°C | 4.7% | 0hPa | 2.5V | 00:00:00 | 01:39:20 | 00:00:00 | |
| OE8JPQ-2 | 2026-09-01 03:25:39 | 46.99700 | 16.41557 | 48° | 9km/h | 22819m | 7.0m/s | -54.2°C | 4.7% | 0hPa | 2.5V | 00:00:00 | 01:39:11 | 00:00:00 | |
| OE3JTB-15 | 2026-09-01 03:25:36 | 46.99693 | 16.41549 | 51° | 7km/h | 22801m | 6.3m/s | -54.2°C | 4.7% | 0hPa | 2.5V | 00:00:00 | 00:00:00 | 00:00:00 | |
| PETON7-10 | 2026-09-01 03:25:34 | 46.99688 | 16.41542 | 38° | 9km/h | 22789m | 6.8m/s | -54.2°C | 4.7% | 0hPa | 2.5V | 00:00:00 | 00:00:00 | 08:30:00 | |
| OE5MMP-10 | 2026-09-01 03:25:28 | 46.99675 | 16.41518 | 49° | 5km/h | 22755m | 6.9m/s | -54.0°C | 4.6% | 0hPa | 2.5V | 00:00:00 | 01:39:00 | 00:00:00 | |
| OE5DXL-15 | 2026-09-01 03:25:23 | 46.99671 | 16.41515 | 341° | 7km/h | 22725m | 6.7m/s | -54.0°C | 4.6% | 0hPa | 2.5V | 00:00:00 | 00:00:00 | 00:00:00 | |
| PETON7-10 | 2026-09-01 03:25:19 | 46.99663 | 16.41514 | 30° | 7km/h | 22702m | 4.9m/s | -53.9°C | 4.6% | 0hPa | 2.5V | 00:00:00 | 00:00:00 | 00:00:00 | |
| OE5MMP-10 | 2026-09-01 03:25:18 | 46.99661 | 16.41512 | 22° | 5km/h | 22696m | 6.3m/s | -53.9°C | 4.6% | 0hPa | 2.5V | 00:00:00 | 01:38:50 | 00:00:00 | |
| OE5DRO-10 | 2026-09-01 03:25:17 | 46.99658 | 16.41511 | 11° | 7km/h | 22690m | 5.9m/s | -53.9°C | 4.6% | 0hPa | 2.5V | 00:00:00 | 00:00:00 | 00:00:00 | |
| PG1ADW-2 | 2026-09-01 03:25:16 | 46.99656 | 16.41510 | 3° | 7km/h | 22684m | 4.4m/s | -53.9°C | 4.5% | 0hPa | 2.5V | 00:00:00 | 01:38:48 | 08:30:00 | |
| OE5MMP-10 | 2026-09-01 03:25:08 | 46.99653 | 16.41504 | 44° | 11km/h | 22637m | 5.7m/s | -54.3°C | 4.8% | 0hPa | 2.5V | 00:00:00 | 01:38:40 | 00:00:00 | |
| OE3JTB-15 | 2026-09-01 03:25:05 | 46.99646 | 16.41499 | 19° | 11km/h | 22620m | 5.8m/s | -54.2°C | 4.7% | 0hPa | 2.7V | 00:00:00 | 01:38:37 | 00:00:00 | |
| PETON7-10 | 2026-09-01 03:25:04 | 46.99642 | 16.41497 | 33° | 11km/h | 22613m | 7.0m/s | -54.2°C | 4.8% | 0hPa | 2.7V | 00:00:00 | 01:38:36 | 00:00:00 | |
| OE8JPQ-2 | 2026-09-01 03:24:59 | 46.99629 | 16.41492 | 338° | 13km/h | 22585m | 6.1m/s | -54.1°C | 4.8% | 0hPa | 2.7V | 00:00:00 | 00:00:00 | 00:00:00 | |
| OE5MMP-10 | 2026-09-01 03:24:58 | 46.99627 | 16.41493 | 353° | 11km/h | 22579m | 6.0m/s | -54.1°C | 4.7% | 0hPa | 2.7V | 00:00:00 | 01:38:30 | 00:00:00 | |
| PG1ADW-2 | 2026-09-01 03:24:56 | 46.99624 | 16.41493 | 339° | 13km/h | 22568m | 5.9m/s | -54.0°C | 4.7% | 0hPa | 2.7V | 00:00:00 | 00:00:00 | 00:00:00 | |
| OE5DXL-15 | 2026-09-01 03:24:53 | 46.99618 | 16.41496 | 8° | 11km/h | 22550m | 7.0m/s | -53.9°C | 4.6% | 0hPa | 2.7V | 00:00:00 | 00:00:00 | 00:00:00 | |
| PETON7-10 | 2026-09-01 03:24:49 | 46.99603 | 16.41493 | 360° | 13km/h | 22526m | 4.7m/s | -53.9°C | 4.6% | 0hPa | 2.7V | 00:00:00 | 00:00:00 | 00:00:00 | |
| OE5MMP-10 | 2026-09-01 03:24:48 | 46.99598 | 16.41493 | 4° | 13km/h | 22520m | 6.2m/s | -53.9°C | 4.6% | 0hPa | 2.5V | 00:00:00 | 01:38:20 | 00:00:00 | |
| OE5DRO-10 | 2026-09-01 03:24:39 | 46.99571 | 16.41495 | 298° | 9km/h | 22465m | 4.9m/s | -53.7°C | 4.6% | 0hPa | 2.5V | 00:00:00 | 00:00:00 | 00:00:00 | |
| OE5MMP-10 | 2026-09-01 03:24:38 | 46.99570 | 16.41497 | 321° | 11km/h | 22459m | 7.0m/s | -53.8°C | 4.6% | 0hPa | 2.5V | 00:00:00 | 01:38:10 | 00:00:00 | |
| PG1ADW-2 | 2026-09-01 03:24:36 | 46.99567 | 16.41497 | 354° | 11km/h | 22446m | 6.7m/s | -53.8°C | 4.6% | 0hPa | 2.7V | 00:00:00 | 00:00:00 | 00:00:00 | |
| DB0NH | 2026-09-01 03:24:35 | 46.99564 | 16.41498 | 347° | 11km/h | 22440m | 5.9m/s | -53.8°C | 4.7% | 0hPa | 2.7V | 00:00:00 | 01:38:07 | 08:30:00 | |
| PETON7-10 | 2026-09-01 03:24:34 | 46.99560 | 16.41499 | 355° | 11km/h | 22435m | 4.0m/s | -53.8°C | 4.6% | 0hPa | 2.5V | 00:00:00 | 00:00:00 | 00:00:00 | |
| OE5MMP-10 | 2026-09-01 03:24:28 | 46.99547 | 16.41498 | 249° | 9km/h | 22401m | 5.3m/s | -53.6°C | 4.6% | 0hPa | 2.5V | 00:00:00 | 01:38:00 | 00:00:00 | |
| OE5DXL-15 | 2026-09-01 03:24:23 | 46.99552 | 16.41511 | 280° | 11km/h | 22371m | 4.2m/s | -53.7°C | 4.6% | 0hPa | 2.5V | 00:00:00 | 00:00:00 | 00:00:00 | |
| OE5DRO-10 | 2026-09-01 03:24:20 | 46.99546 | 16.41518 | 356° | 11km/h | 22354m | 4.8m/s | -53.7°C | 4.6% | 0hPa | 2.5V | 00:00:00 | 00:00:00 | 00:00:00 | |
| PETON7-10 | 2026-09-01 03:24:19 | 46.99542 | 16.41518 | 353° | 13km/h | 22348m | 6.1m/s | -53.7°C | 4.6% | 0hPa | 2.5V | 00:00:00 | 01:37:51 | 00:00:00 | |
| OE5MMP-10 | 2026-09-01 03:24:18 | 46.99539 | 16.41520 | 333° | 13km/h | 22342m | 5.6m/s | -53.7°C | 4.6% | 0hPa | 2.5V | 00:00:00 | 01:37:50 | 00:00:00 | |
| PG1ADW-2 | 2026-09-01 03:24:16 | 46.99534 | 16.41526 | 303° | 11km/h | 22331m | 6.0m/s | -53.6°C | 4.6% | 0hPa | 2.5V | 00:00:00 | 00:00:00 | 00:00:00 | |
| OE5MMP-10 | 2026-09-01 03:24:08 | 46.99539 | 16.41560 | 274° | 7km/h | 22282m | 6.5m/s | -53.6°C | 4.6% | 0hPa | 2.5V | 00:00:00 | 01:37:40 | 08:30:00 | |
| OE3JTB-15 | 2026-09-01 03:24:07 | 46.99538 | 16.41564 | 284° | 16km/h | 22277m | 4.2m/s | -53.5°C | 4.6% | 0hPa | 2.7V | 00:00:00 | 00:00:00 | 00:00:00 | |
| DB0NH | 2026-09-01 03:24:05 | 46.99537 | 16.41571 | 306° | 13km/h | 22266m | 6.9m/s | -53.5°C | 4.6% | 0hPa | 2.7V | 00:00:00 | 01:37:37 | 00:00:00 | |
| PETON7-10 | 2026-09-01 03:24:04 | 46.99536 | 16.41572 | 210° | 11km/h | 22260m | 5.0m/s | -53.4°C | 4.6% | 0hPa | 2.7V | 00:00:00 | 00:00:00 | 00:00:00 | |
| OE5DRO-10 | 2026-09-01 03:24:01 | 46.99539 | 16.41575 | 213° | 11km/h | 22242m | 5.1m/s | -53.3°C | 4.6% | 0hPa | 2.6V | 00:00:00 | 00:00:00 | 00:00:00 | |
| OE8JPQ-2 | 2026-09-01 03:23:59 | 46.99542 | 16.41578 | 223° | 13km/h | 22229m | 5.5m/s | -53.2°C | 4.5% | 0hPa | 2.6V | 00:00:00 | 00:00:00 | 00:00:00 | |
| OE5MMP-10 | 2026-09-01 03:23:58 | 46.99544 | 16.41581 | 229° | 15km/h | 22222m | 7.9m/s | -53.2°C | 4.5% | 0hPa | 2.6V | 00:00:00 | 01:37:30 | 00:00:00 | |
| PG1ADW-2 | 2026-09-01 03:23:56 | 46.99550 | 16.41590 | 225° | 15km/h | 22210m | 5.8m/s | -53.1°C | 4.5% | 0hPa | 2.6V | 00:00:00 | 01:37:28 | 00:00:00 | |
| OE5DXL-15 | 2026-09-01 03:23:53 | 46.99560 | 16.41600 | 203° | 16km/h | 22193m | 4.5m/s | -53.1°C | 4.5% | 0hPa | 2.6V | 00:00:00 | 00:00:00 | 00:00:00 | |
| PETON7-10 | 2026-09-01 03:23:49 | 46.99569 | 16.41610 | 224° | 16km/h | 22169m | 7.7m/s | -53.0°C | 4.4% | 0hPa | 2.6V | 00:00:00 | 00:00:00 | 00:00:00 | |
| OE5MMP-10 | 2026-09-01 03:23:48 | 46.99570 | 16.41610 | 125° | 15km/h | 22163m | 5.4m/s | -53.0°C | 4.5% | 0hPa | 2.6V | 00:00:00 | 01:37:20 | 00:00:00 | |
| OE5DRO-10 | 2026-09-01 03:23:42 | 46.99584 | 16.41609 | 179° | 20km/h | 22128m | 5.6m/s | -52.8°C | 4.4% | 0hPa | 2.6V | 00:00:00 | 00:00:00 | 00:00:00 | |
| OE8JPQ-2 | 2026-09-01 03:23:39 | 46.99601 | 16.41613 | 188° | 20km/h | 22109m | 5.7m/s | -52.8°C | 4.4% | 0hPa | 2.6V | 00:00:00 | 01:37:11 | 00:00:00 | |
| OE5MMP-10 | 2026-09-01 03:23:38 | 46.99608 | 16.41614 | 183° | 20km/h | 22103m | 6.2m/s | -52.8°C | 4.4% | 0hPa | 2.6V | 00:00:00 | 01:37:10 | 00:00:00 | |
| PG1ADW-2 | 2026-09-01 03:23:36 | 46.99621 | 16.41615 | 188° | 18km/h | 22091m | 6.4m/s | -52.8°C | 4.4% | 0hPa | 2.5V | 00:00:00 | 00:00:00 | 00:00:00 | |
| DB0NH | 2026-09-01 03:23:35 | 46.99627 | 16.41616 | 187° | 16km/h | 22086m | 4.3m/s | -52.8°C | 4.4% | 0hPa | 2.5V | 00:00:00 | 01:37:07 | 00:00:00 | |
| PETON7-10 | 2026-09-01 03:23:34 | 46.99632 | 16.41616 | 176° | 18km/h | 22081m | 5.3m/s | -52.8°C | 4.4% | 0hPa | 2.5V | 00:00:00 | 01:37:06 | 00:00:00 | |
| OE5MMP-10 | 2026-09-01 03:23:28 | 46.99657 | 16.41604 | 172° | 20km/h | 22046m | 5.2m/s | -52.9°C | 4.4% | 0hPa | 2.5V | 00:00:00 | 01:37:00 | 00:00:00 | |
| OE3JTB-15 | 2026-09-01 03:23:27 | 46.99661 | 16.41603 | 164° | 9km/h | 22040m | 6.0m/s | -53.0°C | 4.4% | 0hPa | 2.5V | 00:00:00 | 01:36:59 | 00:00:00 | |
| OE5DXL-15 | 2026-09-01 03:23:23 | 46.99679 | 16.41595 | 155° | 13km/h | 22017m | 5.2m/s | -53.1°C | 4.4% | 0hPa | 2.5V | 00:00:00 | 00:00:00 | 00:00:00 | |
| PETON7-10 | 2026-09-01 03:23:19 | 46.99697 | 16.41577 | 143° | 15km/h | 21994m | 6.5m/s | -53.1°C | 4.4% | 0hPa | 2.5V | 00:00:00 | 00:00:00 | 08:30:00 | |
| OE5MMP-10 | 2026-09-01 03:23:18 | 46.99701 | 16.41573 | 150° | 15km/h | 21987m | 5.5m/s | -53.1°C | 4.4% | 0hPa | 2.7V | 00:00:00 | 01:36:50 | 00:00:00 | |
| PG1ADW-2 | 2026-09-01 03:23:16 | 46.99708 | 16.41566 | 132° | 11km/h | 21976m | 6.9m/s | -53.0°C | 4.5% | 0hPa | 2.7V | 00:00:00 | 00:00:00 | 00:00:00 | |
| OE5MMP-10 | 2026-09-01 03:23:08 | 46.99718 | 16.41533 | 120° | 9km/h | 21929m | 4.8m/s | -53.0°C | 4.4% | 0hPa | 2.6V | 00:00:00 | 01:36:40 | 00:00:00 | |
| DB0NH | 2026-09-01 03:23:05 | 46.99723 | 16.41521 | 125° | 7km/h | 21911m | 4.4m/s | -53.0°C | 4.4% | 0hPa | 2.5V | 00:00:00 | 01:36:37 | 00:00:00 | |
| PETON7-10 | 2026-09-01 03:23:04 | 46.99725 | 16.41518 | 134° | 7km/h | 21907m | 4.8m/s | -53.0°C | 4.4% | 0hPa | 2.6V | 00:00:00 | 00:00:00 | 00:00:00 | |
| OE8JPQ-2 | 2026-09-01 03:22:59 | 46.99731 | 16.41509 | 127° | 7km/h | 21878m | 5.0m/s | -53.1°C | 4.4% | 0hPa | 2.6V | 00:00:00 | 00:00:00 | 00:00:00 | |
| OE5MMP-10 | 2026-09-01 03:22:58 | 46.99733 | 16.41507 | 148° | 5km/h | 21872m | 7.3m/s | -53.1°C | 4.4% | 0hPa | 2.6V | 00:00:00 | 01:36:30 | 00:00:00 | |
| PG1ADW-2 | 2026-09-01 03:22:56 | 46.99737 | 16.41505 | 161° | 7km/h | 21859m | 6.6m/s | -53.2°C | 4.5% | 0hPa | 2.6V | 00:00:00 | 00:00:00 | 00:00:00 | |
| OE5DXL-15 | 2026-09-01 03:22:53 | 46.99740 | 16.41504 | 223° | 9km/h | 21841m | 6.5m/s | -53.3°C | 4.5% | 0hPa | 2.6V | 00:00:00 | 00:00:00 | 00:00:00 | |
| PETON7-10 | 2026-09-01 03:22:49 | 46.99743 | 16.41506 | 172° | 7km/h | 21818m | 5.1m/s | -53.3°C | 4.5% | 0hPa | 2.6V | 00:00:00 | 01:36:21 | 00:00:00 | |
| OE5MMP-10 | 2026-09-01 03:22:48 | 46.99744 | 16.41507 | 199° | 9km/h | 21812m | 6.7m/s | -53.3°C | 4.5% | 0hPa | 2.6V | 00:00:00 | 01:36:20 | 00:00:00 | |
| OE5DRO-10 | 2026-09-01 03:22:45 | 46.99750 | 16.41507 | 162° | 11km/h | 21794m | 5.5m/s | -53.3°C | 4.6% | 0hPa | 2.6V | 00:00:00 | 00:00:00 | 00:00:00 | |
| OE8JPQ-2 | 2026-09-01 03:22:39 | 46.99764 | 16.41509 | 208° | 9km/h | 21760m | 5.8m/s | -53.3°C | 4.5% | 0hPa | 2.6V | 00:00:00 | 01:36:11 | 00:00:00 | |
| OE5MMP-10 | 2026-09-01 03:22:38 | 46.99766 | 16.41510 | 232° | 9km/h | 21754m | 6.0m/s | -53.2°C | 4.5% | 0hPa | 2.6V | 00:00:00 | 01:36:10 | 08:30:00 | |
| PG1ADW-2 | 2026-09-01 03:22:36 | 46.99767 | 16.41514 | 214° | 9km/h | 21743m | 6.7m/s | -53.2°C | 4.5% | 0hPa | 2.5V | 00:00:00 | 01:36:08 | 00:00:00 | |
| DB0NH | 2026-09-01 03:22:35 | 46.99768 | 16.41514 | 179° | 11km/h | 21737m | 5.6m/s | -53.2°C | 4.5% | 0hPa | 2.5V | 00:00:00 | 01:36:07 | 00:00:00 | |
| PETON7-10 | 2026-09-01 03:22:34 | 46.99769 | 16.41514 | 193° | 11km/h | 21730m | 6.7m/s | -53.2°C | 4.5% | 0hPa | 2.5V | 00:00:00 | 00:00:00 | 00:00:00 | |
| OE3JTB-15 | 2026-09-01 03:22:33 | 46.99771 | 16.41514 | 181° | 15km/h | 21724m | 5.0m/s | -53.2°C | 4.5% | 0hPa | 2.6V | 00:00:00 | 00:00:00 | 08:30:00 | |
| OE5MMP-10 | 2026-09-01 03:22:28 | 46.99787 | 16.41499 | 152° | 9km/h | 21694m | 5.6m/s | -53.0°C | 4.5% | 0hPa | 2.5V | 00:00:00 | 01:36:00 | 00:00:00 | |
| OE5DRO-10 | 2026-09-01 03:22:26 | 46.99793 | 16.41495 | 152° | 9km/h | 21684m | 6.7m/s | -53.0°C | 4.4% | 0hPa | 2.5V | 00:00:00 | 00:00:00 | 00:00:00 | |
| OE5DXL-15 | 2026-09-01 03:22:23 | 46.99799 | 16.41491 | 166° | 11km/h | 21665m | 4.6m/s | -53.0°C | 4.4% | 0hPa | 2.5V | 00:00:00 | 00:00:00 | 00:00:00 | |
| OE8JPQ-2 | 2026-09-01 03:22:19 | 46.99799 | 16.41484 | 108° | 13km/h | 21641m | 5.9m/s | -53.0°C | 4.4% | 0hPa | 2.5V | 00:00:00 | 00:00:00 | 08:30:00 | |
| OE5MMP-10 | 2026-09-01 03:22:18 | 46.99800 | 16.41481 | 129° | 11km/h | 21637m | 3.6m/s | -52.9°C | 4.4% | 0hPa | 2.7V | 00:00:00 | 01:35:50 | 00:00:00 | |
| PG1ADW-2 | 2026-09-01 03:22:16 | 46.99805 | 16.41472 | 118° | 11km/h | 21626m | 6.0m/s | -52.9°C | 4.3% | 0hPa | 2.7V | 00:00:00 | 00:00:00 | 08:30:00 | |
| OE5MMP-10 | 2026-09-01 03:22:08 | 46.99812 | 16.41446 | 77° | 15km/h | 21580m | 6.5m/s | -53.2°C | 4.5% | 0hPa | 2.6V | 00:00:00 | 01:35:40 | 00:00:00 | |
| OE5DRO-10 | 2026-09-01 03:22:07 | 46.99811 | 16.41443 | 79° | 11km/h | 21574m | 5.5m/s | -53.2°C | 4.5% | 0hPa | 2.7V | 00:00:00 | 00:00:00 | 00:00:00 | |
| DB0NH | 2026-09-01 03:22:05 | 46.99810 | 16.41433 | 88° | 11km/h | 21563m | 6.3m/s | -53.2°C | 4.5% | 0hPa | 2.6V | 00:00:00 | 01:35:37 | 00:00:00 | |
| PETON7-10 | 2026-09-01 03:22:04 | 46.99810 | 16.41428 | 81° | 11km/h | 21558m | 5.0m/s | -53.2°C | 4.4% | 0hPa | 2.6V | 00:00:00 | 01:35:36 | 00:00:00 | |
| OE8JPQ-2 | 2026-09-01 03:21:59 | 46.99807 | 16.41399 | 84° | 9km/h | 21528m | 4.9m/s | -53.0°C | 4.5% | 0hPa | 2.6V | 00:00:00 | 00:00:00 | 00:00:00 | |
| OE5DXL-15 | 2026-09-01 03:21:53 | 46.99801 | 16.41398 | 346° | 9km/h | 21491m | 7.2m/s | -52.9°C | 4.3% | 0hPa | 2.6V | 00:00:00 | 00:00:00 | 00:00:00 | |
| PETON7-10 | 2026-09-01 03:21:49 | 46.99792 | 16.41394 | 41° | 9km/h | 21468m | 5.1m/s | -53.0°C | 4.4% | 0hPa | 2.6V | 00:00:00 | 00:00:00 | 00:00:00 | |
| OE5MMP-10 | 2026-09-01 03:21:48 | 46.99790 | 16.41392 | 53° | 9km/h | 21463m | 4.0m/s | -53.0°C | 4.4% | 0hPa | 2.6V | 00:00:00 | 01:35:20 | 00:00:00 | |
| OE8JPQ-2 | 2026-09-01 03:21:39 | 46.99775 | 16.41385 | 312° | 9km/h | 21411m | 5.5m/s | -53.2°C | 4.4% | 0hPa | 2.6V | 00:00:00 | 01:35:11 | 00:00:00 | |
| OE5MMP-10 | 2026-09-01 03:21:38 | 46.99774 | 16.41388 | 308° | 7km/h | 21405m | 5.9m/s | -53.2°C | 4.4% | 0hPa | 2.6V | 00:00:00 | 01:35:10 | 00:00:00 | |
| PG1ADW-2 | 2026-09-01 03:21:36 | 46.99769 | 16.41393 | 345° | 7km/h | 21393m | 5.1m/s | -53.3°C | 4.4% | 0hPa | 2.6V | 00:00:00 | 00:00:00 | 00:00:00 | |
| DB0NH | 2026-09-01 03:21:35 | 46.99768 | 16.41394 | 333° | 9km/h | 21388m | 6.2m/s | -53.4°C | 4.4% | 0hPa | 2.6V | 00:00:00 | 01:35:07 | 00:00:00 | |
| PETON7-10 | 2026-09-01 03:21:34 | 46.99767 | 16.41395 | 328° | 9km/h | 21381m | 5.9m/s | -53.5°C | 4.5% | 0hPa | 2.7V | 00:00:00 | 00:00:00 | 00:00:00 | |
| NBG1-10 | 2026-09-01 03:21:30 | 46.99762 | 16.41394 | 341° | 9km/h | 21356m | 7.3m/s | -53.6°C | 4.6% | 0hPa | 2.7V | 00:00:00 | 01:35:02 | 00:00:00 | |
| OE5DRO-10 | 2026-09-01 03:21:29 | 46.99762 | 16.41395 | 288° | 9km/h | 21350m | 4.9m/s | -53.7°C | 4.6% | 0hPa | 2.7V | 00:00:00 | 00:00:00 | 00:00:00 | |
| OE5MMP-10 | 2026-09-01 03:21:28 | 46.99761 | 16.41397 | 286° | 11km/h | 21344m | 6.7m/s | -53.7°C | 4.6% | 0hPa | 2.7V | 00:00:00 | 01:35:00 | 00:00:00 | |
| PETON7-10 | 2026-09-01 03:21:19 | 46.99761 | 16.41433 | 266° | 7km/h | 21292m | 4.5m/s | -53.9°C | 4.7% | 0hPa | 2.7V | 00:00:00 | 01:34:51 | 00:00:00 | |
| OE5MMP-10 | 2026-09-01 03:21:18 | 46.99761 | 16.41435 | 281° | 9km/h | 21287m | 6.9m/s | -53.9°C | 4.7% | 0hPa | 2.7V | 00:00:00 | 01:34:50 | 00:00:00 | |
| PG1ADW-2 | 2026-09-01 03:21:16 | 46.99761 | 16.41437 | 236° | 9km/h | 21275m | 7.1m/s | -53.8°C | 4.7% | 0hPa | 2.7V | 00:00:00 | 01:34:48 | 00:00:00 | |
| OE5DRO-10 | 2026-09-01 03:21:10 | 46.99771 | 16.41452 | 215° | 9km/h | 21240m | 6.2m/s | -53.7°C | 4.5% | 0hPa | 2.6V | 00:00:00 | 00:00:00 | 00:00:00 | |
| OE5MMP-10 | 2026-09-01 03:21:08 | 46.99776 | 16.41457 | 215° | 9km/h | 21229m | 6.6m/s | -53.6°C | 4.5% | 0hPa | 2.6V | 00:00:00 | 01:34:40 | 08:30:00 | |
| DB0NH | 2026-09-01 03:21:05 | 46.99782 | 16.41458 | 173° | 15km/h | 21211m | 6.8m/s | -53.5°C | 0% | 0hPa | 2.6V | 00:00:00 | 01:34:37 | 00:00:00 | |
| PETON7-10 | 2026-09-01 03:21:04 | 46.99784 | 16.41458 | 158° | 11km/h | 21205m | 4.4m/s | -53.5°C | 4.5% | 0hPa | 2.6V | 00:00:00 | 00:00:00 | 08:30:00 | |
| OE8JPQ-2 | 2026-09-01 03:20:59 | 46.99793 | 16.41451 | 165° | 15km/h | 21175m | 5.5m/s | -53.5°C | 4.5% | 0hPa | 2.7V | 00:00:00 | 00:00:00 | 00:00:00 | |
| OE5MMP-10 | 2026-09-01 03:20:58 | 46.99796 | 16.41450 | 173° | 13km/h | 21169m | 6.6m/s | -53.5°C | 4.5% | 0hPa | 2.7V | 00:00:00 | 01:34:30 | 00:00:00 | |
| PG1ADW-2 | 2026-09-01 03:20:56 | 46.99800 | 16.41449 | 170° | 16km/h | 21157m | 6.2m/s | -53.4°C | 4.4% | 0hPa | 2.7V | 00:00:00 | 00:00:00 | 00:00:00 | |
| OE5DXL-15 | 2026-09-01 03:20:53 | 46.99810 | 16.41444 | 156° | 16km/h | 21139m | 6.6m/s | -53.4°C | 4.4% | 0hPa | 2.7V | 00:00:00 | 01:34:25 | 00:00:00 | |
| NBG1-10 | 2026-09-01 03:20:52 | 46.99812 | 16.41442 | 143° | 16km/h | 21134m | 4.8m/s | 0°C | 0% | 0hPa | 2.7V | 00:00:00 | 01:34:24 | 00:00:00 | |
| OE5DRO-10 | 2026-09-01 03:20:51 | 46.99814 | 16.41439 | 138° | 16km/h | 21128m | 5.2m/s | -53.4°C | 4.4% | 0hPa | 2.7V | 00:00:00 | 00:00:00 | 00:00:00 | |
| PETON7-10 | 2026-09-01 03:20:49 | 46.99821 | 16.41430 | 130° | 16km/h | 21116m | 6.0m/s | -53.4°C | 4.5% | 0hPa | 2.7V | 00:00:00 | 00:00:00 | 00:00:00 | |
| OE5MMP-10 | 2026-09-01 03:20:48 | 46.99823 | 16.41425 | 123° | 16km/h | 21110m | 6.8m/s | -53.3°C | 4.5% | 0hPa | 2.7V | 00:00:00 | 01:34:20 | 00:00:00 | |
| OE8JPQ-2 | 2026-09-01 03:20:39 | 46.99841 | 16.41374 | 97° | 16km/h | 21058m | 5.8m/s | -53.6°C | 4.5% | 0hPa | 2.7V | 00:00:00 | 01:34:11 | 00:00:00 | |
| OE5MMP-10 | 2026-09-01 03:20:38 | 46.99841 | 16.41369 | 100° | 16km/h | 21052m | 5.4m/s | -53.6°C | 4.5% | 0hPa | 2.7V | 00:00:00 | 01:34:10 | 00:00:00 | |
| PG1ADW-2 | 2026-09-01 03:20:36 | 46.99843 | 16.41357 | 114° | 15km/h | 21040m | 5.1m/s | -53.7°C | 4.5% | 0hPa | 2.7V | 00:00:00 | 00:00:00 | 00:00:00 | |
| DB0NH | 2026-09-01 03:20:35 | 46.99845 | 16.41351 | 114° | 13km/h | 21034m | 6.5m/s | 0°C | 0% | 0hPa | 2.7V | 00:00:00 | 01:34:07 | 00:00:00 | |
| PETON7-10 | 2026-09-01 03:20:34 | 46.99847 | 16.41345 | 110° | 16km/h | 21028m | 5.8m/s | -53.8°C | 4.5% | 0hPa | 2.7V | 00:00:00 | 01:34:06 | 00:00:00 | |
| OE5DRO-10 | 2026-09-01 03:20:32 | 46.99850 | 16.41335 | 121° | 13km/h | 21017m | 6.8m/s | -53.9°C | 4.5% | 0hPa | 2.7V | 00:00:00 | 00:00:00 | 00:00:00 | |
| OE5MMP-10 | 2026-09-01 03:20:28 | 46.99855 | 16.41314 | 83° | 15km/h | 20994m | 4.1m/s | -54.0°C | 4.5% | 0hPa | 2.7V | 00:00:00 | 01:34:00 | 00:00:00 | |
| OE5DXL-15 | 2026-09-01 03:20:23 | 46.99851 | 16.41282 | 78° | 11km/h | 20964m | 5.5m/s | -54.0°C | 4.5% | 0hPa | 2.7V | 00:00:00 | 00:00:00 | 00:00:00 | |
| OE3JTB-15 | 2026-09-01 03:20:22 | 46.99850 | 16.41275 | 90° | 15km/h | 20958m | 6.2m/s | -54.0°C | 4.6% | 0hPa | 2.7V | 00:00:00 | 00:00:00 | 00:00:00 | |
| PETON7-10 | 2026-09-01 03:20:19 | 46.99850 | 16.41263 | 137° | 7km/h | 20942m | 4.4m/s | -54.1°C | 4.6% | 0hPa | 2.7V | 00:00:00 | 00:00:00 | 00:00:00 | |
| NBG1-10 | 2026-09-01 03:20:18 | 46.99852 | 16.41262 | 164° | 11km/h | 20936m | 6.2m/s | 0°C | 0% | 0hPa | 2.6V | 00:00:00 | 01:33:50 | 00:00:00 | |
| PG1ADW-2 | 2026-09-01 03:20:16 | 46.99855 | 16.41261 | 177° | 9km/h | 20925m | 7.1m/s | -54.1°C | 4.6% | 0hPa | 2.6V | 00:00:00 | 00:00:00 | 00:00:00 | |
| OE5DRO-10 | 2026-09-01 03:20:13 | 46.99860 | 16.41256 | 144° | 11km/h | 20907m | 5.5m/s | -54.1°C | 4.5% | 0hPa | 2.7V | 00:00:00 | 00:00:00 | 08:30:00 | |
| OE5MMP-10 | 2026-09-01 03:20:08 | 46.99864 | 16.41245 | 118° | 9km/h | 20880m | 6.4m/s | 0°C | 0% | 0hPa | 2.7V | 00:00:00 | 01:33:40 | 00:00:00 | |
| DB0NH | 2026-09-01 03:20:05 | 46.99867 | 16.41236 | 92° | 11km/h | 20863m | 6.4m/s | 0°C | 0% | 0hPa | 2.7V | 00:00:00 | 01:33:37 | 00:00:00 | |
| PETON7-10 | 2026-09-01 03:20:04 | 46.99867 | 16.41233 | 88° | 15km/h | 20857m | 5.3m/s | -54.7°C | 4.7% | 0hPa | 2.7V | 00:00:00 | 00:00:00 | 00:00:00 | |
| OE8JPQ-2 | 2026-09-01 03:19:59 | 46.99863 | 16.41214 | 75° | 15km/h | 20826m | 5.7m/s | -54.7°C | 4.7% | 0hPa | 2.7V | 00:00:00 | 00:00:00 | 00:00:00 | |
| OE5MMP-10 | 2026-09-01 03:19:58 | 46.99862 | 16.41208 | 86° | 16km/h | 20820m | 6.1m/s | 0°C | 0% | 0hPa | 2.7V | 00:00:00 | 01:33:30 | 00:00:00 | |
| PG1ADW-2 | 2026-09-01 03:19:56 | 46.99861 | 16.41194 | 76° | 13km/h | 20810m | 6.4m/s | -54.7°C | 4.7% | 0hPa | 2.7V | 00:00:00 | 01:33:28 | 00:00:00 | |
| OE5DRO-10 | 2026-09-01 03:19:54 | 46.99858 | 16.41179 | 76° | 13km/h | 20799m | 5.2m/s | -54.8°C | 4.7% | 0hPa | 2.7V | 00:00:00 | 00:00:00 | 00:00:00 | |
| OE5DXL-15 | 2026-09-01 03:19:53 | 46.99857 | 16.41172 | 82° | 11km/h | 20793m | 6.9m/s | -54.8°C | 4.7% | 0hPa | 2.7V | 00:00:00 | 00:00:00 | 00:00:00 | |
| PETON7-10 | 2026-09-01 03:19:49 | 46.99852 | 16.41158 | 24° | 11km/h | 20771m | 4.1m/s | -55.0°C | 4.8% | 0hPa | 2.6V | 00:00:00 | 01:33:21 | 00:00:00 | |
| OE5MMP-10 | 2026-09-01 03:19:48 | 46.99850 | 16.41156 | 24° | 13km/h | 20765m | 6.5m/s | 0°C | 0% | 0hPa | 2.6V | 00:00:00 | 01:33:20 | 00:00:00 | |
| NBG1-10 | 2026-09-01 03:19:45 | 46.99842 | 16.41152 | 18° | 9km/h | 20748m | 6.0m/s | 0°C | 0% | 0hPa | 2.6V | 00:00:00 | 01:33:17 | 00:00:00 | |
| OE3JTB-15 | 2026-09-01 03:19:40 | 46.99826 | 16.41140 | 20° | 9km/h | 20718m | 4.5m/s | -54.9°C | 4.8% | 0hPa | 2.6V | 00:00:00 | 01:33:12 | 00:00:00 | |
| OE8JPQ-2 | 2026-09-01 03:19:39 | 46.99823 | 16.41138 | 17° | 9km/h | 20712m | 7.3m/s | -54.9°C | 4.8% | 0hPa | 2.6V | 00:00:00 | 01:33:11 | 00:00:00 | |
| OE5MMP-10 | 2026-09-01 03:19:38 | 46.99821 | 16.41138 | 11° | 9km/h | 20706m | 5.3m/s | 0°C | 0% | 0hPa | 2.6V | 00:00:00 | 01:33:10 | 00:00:00 | |
| PG1ADW-2 | 2026-09-01 03:19:36 | 46.99817 | 16.41137 | 354° | 9km/h | 20694m | 6.7m/s | -54.9°C | 4.8% | 0hPa | 2.6V | 00:00:00 | 00:00:00 | 00:00:00 | |
| OE5DRO-10 | 2026-09-01 03:19:35 | 46.99814 | 16.41138 | 353° | 9km/h | 20689m | 4.7m/s | -54.9°C | 4.8% | 0hPa | 2.6V | 00:00:00 | 00:00:00 | 00:00:00 | |
| OE5DXL-15 | 2026-09-01 03:19:23 | 46.99786 | 16.41131 | 316° | 7km/h | 20622m | 6.3m/s | -55.0°C | 4.8% | 0hPa | 2.6V | 00:00:00 | 00:00:00 | 00:00:00 | |
| PETON7-10 | 2026-09-01 03:19:19 | 46.99782 | 16.41139 | 309° | 7km/h | 20600m | 6.4m/s | -55.0°C | 4.8% | 0hPa | 2.6V | 00:00:00 | 00:00:00 | 00:00:00 | |
| NBG1-10 | 2026-09-01 03:19:12 | 46.99772 | 16.41127 | 36° | 7km/h | 20561m | 7.0m/s | 0°C | 0% | 0hPa | 2.6V | 00:00:00 | 01:32:44 | 00:00:00 | |
| OE3JTB-15 | 2026-09-01 03:19:11 | 46.99771 | 16.41126 | 10° | 11km/h | 20555m | 4.6m/s | -54.8°C | 4.7% | 0hPa | 2.6V | 00:00:00 | 00:00:00 | 00:00:00 | |
| OE3OSB-13 | 2026-09-01 03:19:09 | 46.99769 | 16.41126 | 254° | 2km/h | 20543m | 5.3m/s | 0°C | -1.0% | -1.0hPa | 2.7V | 00:00:00 | 00:00:00 | 00:00:00 | |
| OE8JPQ-2 | 2026-09-01 03:18:59 | 46.99773 | 16.41132 | 101° | 13km/h | 20492m | 5.6m/s | -55.0°C | 4.7% | 0hPa | 2.7V | 00:00:00 | 00:00:00 | 00:00:00 | |
| OE5DRO-10 | 2026-09-01 03:18:57 | 46.99775 | 16.41124 | 99° | 13km/h | 20480m | 5.8m/s | -55.0°C | 4.8% | 0hPa | 2.7V | 00:00:00 | 00:00:00 | 00:00:00 | |
| PG1ADW-2 | 2026-09-01 03:18:56 | 46.99775 | 16.41119 | 96° | 13km/h | 20474m | 6.8m/s | -54.9°C | 4.7% | 0hPa | 2.7V | 00:00:00 | 00:00:00 | 00:00:00 | |
| OE5DXL-15 | 2026-09-01 03:18:53 | 46.99776 | 16.41108 | 101° | 15km/h | 20458m | 5.6m/s | -55.0°C | 4.8% | 0hPa | 2.7V | 00:00:00 | 00:00:00 | 00:00:00 | |
| PETON7-10 | 2026-09-01 03:18:49 | 46.99776 | 16.41098 | 50° | 15km/h | 20437m | 3.8m/s | -55.1°C | 4.8% | 0hPa | 2.7V | 00:00:00 | 00:00:00 | 08:30:00 | |
| OE3JTB-15 | 2026-09-01 03:18:42 | 46.99767 | 16.41060 | 71° | 15km/h | 20397m | 5.4m/s | -55.3°C | 4.8% | 0hPa | 2.7V | 00:00:00 | 00:00:00 | 00:00:00 | |
| OE8JPQ-2 | 2026-09-01 03:18:39 | 46.99761 | 16.41045 | 55° | 15km/h | 20380m | 5.6m/s | -55.3°C | 4.7% | 0hPa | 2.7V | 00:00:00 | 01:32:11 | 00:00:00 | |
| OE5DRO-10 | 2026-09-01 03:18:38 | 46.99760 | 16.41042 | 54° | 15km/h | 20374m | 6.0m/s | -55.4°C | 4.8% | 0hPa | 2.7V | 00:00:00 | 00:00:00 | 00:00:00 | |
| PG1ADW-2 | 2026-09-01 03:18:36 | 46.99756 | 16.41037 | 39° | 16km/h | 20362m | 5.9m/s | -55.5°C | 4.8% | 0hPa | 2.7V | 00:00:00 | 01:32:08 | 00:00:00 | |
| PETON7-10 | 2026-09-01 03:18:34 | 46.99752 | 16.41031 | 54° | 16km/h | 20352m | 6.4m/s | -55.5°C | 4.8% | 0hPa | 2.7V | 00:00:00 | 00:00:00 | 00:00:00 | |
| OE5DXL-15 | 2026-09-01 03:18:23 | 46.99717 | 16.40978 | 56° | 18km/h | 20293m | 5.5m/s | -55.6°C | 4.8% | 0hPa | 2.7V | 00:00:00 | 00:00:00 | 00:00:00 | |
| PETON7-10 | 2026-09-01 03:18:19 | 46.99710 | 16.40965 | 67° | 16km/h | 20270m | 6.5m/s | -55.7°C | 4.9% | 0hPa | 2.6V | 00:00:00 | 01:31:51 | 00:00:00 | |
| PG1ADW-2 | 2026-09-01 03:18:16 | 46.99706 | 16.40951 | 63° | 20km/h | 20254m | 4.6m/s | -55.7°C | 4.8% | 0hPa | 2.6V | 00:00:00 | 00:00:00 | 00:00:00 | |
| OE3JTB-15 | 2026-09-01 03:18:13 | 46.99703 | 16.40936 | 81° | 24km/h | 20239m | 5.8m/s | -55.8°C | 4.8% | 0hPa | 2.7V | 00:00:00 | 01:31:45 | 00:00:00 | |
| PETON7-10 | 2026-09-01 03:18:04 | 46.99687 | 16.40879 | 96° | 27km/h | 20192m | 6.3m/s | -56.7°C | 5.0% | 0hPa | 2.7V | 00:00:00 | 00:00:00 | 00:00:00 | |
| OE8JPQ-2 | 2026-09-01 03:17:59 | 46.99692 | 16.40845 | 93° | 33km/h | 20165m | 6.5m/s | -56.8°C | 5.1% | 0hPa | 2.7V | 00:00:00 | 00:00:00 | 00:00:00 | |
| PG1ADW-2 | 2026-09-01 03:17:56 | 46.99691 | 16.40813 | 86° | 33km/h | 20148m | 4.9m/s | -56.9°C | 5.2% | 0hPa | 2.7V | 00:00:00 | 00:00:00 | 00:00:00 | |
| OE5DXL-15 | 2026-09-01 03:17:53 | 46.99692 | 16.40780 | 101° | 35km/h | 20132m | 5.1m/s | -57.0°C | 5.3% | 0hPa | 2.7V | 00:00:00 | 00:00:00 | 00:00:00 | |
| PETON7-10 | 2026-09-01 03:17:49 | 46.99698 | 16.40735 | 101° | 35km/h | 20110m | 6.7m/s | -57.0°C | 5.2% | 0hPa | 2.7V | 00:00:00 | 00:00:00 | 00:00:00 | |
| OE3JTB-15 | 2026-09-01 03:17:44 | 46.99700 | 16.40666 | 92° | 35km/h | 20082m | 6.8m/s | -57.0°C | 5.2% | 0hPa | 2.7V | 00:00:00 | 00:00:00 | 08:30:00 | |
| OE5DRO-10 | 2026-09-01 03:17:41 | 46.99699 | 16.40627 | 86° | 35km/h | 20064m | 5.3m/s | -56.9°C | 5.2% | 0hPa | 2.6V | 00:00:00 | 00:00:00 | 00:00:00 | |
| OE8JPQ-2 | 2026-09-01 03:17:39 | 46.99699 | 16.40603 | 90° | 33km/h | 20052m | 4.5m/s | -56.9°C | 5.2% | 0hPa | 2.6V | 00:00:00 | 01:31:11 | 00:00:00 | |
| PG1ADW-2 | 2026-09-01 03:17:36 | 46.99698 | 16.40564 | 86° | 33km/h | 20037m | 5.4m/s | -57.0°C | 5.2% | 0hPa | 2.6V | 00:00:00 | 00:00:00 | 00:00:00 | |
| OE5DRO-10 | 2026-09-01 03:17:22 | 46.99680 | 16.40394 | 76° | 29km/h | 19956m | 5.2m/s | -57.1°C | 5.4% | 0hPa | 2.6V | 00:00:00 | 00:00:00 | 08:30:00 | |
| PETON7-10 | 2026-09-01 03:17:19 | 46.99673 | 16.40362 | 74° | 29km/h | 19940m | 4.9m/s | -57.0°C | 5.3% | 0hPa | 2.7V | 00:00:00 | 00:00:00 | 00:00:00 | |
| PG1ADW-2 | 2026-09-01 03:17:16 | 46.99662 | 16.40326 | 62° | 29km/h | 19922m | 5.6m/s | -57.0°C | 5.2% | 0hPa | 2.6V | 00:00:00 | 01:30:48 | 00:00:00 | |
| OE3JTB-15 | 2026-09-01 03:17:15 | 46.99658 | 16.40314 | 66° | 27km/h | 19917m | 5.2m/s | -57.0°C | 5.2% | 0hPa | 2.7V | 00:00:00 | 00:00:00 | 00:00:00 | |
| PETON7-10 | 2026-09-01 03:17:04 | 46.99616 | 16.40222 | 59° | 26km/h | 19854m | 5.2m/s | -56.6°C | 5.2% | 0hPa | 2.7V | 00:00:00 | 00:00:00 | 00:00:00 | |
| OE5DRO-10 | 2026-09-01 03:17:03 | 46.99611 | 16.40212 | 55° | 26km/h | 19849m | 5.9m/s | -56.6°C | 5.2% | 0hPa | 2.7V | 00:00:00 | 00:00:00 | 00:00:00 | |
| OE8JPQ-2 | 2026-09-01 03:16:59 | 46.99592 | 16.40179 | 43° | 26km/h | 19826m | 6.4m/s | -56.5°C | 5.1% | 0hPa | 2.7V | 00:00:00 | 00:00:00 | 00:00:00 | |
| PG1ADW-2 | 2026-09-01 03:16:56 | 46.99579 | 16.40160 | 47° | 24km/h | 19808m | 5.8m/s | -56.4°C | 5.1% | 0hPa | 2.7V | 00:00:00 | 00:00:00 | 00:00:00 | |
| OE5DXL-15 | 2026-09-01 03:16:53 | 46.99565 | 16.40140 | 43° | 22km/h | 19792m | 5.7m/s | -56.3°C | 5.0% | 0hPa | 2.7V | 00:00:00 | 00:00:00 | 08:30:00 | |
| PETON7-10 | 2026-09-01 03:16:49 | 46.99547 | 16.40112 | 44° | 24km/h | 19768m | 5.6m/s | -56.4°C | 5.0% | 0hPa | 2.7V | 00:00:00 | 01:30:21 | 00:00:00 | |
| OE3JTB-15 | 2026-09-01 03:16:45 | 46.99529 | 16.40089 | 45° | 18km/h | 19745m | 5.1m/s | -56.8°C | 5.2% | 0hPa | 2.7V | 00:00:00 | 01:30:17 | 00:00:00 | |
| OE5DRO-10 | 2026-09-01 03:16:44 | 46.99525 | 16.40084 | 45° | 20km/h | 19739m | 6.6m/s | -56.8°C | 5.2% | 0hPa | 2.7V | 00:00:00 | 00:00:00 | 00:00:00 | |
| OE8JPQ-2 | 2026-09-01 03:16:39 | 46.99504 | 16.40052 | 46° | 16km/h | 19710m | 6.1m/s | -56.8°C | 5.3% | 0hPa | 2.7V | 00:00:00 | 01:30:11 | 00:00:00 | |
| PG1ADW-2 | 2026-09-01 03:16:36 | 46.99490 | 16.40036 | 32° | 15km/h | 19693m | 6.7m/s | -56.7°C | 5.3% | 0hPa | 2.7V | 00:00:00 | 00:00:00 | 00:00:00 | |
| PETON7-10 | 2026-09-01 03:16:34 | 46.99481 | 16.40029 | 30° | 16km/h | 19680m | 6.8m/s | -56.6°C | 5.2% | 0hPa | 2.7V | 00:00:00 | 00:00:00 | 08:30:00 | |
| OE5DRO-10 | 2026-09-01 03:16:25 | 46.99452 | 16.39987 | 32° | 11km/h | 19627m | 6.4m/s | -56.5°C | 5.2% | 0hPa | 2.6V | 00:00:00 | 00:00:00 | 00:00:00 | |
| OE5DXL-15 | 2026-09-01 03:16:23 | 46.99446 | 16.39983 | 11° | 13km/h | 19615m | 7.1m/s | -56.4°C | 5.1% | 0hPa | 2.7V | 00:00:00 | 00:00:00 | 00:00:00 | |
| OE8JPQ-2 | 2026-09-01 03:16:19 | 46.99437 | 16.39979 | 44° | 13km/h | 19592m | 3.8m/s | -56.3°C | 5.2% | 0hPa | 2.7V | 00:00:00 | 00:00:00 | 08:30:00 | |
| OE3JTB-15 | 2026-09-01 03:16:16 | 46.99431 | 16.39970 | 48° | 16km/h | 19575m | 7.0m/s | -56.2°C | 5.1% | 0hPa | 2.6V | 00:00:00 | 00:00:00 | 00:00:00 | |
| OE5DRO-10 | 2026-09-01 03:16:06 | 46.99418 | 16.39934 | 69° | 18km/h | 19519m | 6.9m/s | -55.9°C | 5.1% | 0hPa | 2.7V | 00:00:00 | 00:00:00 | 00:00:00 | |
| PETON7-10 | 2026-09-01 03:16:04 | 46.99414 | 16.39924 | 55° | 18km/h | 19508m | 5.4m/s | -55.9°C | 5.1% | 0hPa | 2.7V | 00:00:00 | 01:29:36 | 00:00:00 | |
| OE8JPQ-2 | 2026-09-01 03:15:59 | 46.99405 | 16.39891 | 81° | 22km/h | 19479m | 6.9m/s | -55.8°C | 5.1% | 0hPa | 2.7V | 00:00:00 | 00:00:00 | 00:00:00 | |
| PG1ADW-2 | 2026-09-01 03:15:56 | 46.99403 | 16.39874 | 71° | 24km/h | 19462m | 6.4m/s | -55.7°C | 5.0% | 0hPa | 2.7V | 00:00:00 | 01:29:28 | 00:00:00 | |
| OE5DXL-15 | 2026-09-01 03:15:53 | 46.99399 | 16.39858 | 70° | 26km/h | 19444m | 4.8m/s | -55.6°C | 5.0% | 0hPa | 2.7V | 00:00:00 | 00:00:00 | 00:00:00 | |
| PETON7-10 | 2026-09-01 03:15:48 | 46.99392 | 16.39822 | 88° | 27km/h | 19416m | 5.3m/s | -55.8°C | 5.0% | 0hPa | 2.7V | 00:00:00 | 00:00:00 | 00:00:00 | |
| OE5DRO-10 | 2026-09-01 03:15:47 | 46.99392 | 16.39812 | 91° | 27km/h | 19411m | 6.4m/s | -55.7°C | 5.0% | 0hPa | 2.7V | 00:00:00 | 00:00:00 | 00:00:00 | |
| OE8JPQ-2 | 2026-09-01 03:15:39 | 46.99389 | 16.39732 | 72° | 24km/h | 19366m | 6.8m/s | -55.4°C | 4.8% | 0hPa | 2.7V | 00:00:00 | 01:29:11 | 00:00:00 | |
| PETON7-10 | 2026-09-01 03:15:33 | 46.99378 | 16.39675 | 85° | 24km/h | 19333m | 4.8m/s | -55.4°C | 4.9% | 0hPa | 2.7V | 00:00:00 | 00:00:00 | 00:00:00 | |
| OE5DRO-10 | 2026-09-01 03:15:28 | 46.99382 | 16.39629 | 107° | 20km/h | 19303m | 5.8m/s | -55.5°C | 4.9% | 0hPa | 2.7V | 00:00:00 | 00:00:00 | 00:00:00 | |
| OE5DXL-15 | 2026-09-01 03:15:23 | 46.99382 | 16.39589 | 78° | 18km/h | 19276m | 6.1m/s | -55.4°C | 4.8% | 0hPa | 2.7V | 00:00:00 | 00:00:00 | 00:00:00 | |
| OE8JPQ-2 | 2026-09-01 03:15:19 | 46.99380 | 16.39557 | 91° | 16km/h | 19255m | 5.0m/s | -55.6°C | 4.9% | 0hPa | 2.7V | 00:00:00 | 00:00:00 | 00:00:00 | |
| PETON7-10 | 2026-09-01 03:15:18 | 46.99380 | 16.39549 | 90° | 16km/h | 19249m | 6.7m/s | -55.6°C | 4.9% | 0hPa | 2.6V | 00:00:00 | 01:28:50 | 00:00:00 | |
| PG1ADW-2 | 2026-09-01 03:15:16 | 46.99380 | 16.39533 | 94° | 15km/h | 19238m | 6.5m/s | -55.7°C | 5.0% | 0hPa | 2.6V | 00:00:00 | 00:00:00 | 00:00:00 | |
| OE5DRO-10 | 2026-09-01 03:15:09 | 46.99382 | 16.39496 | 97° | 16km/h | 19197m | 6.5m/s | -55.6°C | 5.0% | 0hPa | 2.7V | 00:00:00 | 00:00:00 | 00:00:00 | |
| OE8JPQ-2 | 2026-09-01 03:14:59 | 46.99372 | 16.39445 | 59° | 16km/h | 19141m | 5.8m/s | -55.4°C | 5.0% | 0hPa | 2.7V | 00:00:00 | 00:00:00 | 00:00:00 | |
| PG1ADW-2 | 2026-09-01 03:14:56 | 46.99365 | 16.39427 | 67° | 16km/h | 19124m | 6.0m/s | -55.3°C | 4.9% | 0hPa | 2.7V | 00:00:00 | 00:00:00 | 00:00:00 | |
| OE5DXL-15 | 2026-09-01 03:14:53 | 46.99359 | 16.39405 | 69° | 13km/h | 19108m | 4.3m/s | -55.2°C | 5.0% | 0hPa | 2.7V | 00:00:00 | 00:00:00 | 00:00:00 | |
| OE5DRO-10 | 2026-09-01 03:14:50 | 46.99355 | 16.39386 | 67° | 13km/h | 19091m | 6.0m/s | -55.2°C | 4.9% | 0hPa | 2.7V | 00:00:00 | 00:00:00 | 00:00:00 | |
| OE3JTB-15 | 2026-09-01 03:14:49 | 46.99353 | 16.39381 | 50° | 11km/h | 19085m | 6.2m/s | -55.1°C | 4.9% | 0hPa | 2.7V | 00:00:00 | 00:00:00 | 00:00:00 | |
| PETON7-10 | 2026-09-01 03:14:48 | 46.99350 | 16.39377 | 39° | 13km/h | 19080m | 4.3m/s | -55.1°C | 4.9% | 0hPa | 2.6V | 00:00:00 | 00:00:00 | 00:00:00 | |
| OE8JPQ-2 | 2026-09-01 03:14:39 | 46.99329 | 16.39342 | 81° | 11km/h | 19031m | 5.0m/s | -54.7°C | 4.8% | 0hPa | 2.6V | 00:00:00 | 01:28:11 | 00:00:00 | |
| PG1ADW-2 | 2026-09-01 03:14:36 | 46.99330 | 16.39332 | 101° | 9km/h | 19015m | 6.0m/s | -54.6°C | 4.7% | 0hPa | 2.6V | 00:00:00 | 01:28:08 | 00:00:00 | |
| PETON7-10 | 2026-09-01 03:14:33 | 46.99327 | 16.39317 | 71° | 9km/h | 18998m | 5.3m/s | -54.6°C | 4.7% | 0hPa | 2.6V | 00:00:00 | 01:28:05 | 00:00:00 | |
| OE5DRO-10 | 2026-09-01 03:14:31 | 46.99325 | 16.39309 | 58° | 9km/h | 18988m | 4.2m/s | -54.7°C | 4.7% | 0hPa | 2.6V | 00:00:00 | 00:00:00 | 08:30:00 | |
| OE5DXL-15 | 2026-09-01 03:14:23 | 46.99311 | 16.39290 | 75° | 16km/h | 18940m | 3.9m/s | -54.8°C | 4.7% | 0hPa | 2.7V | 00:00:00 | 00:00:00 | 00:00:00 | |
| OE3JTB-15 | 2026-09-01 03:14:20 | 46.99309 | 16.39283 | 62° | 18km/h | 18923m | 6.3m/s | -54.9°C | 4.8% | 0hPa | 2.7V | 00:00:00 | 00:00:00 | 00:00:00 | |
| OE8JPQ-2 | 2026-09-01 03:14:19 | 46.99308 | 16.39280 | 59° | 15km/h | 18916m | 6.2m/s | -54.9°C | 4.8% | 0hPa | 2.7V | 00:00:00 | 00:00:00 | 00:00:00 | |
| PETON7-10 | 2026-09-01 03:14:18 | 46.99307 | 16.39277 | 64° | 13km/h | 18911m | 4.0m/s | -54.9°C | 4.8% | 0hPa | 2.7V | 00:00:00 | 00:00:00 | 08:30:00 | |
| PG1ADW-2 | 2026-09-01 03:14:16 | 46.99305 | 16.39272 | 54° | 18km/h | 18900m | 4.5m/s | -54.9°C | 4.8% | 0hPa | 2.6V | 00:00:00 | 00:00:00 | 00:00:00 | |
| OE5DRO-10 | 2026-09-01 03:14:12 | 46.99302 | 16.39262 | 90° | 22km/h | 18877m | 5.5m/s | -55.0°C | 4.8% | 0hPa | 2.7V | 00:00:00 | 00:00:00 | 00:00:00 | |
| PETON7-10 | 2026-09-01 03:14:03 | 46.99310 | 16.39204 | 91° | 27km/h | 18827m | 6.6m/s | -55.2°C | 4.8% | 0hPa | 2.7V | 00:00:00 | 00:00:00 | 00:00:00 | |
| OE8JPQ-2 | 2026-09-01 03:13:59 | 46.99310 | 16.39172 | 98° | 31km/h | 18806m | 4.9m/s | -55.3°C | 4.9% | 0hPa | 2.7V | 00:00:00 | 00:00:00 | 00:00:00 | |
| PG1ADW-2 | 2026-09-01 03:13:56 | 46.99310 | 16.39140 | 90° | 31km/h | 18790m | 4.4m/s | -55.3°C | 4.9% | 0hPa | 2.7V | 00:00:00 | 00:00:00 | 00:00:00 | |
| OE5DXL-15 | 2026-09-01 03:13:53 | 46.99313 | 16.39107 | 99° | 29km/h | 18773m | 4.9m/s | -55.3°C | 4.9% | 0hPa | 2.7V | 00:00:00 | 00:00:00 | 00:00:00 | |
| OE3JTB-15 | 2026-09-01 03:13:51 | 46.99314 | 16.39085 | 98° | 29km/h | 18762m | 3.8m/s | -55.2°C | 4.9% | 0hPa | 2.7V | 00:00:00 | 01:27:23 | 00:00:00 | |
| PETON7-10 | 2026-09-01 03:13:48 | 46.99318 | 16.39051 | 94° | 29km/h | 18747m | 6.3m/s | -55.2°C | 4.8% | 0hPa | 2.7V | 00:00:00 | 01:27:20 | 00:00:00 | |
| OE8JPQ-2 | 2026-09-01 03:13:39 | 46.99309 | 16.38949 | 84° | 27km/h | 18697m | 7.1m/s | -55.0°C | 4.8% | 0hPa | 2.7V | 00:00:00 | 01:27:11 | 00:00:00 | |
| PG1ADW-2 | 2026-09-01 03:13:36 | 46.99309 | 16.38918 | 101° | 27km/h | 18678m | 5.6m/s | -55.3°C | 5.0% | 0hPa | 2.7V | 00:00:00 | 00:00:00 | 00:00:00 | |
| OE5DRO-10 | 2026-09-01 03:13:34 | 46.99311 | 16.38899 | 95° | 29km/h | 18666m | 7.3m/s | -55.3°C | 5.0% | 0hPa | 2.7V | 00:00:00 | 00:00:00 | 00:00:00 | |
| PETON7-10 | 2026-09-01 03:13:33 | 46.99311 | 16.38890 | 88° | 27km/h | 18660m | 4.4m/s | -55.3°C | 5.0% | 0hPa | 2.7V | 00:00:00 | 00:00:00 | 00:00:00 | |
| OE5DXL-15 | 2026-09-01 03:13:23 | 46.99290 | 16.38800 | 71° | 31km/h | 18599m | 6.6m/s | -55.1°C | 4.8% | 0hPa | 2.6V | 00:00:00 | 00:00:00 | 00:00:00 | |
| OE3JTB-15 | 2026-09-01 03:13:22 | 46.99287 | 16.38789 | 69° | 31km/h | 18592m | 6.7m/s | -55.2°C | 4.9% | 0hPa | 2.6V | 00:00:00 | 00:00:00 | 08:30:00 | |
| OE8JPQ-2 | 2026-09-01 03:13:19 | 46.99280 | 16.38758 | 69° | 35km/h | 18575m | 6.6m/s | -55.2°C | 4.9% | 0hPa | 2.7V | 00:00:00 | 00:00:00 | 08:30:00 | |
| PETON7-10 | 2026-09-01 03:13:18 | 46.99277 | 16.38746 | 69° | 35km/h | 18568m | 6.3m/s | -55.1°C | 4.9% | 0hPa | 2.6V | 00:00:00 | 00:00:00 | 00:00:00 | |
| PG1ADW-2 | 2026-09-01 03:13:16 | 46.99270 | 16.38721 | 73° | 33km/h | 18556m | 6.2m/s | -55.0°C | 4.8% | 0hPa | 2.6V | 00:00:00 | 01:26:48 | 08:30:00 | |
| OE5DRO-10 | 2026-09-01 03:13:15 | 46.99268 | 16.38708 | 72° | 31km/h | 18550m | 5.7m/s | -55.0°C | 4.8% | 0hPa | 2.7V | 00:00:00 | 00:00:00 | 00:00:00 | |
| OE8JPQ-2 | 2026-09-01 03:12:59 | 46.99220 | 16.38525 | 71° | 27km/h | 18454m | 4.7m/s | -55.0°C | 4.9% | 0hPa | 2.7V | 00:00:00 | 00:00:00 | 00:00:00 | |
| PG1ADW-2 | 2026-09-01 03:12:56 | 46.99215 | 16.38503 | 66° | 27km/h | 18438m | 4.7m/s | -54.9°C | 4.8% | 0hPa | 2.7V | 00:00:00 | 00:00:00 | 00:00:00 | |
| OE5DXL-15 | 2026-09-01 03:12:53 | 46.99210 | 16.38478 | 85° | 31km/h | 18422m | 6.1m/s | -54.8°C | 4.8% | 0hPa | 2.7V | 00:00:00 | 00:00:00 | 00:00:00 | |
| PETON7-10 | 2026-09-01 03:12:48 | 46.99207 | 16.38418 | 89° | 27km/h | 18395m | 4.4m/s | -54.8°C | 4.8% | 0hPa | 2.7V | 00:00:00 | 00:00:00 | 00:00:00 | |
| OE8JPQ-2 | 2026-09-01 03:12:39 | 46.99202 | 16.38333 | 87° | 33km/h | 18345m | 6.4m/s | -54.9°C | 4.8% | 0hPa | 2.7V | 00:00:00 | 01:26:11 | 00:00:00 | |
| OE5DRO-10 | 2026-09-01 03:12:37 | 46.99202 | 16.38312 | 86° | 33km/h | 18335m | 5.5m/s | -54.9°C | 4.8% | 0hPa | 2.7V | 00:00:00 | 00:00:00 | 00:00:00 | |
| PG1ADW-2 | 2026-09-01 03:12:36 | 46.99201 | 16.38301 | 82° | 33km/h | 18329m | 5.6m/s | -54.8°C | 4.8% | 0hPa | 2.6V | 00:00:00 | 00:00:00 | 00:00:00 | |
| PETON7-10 | 2026-09-01 03:12:33 | 46.99199 | 16.38264 | 88° | 35km/h | 18313m | 3.8m/s | -54.8°C | 4.8% | 0hPa | 2.6V | 00:00:00 | 00:00:00 | 00:00:00 | |
| OE3JTB-15 | 2026-09-01 03:12:24 | 46.99187 | 16.38156 | 75° | 38km/h | 18262m | 5.8m/s | -54.6°C | 4.7% | 0hPa | 2.6V | 00:00:00 | 01:25:56 | 00:00:00 | |
| OE5DXL-15 | 2026-09-01 03:12:23 | 46.99184 | 16.38143 | 74° | 40km/h | 18257m | 4.4m/s | -54.7°C | 4.7% | 0hPa | 2.6V | 00:00:00 | 00:00:00 | 08:30:00 | |
| OE8JPQ-2 | 2026-09-01 03:12:19 | 46.99174 | 16.38093 | 79° | 38km/h | 18234m | 5.0m/s | -54.7°C | 4.7% | 0hPa | 2.6V | 00:00:00 | 00:00:00 | 00:00:00 | |
| PETON7-10 | 2026-09-01 03:12:18 | 46.99173 | 16.38081 | 79° | 38km/h | 18228m | 6.7m/s | -54.7°C | 4.7% | 0hPa | 2.7V | 00:00:00 | 01:25:50 | 00:00:00 | |
| PG1ADW-2 | 2026-09-01 03:12:16 | 46.99170 | 16.38057 | 84° | 40km/h | 18217m | 4.7m/s | -54.8°C | 4.7% | 0hPa | 2.7V | 00:00:00 | 00:00:00 | 00:00:00 | |
| PETON7-10 | 2026-09-01 03:12:03 | 46.99151 | 16.37869 | 86° | 44km/h | 18143m | 5.3m/s | -55.1°C | 4.8% | 0hPa | 2.6V | 00:00:00 | 00:00:00 | 08:30:00 | |
| OE8JPQ-2 | 2026-09-01 03:11:59 | 46.99147 | 16.37807 | 81° | 44km/h | 18120m | 5.8m/s | -55.0°C | 4.7% | 0hPa | 2.7V | 00:00:00 | 00:00:00 | 00:00:00 | |
| PG1ADW-2 | 2026-09-01 03:11:56 | 46.99140 | 16.37760 | 80° | 46km/h | 18101m | 6.0m/s | -55.1°C | 4.8% | 0hPa | 2.7V | 00:00:00 | 01:25:28 | 00:00:00 | |
| OE3JTB-15 | 2026-09-01 03:11:55 | 46.99138 | 16.37743 | 80° | 46km/h | 18096m | 5.3m/s | -55.0°C | 4.7% | 0hPa | 2.7V | 00:00:00 | 00:00:00 | 00:00:00 | |
| OE5DXL-15 | 2026-09-01 03:11:53 | 46.99134 | 16.37712 | 82° | 46km/h | 18084m | 5.1m/s | -55.0°C | 4.7% | 0hPa | 2.6V | 00:00:00 | 00:00:00 | 00:00:00 | |
| PETON7-10 | 2026-09-01 03:11:48 | 46.99125 | 16.37631 | 76° | 46km/h | 18055m | 6.1m/s | -55.3°C | 4.8% | 0hPa | 2.6V | 00:00:00 | 00:00:00 | 00:00:00 | |
| OE5DRO-10 | 2026-09-01 03:11:40 | 46.99099 | 16.37500 | 77° | 47km/h | 18010m | 5.7m/s | -55.7°C | 4.9% | 0hPa | 2.6V | 00:00:00 | 00:00:00 | 08:30:00 | |
| OE8JPQ-2 | 2026-09-01 03:11:39 | 46.99097 | 16.37484 | 80° | 47km/h | 18005m | 4.0m/s | -55.8°C | 4.9% | 0hPa | 2.6V | 00:00:00 | 01:25:11 | 00:00:00 | |
| PG1ADW-2 | 2026-09-01 03:11:36 | 46.99090 | 16.37437 | 75° | 47km/h | 17989m | 6.9m/s | -55.8°C | 5.0% | 0hPa | 2.6V | 00:00:00 | 00:00:00 | 00:00:00 | |
| PETON7-10 | 2026-09-01 03:11:33 | 46.99080 | 16.37393 | 73° | 49km/h | 17972m | 5.7m/s | -56.0°C | 5.0% | 0hPa | 2.6V | 00:00:00 | 01:25:05 | 00:00:00 | |
| OE3JTB-15 | 2026-09-01 03:11:26 | 46.99047 | 16.37275 | 60° | 44km/h | 17931m | 4.5m/s | -56.4°C | 5.2% | 0hPa | 2.6V | 00:00:00 | 00:00:00 | 00:00:00 | |
| OE5DXL-15 | 2026-09-01 03:11:23 | 46.99029 | 16.37228 | 56° | 42km/h | 17914m | 7.0m/s | -56.3°C | 5.1% | 0hPa | 2.6V | 00:00:00 | 00:00:00 | 00:00:00 | |
| OE5DRO-10 | 2026-09-01 03:11:21 | 46.99014 | 16.37199 | 54° | 44km/h | 17902m | 6.9m/s | -56.2°C | 5.1% | 0hPa | 2.6V | 00:00:00 | 00:00:00 | 00:00:00 | |
| OE8JPQ-2 | 2026-09-01 03:11:19 | 46.99000 | 16.37170 | 54° | 42km/h | 17890m | 6.6m/s | -56.2°C | 5.1% | 0hPa | 2.6V | 00:00:00 | 00:00:00 | 00:00:00 | |
| PETON7-10 | 2026-09-01 03:11:18 | 46.98993 | 16.37156 | 54° | 42km/h | 17884m | 4.4m/s | -56.2°C | 5.1% | 0hPa | 2.6V | 00:00:00 | 00:00:00 | 00:00:00 | |
| PG1ADW-2 | 2026-09-01 03:11:16 | 46.98981 | 16.37128 | 58° | 42km/h | 17873m | 4.6m/s | -56.1°C | 5.1% | 0hPa | 2.7V | 00:00:00 | 00:00:00 | 00:00:00 | |
| OE5DRO-10 | 2026-09-01 03:11:02 | 46.98886 | 16.36964 | 44° | 37km/h | 17793m | 6.3m/s | -56.2°C | 5.2% | 0hPa | 2.6V | 00:00:00 | 00:00:00 | 00:00:00 | |
| OE8JPQ-2 | 2026-09-01 03:10:59 | 46.98863 | 16.36935 | 38° | 35km/h | 17777m | 4.5m/s | -56.3°C | 5.2% | 0hPa | 2.6V | 00:00:00 | 00:00:00 | 00:00:00 | |
| OE3JTB-15 | 2026-09-01 03:10:57 | 46.98846 | 16.36919 | 31° | 33km/h | 17764m | 5.1m/s | -56.2°C | 5.2% | 0hPa | 2.6V | 00:00:00 | 01:24:29 | 00:00:00 | |
| PG1ADW-2 | 2026-09-01 03:10:56 | 46.98838 | 16.36911 | 34° | 35km/h | 17758m | 6.6m/s | -56.2°C | 5.2% | 0hPa | 2.6V | 00:00:00 | 00:00:00 | 00:00:00 | |
| OE5DXL-15 | 2026-09-01 03:10:53 | 46.98813 | 16.36884 | 37° | 31km/h | 17742m | 5.7m/s | -56.1°C | 5.2% | 0hPa | 2.6V | 00:00:00 | 00:00:00 | 00:00:00 | |
| PETON7-10 | 2026-09-01 03:10:48 | 46.98779 | 16.36841 | 37° | 31km/h | 17716m | 5.2m/s | -55.9°C | 5.2% | 0hPa | 2.7V | 00:00:00 | 01:24:20 | 00:00:00 | |
| OE5DRO-10 | 2026-09-01 03:10:43 | 46.98746 | 16.36810 | 29° | 29km/h | 17689m | 5.0m/s | -55.8°C | 5.2% | 0hPa | 2.7V | 00:00:00 | 00:00:00 | 00:00:00 | |
| OE8JPQ-2 | 2026-09-01 03:10:39 | 46.98719 | 16.36784 | 32° | 27km/h | 17665m | 5.6m/s | -55.6°C | 5.1% | 0hPa | 2.7V | 00:00:00 | 01:24:11 | 00:00:00 | |
| PG1ADW-2 | 2026-09-01 03:10:36 | 46.98702 | 16.36766 | 39° | 27km/h | 17649m | 4.0m/s | -55.4°C | 5.1% | 0hPa | 2.7V | 00:00:00 | 01:24:08 | 00:00:00 | |
| PETON7-10 | 2026-09-01 03:10:33 | 46.98684 | 16.36750 | 26° | 27km/h | 17633m | 5.1m/s | -55.4°C | 5.0% | 0hPa | 2.7V | 00:00:00 | 00:00:00 | 00:00:00 | |
| OE3JTB-15 | 2026-09-01 03:10:28 | 46.98652 | 16.36727 | 32° | 26km/h | 17604m | 7.2m/s | -55.2°C | 5.0% | 0hPa | 2.7V | 00:00:00 | 00:00:00 | 00:00:00 | |
| OE5DRO-10 | 2026-09-01 03:10:24 | 46.98629 | 16.36702 | 40° | 26km/h | 17580m | 4.8m/s | -55.0°C | 4.9% | 0hPa | 2.6V | 00:00:00 | 00:00:00 | 00:00:00 | |
| OE5DXL-15 | 2026-09-01 03:10:23 | 46.98623 | 16.36695 | 45° | 26km/h | 17574m | 7.0m/s | -55.0°C | 4.9% | 0hPa | 2.6V | 00:00:00 | 00:00:00 | 00:00:00 | |
| OE8JPQ-2 | 2026-09-01 03:10:19 | 46.98605 | 16.36668 | 44° | 26km/h | 17551m | 7.3m/s | -54.9°C | 4.8% | 0hPa | 2.6V | 00:00:00 | 00:00:00 | 08:30:00 | |
| PETON7-10 | 2026-09-01 03:10:18 | 46.98601 | 16.36662 | 44° | 24km/h | 17545m | 4.9m/s | -54.9°C | 4.9% | 0hPa | 2.7V | 00:00:00 | 00:00:00 | 00:00:00 | |
| PG1ADW-2 | 2026-09-01 03:10:16 | 46.98592 | 16.36652 | 32° | 26km/h | 17535m | 6.3m/s | -54.9°C | 4.8% | 0hPa | 2.7V | 00:00:00 | 00:00:00 | 08:30:00 | |
| OE5DRO-10 | 2026-09-01 03:10:05 | 46.98539 | 16.36591 | 63° | 24km/h | 17478m | 4.4m/s | -55.1°C | 4.9% | 0hPa | 2.6V | 00:00:00 | 00:00:00 | 00:00:00 | |
| OE8JPQ-2 | 2026-09-01 03:09:59 | 46.98521 | 16.36538 | 64° | 24km/h | 17446m | 5.6m/s | -54.9°C | 4.9% | 0hPa | 2.6V | 00:00:00 | 00:00:00 | 00:00:00 | |
| OE3JTB-15 | 2026-09-01 03:09:57 | 46.98516 | 16.36521 | 62° | 20km/h | 17436m | 6.2m/s | -54.9°C | 4.9% | 0hPa | 2.6V | 00:00:00 | 00:00:00 | 00:00:00 | |
| PG1ADW-2 | 2026-09-01 03:09:56 | 46.98512 | 16.36513 | 62° | 22km/h | 17431m | 5.2m/s | -54.9°C | 4.9% | 0hPa | 2.6V | 00:00:00 | 00:00:00 | 00:00:00 | |
| OE5DXL-15 | 2026-09-01 03:09:53 | 46.98504 | 16.36489 | 62° | 20km/h | 17415m | 5.7m/s | -54.8°C | 4.9% | 0hPa | 2.6V | 00:00:00 | 00:00:00 | 00:00:00 | |
| PETON7-10 | 2026-09-01 03:09:48 | 46.98495 | 16.36451 | 81° | 20km/h | 17388m | 5.4m/s | -54.7°C | 4.8% | 0hPa | 2.6V | 00:00:00 | 00:00:00 | 08:30:00 | |
| OE5DRO-10 | 2026-09-01 03:09:46 | 46.98494 | 16.36434 | 81° | 20km/h | 17375m | 6.5m/s | -54.8°C | 4.8% | 0hPa | 2.6V | 00:00:00 | 00:00:00 | 00:00:00 | |
| OE8JPQ-2 | 2026-09-01 03:09:39 | 46.98486 | 16.36380 | 81° | 20km/h | 17337m | 5.0m/s | -54.8°C | 4.7% | 0hPa | 2.6V | 00:00:00 | 01:23:11 | 00:00:00 | |
| PG1ADW-2 | 2026-09-01 03:09:36 | 46.98483 | 16.36360 | 79° | 22km/h | 17322m | 4.0m/s | -54.7°C | 4.7% | 0hPa | 2.6V | 00:00:00 | 00:00:00 | 00:00:00 | |
| PETON7-10 | 2026-09-01 03:09:33 | 46.98482 | 16.36339 | 98° | 20km/h | 17307m | 4.4m/s | -54.6°C | 4.6% | 0hPa | 2.6V | 00:00:00 | 00:00:00 | 00:00:00 | |
| OE3JTB-15 | 2026-09-01 03:09:28 | 46.98484 | 16.36306 | 86° | 26km/h | 17280m | 6.2m/s | -54.7°C | 4.6% | 0hPa | 2.6V | 00:00:00 | 01:23:00 | 00:00:00 | |
| OE5DRO-10 | 2026-09-01 03:09:27 | 46.98483 | 16.36298 | 83° | 26km/h | 17275m | 3.7m/s | -54.9°C | 4.7% | 0hPa | 2.6V | 00:00:00 | 00:00:00 | 00:00:00 | |
| OE5DXL-15 | 2026-09-01 03:09:23 | 46.98479 | 16.36269 | 76° | 31km/h | 17254m | 4.2m/s | -55.4°C | 4.9% | 0hPa | 2.6V | 00:00:00 | 00:00:00 | 00:00:00 | |
| OE8JPQ-2 | 2026-09-01 03:09:19 | 46.98481 | 16.36234 | 103° | 31km/h | 17233m | 6.0m/s | -55.8°C | 5.0% | 0hPa | 2.6V | 00:00:00 | 00:00:00 | 00:00:00 | |
| PETON7-10 | 2026-09-01 03:09:18 | 46.98482 | 16.36224 | 96° | 29km/h | 17227m | 5.5m/s | -55.9°C | 5.1% | 0hPa | 2.6V | 00:00:00 | 01:22:50 | 00:00:00 | |
| PG1ADW-2 | 2026-09-01 03:09:16 | 46.98484 | 16.36201 | 100° | 31km/h | 17216m | 5.5m/s | -56.0°C | 5.2% | 0hPa | 2.6V | 00:00:00 | 01:22:48 | 00:00:00 | |
| OE5DRO-10 | 2026-09-01 03:09:08 | 46.98495 | 16.36118 | 104° | 35km/h | 17172m | 3.4m/s | -56.2°C | 5.3% | 0hPa | 2.6V | 00:00:00 | 00:00:00 | 00:00:00 | |
| PG1ADW-2 | 2026-09-01 03:08:56 | 46.98496 | 16.35968 | 90° | 40km/h | 17107m | 4.6m/s | -55.8°C | 5.1% | 0hPa | 2.6V | 00:00:00 | 00:00:00 | 00:00:00 | |
| OE5DXL-15 | 2026-09-01 03:08:53 | 46.98499 | 16.35929 | 97° | 44km/h | 17091m | 4.5m/s | -55.8°C | 5.1% | 0hPa | 2.6V | 00:00:00 | 00:00:00 | 00:00:00 | |
| PETON7-10 | 2026-09-01 03:08:48 | 46.98502 | 16.35856 | 91° | 42km/h | 17065m | 6.7m/s | -56.0°C | 5.1% | 0hPa | 2.6V | 00:00:00 | 00:00:00 | 00:00:00 | |
| OE3JTB-15 | 2026-09-01 03:08:40 | 46.98500 | 16.35740 | 95° | 46km/h | 17022m | 5.6m/s | -56.1°C | 5.1% | 0hPa | 2.6V | 00:00:00 | 00:00:00 | 08:30:00 | |
| OE8JPQ-2 | 2026-09-01 03:08:39 | 46.98502 | 16.35724 | 102° | 47km/h | 17017m | 5.0m/s | -56.1°C | 5.2% | 0hPa | 2.6V | 00:00:00 | 01:22:11 | 00:00:00 | |
| PG1ADW-2 | 2026-09-01 03:08:36 | 46.98508 | 16.35673 | 101° | 49km/h | 17001m | 5.8m/s | -56.3°C | 5.2% | 0hPa | 2.6V | 00:00:00 | 00:00:00 | 00:00:00 | |
| PETON7-10 | 2026-09-01 03:08:33 | 46.98513 | 16.35623 | 94° | 49km/h | 16983m | 4.7m/s | -56.4°C | 5.3% | 0hPa | 2.6V | 00:00:00 | 01:22:05 | 00:00:00 | |
| OE5DRO-10 | 2026-09-01 03:08:30 | 46.98514 | 16.35575 | 95° | 51km/h | 16968m | 4.8m/s | -56.6°C | 5.3% | 0hPa | 2.6V | 00:00:00 | 00:00:00 | 00:00:00 | |
| OE5DXL-15 | 2026-09-01 03:08:23 | 46.98526 | 16.35451 | 95° | 60km/h | 16930m | 4.6m/s | -56.9°C | 5.5% | 0hPa | 2.6V | 00:00:00 | 00:00:00 | 00:00:00 | |
| OE8JPQ-2 | 2026-09-01 03:08:19 | 46.98528 | 16.35372 | 92° | 58km/h | 16908m | 7.0m/s | -56.9°C | 5.5% | 0hPa | 2.6V | 00:00:00 | 00:00:00 | 00:00:00 | |
| PETON7-10 | 2026-09-01 03:08:18 | 46.98528 | 16.35351 | 91° | 58km/h | 16902m | 4.6m/s | -56.9°C | 5.5% | 0hPa | 2.6V | 00:00:00 | 00:00:00 | 00:00:00 | |
| PG1ADW-2 | 2026-09-01 03:08:16 | 46.98528 | 16.35311 | 90° | 60km/h | 16891m | 5.8m/s | -57.1°C | 5.6% | 0hPa | 2.6V | 00:00:00 | 00:00:00 | 00:00:00 | |
| OE5DRO-10 | 2026-09-01 03:08:11 | 46.98526 | 16.35209 | 89° | 64km/h | 16864m | 4.2m/s | -57.4°C | 5.8% | 0hPa | 2.6V | 00:00:00 | 00:00:00 | 00:00:00 | |
| PETON7-10 | 2026-09-01 03:08:03 | 46.98519 | 16.35028 | 85° | 69km/h | 16822m | 5.1m/s | -57.4°C | 5.7% | 0hPa | 2.6V | 00:00:00 | 00:00:00 | 00:00:00 | |
| OE3JTB-15 | 2026-09-01 03:08:02 | 46.98518 | 16.35005 | 85° | 75km/h | 16816m | 6.4m/s | -57.4°C | 5.7% | 0hPa | 2.6V | 00:00:00 | 00:00:00 | 00:00:00 | |
| OE8JPQ-2 | 2026-09-01 03:07:59 | 46.98512 | 16.34935 | 81° | 75km/h | 16799m | 4.3m/s | -57.4°C | 5.6% | 0hPa | 2.6V | 00:00:00 | 00:00:00 | 00:00:00 | |
| PG1ADW-2 | 2026-09-01 03:07:56 | 46.98504 | 16.34863 | 81° | 77km/h | 16781m | 5.9m/s | -57.4°C | 5.6% | 0hPa | 2.6V | 00:00:00 | 01:21:28 | 00:00:00 | |
| OE5DXL-15 | 2026-09-01 03:07:53 | 46.98495 | 16.34783 | 81° | 77km/h | 16764m | 6.7m/s | -57.6°C | 5.7% | 0hPa | 2.6V | 00:00:00 | 00:00:00 | 08:30:00 | |
| OE5DRO-10 | 2026-09-01 03:07:52 | 46.98492 | 16.34755 | 81° | 77km/h | 16758m | 5.4m/s | -57.7°C | 5.8% | 0hPa | 2.6V | 00:00:00 | 00:00:00 | 00:00:00 | |
| PETON7-10 | 2026-09-01 03:07:48 | 46.98478 | 16.34642 | 78° | 77km/h | 16736m | 5.2m/s | -57.8°C | 5.9% | 0hPa | 2.6V | 00:00:00 | 01:21:20 | 00:00:00 | |
| OE8JPQ-2 | 2026-09-01 03:07:37 | 46.98434 | 16.34340 | 76° | 75km/h | 16678m | 4.9m/s | -58.8°C | 6.4% | 0hPa | 2.6V | 00:00:00 | 01:21:09 | 00:00:00 | |
| PG1ADW-2 | 2026-09-01 03:07:36 | 46.98429 | 16.34311 | 76° | 75km/h | 16673m | 3.7m/s | -58.8°C | 6.4% | 0hPa | 2.6V | 00:00:00 | 00:00:00 | 00:00:00 | |
| PETON7-10 | 2026-09-01 03:07:33 | 46.98412 | 16.34226 | 76° | 75km/h | 16659m | 6.9m/s | -58.9°C | 6.4% | 0hPa | 2.6V | 00:00:00 | 00:00:00 | 08:30:00 | |
| OE3JTB-15 | 2026-09-01 03:07:31 | 46.98402 | 16.34170 | 74° | 57km/h | 16647m | 6.6m/s | -58.9°C | 6.3% | 0hPa | 2.7V | 00:00:00 | 01:21:03 | 00:00:00 | |
| OE5DXL-15 | 2026-09-01 03:07:23 | 46.98358 | 16.33956 | 75° | 66km/h | 16604m | 4.1m/s | -58.7°C | 6.4% | 0hPa | 2.7V | 00:00:00 | 00:00:00 | 00:00:00 | |
| PETON7-10 | 2026-09-01 03:07:18 | 46.98334 | 16.33830 | 73° | 69km/h | 16576m | 7.1m/s | -58.7°C | 6.3% | 0hPa | 2.7V | 00:00:00 | 00:00:00 | 00:00:00 | |
| OE8JPQ-2 | 2026-09-01 03:07:17 | 46.98329 | 16.33805 | 72° | 66km/h | 16570m | 3.9m/s | -58.8°C | 6.4% | 0hPa | 2.7V | 00:00:00 | 00:00:00 | 08:30:00 | |
| PG1ADW-2 | 2026-09-01 03:07:16 | 46.98323 | 16.33780 | 72° | 66km/h | 16565m | 6.6m/s | -58.8°C | 6.4% | 0hPa | 2.7V | 00:00:00 | 00:00:00 | 08:30:00 | |
| OE5DRO-10 | 2026-09-01 03:07:14 | 46.98312 | 16.33730 | 73° | 66km/h | 16554m | 4.4m/s | -58.9°C | 6.4% | 0hPa | 2.7V | 00:00:00 | 00:00:00 | 00:00:00 | |
| PETON7-10 | 2026-09-01 03:07:03 | 46.98249 | 16.33468 | 76° | 60km/h | 16495m | 5.8m/s | -59.0°C | 6.5% | 0hPa | 2.7V | 00:00:00 | 01:20:35 | 00:00:00 | |
| OE8JPQ-2 | 2026-09-01 03:06:57 | 46.98221 | 16.33341 | 68° | 60km/h | 16463m | 4.8m/s | -58.8°C | 6.4% | 0hPa | 2.7V | 00:00:00 | 00:00:00 | 00:00:00 | |
| PG1ADW-2 | 2026-09-01 03:06:56 | 46.98215 | 16.33321 | 66° | 60km/h | 16458m | 6.0m/s | -58.7°C | 6.4% | 0hPa | 2.7V | 00:00:00 | 00:00:00 | 00:00:00 | |
| OE5DRO-10 | 2026-09-01 03:06:55 | 46.98209 | 16.33301 | 66° | 60km/h | 16452m | 4.7m/s | -58.7°C | 6.5% | 0hPa | 2.7V | 00:00:00 | 00:00:00 | 00:00:00 | |
| OE5DXL-15 | 2026-09-01 03:06:53 | 46.98197 | 16.33260 | 67° | 58km/h | 16442m | 4.9m/s | -58.7°C | 6.4% | 0hPa | 2.7V | 00:00:00 | 00:00:00 | 00:00:00 | |
| PETON7-10 | 2026-09-01 03:06:48 | 46.98167 | 16.33154 | 70° | 58km/h | 16416m | 5.9m/s | -58.6°C | 6.4% | 0hPa | 2.7V | 00:00:00 | 00:00:00 | 00:00:00 | |
| OE8JPQ-2 | 2026-09-01 03:06:37 | 46.98103 | 16.32934 | 66° | 55km/h | 16358m | 4.7m/s | -58.6°C | 6.3% | 0hPa | 2.6V | 00:00:00 | 01:20:09 | 00:00:00 | |
| PG1ADW-2 | 2026-09-01 03:06:36 | 46.98097 | 16.32916 | 66° | 55km/h | 16353m | 5.7m/s | -58.5°C | 6.3% | 0hPa | 2.6V | 00:00:00 | 01:20:08 | 00:00:00 | |
| PETON7-10 | 2026-09-01 03:06:33 | 46.98077 | 16.32860 | 60° | 55km/h | 16337m | 4.7m/s | -58.4°C | 6.3% | 0hPa | 2.6V | 00:00:00 | 00:00:00 | 00:00:00 | |
| OE5DXL-15 | 2026-09-01 03:06:23 | 46.98007 | 16.32684 | 61° | 51km/h | 16283m | 6.0m/s | -58.1°C | 6.0% | 0hPa | 2.6V | 00:00:00 | 00:00:00 | 00:00:00 | |
| PETON7-10 | 2026-09-01 03:06:17 | 46.97964 | 16.32584 | 57° | 53km/h | 16251m | 4.8m/s | -58.5°C | 6.2% | 0hPa | 2.6V | 00:00:00 | 01:19:49 | 00:00:00 | |
| PG1ADW-2 | 2026-09-01 03:06:16 | 46.97956 | 16.32567 | 54° | 51km/h | 16246m | 6.0m/s | -58.6°C | 6.2% | 0hPa | 2.6V | 00:00:00 | 00:00:00 | 00:00:00 | |
| PETON7-10 | 2026-09-01 03:06:02 | 46.97849 | 16.32347 | 47° | 47km/h | 16171m | 5.1m/s | -58.5°C | 6.4% | 0hPa | 2.6V | 00:00:00 | 00:00:00 | 00:00:00 | |
| OE5DRO-10 | 2026-09-01 03:05:58 | 46.97819 | 16.32291 | 56° | 46km/h | 16149m | 6.2m/s | -58.3°C | 6.3% | 0hPa | 2.6V | 00:00:00 | 00:00:00 | 08:30:00 | |
| OE8JPQ-2 | 2026-09-01 03:05:57 | 46.97812 | 16.32277 | 54° | 44km/h | 16143m | 4.8m/s | -58.3°C | 6.3% | 0hPa | 2.6V | 00:00:00 | 00:00:00 | 00:00:00 | |
| PG1ADW-2 | 2026-09-01 03:05:56 | 46.97805 | 16.32264 | 54° | 44km/h | 16138m | 6.7m/s | -58.2°C | 6.2% | 0hPa | 2.6V | 00:00:00 | 00:00:00 | 00:00:00 | |
| OE5DXL-15 | 2026-09-01 03:05:53 | 46.97782 | 16.32223 | 46° | 44km/h | 16121m | 5.1m/s | -58.1°C | 6.2% | 0hPa | 2.6V | 00:00:00 | 00:00:00 | 00:00:00 | |
| PETON7-10 | 2026-09-01 03:05:47 | 46.97733 | 16.32145 | 51° | 42km/h | 16086m | 6.8m/s | -57.9°C | 6.0% | 0hPa | 2.6V | 00:00:00 | 00:00:00 | 00:00:00 | |
| OE3JTB-15 | 2026-09-01 03:05:44 | 46.97713 | 16.32106 | 51° | 42km/h | 16070m | 5.3m/s | -57.9°C | 6.0% | 0hPa | 2.6V | 00:00:00 | 00:00:00 | 00:00:00 | |
| OE5DRO-10 | 2026-09-01 03:05:39 | 46.97683 | 16.32049 | 51° | 44km/h | 16043m | 4.8m/s | -57.7°C | 6.0% | 0hPa | 2.7V | 00:00:00 | 00:00:00 | 00:00:00 | |
| OE8JPQ-2 | 2026-09-01 03:05:37 | 46.97670 | 16.32027 | 52° | 44km/h | 16031m | 4.5m/s | -57.6°C | 6.1% | 0hPa | 2.7V | 00:00:00 | 01:19:09 | 00:00:00 | |
| PG1ADW-2 | 2026-09-01 03:05:36 | 46.97664 | 16.32015 | 50° | 44km/h | 16026m | 6.7m/s | -57.5°C | 6.1% | 0hPa | 2.7V | 00:00:00 | 00:00:00 | 00:00:00 | |
| PETON7-10 | 2026-09-01 03:05:32 | 46.97636 | 16.31962 | 54° | 44km/h | 16006m | 5.3m/s | -57.4°C | 6.1% | 0hPa | 2.7V | 00:00:00 | 01:19:04 | 00:00:00 | |
| OE5DXL-15 | 2026-09-01 03:05:23 | 46.97580 | 16.31835 | 63° | 42km/h | 15952m | 7.5m/s | -56.8°C | 5.8% | 0hPa | 2.7V | 00:00:00 | 00:00:00 | 00:00:00 | |
| OE5DRO-10 | 2026-09-01 03:05:20 | 46.97565 | 16.31795 | 62° | 44km/h | 15932m | 6.7m/s | -56.7°C | 5.7% | 0hPa | 2.7V | 00:00:00 | 00:00:00 | 00:00:00 | |
| OE8JPQ-2 | 2026-09-01 03:05:17 | 46.97553 | 16.31754 | 70° | 44km/h | 15914m | 4.1m/s | -56.5°C | 5.7% | 0hPa | 2.7V | 00:00:00 | 00:00:00 | 00:00:00 | |
| OE3JTB-15 | 2026-09-01 03:05:15 | 46.97545 | 16.31723 | 67° | 44km/h | 15900m | 5.8m/s | -56.4°C | 5.7% | 0hPa | 2.6V | 00:00:00 | 00:00:00 | 00:00:00 | |
| PETON7-10 | 2026-09-01 03:05:02 | 46.97473 | 16.31540 | 58° | 44km/h | 15819m | 7.1m/s | -55.8°C | 5.7% | 0hPa | 2.6V | 00:00:00 | 00:00:00 | 00:00:00 | |
| OE5DRO-10 | 2026-09-01 03:05:01 | 46.97467 | 16.31524 | 66° | 44km/h | 15812m | 5.6m/s | -55.8°C | 5.7% | 0hPa | 2.6V | 00:00:00 | 00:00:00 | 00:00:00 | |
| OE8JPQ-2 | 2026-09-01 03:04:57 | 46.97450 | 16.31462 | 66° | 42km/h | 15783m | 10.1m/s | -55.7°C | 5.5% | 0hPa | 2.6V | 00:00:00 | 00:00:00 | 00:00:00 | |
| PG1ADW-2 | 2026-09-01 03:04:56 | 46.97447 | 16.31449 | 69° | 42km/h | 15775m | 7.3m/s | -55.6°C | 5.4% | 0hPa | 2.6V | 00:00:00 | 00:00:00 | 00:00:00 | |
| OE5DXL-15 | 2026-09-01 03:04:53 | 46.97438 | 16.31412 | 76° | 47km/h | 15754m | 9.9m/s | -55.4°C | 5.2% | 0hPa | 2.6V | 00:00:00 | 00:00:00 | 00:00:00 | |
| PETON7-10 | 2026-09-01 03:04:47 | 46.97425 | 16.31313 | 76° | 46km/h | 15712m | 6.2m/s | -55.1°C | 5.3% | 0hPa | 2.6V | 00:00:00 | 01:18:19 | 00:00:00 | |
| OE3JTB-15 | 2026-09-01 03:04:46 | 46.97422 | 16.31295 | 80° | 49km/h | 15706m | 6.4m/s | -55.1°C | 5.3% | 0hPa | 2.6V | 00:00:00 | 01:18:18 | 00:00:00 | |
| OE5DRO-10 | 2026-09-01 03:04:42 | 46.97416 | 16.31229 | 82° | 49km/h | 15684m | 4.6m/s | -55.0°C | 5.3% | 0hPa | 2.6V | 00:00:00 | 00:00:00 | 00:00:00 | |
| OE8JPQ-2 | 2026-09-01 03:04:37 | 46.97413 | 16.31153 | 91° | 53km/h | 15658m | 7.5m/s | -55.3°C | 5.3% | 0hPa | 2.6V | 00:00:00 | 01:18:09 | 00:00:00 | |
| PG1ADW-2 | 2026-09-01 03:04:36 | 46.97414 | 16.31135 | 92° | 53km/h | 15651m | 5.0m/s | -55.4°C | 5.3% | 0hPa | 2.6V | 00:00:00 | 00:00:00 | 00:00:00 | |
| PETON7-10 | 2026-09-01 03:04:32 | 46.97411 | 16.31057 | 91° | 53km/h | 15626m | 7.1m/s | -55.5°C | 5.3% | 0hPa | 2.6V | 00:00:00 | 00:00:00 | 00:00:00 | |
| OE5DXL-15 | 2026-09-01 03:04:23 | 46.97417 | 16.30882 | 97° | 62km/h | 15580m | 3.5m/s | -55.8°C | 5.5% | 0hPa | 2.6V | 00:00:00 | 00:00:00 | 00:00:00 | |
| PETON7-10 | 2026-09-01 03:04:17 | 46.97420 | 16.30762 | 89° | 62km/h | 15551m | 6.4m/s | -56.0°C | 5.5% | 0hPa | 2.6V | 00:00:00 | 00:00:00 | 00:00:00 | |
| PG1ADW-2 | 2026-09-01 03:04:16 | 46.97419 | 16.30738 | 86° | 64km/h | 15546m | 2.4m/s | -55.9°C | 5.4% | 0hPa | 2.6V | 00:00:00 | 00:00:00 | 08:30:00 | |
| OE5DRO-10 | 2026-09-01 03:04:04 | 46.97418 | 16.30466 | 91° | 69km/h | 15488m | 4.1m/s | -56.4°C | 5.6% | 0hPa | 2.6V | 00:00:00 | 00:00:00 | 00:00:00 | |
| OE8JPQ-2 | 2026-09-01 03:03:57 | 46.97419 | 16.30294 | 89° | 69km/h | 15454m | 4.9m/s | -56.8°C | 5.8% | 0hPa | 2.7V | 00:00:00 | 00:00:00 | 00:00:00 | |
| PG1ADW-2 | 2026-09-01 03:03:56 | 46.97418 | 16.30268 | 89° | 69km/h | 15450m | 4.1m/s | -56.9°C | 5.8% | 0hPa | 2.7V | 00:00:00 | 01:17:28 | 00:00:00 | |
| OE5DXL-15 | 2026-09-01 03:03:53 | 46.97415 | 16.30187 | 87° | 71km/h | 15436m | 5.6m/s | -57.0°C | 5.8% | 0hPa | 2.7V | 00:00:00 | 00:00:00 | 00:00:00 | |
| OE3JTB-15 | 2026-09-01 03:03:48 | 46.97412 | 16.30057 | 90° | 71km/h | 15412m | 4.0m/s | -57.1°C | 5.8% | 0hPa | 2.7V | 00:00:00 | 00:00:00 | 00:00:00 | |
| PETON7-10 | 2026-09-01 03:03:47 | 46.97412 | 16.30032 | 89° | 69km/h | 15407m | 5.2m/s | -57.2°C | 5.8% | 0hPa | 2.7V | 00:00:00 | 00:00:00 | 00:00:00 | |
| OE5DRO-10 | 2026-09-01 03:03:45 | 46.97412 | 16.29982 | 92° | 71km/h | 15398m | 5.5m/s | -57.3°C | 6.0% | 0hPa | 2.7V | 00:00:00 | 00:00:00 | 00:00:00 | |
| OE8JPQ-2 | 2026-09-01 03:03:37 | 46.97426 | 16.29780 | 98° | 75km/h | 15360m | 6.5m/s | -57.2°C | 6.0% | 0hPa | 2.7V | 00:00:00 | 01:17:09 | 00:00:00 | |
| PG1ADW-2 | 2026-09-01 03:03:36 | 46.97428 | 16.29754 | 96° | 75km/h | 15355m | 3.7m/s | -57.1°C | 6.0% | 0hPa | 2.7V | 00:00:00 | 00:00:00 | 00:00:00 | |
| PETON7-10 | 2026-09-01 03:03:32 | 46.97434 | 16.29644 | 95° | 75km/h | 15335m | 3.1m/s | -57.0°C | 5.9% | 0hPa | 2.7V | 00:00:00 | 00:00:00 | 00:00:00 | |
| OE5DRO-10 | 2026-09-01 03:03:26 | 46.97444 | 16.29482 | 94° | 75km/h | 15306m | 4.4m/s | -56.8°C | 5.8% | 0hPa | 2.7V | 00:00:00 | 00:00:00 | 00:00:00 | |
| OE5DXL-15 | 2026-09-01 03:03:23 | 46.97447 | 16.29399 | 91° | 78km/h | 15292m | 6.0m/s | -56.7°C | 5.7% | 0hPa | 2.7V | 00:00:00 | 00:00:00 | 08:30:00 | |
| OE3JTB-15 | 2026-09-01 03:03:19 | 46.97448 | 16.29288 | 91° | 78km/h | 15272m | 5.5m/s | -56.7°C | 5.8% | 0hPa | 2.7V | 00:00:00 | 01:16:51 | 00:00:00 | |
| PETON7-10 | 2026-09-01 03:03:17 | 46.97449 | 16.29233 | 93° | 78km/h | 15263m | 5.7m/s | -56.8°C | 5.8% | 0hPa | 2.7V | 00:00:00 | 01:16:49 | 00:00:00 | |
| OE5DRO-10 | 2026-09-01 03:03:07 | 46.97460 | 16.28950 | 91° | 80km/h | 15214m | 3.7m/s | -56.8°C | 5.9% | 0hPa | 2.7V | 00:00:00 | 00:00:00 | 08:30:00 | |
| PETON7-10 | 2026-09-01 03:03:02 | 46.97459 | 16.28797 | 91° | 80km/h | 15190m | 4.3m/s | -56.7°C | 5.9% | 0hPa | 2.7V | 00:00:00 | 00:00:00 | 08:30:00 | |
| OE8JPQ-2 | 2026-09-01 03:02:57 | 46.97458 | 16.28655 | 88° | 78km/h | 15164m | 5.4m/s | -56.6°C | 5.9% | 0hPa | 2.7V | 00:00:00 | 00:00:00 | 00:00:00 | |
| PG1ADW-2 | 2026-09-01 03:02:56 | 46.97457 | 16.28626 | 88° | 78km/h | 15159m | 3.4m/s | -56.6°C | 5.9% | 0hPa | 2.7V | 00:00:00 | 00:00:00 | 00:00:00 | |
| OE5DXL-15 | 2026-09-01 03:02:53 | 46.97454 | 16.28535 | 86° | 75km/h | 15145m | 5.9m/s | -56.5°C | 5.9% | 0hPa | 2.7V | 00:00:00 | 00:00:00 | 00:00:00 | |
| OE5DRO-10 | 2026-09-01 03:02:48 | 46.97449 | 16.28382 | 87° | 75km/h | 15121m | 4.1m/s | -56.5°C | 5.9% | 0hPa | 2.7V | 00:00:00 | 00:00:00 | 00:00:00 | |
| PETON7-10 | 2026-09-01 03:02:47 | 46.97449 | 16.28351 | 90° | 75km/h | 15117m | 5.1m/s | -56.4°C | 5.9% | 0hPa | 2.7V | 00:00:00 | 00:00:00 | 00:00:00 | |
| OE3JTB-15 | 2026-09-01 03:02:45 | 46.97447 | 16.28293 | 87° | 73km/h | 15107m | 6.7m/s | -56.3°C | 5.8% | 0hPa | 2.7V | 00:00:00 | 00:00:00 | 08:30:00 | |
| OE8JPQ-2 | 2026-09-01 03:02:37 | 46.97431 | 16.28079 | 85° | 71km/h | 15065m | 3.3m/s | -56.0°C | 5.6% | 0hPa | 2.7V | 00:00:00 | 01:16:09 | 00:00:00 | |
| PG1ADW-2 | 2026-09-01 03:02:36 | 46.97430 | 16.28052 | 88° | 71km/h | 15059m | 7.0m/s | -55.9°C | 5.6% | 0hPa | 2.7V | 00:00:00 | 01:16:08 | 00:00:00 | |
| PETON7-10 | 2026-09-01 03:02:32 | 46.97431 | 16.27944 | 92° | 71km/h | 15038m | 6.4m/s | -55.8°C | 5.6% | 0hPa | 2.7V | 00:00:00 | 01:16:04 | 00:00:00 | |
| OE5DRO-10 | 2026-09-01 03:02:29 | 46.97432 | 16.27862 | 90° | 69km/h | 15022m | 4.7m/s | -55.7°C | 5.7% | 0hPa | 2.7V | 00:00:00 | 00:00:00 | 00:00:00 | |
| OE5DXL-15 | 2026-09-01 03:02:23 | 46.97429 | 16.27703 | 89° | 71km/h | 14993m | 6.1m/s | -55.6°C | 5.6% | 0hPa | 2.7V | 00:00:00 | 00:00:00 | 00:00:00 | |
| PETON7-10 | 2026-09-01 03:02:17 | 46.97432 | 16.27550 | 94° | 69km/h | 14961m | 5.3m/s | -55.7°C | 5.7% | 0hPa | 2.7V | 00:00:00 | 00:00:00 | 00:00:00 | |
| PG1ADW-2 | 2026-09-01 03:02:16 | 46.97433 | 16.27524 | 92° | 71km/h | 14956m | 4.7m/s | -55.7°C | 5.8% | 0hPa | 2.7V | 00:00:00 | 00:00:00 | 00:00:00 | |
| OE5DRO-10 | 2026-09-01 03:02:10 | 46.97434 | 16.27377 | 92° | 73km/h | 14926m | 5.5m/s | -55.5°C | 5.7% | 0hPa | 2.7V | 00:00:00 | 00:00:00 | 00:00:00 | |
| OE3OSB-13 | 2026-09-01 03:02:04 | 46.97435 | 16.27191 | 93° | 75km/h | 14886m | 5.6m/s | -55.3°C | 2.4% | -1.0hPa | 2.7V | 00:00:00 | 00:00:00 | 00:00:00 | |
| OE8JPQ-2 | 2026-09-01 03:01:57 | 46.97437 | 16.27028 | 88° | 77km/h | 14855m | 7.7m/s | -55.2°C | 5.5% | 0hPa | 2.7V | 00:00:00 | 00:00:00 | 00:00:00 | |
| PG1ADW-2 | 2026-09-01 03:01:56 | 46.97437 | 16.27001 | 88° | 77km/h | 14849m | 4.1m/s | -55.2°C | 5.6% | 0hPa | 2.7V | 00:00:00 | 00:00:00 | 00:00:00 | |
| OE5DXL-15 | 2026-09-01 03:01:53 | 46.97434 | 16.26918 | 89° | 77km/h | 14833m | 4.4m/s | -55.3°C | 5.7% | 0hPa | 2.7V | 00:00:00 | 00:00:00 | 00:00:00 | |
| OE5DRO-10 | 2026-09-01 03:01:51 | 46.97433 | 16.26861 | 89° | 77km/h | 14823m | 4.6m/s | -55.2°C | 5.7% | 0hPa | 2.7V | 00:00:00 | 00:00:00 | 00:00:00 | |
| PETON7-10 | 2026-09-01 03:01:47 | 46.97426 | 16.26745 | 84° | 75km/h | 14802m | 4.3m/s | -55.1°C | 5.6% | 0hPa | 2.7V | 00:00:00 | 01:15:19 | 00:00:00 | |
| OE8JPQ-2 | 2026-09-01 03:01:37 | 46.97414 | 16.26467 | 89° | 78km/h | 14747m | 6.3m/s | -55.4°C | 5.7% | 0hPa | 2.7V | 00:00:00 | 01:15:09 | 00:00:00 | |
| PG1ADW-2 | 2026-09-01 03:01:36 | 46.97414 | 16.26440 | 90° | 78km/h | 14742m | 3.5m/s | -55.4°C | 5.8% | 0hPa | 2.7V | 00:00:00 | 00:00:00 | 00:00:00 | |
| PETON7-10 | 2026-09-01 03:01:32 | 46.97411 | 16.26326 | 86° | 78km/h | 14721m | 6.2m/s | -55.6°C | 5.8% | 0hPa | 2.7V | 00:00:00 | 00:00:00 | 00:00:00 | |
| OE5DXL-15 | 2026-09-01 03:01:23 | 46.97405 | 16.26068 | 87° | 84km/h | 14671m | 3.9m/s | -55.6°C | 5.9% | 0hPa | 2.7V | 00:00:00 | 00:00:00 | 00:00:00 | |
| OE3JTB-15 | 2026-09-01 03:01:18 | 46.97397 | 16.25923 | 86° | 84km/h | 14644m | 3.8m/s | -55.9°C | 6.0% | 0hPa | 2.7V | 00:00:00 | 00:00:00 | 00:00:00 | |
| PETON7-10 | 2026-09-01 03:01:17 | 46.97396 | 16.25894 | 87° | 86km/h | 14638m | 7.3m/s | -55.9°C | 6.0% | 0hPa | 2.7V | 00:00:00 | 00:00:00 | 00:00:00 | |
| PG1ADW-2 | 2026-09-01 03:01:16 | 46.97395 | 16.25864 | 88° | 86km/h | 14633m | 3.8m/s | -55.8°C | 6.1% | 0hPa | 2.7V | 00:00:00 | 01:14:48 | 08:30:00 | |
| OE5DRO-10 | 2026-09-01 03:01:13 | 46.97393 | 16.25769 | 89° | 84km/h | 14616m | 5.7m/s | -55.7°C | 6.0% | 0hPa | 2.7V | 00:00:00 | 00:00:00 | 00:00:00 | |
| PETON7-10 | 2026-09-01 03:01:02 | 46.97367 | 16.25424 | 81° | 82km/h | 14558m | 6.6m/s | -55.4°C | 5.8% | 0hPa | 2.7V | 00:00:00 | 01:14:34 | 00:00:00 | |
| PG1ADW-2 | 2026-09-01 03:00:56 | 46.97343 | 16.25241 | 80° | 78km/h | 14525m | 6.9m/s | -55.2°C | 5.7% | 0hPa | 2.7V | 00:00:00 | 00:00:00 | 00:00:00 | |
| OE5DRO-10 | 2026-09-01 03:00:54 | 46.97336 | 16.25181 | 82° | 78km/h | 14514m | 4.9m/s | -55.2°C | 5.8% | 0hPa | 2.7V | 00:00:00 | 00:00:00 | 00:00:00 | |
| OE5DXL-15 | 2026-09-01 03:00:53 | 46.97333 | 16.25151 | 83° | 78km/h | 14508m | 6.0m/s | -55.2°C | 5.8% | 0hPa | 2.7V | 00:00:00 | 00:00:00 | 00:00:00 | |
| OE3JTB-15 | 2026-09-01 03:00:49 | 46.97321 | 16.25034 | 80° | 78km/h | 14489m | 5.2m/s | -55.4°C | 6.0% | 0hPa | 2.7V | 00:00:00 | 00:00:00 | 00:00:00 | |
| PETON7-10 | 2026-09-01 03:00:47 | 46.97314 | 16.24975 | 81° | 77km/h | 14480m | 4.9m/s | -55.4°C | 6.0% | 0hPa | 2.7V | 00:00:00 | 00:00:00 | 08:30:00 | |
| OE8JPQ-2 | 2026-09-01 03:00:37 | 46.97289 | 16.24698 | 88° | 82km/h | 14429m | 8.4m/s | -55.1°C | 5.8% | 0hPa | 2.7V | 00:00:00 | 01:14:09 | 00:00:00 | |
| PG1ADW-2 | 2026-09-01 03:00:36 | 46.97288 | 16.24669 | 90° | 82km/h | 14423m | 4.6m/s | -55.0°C | 5.9% | 0hPa | 2.7V | 00:00:00 | 00:00:00 | 00:00:00 | |
| OE5DRO-10 | 2026-09-01 03:00:35 | 46.97288 | 16.24641 | 88° | 82km/h | 14417m | 5.9m/s | -55.0°C | 5.8% | 0hPa | 2.7V | 00:00:00 | 00:00:00 | 00:00:00 | |
| PETON7-10 | 2026-09-01 03:00:32 | 46.97284 | 16.24556 | 86° | 82km/h | 14401m | 8.1m/s | -54.9°C | 5.7% | 0hPa | 2.7V | 00:00:00 | 00:00:00 | 00:00:00 | |
| OE5DXL-15 | 2026-09-01 03:00:23 | 46.97267 | 16.24280 | 86° | 89km/h | 14353m | 5.4m/s | -54.9°C | 5.9% | 0hPa | 2.7V | 00:00:00 | 00:00:00 | 00:00:00 | |
| OE3JTB-15 | 2026-09-01 03:00:20 | 46.97260 | 16.24189 | 82° | 89km/h | 14338m | 4.6m/s | -54.9°C | 5.9% | 0hPa | 2.7V | 00:00:00 | 01:13:52 | 00:00:00 | |
| PETON7-10 | 2026-09-01 03:00:17 | 46.97251 | 16.24097 | 82° | 88km/h | 14323m | 4.7m/s | -54.9°C | 5.9% | 0hPa | 2.7V | 00:00:00 | 01:13:49 | 00:00:00 | |
| OE5DRO-10 | 2026-09-01 03:00:16 | 46.97248 | 16.24066 | 80° | 88km/h | 14318m | 5.7m/s | -54.9°C | 5.8% | 0hPa | 2.7V | 00:00:00 | 00:00:00 | 08:30:00 | |
| OE8JPQ-2 | 2026-09-01 03:00:15 | 46.97245 | 16.24035 | 82° | 99km/h | 14312m | 4.2m/s | -54.9°C | 5.9% | 0hPa | 2.7V | 00:00:00 | 00:00:00 | 00:00:00 | |
| PETON7-10 | 2026-09-01 03:00:02 | 46.97221 | 16.23616 | 87° | 97km/h | 14242m | 4.8m/s | -55.3°C | 6.1% | 0hPa | 2.7V | 00:00:00 | 00:00:00 | 00:00:00 | |
| OE5DRO-10 | 2026-09-01 02:59:57 | 46.97214 | 16.23446 | 88° | 99km/h | 14214m | 5.8m/s | -55.7°C | 6.2% | 0hPa | 2.7V | 00:00:00 | 00:00:00 | 00:00:00 | |
| PG1ADW-2 | 2026-09-01 02:59:56 | 46.97213 | 16.23410 | 87° | 97km/h | 14209m | 3.5m/s | -55.7°C | 6.3% | 0hPa | 2.7V | 00:00:00 | 01:13:28 | 00:00:00 | |
| OE5DXL-15 | 2026-09-01 02:59:53 | 46.97207 | 16.23298 | 85° | 95km/h | 14194m | 4.7m/s | -55.7°C | 6.3% | 0hPa | 2.7V | 00:00:00 | 00:00:00 | 00:00:00 | |
| OE3JTB-15 | 2026-09-01 02:59:51 | 46.97201 | 16.23225 | 84° | 95km/h | 14183m | 3.4m/s | -55.8°C | 6.3% | 0hPa | 2.7V | 00:00:00 | 00:00:00 | 00:00:00 | |
| PETON7-10 | 2026-09-01 02:59:47 | 46.97189 | 16.23081 | 85° | 95km/h | 14160m | 3.1m/s | -55.8°C | 6.4% | 0hPa | 2.7V | 00:00:00 | 00:00:00 | 00:00:00 | |
| OE5DRO-10 | 2026-09-01 02:59:38 | 46.97162 | 16.22764 | 82° | 91km/h | 14113m | 6.2m/s | -55.6°C | 6.3% | 0hPa | 2.7V | 00:00:00 | 00:00:00 | 00:00:00 | |
| PG1ADW-2 | 2026-09-01 02:59:36 | 46.97155 | 16.22697 | 83° | 91km/h | 14102m | 7.2m/s | -55.6°C | 6.3% | 0hPa | 2.7V | 00:00:00 | 00:00:00 | 00:00:00 | |
| PETON7-10 | 2026-09-01 02:59:32 | 46.97143 | 16.22561 | 84° | 91km/h | 14080m | 6.6m/s | -55.5°C | 6.3% | 0hPa | 2.7V | 00:00:00 | 01:13:04 | 00:00:00 | |
| OE5DXL-15 | 2026-09-01 02:59:23 | 46.97116 | 16.22256 | 83° | 91km/h | 14032m | 5.2m/s | -55.2°C | 6.3% | 0hPa | 2.7V | 00:00:00 | 00:00:00 | 00:00:00 | |
| OE3JTB-15 | 2026-09-01 02:59:22 | 46.97113 | 16.22223 | 84° | 91km/h | 14027m | 4.8m/s | -55.2°C | 6.2% | 0hPa | 2.7V | 00:00:00 | 00:00:00 | 00:00:00 | |
| OE5DRO-10 | 2026-09-01 02:59:19 | 46.97106 | 16.22127 | 86° | 89km/h | 14011m | 5.8m/s | -55.1°C | 6.3% | 0hPa | 2.7V | 00:00:00 | 00:00:00 | 00:00:00 | |
| PETON7-10 | 2026-09-01 02:59:17 | 46.97101 | 16.22062 | 83° | 89km/h | 14000m | 6.2m/s | -55.0°C | 6.2% | 0hPa | 2.7V | 00:00:00 | 00:00:00 | 00:00:00 | |
| PG1ADW-2 | 2026-09-01 02:59:16 | 46.97099 | 16.22030 | 83° | 91km/h | 13996m | 3.5m/s | -55.0°C | 6.2% | 0hPa | 2.7V | 00:00:00 | 00:00:00 | 00:00:00 | |
| PETON7-10 | 2026-09-01 02:59:02 | 46.97066 | 16.21568 | 89° | 93km/h | 13923m | 6.3m/s | 0°C | 0% | 0hPa | 2.7V | 00:00:00 | 00:00:00 | 00:00:00 | |
| OE5DRO-10 | 2026-09-01 02:59:00 | 46.97066 | 16.21501 | 91° | 95km/h | 13913m | 6.8m/s | -55.1°C | 6.4% | 0hPa | 2.7V | 00:00:00 | 00:00:00 | 00:00:00 | |
| PG1ADW-2 | 2026-09-01 02:58:56 | 46.97063 | 16.21361 | 87° | 95km/h | 13893m | 5.5m/s | -55.1°C | 6.5% | 0hPa | 2.7V | 00:00:00 | 00:00:00 | 00:00:00 | |
| OE5DXL-15 | 2026-09-01 02:58:53 | 46.97057 | 16.21258 | 86° | 99km/h | 13879m | 4.6m/s | -55.1°C | 6.5% | 0hPa | 2.7V | 00:00:00 | 01:12:25 | 08:30:00 | |
| PETON7-10 | 2026-09-01 02:58:47 | 46.97051 | 16.21050 | 89° | 99km/h | 13849m | 3.9m/s | -55.1°C | 6.6% | 0hPa | 2.7V | 00:00:00 | 01:12:19 | 00:00:00 | |
| OE5DRO-10 | 2026-09-01 02:58:41 | 46.97049 | 16.20836 | 91° | 100km/h | 13821m | 4.5m/s | -55.1°C | 6.8% | 0hPa | 2.7V | 00:00:00 | 00:00:00 | 00:00:00 | |
| PG1ADW-2 | 2026-09-01 02:58:36 | 46.97052 | 16.20653 | 93° | 102km/h | 13796m | 5.7m/s | -55.0°C | 6.8% | 0hPa | 2.7V | 00:00:00 | 01:12:08 | 00:00:00 | |
| PETON7-10 | 2026-09-01 02:58:32 | 46.97053 | 16.20504 | 91° | 102km/h | 13772m | 4.3m/s | -55.0°C | 7.0% | 0hPa | 2.7V | 00:00:00 | 00:00:00 | 08:30:00 | |
| OE3JTB-15 | 2026-09-01 02:58:24 | 46.97051 | 16.20208 | 93° | 104km/h | 13733m | 5.4m/s | -55.0°C | 7.1% | 0hPa | 2.7V | 00:00:00 | 00:00:00 | 08:30:00 | |
| OE5DXL-15 | 2026-09-01 02:58:23 | 46.97052 | 16.20171 | 93° | 104km/h | 13729m | 4.0m/s | -55.0°C | 7.1% | 0hPa | 2.7V | 00:00:00 | 00:00:00 | 00:00:00 | |
| OE5DRO-10 | 2026-09-01 02:58:22 | 46.97053 | 16.20132 | 92° | 104km/h | 13724m | 5.8m/s | -55.0°C | 7.1% | 0hPa | 2.7V | 00:00:00 | 00:00:00 | 00:00:00 | |
| OE8JPQ-2 | 2026-09-01 02:58:18 | 46.97054 | 16.19977 | 89° | 104km/h | 13704m | 6.7m/s | -54.9°C | 7.1% | 0hPa | 2.7V | 00:00:00 | 00:00:00 | 00:00:00 | |
| PG1ADW-2 | 2026-09-01 02:58:16 | 46.97052 | 16.19900 | 87° | 104km/h | 13694m | 4.8m/s | -54.9°C | 7.1% | 0hPa | 2.7V | 00:00:00 | 00:00:00 | 08:30:00 | |
| OE5DRO-10 | 2026-09-01 02:58:03 | 46.97034 | 16.19406 | 86° | 106km/h | 13636m | 4.1m/s | -55.0°C | 7.5% | 0hPa | 2.7V | 00:00:00 | 00:00:00 | 00:00:00 | |
| PETON7-10 | 2026-09-01 02:58:02 | 46.97032 | 16.19368 | 87° | 104km/h | 13631m | 6.0m/s | -55.1°C | 7.6% | 0hPa | 2.7V | 00:00:00 | 01:11:34 | 00:00:00 | |
| OE8JPQ-2 | 2026-09-01 02:57:58 | 46.97028 | 16.19214 | 90° | 108km/h | 13610m | 4.8m/s | -55.5°C | 8.1% | 0hPa | 2.7V | 00:00:00 | 01:11:30 | 00:00:00 | |
| PG1ADW-2 | 2026-09-01 02:57:56 | 46.97028 | 16.19133 | 90° | 108km/h | 13600m | 4.3m/s | -55.7°C | 8.3% | 0hPa | 2.7V | 00:00:00 | 00:00:00 | 00:00:00 | |
| OE3JTB-15 | 2026-09-01 02:57:55 | 46.97027 | 16.19092 | 89° | 110km/h | 13595m | 5.0m/s | -55.8°C | 8.4% | 0hPa | 2.7V | 00:00:00 | 00:00:00 | 00:00:00 | |
| OE5DXL-15 | 2026-09-01 02:57:53 | 46.97027 | 16.19014 | 90° | 110km/h | 13585m | 5.7m/s | -55.9°C | 8.4% | 0hPa | 2.7V | 00:00:00 | 00:00:00 | 00:00:00 | |
| PETON7-10 | 2026-09-01 02:57:47 | 46.97020 | 16.18785 | 86° | 110km/h | 13556m | 5.3m/s | -55.8°C | 8.6% | 0hPa | 2.7V | 00:00:00 | 00:00:00 | 00:00:00 | |
| OE5DRO-10 | 2026-09-01 02:57:44 | 46.97016 | 16.18663 | 88° | 111km/h | 13541m | 3.1m/s | -55.8°C | 8.7% | 0hPa | 2.7V | 00:00:00 | 00:00:00 | 00:00:00 | |
| PG1ADW-2 | 2026-09-01 02:57:36 | 46.97006 | 16.18341 | 88° | 115km/h | 13501m | 4.3m/s | -55.6°C | 8.9% | 0hPa | 2.7V | 00:00:00 | 00:00:00 | 00:00:00 | |
| PETON7-10 | 2026-09-01 02:57:32 | 46.97003 | 16.18176 | 89° | 117km/h | 13482m | 5.4m/s | -55.6°C | 8.8% | 0hPa | 2.7V | 00:00:00 | 00:00:00 | 00:00:00 | |
| OE3JTB-15 | 2026-09-01 02:57:26 | 46.97005 | 16.17927 | 92° | 119km/h | 13452m | 6.5m/s | -55.8°C | 9.0% | 0hPa | 2.7V | 00:00:00 | 01:10:58 | 00:00:00 | |
| OE5DRO-10 | 2026-09-01 02:57:25 | 46.97006 | 16.17883 | 92° | 120km/h | 13447m | 3.4m/s | -55.8°C | 9.2% | 0hPa | 2.7V | 00:00:00 | 00:00:00 | 08:30:00 | |
| OE5DXL-15 | 2026-09-01 02:57:23 | 46.97006 | 16.17796 | 90° | 119km/h | 13438m | 2.6m/s | -55.7°C | 9.1% | 0hPa | 2.7V | 00:00:00 | 00:00:00 | 00:00:00 | |
| OE8JPQ-2 | 2026-09-01 02:57:18 | 46.97006 | 16.17576 | 91° | 119km/h | 13414m | 6.1m/s | -55.5°C | 9.0% | 0hPa | 2.7V | 00:00:00 | 00:00:00 | 00:00:00 | |
| PETON7-10 | 2026-09-01 02:57:17 | 46.97006 | 16.17532 | 91° | 120km/h | 13410m | 2.8m/s | -55.5°C | 9.0% | 0hPa | 2.7V | 00:00:00 | 01:10:49 | 00:00:00 | |
| PG1ADW-2 | 2026-09-01 02:57:16 | 46.97006 | 16.17488 | 91° | 119km/h | 13405m | 6.4m/s | -55.5°C | 9.0% | 0hPa | 2.7V | 00:00:00 | 01:10:48 | 00:00:00 | |
| PETON7-10 | 2026-09-01 02:57:01 | 46.97007 | 16.16823 | 92° | 119km/h | 13331m | 3.9m/s | -55.4°C | 9.0% | 0hPa | 2.7V | 00:00:00 | 00:00:00 | 00:00:00 | |
| OE8JPQ-2 | 2026-09-01 02:56:58 | 46.97009 | 16.16693 | 91° | 117km/h | 13316m | 6.3m/s | -55.5°C | 9.0% | 0hPa | 2.7V | 00:00:00 | 01:10:30 | 00:00:00 | |
| OE3JTB-15 | 2026-09-01 02:56:57 | 46.97009 | 16.16649 | 91° | 119km/h | 13311m | 3.3m/s | -55.6°C | 9.2% | 0hPa | 2.7V | 00:00:00 | 00:00:00 | 00:00:00 | |
| PG1ADW-2 | 2026-09-01 02:56:56 | 46.97009 | 16.16605 | 91° | 117km/h | 13306m | 6.0m/s | -55.6°C | 9.2% | 0hPa | 2.7V | 00:00:00 | 00:00:00 | 00:00:00 | |
| OE5DXL-15 | 2026-09-01 02:56:53 | 46.97012 | 16.16474 | 95° | 117km/h | 13292m | 3.9m/s | -55.5°C | 9.2% | 0hPa | 2.7V | 00:00:00 | 00:00:00 | 00:00:00 | |
| OE5DRO-10 | 2026-09-01 02:56:47 | 46.97028 | 16.16208 | 95° | 115km/h | 13265m | 4.0m/s | -55.4°C | 9.1% | 0hPa | 2.7V | 00:00:00 | 00:00:00 | 00:00:00 | |
| PETON7-10 | 2026-09-01 02:56:46 | 46.97030 | 16.16164 | 96° | 113km/h | 13260m | 5.3m/s | -55.4°C | 9.1% | 0hPa | 2.7V | 00:00:00 | 00:00:00 | 00:00:00 | |
| OE8JPQ-2 | 2026-09-01 02:56:38 | 46.97050 | 16.15832 | 98° | 119km/h | 13223m | 5.4m/s | -55.7°C | 9.3% | 0hPa | 2.7V | 00:00:00 | 00:00:00 | 08:30:00 | |
| PG1ADW-2 | 2026-09-01 02:56:36 | 46.97057 | 16.15753 | 99° | 120km/h | 13213m | 6.4m/s | -55.9°C | 9.5% | 0hPa | 2.7V | 00:00:00 | 00:00:00 | 00:00:00 | |
| PETON7-10 | 2026-09-01 02:56:31 | 46.97072 | 16.15540 | 93° | 122km/h | 13189m | 4.8m/s | -55.9°C | 9.6% | 0hPa | 2.7V | 00:00:00 | 01:10:03 | 00:00:00 | |
| OE5DRO-10 | 2026-09-01 02:56:28 | 46.97076 | 16.15402 | 92° | 124km/h | 13174m | 5.4m/s | -55.9°C | 9.7% | 0hPa | 2.7V | 00:00:00 | 00:00:00 | 00:00:00 | |
| OE5DXL-15 | 2026-09-01 02:56:23 | 46.97083 | 16.15175 | 92° | 126km/h | 13149m | 6.7m/s | -55.8°C | 9.7% | 0hPa | 2.7V | 00:00:00 | 00:00:00 | 00:00:00 | |
| OE8JPQ-2 | 2026-09-01 02:56:18 | 46.97084 | 16.14958 | 90° | 128km/h | 13124m | 3.7m/s | -55.6°C | 9.4% | 0hPa | 2.7V | 00:00:00 | 00:00:00 | 00:00:00 | |
| PETON7-10 | 2026-09-01 02:56:16 | 46.97083 | 16.14863 | 90° | 128km/h | 13112m | 5.6m/s | -55.5°C | 9.2% | 0hPa | 2.7V | 00:00:00 | 00:00:00 | 08:30:00 | |
| OE3JTB-15 | 2026-09-01 02:56:15 | 46.97083 | 16.14815 | 91° | 128km/h | 13106m | 6.9m/s | -55.5°C | 9.2% | 0hPa | 2.7V | 00:00:00 | 00:00:00 | 00:00:00 | |
| OE5DRO-10 | 2026-09-01 02:56:09 | 46.97088 | 16.14533 | 91° | 130km/h | 13075m | 6.9m/s | -55.4°C | 9.2% | 0hPa | 2.7V | 00:00:00 | 00:00:00 | 00:00:00 | |
| PETON7-10 | 2026-09-01 02:56:01 | 46.97086 | 16.14152 | 90° | 128km/h | 13035m | 5.5m/s | -55.5°C | 9.3% | 0hPa | 2.7V | 00:00:00 | 00:00:00 | 00:00:00 | |
| OE8JPQ-2 | 2026-09-01 02:55:58 | 46.97083 | 16.14010 | 88° | 128km/h | 13019m | 4.8m/s | -55.9°C | 9.7% | 0hPa | 2.7V | 00:00:00 | 01:09:30 | 00:00:00 | |
| PG1ADW-2 | 2026-09-01 02:55:56 | 46.97082 | 16.13917 | 91° | 128km/h | 13009m | 5.1m/s | -55.9°C | 9.6% | 0hPa | 2.7V | 00:00:00 | 01:09:28 | 00:00:00 | |
| OE5DXL-15 | 2026-09-01 02:55:53 | 46.97083 | 16.13776 | 90° | 128km/h | 12995m | 2.2m/s | -55.8°C | 9.7% | 0hPa | 2.7V | 00:00:00 | 00:00:00 | 00:00:00 | |
| OE5DRO-10 | 2026-09-01 02:55:50 | 46.97080 | 16.13630 | 88° | 128km/h | 12981m | 5.4m/s | -55.9°C | 9.8% | 0hPa | 2.7V | 00:00:00 | 00:00:00 | 00:00:00 | |
| PETON7-10 | 2026-09-01 02:55:46 | 46.97072 | 16.13441 | 87° | 128km/h | 12960m | 6.6m/s | -56.0°C | 9.9% | 0hPa | 2.7V | 00:00:00 | 01:09:18 | 00:00:00 | |
| OE3JTB-15 | 2026-09-01 02:55:44 | 46.97068 | 16.13347 | 86° | 126km/h | 12949m | 6.5m/s | -55.9°C | 10.0% | 0hPa | 2.7V | 00:00:00 | 01:09:16 | 00:00:00 | |
| OE8JPQ-2 | 2026-09-01 02:55:38 | 46.97055 | 16.13061 | 87° | 124km/h | 12921m | 5.9m/s | -56.1°C | 10.3% | 0hPa | 2.7V | 00:00:00 | 00:00:00 | 00:00:00 | |
| PG1ADW-2 | 2026-09-01 02:55:36 | 46.97051 | 16.12968 | 87° | 124km/h | 12911m | 5.4m/s | -56.2°C | 10.5% | 0hPa | 2.7V | 00:00:00 | 00:00:00 | 00:00:00 | |
| OE5DRO-10 | 2026-09-01 02:55:31 | 46.97040 | 16.12734 | 85° | 124km/h | 12886m | 4.1m/s | -56.0°C | 10.5% | 0hPa | 2.7V | 00:00:00 | 00:00:00 | 00:00:00 | |
| OE5DXL-15 | 2026-09-01 02:55:23 | 46.97009 | 16.12367 | 82° | 124km/h | 12845m | 3.9m/s | -55.8°C | 10.6% | 0hPa | 2.7V | 00:00:00 | 00:00:00 | 00:00:00 | |
| OE8JPQ-2 | 2026-09-01 02:55:18 | 46.96990 | 16.12147 | 85° | 124km/h | 12820m | 5.5m/s | -55.7°C | 10.6% | 0hPa | 2.7V | 00:00:00 | 00:00:00 | 00:00:00 | |
| PETON7-10 | 2026-09-01 02:55:16 | 46.96984 | 16.12055 | 85° | 126km/h | 12811m | 5.8m/s | -55.7°C | 10.5% | 0hPa | 2.7V | 00:00:00 | 00:00:00 | 00:00:00 | |
| OE5DRO-10 | 2026-09-01 02:55:12 | 46.96971 | 16.11874 | 84° | 124km/h | 12791m | 6.0m/s | -55.5°C | 10.6% | 0hPa | 2.7V | 00:00:00 | 00:00:00 | 00:00:00 | |
| PETON7-10 | 2026-09-01 02:55:01 | 46.96936 | 16.11368 | 85° | 124km/h | 12737m | 5.2m/s | -55.4°C | 11.4% | 0hPa | 2.7V | 00:00:00 | 01:08:33 | 00:00:00 | |
| OE8JPQ-2 | 2026-09-01 02:54:58 | 46.96926 | 16.11235 | 84° | 126km/h | 12723m | 3.7m/s | -55.5°C | 11.6% | 0hPa | 2.7V | 00:00:00 | 01:08:30 | 00:00:00 | |
| PG1ADW-2 | 2026-09-01 02:54:56 | 46.96920 | 16.11145 | 86° | 128km/h | 12714m | 3.7m/s | -55.4°C | 11.4% | 0hPa | 2.7V | 00:00:00 | 00:00:00 | 00:00:00 | |
| OE5DRO-10 | 2026-09-01 02:54:53 | 46.96915 | 16.11005 | 89° | 128km/h | 12697m | 8.2m/s | -55.2°C | 11.0% | 0hPa | 2.7V | 00:00:00 | 00:00:00 | 00:00:00 | |
| OE3JTB-15 | 2026-09-01 02:54:50 | 46.96914 | 16.10864 | 89° | 130km/h | 12680m | 3.7m/s | -55.1°C | 11.3% | 0hPa | 2.7V | 00:00:00 | 00:00:00 | 00:00:00 | |
| PETON7-10 | 2026-09-01 02:54:46 | 46.96907 | 16.10677 | 86° | 128km/h | 12660m | 5.1m/s | -54.9°C | 11.2% | 0hPa | 2.7V | 00:00:00 | 00:00:00 | 00:00:00 | |
| OE8JPQ-2 | 2026-09-01 02:54:37 | 46.96877 | 16.10257 | 84° | 131km/h | 12614m | 4.4m/s | -55.0°C | 12.1% | 0hPa | 2.7V | 00:00:00 | 00:00:00 | 00:00:00 | |
| PG1ADW-2 | 2026-09-01 02:54:36 | 46.96873 | 16.10209 | 84° | 131km/h | 12609m | 6.0m/s | -55.0°C | 12.1% | 0hPa | 2.7V | 00:00:00 | 01:08:08 | 00:00:00 | |
| OE5DRO-10 | 2026-09-01 02:54:34 | 46.96866 | 16.10114 | 85° | 131km/h | 12599m | 4.7m/s | -55.0°C | 12.1% | 0hPa | 2.7V | 00:00:00 | 00:00:00 | 08:30:00 | |
| PETON7-10 | 2026-09-01 02:54:31 | 46.96855 | 16.09974 | 84° | 133km/h | 12585m | 2.6m/s | -55.2°C | 12.3% | 0hPa | 2.7V | 00:00:00 | 00:00:00 | 00:00:00 | |
| OE5DXL-15 | 2026-09-01 02:54:23 | 46.96846 | 16.09582 | 91° | 133km/h | 12546m | 4.4m/s | -55.5°C | 13.2% | 0hPa | 2.7V | 00:00:00 | 00:00:00 | 08:30:00 | |
| OE3JTB-15 | 2026-09-01 02:54:21 | 46.96845 | 16.09482 | 90° | 128km/h | 12537m | 6.3m/s | -55.5°C | 13.2% | 0hPa | 2.7V | 00:00:00 | 00:00:00 | 00:00:00 | |
| OE8JPQ-2 | 2026-09-01 02:54:17 | 46.96842 | 16.09284 | 89° | 131km/h | 12517m | 5.2m/s | -55.4°C | 13.5% | 0hPa | 2.7V | 00:00:00 | 00:00:00 | 00:00:00 | |
| PG1ADW-2 | 2026-09-01 02:54:16 | 46.96842 | 16.09235 | 90° | 131km/h | 12512m | 3.8m/s | -55.4°C | 13.7% | 0hPa | 2.7V | 00:00:00 | 00:00:00 | 00:00:00 | |
| OE5DRO-10 | 2026-09-01 02:54:15 | 46.96841 | 16.09186 | 89° | 131km/h | 12507m | 5.8m/s | -55.4°C | 13.7% | 0hPa | 2.7V | 00:00:00 | 00:00:00 | 00:00:00 | |
| PETON7-10 | 2026-09-01 02:54:01 | 46.96822 | 16.08509 | 86° | 135km/h | 12441m | 4.4m/s | -55.8°C | 15.1% | 0hPa | 2.7V | 00:00:00 | 00:00:00 | 08:30:00 | |
| OE8JPQ-2 | 2026-09-01 02:53:57 | 46.96814 | 16.08311 | 87° | 137km/h | 12423m | 6.2m/s | -55.8°C | 15.2% | 0hPa | 2.7V | 00:00:00 | 01:07:29 | 00:00:00 | |
| PG1ADW-2 | 2026-09-01 02:53:56 | 46.96812 | 16.08261 | 87° | 137km/h | 12418m | 4.2m/s | -55.8°C | 15.4% | 0hPa | 2.7V | 00:00:00 | 00:00:00 | 00:00:00 | |
| OE5DXL-15 | 2026-09-01 02:53:53 | 46.96805 | 16.08113 | 85° | 133km/h | 12404m | 4.9m/s | -55.7°C | 15.6% | 0hPa | 2.7V | 00:00:00 | 00:00:00 | 00:00:00 | |
| PETON7-10 | 2026-09-01 02:53:46 | 46.96782 | 16.07760 | 84° | 135km/h | 12370m | 6.0m/s | -55.5°C | 15.9% | 0hPa | 2.7V | 00:00:00 | 00:00:00 | 00:00:00 | |
| OE5DRO-10 | 2026-09-01 02:53:37 | 46.96744 | 16.07307 | 83° | 130km/h | 12329m | 6.3m/s | -55.6°C | 16.8% | 0hPa | 2.7V | 00:00:00 | 00:00:00 | 00:00:00 | |
| PG1ADW-2 | 2026-09-01 02:53:36 | 46.96740 | 16.07258 | 84° | 130km/h | 12324m | 2.6m/s | -55.6°C | 17.0% | 0hPa | 2.7V | 00:00:00 | 00:00:00 | 00:00:00 | |
| PETON7-10 | 2026-09-01 02:53:31 | 46.96721 | 16.07017 | 83° | 128km/h | 12301m | 3.5m/s | -56.0°C | 18.5% | 0hPa | 2.7V | 00:00:00 | 01:07:03 | 00:00:00 | |
| OE5DXL-15 | 2026-09-01 02:53:23 | 46.96696 | 16.06641 | 86° | 126km/h | 12265m | 4.3m/s | -56.0°C | 19.9% | 0hPa | 2.7V | 00:00:00 | 00:00:00 | 00:00:00 | |
| OE5DRO-10 | 2026-09-01 02:53:18 | 46.96686 | 16.06405 | 87° | 124km/h | 12241m | 3.4m/s | -56.1°C | 21.2% | 0hPa | 2.7V | 00:00:00 | 00:00:00 | 00:00:00 | |
| OE8JPQ-2 | 2026-09-01 02:53:17 | 46.96684 | 16.06358 | 87° | 126km/h | 12237m | 5.5m/s | -56.1°C | 21.1% | 0hPa | 2.7V | 00:00:00 | 00:00:00 | 00:00:00 | |
| PETON7-10 | 2026-09-01 02:53:16 | 46.96682 | 16.06312 | 88° | 124km/h | 12233m | 3.3m/s | -56.1°C | 21.4% | 0hPa | 2.7V | 00:00:00 | 00:00:00 | 00:00:00 | |
| OE3JTB-15 | 2026-09-01 02:53:04 | 46.96666 | 16.05760 | 89° | 126km/h | 12177m | 3.9m/s | -56.2°C | 22.9% | 0hPa | 2.7V | 00:00:00 | 01:06:36 | 00:00:00 | |
| PETON7-10 | 2026-09-01 02:53:01 | 46.96664 | 16.05623 | 90° | 130km/h | 12163m | 3.6m/s | -56.3°C | 23.8% | 0hPa | 2.7V | 00:00:00 | 00:00:00 | 00:00:00 | |
| OE5DRO-10 | 2026-09-01 02:52:59 | 46.96662 | 16.05527 | 88° | 130km/h | 12154m | 3.4m/s | -56.3°C | 24.1% | 0hPa | 2.7V | 00:00:00 | 00:00:00 | 00:00:00 | |
| OE8JPQ-2 | 2026-09-01 02:52:57 | 46.96660 | 16.05429 | 89° | 130km/h | 12146m | 4.4m/s | -56.3°C | 24.7% | 0hPa | 2.7V | 00:00:00 | 01:06:29 | 00:00:00 | |
| PG1ADW-2 | 2026-09-01 02:52:56 | 46.96659 | 16.05380 | 88° | 128km/h | 12142m | 3.1m/s | -56.3°C | 25.0% | 0hPa | 2.7V | 00:00:00 | 00:00:00 | 00:00:00 | |
| OE5DXL-15 | 2026-09-01 02:52:53 | 46.96655 | 16.05236 | 90° | 128km/h | 12129m | 4.5m/s | -56.3°C | 25.7% | 0hPa | 2.7V | 00:00:00 | 00:00:00 | 00:00:00 | |
| PETON7-10 | 2026-09-01 02:52:46 | 46.96653 | 16.04906 | 89° | 128km/h | 12096m | 5.0m/s | -56.6°C | 27.6% | 0hPa | 2.7V | 00:00:00 | 01:06:18 | 00:00:00 | |
| OE5DRO-10 | 2026-09-01 02:52:40 | 46.96650 | 16.04619 | 91° | 130km/h | 12068m | 4.5m/s | -56.7°C | 28.6% | 0hPa | 2.7V | 00:00:00 | 00:00:00 | 00:00:00 | |
| OE8JPQ-2 | 2026-09-01 02:52:37 | 46.96651 | 16.04477 | 91° | 130km/h | 12055m | 4.7m/s | -56.6°C | 29.0% | 0hPa | 2.7V | 00:00:00 | 00:00:00 | 00:00:00 | |
| PG1ADW-2 | 2026-09-01 02:52:36 | 46.96651 | 16.04430 | 91° | 130km/h | 12051m | 3.8m/s | -56.6°C | 29.3% | 0hPa | 2.7V | 00:00:00 | 00:00:00 | 00:00:00 | |
| PETON7-10 | 2026-09-01 02:52:31 | 46.96654 | 16.04193 | 92° | 130km/h | 12027m | 4.4m/s | -56.5°C | 30.3% | 0hPa | 2.7V | 00:00:00 | 00:00:00 | 00:00:00 | |
| OE5DXL-15 | 2026-09-01 02:52:23 | 46.96654 | 16.03809 | 90° | 126km/h | 11991m | 4.9m/s | -56.7°C | 32.1% | 0hPa | 2.7V | 00:00:00 | 00:00:00 | 00:00:00 | |
| OE5DRO-10 | 2026-09-01 02:52:21 | 46.96654 | 16.03712 | 91° | 126km/h | 11982m | 5.4m/s | -56.7°C | 32.7% | 0hPa | 2.7V | 00:00:00 | 00:00:00 | 00:00:00 | |
| PETON7-10 | 2026-09-01 02:52:16 | 46.96657 | 16.03472 | 93° | 126km/h | 11959m | 4.8m/s | -56.9°C | 34.1% | 0hPa | 2.7V | 00:00:00 | 00:00:00 | 00:00:00 | |
| OE8JPQ-2 | 2026-09-01 02:52:14 | 46.96660 | 16.03375 | 94° | 122km/h | 11950m | 5.2m/s | -56.8°C | 34.2% | 0hPa | 2.7V | 00:00:00 | 00:00:00 | 00:00:00 | |
| OE5DRO-10 | 2026-09-01 02:52:02 | 46.96671 | 16.02825 | 92° | 120km/h | 11893m | 6.1m/s | -56.9°C | 35.5% | 0hPa | 2.7V | 00:00:00 | 00:00:00 | 00:00:00 | |
| PETON7-10 | 2026-09-01 02:52:01 | 46.96671 | 16.02781 | 92° | 120km/h | 11888m | 4.3m/s | -57.0°C | 36.2% | 0hPa | 2.7V | 00:00:00 | 01:05:33 | 00:00:00 | |
| PG1ADW-2 | 2026-09-01 02:51:56 | 46.96678 | 16.02559 | 93° | 119km/h | 11866m | 4.4m/s | -57.0°C | 36.7% | 0hPa | 2.7V | 00:00:00 | 01:05:28 | 00:00:00 | |
| OE5DXL-15 | 2026-09-01 02:51:53 | 46.96681 | 16.02425 | 92° | 120km/h | 11852m | 4.4m/s | -56.9°C | 36.9% | 0hPa | 2.7V | 00:00:00 | 00:00:00 | 00:00:00 | |
| PETON7-10 | 2026-09-01 02:51:46 | 46.96690 | 16.02114 | 94° | 119km/h | 11821m | 5.8m/s | -56.7°C | 36.7% | 0hPa | 2.7V | 00:00:00 | 00:00:00 | 08:30:00 | |
| OE5DRO-10 | 2026-09-01 02:51:43 | 46.96692 | 16.01981 | 92° | 119km/h | 11808m | 3.2m/s | -56.7°C | 37.0% | 0hPa | 2.7V | 00:00:00 | 00:00:00 | 08:30:00 | |
| PG1ADW-2 | 2026-09-01 02:51:36 | 46.96699 | 16.01677 | 91° | 120km/h | 11776m | 4.7m/s | -57.0°C | 37.7% | 0hPa | 2.7V | 00:00:00 | 00:00:00 | 00:00:00 | |
| OE8JPQ-2 | 2026-09-01 02:51:34 | 46.96699 | 16.01589 | 91° | 120km/h | 11767m | 5.0m/s | -56.9°C | 37.3% | 0hPa | 2.7V | 00:00:00 | 00:00:00 | 00:00:00 | |
| PETON7-10 | 2026-09-01 02:51:31 | 46.96699 | 16.01456 | 90° | 120km/h | 11753m | 4.7m/s | -57.0°C | 37.6% | 0hPa | 2.7V | 00:00:00 | 00:00:00 | 00:00:00 | |
| OE5DRO-10 | 2026-09-01 02:51:24 | 46.96706 | 16.01143 | 92° | 119km/h | 11722m | 4.6m/s | -56.8°C | 37.4% | 0hPa | 2.7V | 00:00:00 | 00:00:00 | 00:00:00 | |
| OE5DXL-15 | 2026-09-01 02:51:23 | 46.96707 | 16.01098 | 91° | 119km/h | 11718m | 3.6m/s | -56.8°C | 37.4% | 0hPa | 2.7V | 00:00:00 | 00:00:00 | 00:00:00 | |
| PETON7-10 | 2026-09-01 02:51:16 | 46.96707 | 16.00791 | 91° | 120km/h | 11685m | 4.1m/s | -56.8°C | 37.9% | 0hPa | 2.7V | 00:00:00 | 01:04:48 | 00:00:00 | |
| OE8JPQ-2 | 2026-09-01 02:51:14 | 46.96708 | 16.00705 | 92° | 119km/h | 11677m | 2.8m/s | -56.8°C | 38.5% | 0hPa | 2.7V | 00:00:00 | 00:00:00 | 00:00:00 | |
| OE5DRO-10 | 2026-09-01 02:51:05 | 46.96708 | 16.00304 | 90° | 117km/h | 11637m | 5.1m/s | -56.6°C | 38.0% | 0hPa | 2.7V | 00:00:00 | 00:00:00 | 00:00:00 | |
| PETON7-10 | 2026-09-01 02:51:01 | 46.96706 | 16.00126 | 90° | 117km/h | 11618m | 6.9m/s | -56.6°C | 38.0% | 0hPa | 2.7V | 00:00:00 | 00:00:00 | 00:00:00 | |
| PG1ADW-2 | 2026-09-01 02:50:56 | 46.96698 | 15.99910 | 87° | 113km/h | 11593m | 2.2m/s | -56.5°C | 38.9% | 0hPa | 2.7V | 00:00:00 | 00:00:00 | 00:00:00 | |
| OE8JPQ-2 | 2026-09-01 02:50:54 | 46.96694 | 15.99825 | 85° | 111km/h | 11584m | 5.0m/s | -56.5°C | 38.6% | 0hPa | 2.7V | 00:00:00 | 01:04:26 | 00:00:00 | |
| OE5DXL-15 | 2026-09-01 02:50:53 | 46.96691 | 15.99781 | 85° | 111km/h | 11579m | 4.3m/s | -56.4°C | 38.9% | 0hPa | 2.7V | 00:00:00 | 00:00:00 | 00:00:00 | |
| PETON7-10 | 2026-09-01 02:50:46 | 46.96681 | 15.99482 | 89° | 110km/h | 11545m | 4.2m/s | -56.1°C | 38.2% | 0hPa | 2.7V | 00:00:00 | 00:00:00 | 00:00:00 | |
| OE3JTB-15 | 2026-09-01 02:50:36 | 46.96657 | 15.99081 | 89° | 108km/h | 11496m | 5.0m/s | -55.8°C | 39.8% | 0hPa | 2.7V | 00:00:00 | 00:00:00 | 00:00:00 | |
| OE8JPQ-2 | 2026-09-01 02:50:34 | 46.96659 | 15.99003 | 95° | 108km/h | 11485m | 6.4m/s | -55.7°C | 39.0% | 0hPa | 2.7V | 00:00:00 | 00:00:00 | 08:30:00 | |
| PETON7-10 | 2026-09-01 02:50:31 | 46.96660 | 15.98880 | 86° | 110km/h | 11462m | 6.4m/s | -55.6°C | 37.9% | 0hPa | 2.7V | 00:00:00 | 01:04:03 | 00:00:00 | |
| OE5DRO-10 | 2026-09-01 02:50:27 | 46.96653 | 15.98715 | 90° | 108km/h | 11432m | 7.5m/s | -55.3°C | 36.7% | 0hPa | 2.7V | 00:00:00 | 00:00:00 | 00:00:00 | |
| OE5DXL-15 | 2026-09-01 02:50:23 | 46.96654 | 15.98549 | 93° | 108km/h | 11404m | 5.8m/s | -55.0°C | 37.1% | 0hPa | 2.7V | 00:00:00 | 00:00:00 | 00:00:00 | |
| PETON7-10 | 2026-09-01 02:50:16 | 46.96661 | 15.98274 | 95° | 108km/h | 11365m | 4.8m/s | -54.7°C | 36.5% | 0hPa | 2.7V | 00:00:00 | 00:00:00 | 00:00:00 | |
| OE8JPQ-2 | 2026-09-01 02:50:13 | 46.96666 | 15.98160 | 94° | 108km/h | 11350m | 6.4m/s | -54.5°C | 36.5% | 0hPa | 2.7V | 00:00:00 | 00:00:00 | 00:00:00 | |
| OE5DRO-10 | 2026-09-01 02:50:08 | 46.96671 | 15.97960 | 92° | 106km/h | 11323m | 7.3m/s | -54.4°C | 36.4% | 0hPa | 2.7V | 00:00:00 | 00:00:00 | 00:00:00 | |
| OE3JTB-15 | 2026-09-01 02:50:07 | 46.96671 | 15.97918 | 93° | 106km/h | 11318m | 3.7m/s | -54.4°C | 37.4% | 0hPa | 2.7V | 00:00:00 | 00:00:00 | 00:00:00 | |
| PETON7-10 | 2026-09-01 02:50:01 | 46.96680 | 15.97681 | 94° | 104km/h | 11287m | 5.4m/s | -54.3°C | 39.5% | 0hPa | 2.7V | 00:00:00 | 00:00:00 | 00:00:00 | |
| PG1ADW-2 | 2026-09-01 02:49:56 | 46.96688 | 15.97487 | 94° | 104km/h | 11265m | 4.1m/s | -54.2°C | 38.7% | 0hPa | 2.7V | 00:00:00 | 00:00:00 | 00:00:00 | |
| OE8JPQ-2 | 2026-09-01 02:49:53 | 46.96692 | 15.97369 | 92° | 104km/h | 11251m | 3.8m/s | -54.1°C | 38.5% | 0hPa | 2.7V | 00:00:00 | 01:03:25 | 00:00:00 | |
| OE5DRO-10 | 2026-09-01 02:49:49 | 46.96695 | 15.97215 | 91° | 104km/h | 11233m | 5.0m/s | -53.9°C | 37.5% | 0hPa | 2.7V | 00:00:00 | 00:00:00 | 00:00:00 | |
| PETON7-10 | 2026-09-01 02:49:46 | 46.96696 | 15.97102 | 91° | 104km/h | 11219m | 5.2m/s | -53.8°C | 37.5% | 0hPa | 2.7V | 00:00:00 | 01:03:18 | 00:00:00 | |
| OE3JTB-15 | 2026-09-01 02:49:38 | 46.96697 | 15.96794 | 90° | 102km/h | 11184m | 3.2m/s | -53.5°C | 37.7% | 0hPa | 2.7V | 00:00:00 | 01:03:10 | 00:00:00 | |
| PG1ADW-2 | 2026-09-01 02:49:36 | 46.96697 | 15.96717 | 90° | 104km/h | 11175m | 2.8m/s | -53.5°C | 37.8% | 0hPa | 2.7V | 00:00:00 | 00:00:00 | 00:00:00 | |
| OE8JPQ-2 | 2026-09-01 02:49:33 | 46.96696 | 15.96601 | 89° | 104km/h | 11162m | 5.4m/s | -53.4°C | 37.3% | 0hPa | 2.7V | 00:00:00 | 00:00:00 | 00:00:00 | |
| PETON7-10 | 2026-09-01 02:49:31 | 46.96696 | 15.96523 | 91° | 102km/h | 11152m | 5.3m/s | -53.3°C | 37.5% | 0hPa | 2.7V | 00:00:00 | 00:00:00 | 08:30:00 | |
| OE5DRO-10 | 2026-09-01 02:49:30 | 46.96696 | 15.96484 | 90° | 102km/h | 11148m | 3.7m/s | -53.3°C | 37.8% | 0hPa | 2.7V | 00:00:00 | 00:00:00 | 00:00:00 | |
| OE5DXL-15 | 2026-09-01 02:49:23 | 46.96690 | 15.96213 | 89° | 100km/h | 11115m | 3.6m/s | -53.1°C | 39.8% | 0hPa | 2.7V | 00:00:00 | 00:00:00 | 00:00:00 | |
| PETON7-10 | 2026-09-01 02:49:16 | 46.96688 | 15.95953 | 91° | 102km/h | 11081m | 5.5m/s | -52.9°C | 41.1% | 0hPa | 2.7V | 00:00:00 | 00:00:00 | 00:00:00 | |
| OE8JPQ-2 | 2026-09-01 02:49:13 | 46.96688 | 15.95837 | 89° | 100km/h | 11066m | 5.2m/s | -52.8°C | 42.0% | 0hPa | 2.7V | 00:00:00 | 00:00:00 | 00:00:00 | |
| OE5DRO-10 | 2026-09-01 02:49:11 | 46.96686 | 15.95762 | 88° | 100km/h | 11057m | 5.3m/s | -52.8°C | 42.2% | 0hPa | 2.7V | 00:00:00 | 00:00:00 | 00:00:00 | |
| OE3JTB-15 | 2026-09-01 02:49:09 | 46.96682 | 15.95690 | 85° | 99km/h | 11047m | 5.6m/s | -52.7°C | 42.5% | 0hPa | 2.7V | 00:00:00 | 00:00:00 | 00:00:00 | |
| OE3OSB-13 | 2026-09-01 02:49:07 | 46.96677 | 15.95617 | 85° | 100km/h | 11038m | 5.3m/s | -52.7°C | 36.4% | -1.0hPa | 2.7V | 00:00:00 | 00:00:00 | 00:00:00 | |
| PETON7-10 | 2026-09-01 02:49:01 | 46.96672 | 15.95393 | 88° | 99km/h | 11010m | 3.9m/s | -52.6°C | 45.6% | 0hPa | 2.7V | 00:00:00 | 01:02:33 | 00:00:00 | |
| PG1ADW-2 | 2026-09-01 02:48:56 | 46.96668 | 15.95209 | 89° | 99km/h | 10986m | 3.9m/s | -52.4°C | 44.0% | 0hPa | 2.7V | 00:00:00 | 00:00:00 | 00:00:00 | |
| OE8JPQ-2 | 2026-09-01 02:48:53 | 46.96667 | 15.95097 | 89° | 99km/h | 10969m | 6.8m/s | -52.3°C | 44.5% | 0hPa | 2.7V | 00:00:00 | 01:02:25 | 00:00:00 | |
| OE5DRO-10 | 2026-09-01 02:48:52 | 46.96667 | 15.95061 | 88° | 99km/h | 10963m | 4.0m/s | -52.2°C | 45.7% | 0hPa | 2.7V | 00:00:00 | 00:00:00 | 08:30:00 | |
| PETON7-10 | 2026-09-01 02:48:46 | 46.96661 | 15.94845 | 90° | 99km/h | 10939m | 4.9m/s | -52.1°C | 45.1% | 0hPa | 2.9V | 00:00:00 | 00:00:00 | 00:00:00 | |
| OE3JTB-15 | 2026-09-01 02:48:40 | 46.96660 | 15.94629 | 90° | 97km/h | 10910m | 3.8m/s | -51.8°C | 45.0% | 0hPa | 2.9V | 00:00:00 | 00:00:00 | 00:00:00 | |
| PG1ADW-2 | 2026-09-01 02:48:36 | 46.96659 | 15.94484 | 89° | 99km/h | 10891m | 3.2m/s | -51.6°C | 45.3% | 0hPa | 2.9V | 00:00:00 | 00:00:00 | 00:00:00 | |
| OE5DRO-10 | 2026-09-01 02:48:33 | 46.96658 | 15.94375 | 90° | 97km/h | 10878m | 6.0m/s | -51.5°C | 44.8% | 0hPa | 2.9V | 00:00:00 | 00:00:00 | 00:00:00 | |
| PETON7-10 | 2026-09-01 02:48:31 | 46.96658 | 15.94302 | 91° | 97km/h | 10868m | 5.3m/s | -51.5°C | 44.5% | 0hPa | 2.9V | 00:00:00 | 00:00:00 | 00:00:00 | |
| OE5DXL-15 | 2026-09-01 02:48:23 | 46.96658 | 15.94015 | 90° | 97km/h | 10831m | 5.4m/s | -51.1°C | 43.2% | 0hPa | 2.9V | 00:00:00 | 00:00:00 | 00:00:00 | |
| PETON7-10 | 2026-09-01 02:48:16 | 46.96657 | 15.93762 | 91° | 99km/h | 10800m | 4.2m/s | -50.8°C | 42.0% | 0hPa | 2.9V | 00:00:00 | 01:01:48 | 00:00:00 | |
| OE5DRO-10 | 2026-09-01 02:48:14 | 46.96658 | 15.93691 | 92° | 97km/h | 10791m | 3.7m/s | -50.7°C | 41.7% | 0hPa | 2.9V | 00:00:00 | 00:00:00 | 00:00:00 | |
| OE3JTB-15 | 2026-09-01 02:48:11 | 46.96661 | 15.93583 | 93° | 99km/h | 10777m | 5.8m/s | -50.6°C | 41.1% | 0hPa | 2.9V | 00:00:00 | 01:01:43 | 00:00:00 | |
| OE3OSB-13 | 2026-09-01 02:48:05 | 46.96664 | 15.93328 | 91° | 97km/h | 10744m | 6.0m/s | -50.3°C | 34.6% | -1.0hPa | 2.9V | 00:00:00 | 00:00:00 | 00:00:00 | |
| PETON7-10 | 2026-09-01 02:48:01 | 46.96668 | 15.93219 | 94° | 99km/h | 10728m | 4.8m/s | -50.1°C | 40.8% | 0hPa | 2.9V | 00:00:00 | 00:00:00 | 00:00:00 | |
| PG1ADW-2 | 2026-09-01 02:47:56 | 46.96675 | 15.93042 | 93° | 99km/h | 10706m | 4.9m/s | -49.9°C | 40.5% | 0hPa | 2.7V | 00:00:00 | 01:01:28 | 00:00:00 | |
| OE5DRO-10 | 2026-09-01 02:47:55 | 46.96677 | 15.93007 | 94° | 99km/h | 10701m | 4.2m/s | -49.9°C | 40.5% | 0hPa | 2.7V | 00:00:00 | 00:00:00 | 00:00:00 | |
| OE5DXL-15 | 2026-09-01 02:47:53 | 46.96679 | 15.92935 | 93° | 99km/h | 10692m | 3.1m/s | -49.8°C | 40.5% | 0hPa | 2.9V | 00:00:00 | 00:00:00 | 00:00:00 | |
| OE8JPQ-2 | 2026-09-01 02:47:51 | 46.96680 | 15.92861 | 90° | 99km/h | 10683m | 3.4m/s | -49.7°C | 40.1% | 0hPa | 2.9V | 00:00:00 | 01:01:23 | 00:00:00 | |
| PETON7-10 | 2026-09-01 02:47:44 | 46.96684 | 15.92606 | 92° | 97km/h | 10651m | 6.2m/s | -49.4°C | 39.0% | 0hPa | 2.9V | 00:00:00 | 00:00:00 | 00:00:00 | |
| OE3JTB-15 | 2026-09-01 02:47:42 | 46.96685 | 15.92535 | 93° | 97km/h | 10641m | 5.3m/s | -49.3°C | 39.0% | 0hPa | 2.9V | 00:00:00 | 00:00:00 | 08:30:00 | |
| OE5DRO-10 | 2026-09-01 02:47:36 | 46.96692 | 15.92318 | 94° | 99km/h | 10613m | 4.3m/s | -49.1°C | 38.5% | 0hPa | 2.9V | 00:00:00 | 00:00:00 | 00:00:00 | |
| OE8JPQ-2 | 2026-09-01 02:47:31 | 46.96700 | 15.92136 | 96° | 99km/h | 10588m | 5.2m/s | -48.8°C | 37.6% | 0hPa | 2.9V | 00:00:00 | 00:00:00 | 08:30:00 | |
| PETON7-10 | 2026-09-01 02:47:29 | 46.96704 | 15.92066 | 96° | 99km/h | 10579m | 5.8m/s | -48.7°C | 37.1% | 0hPa | 2.9V | 00:00:00 | 01:01:01 | 00:00:00 | |
| OE5DXL-15 | 2026-09-01 02:47:23 | 46.96719 | 15.91852 | 95° | 99km/h | 10550m | 6.2m/s | -48.5°C | 36.0% | 0hPa | 2.9V | 00:00:00 | 00:00:00 | 00:00:00 | |
| OE5DRO-10 | 2026-09-01 02:47:17 | 46.96733 | 15.91630 | 96° | 99km/h | 10525m | 6.1m/s | -48.2°C | 35.1% | 0hPa | 2.9V | 00:00:00 | 00:00:00 | 00:00:00 | |
| PG1ADW-2 | 2026-09-01 02:47:16 | 46.96736 | 15.91593 | 96° | 99km/h | 10519m | 4.8m/s | -48.2°C | 35.2% | 0hPa | 2.9V | 00:00:00 | 00:00:00 | 00:00:00 | |
| PETON7-10 | 2026-09-01 02:47:14 | 46.96740 | 15.91521 | 96° | 99km/h | 10510m | 5.5m/s | -48.1°C | 35.0% | 0hPa | 2.9V | 00:00:00 | 00:00:00 | 08:30:00 | |
| OE8JPQ-2 | 2026-09-01 02:47:11 | 46.96748 | 15.91411 | 97° | 99km/h | 10497m | 3.0m/s | -47.9°C | 34.9% | 0hPa | 2.9V | 00:00:00 | 00:00:00 | 00:00:00 | |
| OE3OSB-13 | 2026-09-01 02:47:03 | 46.96771 | 15.91087 | 93° | 95km/h | 10455m | 3.6m/s | -47.6°C | 29.0% | -1.0hPa | 2.9V | 00:00:00 | 00:00:00 | 00:00:00 | |
| PETON7-10 | 2026-09-01 02:46:59 | 46.96776 | 15.90978 | 96° | 100km/h | 10441m | 6.3m/s | -47.4°C | 34.1% | 0hPa | 2.9V | 00:00:00 | 00:00:00 | 00:00:00 | |
| OE5DRO-10 | 2026-09-01 02:46:58 | 46.96778 | 15.90942 | 96° | 100km/h | 10435m | 4.3m/s | -47.4°C | 34.6% | 0hPa | 2.9V | 00:00:00 | 00:00:00 | 00:00:00 | |
| PG1ADW-2 | 2026-09-01 02:46:56 | 46.96783 | 15.90867 | 96° | 100km/h | 10424m | 3.6m/s | -47.3°C | 35.2% | 0hPa | 2.9V | 00:00:00 | 00:00:00 | 00:00:00 | |
| OE5DXL-15 | 2026-09-01 02:46:53 | 46.96789 | 15.90759 | 94° | 100km/h | 10408m | 6.1m/s | -47.2°C | 35.8% | 0hPa | 2.9V | 00:00:00 | 00:00:00 | 00:00:00 | |
| OE8JPQ-2 | 2026-09-01 02:46:51 | 46.96793 | 15.90688 | 96° | 102km/h | 10396m | 4.2m/s | -47.2°C | 36.6% | 0hPa | 2.7V | 00:00:00 | 01:00:23 | 00:00:00 | |
| PETON7-10 | 2026-09-01 02:46:44 | 46.96806 | 15.90423 | 95° | 102km/h | 10361m | 6.4m/s | -47.0°C | 37.0% | 0hPa | 2.7V | 00:00:00 | 01:00:16 | 00:00:00 | |
| OE5DRO-10 | 2026-09-01 02:46:39 | 46.96816 | 15.90233 | 95° | 100km/h | 10336m | 5.4m/s | -46.8°C | 38.5% | 0hPa | 2.7V | 00:00:00 | 00:00:00 | 00:00:00 | |
| PG1ADW-2 | 2026-09-01 02:46:36 | 46.96823 | 15.90123 | 96° | 100km/h | 10321m | 2.8m/s | -46.7°C | 39.5% | 0hPa | 2.7V | 00:00:00 | 01:00:08 | 00:00:00 | |
| OE8JPQ-2 | 2026-09-01 02:46:31 | 46.96834 | 15.89937 | 93° | 99km/h | 10296m | 4.4m/s | -46.5°C | 39.4% | 0hPa | 2.7V | 00:00:00 | 00:00:00 | 00:00:00 | |
| PETON7-10 | 2026-09-01 02:46:29 | 46.96836 | 15.89863 | 93° | 99km/h | 10285m | 4.1m/s | -46.4°C | 39.6% | 0hPa | 2.9V | 00:00:00 | 00:00:00 | 00:00:00 | |
| OE3JTB-15 | 2026-09-01 02:46:26 | 46.96839 | 15.89752 | 93° | 100km/h | 10271m | 5.4m/s | -46.3°C | 40.8% | 0hPa | 2.9V | 00:00:00 | 00:59:58 | 00:00:00 | |
| OE5DXL-15 | 2026-09-01 02:46:23 | 46.96842 | 15.89643 | 93° | 99km/h | 10256m | 4.3m/s | -46.2°C | 41.3% | 0hPa | 2.9V | 00:00:00 | 00:00:00 | 00:00:00 | |
| OE5DRO-10 | 2026-09-01 02:46:20 | 46.96845 | 15.89532 | 92° | 99km/h | 10242m | 4.0m/s | -46.1°C | 41.1% | 0hPa | 2.9V | 00:00:00 | 00:00:00 | 00:00:00 | |
| PG1ADW-2 | 2026-09-01 02:46:16 | 46.96849 | 15.89386 | 92° | 99km/h | 10225m | 4.8m/s | -46.0°C | 41.3% | 0hPa | 2.9V | 00:00:00 | 00:00:00 | 08:30:00 | |
| PETON7-10 | 2026-09-01 02:46:14 | 46.96851 | 15.89313 | 93° | 99km/h | 10215m | 4.6m/s | -45.9°C | 41.3% | 0hPa | 2.7V | 00:00:00 | 00:00:00 | 00:00:00 | |
| OE8JPQ-2 | 2026-09-01 02:46:11 | 46.96854 | 15.89203 | 93° | 99km/h | 10200m | 6.2m/s | -45.8°C | 40.9% | 0hPa | 2.7V | 00:00:00 | 00:00:00 | 00:00:00 | |
| OE5DRO-10 | 2026-09-01 02:46:01 | 46.96861 | 15.88842 | 91° | 99km/h | 10152m | 4.4m/s | -45.3°C | 40.3% | 0hPa | 2.7V | 00:00:00 | 00:00:00 | 08:30:00 | |
| PETON7-10 | 2026-09-01 02:45:59 | 46.96862 | 15.88770 | 93° | 99km/h | 10142m | 3.4m/s | -45.2°C | 40.3% | 0hPa | 2.7V | 00:00:00 | 00:59:31 | 00:00:00 | |
| PG1ADW-2 | 2026-09-01 02:45:56 | 46.96866 | 15.88660 | 92° | 100km/h | 10129m | 5.0m/s | -45.1°C | 38.8% | 0hPa | 2.7V | 00:00:00 | 00:00:00 | 00:00:00 | |
| OE5DXL-15 | 2026-09-01 02:45:53 | 46.96868 | 15.88551 | 91° | 100km/h | 10114m | 4.5m/s | -45.0°C | 38.4% | 0hPa | 2.7V | 00:00:00 | 00:00:00 | 00:00:00 | |
| OE8JPQ-2 | 2026-09-01 02:45:51 | 46.96868 | 15.88477 | 90° | 100km/h | 10104m | 4.7m/s | -44.9°C | 37.5% | 0hPa | 2.7V | 00:00:00 | 00:59:23 | 00:00:00 | |
| PETON7-10 | 2026-09-01 02:45:44 | 46.96867 | 15.88222 | 92° | 100km/h | 10071m | 3.1m/s | -44.6°C | 35.6% | 0hPa | 2.7V | 00:00:00 | 00:00:00 | 00:00:00 | |
| OE5DRO-10 | 2026-09-01 02:45:42 | 46.96868 | 15.88147 | 92° | 100km/h | 10062m | 3.7m/s | -44.6°C | 34.6% | 0hPa | 2.9V | 00:00:00 | 00:00:00 | 00:00:00 | |
| PG1ADW-2 | 2026-09-01 02:45:36 | 46.96870 | 15.87924 | 90° | 100km/h | 10033m | 3.8m/s | -44.4°C | 33.4% | 0hPa | 2.9V | 00:00:00 | 00:00:00 | 00:00:00 | |
| OE8JPQ-2 | 2026-09-01 02:45:31 | 46.96867 | 15.87737 | 90° | 100km/h | 10011m | 4.8m/s | -44.1°C | 32.8% | 0hPa | 2.9V | 00:00:00 | 00:00:00 | 00:00:00 | |
| PETON7-10 | 2026-09-01 02:45:29 | 46.96865 | 15.87661 | 88° | 100km/h | 10001m | 4.3m/s | -44.0°C | 33.1% | 0hPa | 2.9V | 00:00:00 | 00:00:00 | 00:00:00 | |
| OE5DRO-10 | 2026-09-01 02:45:23 | 46.96860 | 15.87437 | 89° | 100km/h | 9976m | 4.1m/s | -43.8°C | 32.8% | 0hPa | 2.9V | 00:00:00 | 00:00:00 | 00:00:00 | |
| PG1ADW-2 | 2026-09-01 02:45:16 | 46.96854 | 15.87178 | 90° | 100km/h | 9943m | 4.7m/s | -43.6°C | 33.0% | 0hPa | 2.9V | 00:00:00 | 00:58:48 | 00:00:00 | |
| PETON7-10 | 2026-09-01 02:45:14 | 46.96853 | 15.87106 | 89° | 100km/h | 9935m | 4.7m/s | -43.5°C | 33.0% | 0hPa | 2.9V | 00:00:00 | 00:58:46 | 00:00:00 | |
| OE8JPQ-2 | 2026-09-01 02:45:11 | 46.96852 | 15.86997 | 89° | 100km/h | 9921m | 3.6m/s | -43.4°C | 32.9% | 0hPa | 2.9V | 00:00:00 | 00:00:00 | 00:00:00 | |
| OE5DRO-10 | 2026-09-01 02:45:04 | 46.96848 | 15.86736 | 91° | 102km/h | 9890m | 3.9m/s | -43.1°C | 32.9% | 0hPa | 2.9V | 00:00:00 | 00:00:00 | 00:00:00 | |
| PETON7-10 | 2026-09-01 02:44:59 | 46.96847 | 15.86552 | 89° | 102km/h | 9866m | 4.7m/s | -42.9°C | 32.0% | 0hPa | 2.9V | 00:00:00 | 00:00:00 | 08:30:00 | |
| PG1ADW-2 | 2026-09-01 02:44:56 | 46.96845 | 15.86439 | 89° | 104km/h | 9852m | 5.5m/s | -42.8°C | 31.6% | 0hPa | 2.7V | 00:00:00 | 00:00:00 | 00:00:00 | |
| OE5DXL-15 | 2026-09-01 02:44:53 | 46.96846 | 15.86326 | 92° | 104km/h | 9838m | 3.7m/s | -42.6°C | 31.2% | 0hPa | 2.7V | 00:00:00 | 00:00:00 | 00:00:00 | |
| OE8JPQ-2 | 2026-09-01 02:44:51 | 46.96847 | 15.86250 | 91° | 104km/h | 9829m | 3.3m/s | -42.5°C | 30.9% | 0hPa | 2.7V | 00:00:00 | 00:58:23 | 00:00:00 | |
| OE5DRO-10 | 2026-09-01 02:44:45 | 46.96847 | 15.86022 | 92° | 104km/h | 9798m | 4.5m/s | -42.3°C | 30.8% | 0hPa | 2.7V | 00:00:00 | 00:00:00 | 00:00:00 | |
| PETON7-10 | 2026-09-01 02:44:44 | 46.96848 | 15.85984 | 93° | 104km/h | 9794m | 4.2m/s | -42.3°C | 31.1% | 0hPa | 2.7V | 00:00:00 | 00:00:00 | 00:00:00 | |
| OE3JTB-15 | 2026-09-01 02:44:39 | 46.96848 | 15.85793 | 90° | 104km/h | 9770m | 6.5m/s | -42.1°C | 31.6% | 0hPa | 2.7V | 00:00:00 | 00:00:00 | 00:00:00 | |
| PG1ADW-2 | 2026-09-01 02:44:36 | 46.96849 | 15.85673 | 92° | 104km/h | 9754m | 3.8m/s | -42.0°C | 32.6% | 0hPa | 2.9V | 00:00:00 | 00:00:00 | 00:00:00 | |
| OE8JPQ-2 | 2026-09-01 02:44:31 | 46.96853 | 15.85478 | 91° | 104km/h | 9731m | 4.5m/s | -41.8°C | 32.5% | 0hPa | 2.9V | 00:00:00 | 00:00:00 | 08:30:00 | |
| PETON7-10 | 2026-09-01 02:44:29 | 46.96855 | 15.85401 | 93° | 104km/h | 9722m | 4.3m/s | -41.7°C | 32.4% | 0hPa | 2.9V | 00:00:00 | 00:58:01 | 00:00:00 | |
| OE5DRO-10 | 2026-09-01 02:44:26 | 46.96859 | 15.85286 | 94° | 104km/h | 9707m | 6.1m/s | -41.6°C | 32.1% | 0hPa | 2.9V | 00:00:00 | 00:00:00 | 00:00:00 | |
| OE5DXL-15 | 2026-09-01 02:44:23 | 46.96864 | 15.85171 | 95° | 104km/h | 9693m | 4.7m/s | -41.5°C | 32.0% | 0hPa | 2.9V | 00:00:00 | 00:00:00 | 00:00:00 | |
| PG1ADW-2 | 2026-09-01 02:44:16 | 46.96877 | 15.84903 | 94° | 106km/h | 9660m | 4.9m/s | -41.2°C | 31.6% | 0hPa | 2.9V | 00:00:00 | 00:00:00 | 00:00:00 | |
| PETON7-10 | 2026-09-01 02:44:14 | 46.96879 | 15.84826 | 93° | 106km/h | 9651m | 5.6m/s | -41.1°C | 31.4% | 0hPa | 2.7V | 00:00:00 | 00:00:00 | 00:00:00 | |
| OE8JPQ-2 | 2026-09-01 02:44:11 | 46.96883 | 15.84710 | 94° | 106km/h | 9637m | 3.8m/s | -41.0°C | 31.8% | 0hPa | 2.7V | 00:00:00 | 00:00:00 | 00:00:00 | |
| OE3JTB-15 | 2026-09-01 02:44:10 | 46.96884 | 15.84672 | 94° | 106km/h | 9632m | 5.5m/s | -41.0°C | 31.5% | 0hPa | 2.7V | 00:00:00 | 00:00:00 | 00:00:00 | |
| OE5DRO-10 | 2026-09-01 02:44:07 | 46.96891 | 15.84557 | 96° | 106km/h | 9617m | 3.9m/s | -40.8°C | 31.5% | 0hPa | 2.7V | 00:00:00 | 00:00:00 | 00:00:00 | |
| PETON7-10 | 2026-09-01 02:43:59 | 46.96904 | 15.84242 | 94° | 106km/h | 9581m | 4.3m/s | -40.6°C | 30.8% | 0hPa | 2.9V | 00:00:00 | 00:00:00 | 00:00:00 | |
| PG1ADW-2 | 2026-09-01 02:43:56 | 46.96909 | 15.84126 | 95° | 108km/h | 9567m | 4.9m/s | -40.5°C | 29.9% | 0hPa | 2.9V | 00:00:00 | 00:57:28 | 00:00:00 | |
| OE5DXL-15 | 2026-09-01 02:43:53 | 46.96916 | 15.84009 | 96° | 108km/h | 9553m | 3.8m/s | -40.4°C | 29.7% | 0hPa | 2.9V | 00:00:00 | 00:00:00 | 00:00:00 | |
| OE8JPQ-2 | 2026-09-01 02:43:51 | 46.96921 | 15.83930 | 95° | 108km/h | 9543m | 4.1m/s | -40.3°C | 30.0% | 0hPa | 2.9V | 00:00:00 | 00:57:23 | 00:00:00 | |
| OE5DRO-10 | 2026-09-01 02:43:48 | 46.96927 | 15.83810 | 95° | 108km/h | 9529m | 5.0m/s | -40.2°C | 30.8% | 0hPa | 2.9V | 00:00:00 | 00:00:00 | 00:00:00 | |
| PETON7-10 | 2026-09-01 02:43:44 | 46.96934 | 15.83652 | 93° | 108km/h | 9510m | 3.6m/s | -40.1°C | 33.9% | 0hPa | 2.9V | 00:00:00 | 00:57:16 | 00:00:00 | |
| OE3JTB-15 | 2026-09-01 02:43:41 | 46.96937 | 15.83535 | 94° | 108km/h | 9496m | 4.4m/s | -40.1°C | 35.8% | 0hPa | 2.9V | 00:00:00 | 00:57:13 | 00:00:00 | |
| PG1ADW-2 | 2026-09-01 02:43:36 | 46.96944 | 15.83335 | 94° | 106km/h | 9473m | 4.9m/s | -39.8°C | 35.9% | 0hPa | 2.9V | 00:00:00 | 00:00:00 | 00:00:00 | |
| OE8JPQ-2 | 2026-09-01 02:43:31 | 46.96951 | 15.83135 | 94° | 106km/h | 9448m | 5.1m/s | -39.6°C | 37.3% | 0hPa | 2.9V | 00:00:00 | 00:00:00 | 00:00:00 | |
| PETON7-10 | 2026-09-01 02:43:29 | 46.96953 | 15.83056 | 93° | 106km/h | 9438m | 5.0m/s | -39.5°C | 37.1% | 0hPa | 2.7V | 00:00:00 | 00:00:00 | 00:00:00 | |
| OE5DXL-15 | 2026-09-01 02:43:23 | 46.96961 | 15.82822 | 94° | 104km/h | 9410m | 5.3m/s | -39.2°C | 36.3% | 0hPa | 2.7V | 00:00:00 | 00:00:00 | 00:00:00 | |
| PG1ADW-2 | 2026-09-01 02:43:16 | 46.96971 | 15.82548 | 94° | 104km/h | 9377m | 4.7m/s | -38.9°C | 36.0% | 0hPa | 2.7V | 00:00:00 | 00:00:00 | 08:30:00 | |
| PETON7-10 | 2026-09-01 02:43:14 | 46.96973 | 15.82472 | 92° | 104km/h | 9368m | 5.5m/s | -38.8°C | 36.0% | 0hPa | 2.9V | 00:00:00 | 00:00:00 | 00:00:00 | |
| OE3JTB-15 | 2026-09-01 02:43:12 | 46.96975 | 15.82395 | 93° | 100km/h | 9358m | 5.4m/s | -38.8°C | 36.4% | 0hPa | 2.9V | 00:00:00 | 00:00:00 | 00:00:00 | |
| OE8JPQ-2 | 2026-09-01 02:43:11 | 46.96976 | 15.82356 | 93° | 104km/h | 9353m | 3.5m/s | -38.7°C | 36.8% | 0hPa | 2.9V | 00:00:00 | 00:00:00 | 00:00:00 | |
| OE5DRO-10 | 2026-09-01 02:43:10 | 46.96977 | 15.82317 | 92° | 104km/h | 9349m | 5.8m/s | -38.7°C | 36.7% | 0hPa | 2.9V | 00:00:00 | 00:00:00 | 08:30:00 | |
| PETON7-10 | 2026-09-01 02:42:59 | 46.96992 | 15.81892 | 93° | 100km/h | 9296m | 4.3m/s | -38.4°C | 44.1% | 0hPa | 2.9V | 00:00:00 | 00:56:31 | 00:00:00 | |
| PG1ADW-2 | 2026-09-01 02:42:56 | 46.96995 | 15.81779 | 94° | 100km/h | 9283m | 4.8m/s | -38.3°C | 44.8% | 0hPa | 2.9V | 00:00:00 | 00:00:00 | 00:00:00 | |
| OE5DXL-15 | 2026-09-01 02:42:53 | 46.96998 | 15.81666 | 92° | 99km/h | 9268m | 4.6m/s | -38.2°C | 46.4% | 0hPa | 2.9V | 00:00:00 | 00:00:00 | 00:00:00 | |
| OE8JPQ-2 | 2026-09-01 02:42:51 | 46.97000 | 15.81592 | 92° | 99km/h | 9259m | 4.8m/s | -38.2°C | 47.0% | 0hPa | 2.9V | 00:00:00 | 00:56:23 | 00:00:00 | |
| PETON7-10 | 2026-09-01 02:42:42 | 46.97005 | 15.81263 | 93° | 99km/h | 9216m | 3.6m/s | -37.8°C | 46.7% | 0hPa | 2.9V | 00:00:00 | 00:00:00 | 08:30:00 | |
| OE3JTB-15 | 2026-09-01 02:42:37 | 46.97012 | 15.81079 | 94° | 99km/h | 9193m | 5.5m/s | -37.6°C | 44.7% | 0hPa | 2.9V | 00:00:00 | 00:00:00 | 00:00:00 | |
| PG1ADW-2 | 2026-09-01 02:42:36 | 46.97013 | 15.81042 | 93° | 99km/h | 9188m | 3.6m/s | -37.6°C | 44.7% | 0hPa | 2.9V | 00:00:00 | 00:56:08 | 00:00:00 | |
| OE5DRO-10 | 2026-09-01 02:42:32 | 46.97019 | 15.80898 | 94° | 99km/h | 9168m | 3.6m/s | -37.4°C | 44.0% | 0hPa | 2.9V | 00:00:00 | 00:00:00 | 00:00:00 | |
| OE8JPQ-2 | 2026-09-01 02:42:31 | 46.97021 | 15.80862 | 95° | 99km/h | 9163m | 5.5m/s | -37.3°C | 43.7% | 0hPa | 2.9V | 00:00:00 | 00:00:00 | 00:00:00 | |
| PETON7-10 | 2026-09-01 02:42:27 | 46.97027 | 15.80717 | 93° | 99km/h | 9146m | 5.5m/s | -37.2°C | 43.5% | 0hPa | 2.9V | 00:00:00 | 00:00:00 | 00:00:00 | |
| OE5DXL-15 | 2026-09-01 02:42:23 | 46.97031 | 15.80571 | 93° | 100km/h | 9126m | 4.3m/s | -37.0°C | 43.5% | 0hPa | 2.9V | 00:00:00 | 00:00:00 | 00:00:00 | |
| PG1ADW-2 | 2026-09-01 02:42:16 | 46.97036 | 15.80317 | 92° | 100km/h | 9093m | 3.8m/s | -36.7°C | 42.9% | 0hPa | 2.9V | 00:00:00 | 00:00:00 | 00:00:00 | |
| OE5DRO-10 | 2026-09-01 02:42:13 | 46.97039 | 15.80206 | 93° | 100km/h | 9080m | 4.6m/s | -36.6°C | 42.2% | 0hPa | 2.7V | 00:00:00 | 00:00:00 | 00:00:00 | |
| PETON7-10 | 2026-09-01 02:42:12 | 46.97041 | 15.80169 | 93° | 100km/h | 9075m | 5.3m/s | -36.5°C | 41.8% | 0hPa | 2.7V | 00:00:00 | 00:55:44 | 00:00:00 | |
| OE8JPQ-2 | 2026-09-01 02:42:11 | 46.97042 | 15.80132 | 94° | 102km/h | 9070m | 3.7m/s | -36.5°C | 41.7% | 0hPa | 2.7V | 00:00:00 | 00:00:00 | 00:00:00 | |
| PETON7-10 | 2026-09-01 02:41:57 | 46.97055 | 15.79611 | 95° | 102km/h | 9005m | 5.6m/s | -35.9°C | 40.8% | 0hPa | 2.7V | 00:00:00 | 00:00:00 | 00:00:00 | |
| PG1ADW-2 | 2026-09-01 02:41:56 | 46.97057 | 15.79573 | 95° | 104km/h | 9001m | 2.6m/s | -35.9°C | 41.4% | 0hPa | 2.9V | 00:00:00 | 00:00:00 | 00:00:00 | |
| OE5DRO-10 | 2026-09-01 02:41:54 | 46.97059 | 15.79497 | 92° | 104km/h | 8990m | 5.9m/s | -35.8°C | 41.0% | 0hPa | 2.9V | 00:00:00 | 00:00:00 | 00:00:00 | |
| OE5DXL-15 | 2026-09-01 02:41:52 | 46.97060 | 15.79420 | 91° | 106km/h | 8980m | 6.0m/s | -35.7°C | 40.9% | 0hPa | 2.9V | 00:00:00 | 00:00:00 | 00:00:00 | |
| OE8JPQ-2 | 2026-09-01 02:41:51 | 46.97060 | 15.79382 | 91° | 106km/h | 8975m | 3.8m/s | -35.7°C | 41.2% | 0hPa | 2.9V | 00:00:00 | 00:55:23 | 00:00:00 | |
| PETON7-10 | 2026-09-01 02:41:42 | 46.97067 | 15.79043 | 93° | 108km/h | 8934m | 4.2m/s | -35.4°C | 42.0% | 0hPa | 2.9V | 00:00:00 | 00:00:00 | 00:00:00 | |
| OE3JTB-15 | 2026-09-01 02:41:39 | 46.97071 | 15.78925 | 93° | 108km/h | 8920m | 5.9m/s | -35.3°C | 41.8% | 0hPa | 2.9V | 00:00:00 | 00:00:00 | 08:30:00 | |
| PG1ADW-2 | 2026-09-01 02:41:36 | 46.97075 | 15.78806 | 93° | 108km/h | 8905m | 5.9m/s | -35.2°C | 41.7% | 0hPa | 2.9V | 00:00:00 | 00:00:00 | 00:00:00 | |
| OE5DRO-10 | 2026-09-01 02:41:35 | 46.97076 | 15.78766 | 93° | 108km/h | 8900m | 3.9m/s | -35.1°C | 41.8% | 0hPa | 2.9V | 00:00:00 | 00:00:00 | 00:00:00 | |
| OE8JPQ-2 | 2026-09-01 02:41:30 | 46.97082 | 15.78569 | 94° | 108km/h | 8877m | 4.4m/s | -34.9°C | 41.1% | 0hPa | 2.9V | 00:00:00 | 00:00:00 | 08:30:00 | |
| PETON7-10 | 2026-09-01 02:41:27 | 46.97089 | 15.78450 | 95° | 108km/h | 8863m | 4.5m/s | -34.8°C | 41.1% | 0hPa | 2.9V | 00:00:00 | 00:54:59 | 00:00:00 | |
| OE5DXL-15 | 2026-09-01 02:41:22 | 46.97094 | 15.78249 | 94° | 106km/h | 8841m | 4.2m/s | -34.6°C | 40.9% | 0hPa | 2.9V | 00:00:00 | 00:00:00 | 00:00:00 | |
| OE5DRO-10 | 2026-09-01 02:41:16 | 46.97108 | 15.78013 | 95° | 108km/h | 8813m | 3.7m/s | -34.3°C | 41.9% | 0hPa | 2.9V | 00:00:00 | 00:00:00 | 00:00:00 | |
| PETON7-10 | 2026-09-01 02:41:12 | 46.97117 | 15.77853 | 96° | 106km/h | 8794m | 5.3m/s | -34.2°C | 42.6% | 0hPa | 2.9V | 00:00:00 | 00:00:00 | 00:00:00 | |
| OE3JTB-15 | 2026-09-01 02:41:10 | 46.97121 | 15.77774 | 95° | 104km/h | 8785m | 6.2m/s | -34.1°C | 42.6% | 0hPa | 2.9V | 00:00:00 | 00:00:00 | 00:00:00 | |
| OE8JPQ-2 | 2026-09-01 02:41:09 | 46.97123 | 15.77735 | 94° | 106km/h | 8780m | 3.7m/s | -34.1°C | 43.2% | 0hPa | 2.9V | 00:00:00 | 00:00:00 | 00:00:00 | |
| OE5DRO-10 | 2026-09-01 02:40:57 | 46.97146 | 15.77265 | 95° | 104km/h | 8723m | 3.3m/s | -33.6°C | 41.3% | 0hPa | 2.9V | 00:00:00 | 00:00:00 | 00:00:00 | |
| PG1ADW-2 | 2026-09-01 02:40:56 | 46.97148 | 15.77226 | 96° | 104km/h | 8719m | 5.1m/s | -33.6°C | 40.9% | 0hPa | 2.9V | 00:00:00 | 00:00:00 | 00:00:00 | |
| OE5DXL-15 | 2026-09-01 02:40:52 | 46.97158 | 15.77072 | 95° | 102km/h | 8701m | 4.5m/s | -33.4°C | 40.0% | 0hPa | 2.9V | 00:00:00 | 00:00:00 | 08:30:00 | |
| OE8JPQ-2 | 2026-09-01 02:40:49 | 46.97164 | 15.76960 | 95° | 102km/h | 8688m | 4.8m/s | -33.3°C | 39.6% | 0hPa | 2.9V | 00:00:00 | 00:54:21 | 00:00:00 | |
| OE3JTB-15 | 2026-09-01 02:40:41 | 46.97181 | 15.76655 | 94° | 102km/h | 8650m | 6.2m/s | -33.0°C | 38.5% | 0hPa | 2.9V | 00:00:00 | 00:54:13 | 00:00:00 | |
| OE5DRO-10 | 2026-09-01 02:40:38 | 46.97186 | 15.76541 | 96° | 102km/h | 8637m | 3.3m/s | -32.8°C | 39.4% | 0hPa | 2.9V | 00:00:00 | 00:00:00 | 00:00:00 | |
| PG1ADW-2 | 2026-09-01 02:40:36 | 46.97191 | 15.76467 | 97° | 102km/h | 8627m | 4.2m/s | -32.8°C | 39.7% | 0hPa | 2.9V | 00:00:00 | 00:00:00 | 00:00:00 | |
| PETON7-10 | 2026-09-01 02:40:31 | 46.97203 | 15.76278 | 95° | 102km/h | 8606m | 5.3m/s | -32.6°C | 39.2% | 0hPa | 2.9V | 00:00:00 | 00:54:03 | 00:00:00 | |
| OE8JPQ-2 | 2026-09-01 02:40:29 | 46.97207 | 15.76203 | 95° | 102km/h | 8597m | 5.7m/s | -32.5°C | 38.7% | 0hPa | 2.9V | 00:00:00 | 00:00:00 | 00:00:00 | |
| OE5DXL-15 | 2026-09-01 02:40:22 | 46.97217 | 15.75941 | 94° | 100km/h | 8563m | 4.6m/s | -32.2°C | 39.2% | 0hPa | 2.9V | 00:00:00 | 00:00:00 | 00:00:00 | |
| OE5DRO-10 | 2026-09-01 02:40:19 | 46.97221 | 15.75825 | 93° | 100km/h | 8549m | 6.1m/s | -32.1°C | 39.5% | 0hPa | 2.9V | 00:00:00 | 00:00:00 | 08:30:00 | |
| PETON7-10 | 2026-09-01 02:40:16 | 46.97227 | 15.75713 | 95° | 100km/h | 8533m | 4.7m/s | -32.0°C | 39.5% | 0hPa | 2.9V | 00:00:00 | 00:00:00 | 08:30:00 | |
| OE3JTB-15 | 2026-09-01 02:40:12 | 46.97234 | 15.75567 | 95° | 100km/h | 8514m | 3.6m/s | -31.9°C | 39.3% | 0hPa | 2.9V | 00:00:00 | 00:00:00 | 00:00:00 | |
| OE8JPQ-2 | 2026-09-01 02:40:09 | 46.97239 | 15.75458 | 94° | 100km/h | 8501m | 3.7m/s | -31.7°C | 39.6% | 0hPa | 2.9V | 00:00:00 | 00:00:00 | 00:00:00 | |
| PETON7-10 | 2026-09-01 02:40:01 | 46.97254 | 15.75160 | 93° | 100km/h | 8464m | 5.1m/s | -31.4°C | 39.6% | 0hPa | 2.9V | 00:00:00 | 00:00:00 | 00:00:00 | |
| OE5DRO-10 | 2026-09-01 02:40:00 | 46.97256 | 15.75123 | 95° | 100km/h | 8459m | 5.3m/s | -31.4°C | 39.7% | 0hPa | 2.9V | 00:00:00 | 00:00:00 | 00:00:00 | |
| PG1ADW-2 | 2026-09-01 02:39:56 | 46.97264 | 15.74975 | 96° | 99km/h | 8439m | 5.6m/s | -31.2°C | 40.3% | 0hPa | 2.9V | 00:00:00 | 00:53:28 | 00:00:00 | |
| OE5DXL-15 | 2026-09-01 02:39:52 | 46.97272 | 15.74826 | 95° | 100km/h | 8422m | 5.1m/s | -31.1°C | 41.2% | 0hPa | 2.9V | 00:00:00 | 00:00:00 | 00:00:00 | |
| OE8JPQ-2 | 2026-09-01 02:39:49 | 46.97279 | 15.74716 | 96° | 99km/h | 8408m | 4.4m/s | -31.0°C | 41.4% | 0hPa | 2.9V | 00:00:00 | 00:53:21 | 00:00:00 | |
| PETON7-10 | 2026-09-01 02:39:46 | 46.97286 | 15.74606 | 95° | 99km/h | 8394m | 4.6m/s | -30.9°C | 41.2% | 0hPa | 2.9V | 00:00:00 | 00:53:18 | 00:00:00 | |
| OE3JTB-15 | 2026-09-01 02:39:43 | 46.97292 | 15.74496 | 94° | 100km/h | 8380m | 4.6m/s | -30.7°C | 40.8% | 0hPa | 2.9V | 00:00:00 | 00:00:00 | 00:00:00 | |
| OE5DRO-10 | 2026-09-01 02:39:41 | 46.97295 | 15.74423 | 94° | 100km/h | 8370m | 5.5m/s | -30.7°C | 40.9% | 0hPa | 2.9V | 00:00:00 | 00:00:00 | 00:00:00 | |
| PG1ADW-2 | 2026-09-01 02:39:36 | 46.97302 | 15.74244 | 96° | 102km/h | 8348m | 3.3m/s | -30.6°C | 43.0% | 0hPa | 2.9V | 00:00:00 | 00:00:00 | 00:00:00 | |
| PETON7-10 | 2026-09-01 02:39:31 | 46.97316 | 15.74063 | 98° | 102km/h | 8324m | 5.1m/s | -30.5°C | 42.9% | 0hPa | 2.9V | 00:00:00 | 00:00:00 | 00:00:00 | |
| OE8JPQ-2 | 2026-09-01 02:39:29 | 46.97323 | 15.73988 | 98° | 102km/h | 8315m | 4.1m/s | -30.4°C | 43.0% | 0hPa | 2.9V | 00:00:00 | 00:00:00 | 00:00:00 | |
| OE5DRO-10 | 2026-09-01 02:39:22 | 46.97346 | 15.73727 | 97° | 102km/h | 8281m | 5.3m/s | -30.2°C | 43.0% | 0hPa | 2.9V | 00:00:00 | 00:00:00 | 00:00:00 | |
| PG1ADW-2 | 2026-09-01 02:39:16 | 46.97363 | 15.73497 | 97° | 100km/h | 8253m | 6.0m/s | -30.1°C | 49.8% | 0hPa | 2.9V | 00:00:00 | 00:00:00 | 00:00:00 | |
| OE3JTB-15 | 2026-09-01 02:39:14 | 46.97369 | 15.73422 | 97° | 99km/h | 8244m | 4.5m/s | -30.1°C | 50.6% | 0hPa | 2.7V | 00:00:00 | 00:52:46 | 00:00:00 | |
| OE8JPQ-2 | 2026-09-01 02:39:09 | 46.97386 | 15.73240 | 99° | 99km/h | 8220m | 4.0m/s | -29.9°C | 42.8% | 0hPa | 2.7V | 00:00:00 | 00:00:00 | 00:00:00 | |
| PETON7-10 | 2026-09-01 02:39:04 | 46.97403 | 15.73055 | 95° | 97km/h | 8196m | 5.6m/s | -29.7°C | 39.0% | 0hPa | 2.7V | 00:00:00 | 00:00:00 | 00:00:00 | |
| PG1ADW-2 | 2026-09-01 02:38:56 | 46.97429 | 15.72764 | 101° | 95km/h | 8158m | 6.4m/s | -29.4°C | 41.0% | 0hPa | 2.7V | 00:00:00 | 00:00:00 | 00:00:00 | |
| OE5DXL-15 | 2026-09-01 02:38:52 | 46.97445 | 15.72628 | 98° | 97km/h | 8131m | 7.4m/s | -29.1°C | 37.8% | 0hPa | 2.7V | 00:00:00 | 00:00:00 | 00:00:00 | |
| OE8JPQ-2 | 2026-09-01 02:38:49 | 46.97452 | 15.72522 | 95° | 97km/h | 8114m | 5.5m/s | -29.0°C | 36.2% | 0hPa | 2.7V | 00:00:00 | 00:52:21 | 00:00:00 | |
| PETON7-10 | 2026-09-01 02:38:48 | 46.97454 | 15.72486 | 95° | 97km/h | 8108m | 6.3m/s | -28.9°C | 35.9% | 0hPa | 2.7V | 00:00:00 | 00:52:20 | 00:00:00 | |
| OE3JTB-15 | 2026-09-01 02:38:45 | 46.97458 | 15.72377 | 95° | 95km/h | 8088m | 6.9m/s | -28.8°C | 35.7% | 0hPa | 2.7V | 00:00:00 | 00:00:00 | 00:00:00 | |
| OE5DRO-10 | 2026-09-01 02:38:44 | 46.97461 | 15.72342 | 97° | 97km/h | 8081m | 6.0m/s | -28.7°C | 36.2% | 0hPa | 2.9V | 00:00:00 | 00:00:00 | 00:00:00 | |
| PG1ADW-2 | 2026-09-01 02:38:36 | 46.97490 | 15.72066 | 98° | 97km/h | 8032m | 6.5m/s | -28.3°C | 40.2% | 0hPa | 2.9V | 00:00:00 | 00:52:08 | 00:00:00 | |
| PETON7-10 | 2026-09-01 02:38:33 | 46.97501 | 15.71954 | 100° | 95km/h | 8014m | 7.2m/s | -28.2°C | 41.0% | 0hPa | 2.9V | 00:00:00 | 00:00:00 | 00:00:00 | |
| OE8JPQ-2 | 2026-09-01 02:38:29 | 46.97515 | 15.71813 | 99° | 95km/h | 7989m | 5.6m/s | -28.0°C | 40.3% | 0hPa | 2.9V | 00:00:00 | 00:00:00 | 08:30:00 | |
| OE5DRO-10 | 2026-09-01 02:38:25 | 46.97534 | 15.71676 | 100° | 97km/h | 7967m | 6.2m/s | -27.7°C | 40.9% | 0hPa | 2.9V | 00:00:00 | 00:00:00 | 00:00:00 | |
| OE5DXL-15 | 2026-09-01 02:38:22 | 46.97542 | 15.71573 | 97° | 97km/h | 7948m | 8.5m/s | 0°C | 0% | 0hPa | 2.9V | 00:00:00 | 00:00:00 | 00:00:00 | |
| PETON7-10 | 2026-09-01 02:38:18 | 46.97558 | 15.71434 | 98° | 99km/h | 7920m | 5.8m/s | -27.3°C | 41.7% | 0hPa | 2.9V | 00:00:00 | 00:00:00 | 00:00:00 | |
| PG1ADW-2 | 2026-09-01 02:38:16 | 46.97564 | 15.71362 | 98° | 97km/h | 7910m | 5.8m/s | -27.2°C | 43.1% | 0hPa | 2.9V | 00:00:00 | 00:00:00 | 00:00:00 | |
| OE8JPQ-2 | 2026-09-01 02:38:07 | 46.97594 | 15.71032 | 102° | 97km/h | 7859m | 5.5m/s | -26.8°C | 36.2% | 0hPa | 2.9V | 00:00:00 | 00:00:00 | 00:00:00 | |
| OE5DRO-10 | 2026-09-01 02:38:06 | 46.97599 | 15.70998 | 102° | 95km/h | 7854m | 3.2m/s | -26.7°C | 35.9% | 0hPa | 2.9V | 00:00:00 | 00:00:00 | 00:00:00 | |
| PG1ADW-2 | 2026-09-01 02:37:56 | 46.97636 | 15.70648 | 100° | 97km/h | 7797m | 5.3m/s | -26.2°C | 23.9% | 0hPa | 2.9V | 00:00:00 | 00:00:00 | 00:00:00 | |
| OE5DXL-15 | 2026-09-01 02:37:52 | 46.97648 | 15.70503 | 98° | 97km/h | 7771m | 7.8m/s | 0°C | 0% | 0hPa | 2.9V | 00:00:00 | 00:00:00 | 00:00:00 | |
| PETON7-10 | 2026-09-01 02:37:48 | 46.97658 | 15.70365 | 96° | 99km/h | 7745m | 6.5m/s | -25.8°C | 20.4% | 0hPa | 2.9V | 00:00:00 | 00:00:00 | 08:30:00 | |
| OE5DRO-10 | 2026-09-01 02:37:47 | 46.97661 | 15.70331 | 98° | 99km/h | 7738m | 7.0m/s | -25.7°C | 20.4% | 0hPa | 2.9V | 00:00:00 | 00:00:00 | 00:00:00 | |
| OE8JPQ-2 | 2026-09-01 02:37:43 | 46.97680 | 15.70186 | 101° | 99km/h | 7717m | 5.5m/s | -25.6°C | 21.2% | 0hPa | 2.9V | 00:00:00 | 00:51:15 | 00:00:00 | |
| PG1ADW-2 | 2026-09-01 02:37:36 | 46.97698 | 15.69934 | 96° | 97km/h | 7680m | 4.4m/s | -25.2°C | 21.7% | 0hPa | 2.9V | 00:00:00 | 00:00:00 | 00:00:00 | |
| PETON7-10 | 2026-09-01 02:37:32 | 46.97709 | 15.69787 | 96° | 97km/h | 7660m | 7.0m/s | -25.1°C | 21.6% | 0hPa | 2.9V | 00:00:00 | 00:00:00 | 00:00:00 | |
| OE5DRO-10 | 2026-09-01 02:37:28 | 46.97720 | 15.69647 | 99° | 95km/h | 7633m | 5.1m/s | -25.0°C | 23.0% | 0hPa | 2.9V | 00:00:00 | 00:00:00 | 08:30:00 | |
| OE8JPQ-2 | 2026-09-01 02:37:23 | 46.97734 | 15.69471 | 96° | 99km/h | 7602m | 5.4m/s | -24.7°C | 24.1% | 0hPa | 2.9V | 00:00:00 | 00:00:00 | 00:00:00 | |
| OE5DXL-15 | 2026-09-01 02:37:22 | 46.97737 | 15.69433 | 96° | 89km/h | 7597m | 3.7m/s | 0°C | 0% | 0hPa | 2.9V | 00:00:00 | 00:00:00 | 00:00:00 | |
| OE3JTB-15 | 2026-09-01 02:37:18 | 46.97745 | 15.69290 | 97° | 91km/h | 7579m | 5.0m/s | -24.5°C | 24.4% | 0hPa | 2.9V | 00:00:00 | 00:00:00 | 08:30:00 | |
| PETON7-10 | 2026-09-01 02:37:17 | 46.97749 | 15.69254 | 98° | 89km/h | 7573m | 5.6m/s | -24.4°C | 24.2% | 0hPa | 2.7V | 00:00:00 | 00:50:49 | 00:00:00 | |
| PG1ADW-2 | 2026-09-01 02:37:16 | 46.97752 | 15.69219 | 99° | 91km/h | 7568m | 4.3m/s | -24.4°C | 24.2% | 0hPa | 2.7V | 00:00:00 | 00:50:48 | 08:30:00 | |
| OE5DRO-10 | 2026-09-01 02:37:09 | 46.97776 | 15.68992 | 97° | 91km/h | 7535m | 5.9m/s | -24.1°C | 22.8% | 0hPa | 2.9V | 00:00:00 | 00:00:00 | 00:00:00 | |
| PETON7-10 | 2026-09-01 02:37:01 | 46.97797 | 15.68725 | 96° | 91km/h | 7501m | 3.8m/s | -23.8°C | 22.2% | 0hPa | 2.9V | 00:00:00 | 00:00:00 | 00:00:00 | |
| PG1ADW-2 | 2026-09-01 02:36:55 | 46.97815 | 15.68525 | 99° | 89km/h | 7473m | 4.4m/s | -23.5°C | 21.7% | 0hPa | 2.9V | 00:00:00 | 00:00:00 | 00:00:00 | |
| OE8JPQ-2 | 2026-09-01 02:36:54 | 46.97818 | 15.68491 | 99° | 91km/h | 7469m | 3.7m/s | -23.5°C | 21.7% | 0hPa | 2.9V | 00:00:00 | 00:00:00 | 00:00:00 | |
| OE5DXL-15 | 2026-09-01 02:36:51 | 46.97829 | 15.68393 | 102° | 88km/h | 7455m | 6.2m/s | 0°C | 0% | 0hPa | 2.9V | 00:00:00 | 00:50:23 | 00:00:00 | |
| OE5DRO-10 | 2026-09-01 02:36:50 | 46.97834 | 15.68361 | 103° | 91km/h | 7450m | 3.7m/s | -23.3°C | 21.7% | 0hPa | 2.9V | 00:00:00 | 00:00:00 | 00:00:00 | |
| OE3JTB-15 | 2026-09-01 02:36:49 | 46.97838 | 15.68329 | 101° | 91km/h | 7445m | 5.4m/s | -23.3°C | 21.7% | 0hPa | 2.9V | 00:00:00 | 00:00:00 | 00:00:00 | |
| PETON7-10 | 2026-09-01 02:36:46 | 46.97849 | 15.68229 | 98° | 91km/h | 7432m | 3.9m/s | -23.2°C | 22.1% | 0hPa | 2.9V | 00:00:00 | 00:00:00 | 00:00:00 | |
| PG1ADW-2 | 2026-09-01 02:36:35 | 46.97877 | 15.67863 | 96° | 88km/h | 7369m | 6.9m/s | -22.7°C | 24.3% | 0hPa | 2.9V | 00:00:00 | 00:00:00 | 00:00:00 | |
| OE8JPQ-2 | 2026-09-01 02:36:34 | 46.97879 | 15.67828 | 96° | 88km/h | 7363m | 5.0m/s | -22.7°C | 25.0% | 0hPa | 2.9V | 00:00:00 | 00:50:06 | 00:00:00 | |
| PETON7-10 | 2026-09-01 02:36:31 | 46.97885 | 15.67726 | 94° | 86km/h | 7348m | 5.2m/s | -22.5°C | 25.7% | 0hPa | 2.9V | 00:00:00 | 00:50:03 | 00:00:00 | |
| OE3JTB-15 | 2026-09-01 02:36:20 | 46.97917 | 15.67379 | 98° | 88km/h | 7287m | 7.0m/s | -22.0°C | 21.9% | 0hPa | 2.9V | 00:00:00 | 00:49:52 | 00:00:00 | |
| PETON7-10 | 2026-09-01 02:36:16 | 46.97926 | 15.67250 | 97° | 88km/h | 7266m | 4.6m/s | -21.8°C | 21.2% | 0hPa | 2.9V | 00:00:00 | 00:00:00 | 00:00:00 | |
| OE8JPQ-2 | 2026-09-01 02:36:14 | 46.97932 | 15.67186 | 99° | 88km/h | 7255m | 2.7m/s | -21.7°C | 21.0% | 0hPa | 2.9V | 00:00:00 | 00:00:00 | 00:00:00 | |
| OE5DRO-10 | 2026-09-01 02:36:12 | 46.97938 | 15.67125 | 97° | 89km/h | 7245m | 5.9m/s | -21.6°C | 21.1% | 0hPa | 2.9V | 00:00:00 | 00:00:00 | 00:00:00 | |
| PG1ADW-2 | 2026-09-01 02:36:07 | 46.97950 | 15.66963 | 96° | 89km/h | 7211m | 5.8m/s | -21.3°C | 20.5% | 0hPa | 2.9V | 00:00:00 | 00:00:00 | 00:00:00 | |
| PETON7-10 | 2026-09-01 02:36:01 | 46.97968 | 15.66764 | 97° | 88km/h | 7179m | 6.1m/s | -21.1°C | 20.4% | 0hPa | 2.9V | 00:00:00 | 00:00:00 | 00:00:00 | |
| OE5DXL-15 | 2026-09-01 02:35:58 | 46.97977 | 15.66669 | 100° | 88km/h | 7165m | 2.4m/s | 0°C | 0% | 0hPa | 2.9V | 00:00:00 | 00:00:00 | 00:00:00 | |
| OE8JPQ-2 | 2026-09-01 02:35:54 | 46.97991 | 15.66540 | 101° | 89km/h | 7146m | 4.8m/s | -20.8°C | 19.9% | 0hPa | 2.9V | 00:00:00 | 00:00:00 | 00:00:00 | |
| OE5DRO-10 | 2026-09-01 02:35:53 | 46.97995 | 15.66508 | 101° | 89km/h | 7141m | 4.3m/s | -20.8°C | 20.0% | 0hPa | 2.9V | 00:00:00 | 00:00:00 | 00:00:00 | |
| OE3JTB-15 | 2026-09-01 02:35:51 | 46.98003 | 15.66445 | 101° | 89km/h | 7134m | 4.0m/s | -20.7°C | 20.2% | 0hPa | 2.9V | 00:00:00 | 00:00:00 | 00:00:00 | |
| PG1ADW-2 | 2026-09-01 02:35:47 | 46.98021 | 15.66313 | 101° | 89km/h | 7118m | 3.9m/s | -20.6°C | 20.0% | 0hPa | 2.9V | 00:00:00 | 00:49:19 | 00:00:00 | |
| PETON7-10 | 2026-09-01 02:35:46 | 46.98025 | 15.66280 | 100° | 88km/h | 7114m | 4.3m/s | -20.5°C | 20.0% | 0hPa | 2.9V | 00:00:00 | 00:49:18 | 00:00:00 | |
| OE5DRO-10 | 2026-09-01 02:35:34 | 46.98060 | 15.65892 | 100° | 88km/h | 7065m | 4.4m/s | -20.1°C | 18.3% | 0hPa | 2.9V | 00:00:00 | 00:00:00 | 00:00:00 | |
| PETON7-10 | 2026-09-01 02:35:31 | 46.98071 | 15.65795 | 101° | 88km/h | 7049m | 6.9m/s | -20.0°C | 18.5% | 0hPa | 2.9V | 00:00:00 | 00:00:00 | 08:30:00 | |
| OE3JTB-15 | 2026-09-01 02:35:22 | 46.98104 | 15.65503 | 99° | 86km/h | 7012m | 3.7m/s | -19.6°C | 18.7% | 0hPa | 2.9V | 00:00:00 | 00:00:00 | 00:00:00 | |
| PG1ADW-2 | 2026-09-01 02:35:21 | 46.98107 | 15.65472 | 98° | 86km/h | 7007m | 5.2m/s | -19.6°C | 18.8% | 0hPa | 2.9V | 00:00:00 | 00:00:00 | 00:00:00 | |
| PETON7-10 | 2026-09-01 02:35:15 | 46.98125 | 15.65281 | 102° | 86km/h | 6981m | 2.9m/s | -19.4°C | 19.0% | 0hPa | 2.9V | 00:00:00 | 00:00:00 | 00:00:00 | |
| OE8JPQ-2 | 2026-09-01 02:35:14 | 46.98130 | 15.65247 | 101° | 86km/h | 6976m | 5.7m/s | -19.3°C | 19.2% | 0hPa | 2.9V | 00:00:00 | 00:00:00 | 08:30:00 | |
| OE3OSB-13 | 2026-09-01 02:35:08 | 46.98146 | 15.65052 | 94° | 84km/h | 6945m | 4.7m/s | -19.1°C | 17.0% | -1.0hPa | 2.9V | 00:00:00 | 00:00:00 | 00:00:00 | |
| PG1ADW-2 | 2026-09-01 02:35:01 | 46.98165 | 15.64843 | 99° | 84km/h | 6914m | 5.2m/s | -18.8°C | 18.3% | 0hPa | 2.9V | 00:00:00 | 00:00:00 | 00:00:00 | |
| PETON7-10 | 2026-09-01 02:35:00 | 46.98169 | 15.64811 | 98° | 86km/h | 6910m | 3.1m/s | -18.8°C | 18.5% | 0hPa | 2.9V | 00:00:00 | 00:48:32 | 00:00:00 | |
| OE5DRO-10 | 2026-09-01 02:34:56 | 46.98182 | 15.64684 | 100° | 84km/h | 6890m | 6.0m/s | -18.6°C | 18.3% | 0hPa | 2.9V | 00:00:00 | 00:00:00 | 00:00:00 | |
| OE8JPQ-2 | 2026-09-01 02:34:53 | 46.98192 | 15.64589 | 98° | 82km/h | 6878m | 3.8m/s | -18.5°C | 18.6% | 0hPa | 2.9V | 00:00:00 | 00:00:00 | 00:00:00 | |
| PETON7-10 | 2026-09-01 02:34:45 | 46.98219 | 15.64345 | 99° | 82km/h | 6840m | 4.4m/s | -18.2°C | 18.9% | 0hPa | 2.9V | 00:00:00 | 00:00:00 | 00:00:00 | |
| PG1ADW-2 | 2026-09-01 02:34:41 | 46.98235 | 15.64225 | 102° | 84km/h | 6821m | 4.9m/s | 0°C | 0% | 0hPa | 2.9V | 00:00:00 | 00:00:00 | 00:00:00 | |
| OE5DRO-10 | 2026-09-01 02:34:37 | 46.98247 | 15.64107 | 99° | 84km/h | 6802m | 4.3m/s | -17.9°C | 18.1% | 0hPa | 2.9V | 00:00:00 | 00:00:00 | 08:30:00 | |
| OE8JPQ-2 | 2026-09-01 02:34:33 | 46.98258 | 15.63986 | 99° | 84km/h | 6780m | 4.6m/s | -17.7°C | 17.7% | 0hPa | 2.7V | 00:00:00 | 00:48:05 | 00:00:00 | |
| PETON7-10 | 2026-09-01 02:34:30 | 46.98270 | 15.63895 | 103° | 84km/h | 6766m | 5.4m/s | -17.6°C | 17.2% | 0hPa | 2.7V | 00:00:00 | 00:00:00 | 00:00:00 | |
| PG1ADW-2 | 2026-09-01 02:34:19 | 46.98310 | 15.63556 | 100° | 86km/h | 6711m | 2.6m/s | 0°C | 0% | 0hPa | 2.7V | 00:00:00 | 00:47:51 | 00:00:00 | |
| OE5DRO-10 | 2026-09-01 02:34:18 | 46.98314 | 15.63525 | 99° | 86km/h | 6707m | 6.4m/s | -17.0°C | 15.8% | 0hPa | 2.7V | 00:00:00 | 00:00:00 | 00:00:00 | |
| PETON7-10 | 2026-09-01 02:34:15 | 46.98322 | 15.63434 | 98° | 86km/h | 6692m | 2.8m/s | -16.9°C | 15.2% | 0hPa | 2.7V | 00:00:00 | 00:47:47 | 00:00:00 | |
| OE8JPQ-2 | 2026-09-01 02:34:13 | 46.98327 | 15.63373 | 97° | 86km/h | 6685m | 2.9m/s | -16.9°C | 15.1% | 0hPa | 2.7V | 00:00:00 | 00:00:00 | 00:00:00 | |
| OE3OSB-13 | 2026-09-01 02:34:06 | 46.98345 | 15.63157 | 95° | 80km/h | 6651m | 6.2m/s | -16.6°C | 13.0% | -1.0hPa | 2.9V | 00:00:00 | 00:00:00 | 00:00:00 | |
| PETON7-10 | 2026-09-01 02:33:59 | 46.98358 | 15.62931 | 96° | 86km/h | 6620m | 3.1m/s | -16.3°C | 12.3% | 0hPa | 2.9V | 00:00:00 | 00:00:00 | 00:00:00 | |
| OE8JPQ-2 | 2026-09-01 02:33:53 | 46.98371 | 15.62740 | 93° | 84km/h | 6593m | 3.9m/s | -16.1°C | 10.8% | 0hPa | 2.9V | 00:00:00 | 00:00:00 | 00:00:00 | |
| OE3JTB-15 | 2026-09-01 02:33:52 | 46.98373 | 15.62707 | 93° | 86km/h | 6589m | 5.8m/s | -16.0°C | 10.5% | 0hPa | 2.9V | 00:00:00 | 00:00:00 | 00:00:00 | |
| PETON7-10 | 2026-09-01 02:33:44 | 46.98381 | 15.62455 | 95° | 84km/h | 6552m | 3.4m/s | -15.7°C | 7.6% | 0hPa | 2.9V | 00:00:00 | 00:00:00 | 00:00:00 | |
| OE5DRO-10 | 2026-09-01 02:33:40 | 46.98388 | 15.62327 | 97° | 86km/h | 6535m | 3.1m/s | -15.6°C | 6.0% | 0hPa | 2.9V | 00:00:00 | 00:00:00 | 00:00:00 | |
| PG1ADW-2 | 2026-09-01 02:33:39 | 46.98391 | 15.62295 | 98° | 86km/h | 6530m | 5.2m/s | 0°C | 0% | 0hPa | 2.9V | 00:00:00 | 00:00:00 | 00:00:00 | |
| OE8JPQ-2 | 2026-09-01 02:33:32 | 46.98403 | 15.62081 | 93° | 86km/h | 6500m | 5.2m/s | -15.3°C | 6.0% | 0hPa | 2.9V | 00:00:00 | 00:47:04 | 00:00:00 | |
| PETON7-10 | 2026-09-01 02:33:29 | 46.98406 | 15.61987 | 94° | 86km/h | 6483m | 4.1m/s | -15.2°C | 6.1% | 0hPa | 2.9V | 00:00:00 | 00:47:01 | 00:00:00 | |
| OE3JTB-15 | 2026-09-01 02:33:23 | 46.98409 | 15.61793 | 94° | 82km/h | 6457m | 3.7m/s | -15.0°C | 6.3% | 0hPa | 2.9V | 00:00:00 | 00:00:00 | 00:00:00 | |
| OE5DRO-10 | 2026-09-01 02:33:21 | 46.98412 | 15.61731 | 94° | 80km/h | 6450m | 3.5m/s | -15.0°C | 6.3% | 0hPa | 2.9V | 00:00:00 | 00:00:00 | 00:00:00 | |
| PG1ADW-2 | 2026-09-01 02:33:19 | 46.98415 | 15.61666 | 95° | 80km/h | 6441m | 3.4m/s | 0°C | 0% | 0hPa | 2.9V | 00:00:00 | 00:00:00 | 00:00:00 | |
| PETON7-10 | 2026-09-01 02:33:14 | 46.98424 | 15.61516 | 98° | 80km/h | 6420m | 3.4m/s | -14.7°C | 6.3% | 0hPa | 2.9V | 00:00:00 | 00:00:00 | 08:30:00 | |
| OE8JPQ-2 | 2026-09-01 02:33:12 | 46.98428 | 15.61461 | 95° | 80km/h | 6412m | 3.1m/s | -14.6°C | 6.2% | 0hPa | 2.9V | 00:00:00 | 00:00:00 | 00:00:00 | |
| OE3OSB-13 | 2026-09-01 02:33:04 | 46.98438 | 15.61196 | 92° | 84km/h | 6375m | 2.2m/s | -14.5°C | -1.0% | -1.0hPa | 2.9V | 00:00:00 | 00:00:00 | 00:00:00 | |
| PETON7-10 | 2026-09-01 02:32:59 | 46.98446 | 15.61072 | 98° | 82km/h | 6355m | 5.0m/s | -14.3°C | 6.6% | 0hPa | 2.9V | 00:00:00 | 00:00:00 | 00:00:00 | |
| PG1ADW-2 | 2026-09-01 02:32:55 | 46.98457 | 15.60956 | 99° | 84km/h | 6338m | 5.2m/s | 0°C | 0% | 0hPa | 2.9V | 00:00:00 | 00:46:27 | 00:00:00 | |
| OE8JPQ-2 | 2026-09-01 02:32:52 | 46.98464 | 15.60861 | 96° | 84km/h | 6322m | 4.3m/s | -14.1°C | 7.4% | 0hPa | 2.9V | 00:00:00 | 00:00:00 | 00:00:00 | |
| PETON7-10 | 2026-09-01 02:32:44 | 46.98482 | 15.60617 | 95° | 86km/h | 6287m | 4.1m/s | -13.9°C | 7.3% | 0hPa | 2.9V | 00:00:00 | 00:46:16 | 00:00:00 | |
| OE5DRO-10 | 2026-09-01 02:32:43 | 46.98483 | 15.60586 | 94° | 84km/h | 6283m | 4.5m/s | -13.9°C | 7.4% | 0hPa | 2.9V | 00:00:00 | 00:00:00 | 00:00:00 | |
| OE3JTB-15 | 2026-09-01 02:32:41 | 46.98485 | 15.60525 | 93° | 86km/h | 6274m | 4.0m/s | -13.8°C | 7.5% | 0hPa | 2.9V | 00:00:00 | 00:46:13 | 00:00:00 | |
| PG1ADW-2 | 2026-09-01 02:32:34 | 46.98500 | 15.60305 | 98° | 88km/h | 6242m | 4.6m/s | 0°C | 0% | 0hPa | 2.9V | 00:00:00 | 00:00:00 | 00:00:00 | |
| OE8JPQ-2 | 2026-09-01 02:32:32 | 46.98508 | 15.60241 | 103° | 84km/h | 6233m | 4.2m/s | -13.5°C | 6.9% | 0hPa | 2.9V | 00:00:00 | 00:46:04 | 00:00:00 | |
| PETON7-10 | 2026-09-01 02:32:29 | 46.98521 | 15.60148 | 102° | 84km/h | 6222m | 3.0m/s | -13.4°C | 6.9% | 0hPa | 2.9V | 00:00:00 | 00:00:00 | 00:00:00 | |
| OE5DRO-10 | 2026-09-01 02:32:24 | 46.98538 | 15.59998 | 99° | 84km/h | 6202m | 6.0m/s | -13.3°C | 6.5% | 0hPa | 2.9V | 00:00:00 | 00:00:00 | 00:00:00 | |
| PETON7-10 | 2026-09-01 02:32:14 | 46.98576 | 15.59688 | 105° | 84km/h | 6160m | 3.6m/s | 0°C | 0% | 0hPa | 2.9V | 00:00:00 | 00:00:00 | 00:00:00 | |
| OE8JPQ-2 | 2026-09-01 02:32:12 | 46.98586 | 15.59629 | 103° | 84km/h | 6152m | 3.5m/s | -12.9°C | 5.8% | 0hPa | 2.9V | 00:00:00 | 00:00:00 | 08:30:00 | |
| OE5DRO-10 | 2026-09-01 02:32:05 | 46.98614 | 15.59417 | 100° | 84km/h | 6120m | 3.2m/s | -12.7°C | 5.6% | 0hPa | 2.9V | 00:00:00 | 00:00:00 | 00:00:00 | |
| PETON7-10 | 2026-09-01 02:31:59 | 46.98637 | 15.59232 | 103° | 84km/h | 6096m | 3.5m/s | 0°C | 0% | 0hPa | 2.9V | 00:00:00 | 00:45:31 | 00:00:00 | |
| OE8JPQ-2 | 2026-09-01 02:31:52 | 46.98669 | 15.59021 | 102° | 84km/h | 6061m | 3.1m/s | -12.6°C | 6.7% | 0hPa | 2.9V | 00:00:00 | 00:00:00 | 00:00:00 | |
| OE5DRO-10 | 2026-09-01 02:31:46 | 46.98703 | 15.58840 | 105° | 82km/h | 6030m | 8.5m/s | -12.6°C | 4.7% | 0hPa | 2.9V | 00:00:00 | 00:00:00 | 08:30:00 | |
| PETON7-10 | 2026-09-01 02:31:44 | 46.98714 | 15.58781 | 105° | 82km/h | 6018m | 5.7m/s | 0°C | 0% | 0hPa | 3.0V | 00:00:00 | 00:00:00 | 00:00:00 | |
| PG1ADW-2 | 2026-09-01 02:31:43 | 46.98719 | 15.58751 | 106° | 77km/h | 6013m | 3.7m/s | 0°C | 0% | 0hPa | 3.0V | 00:00:00 | 00:00:00 | 00:00:00 | |
| OE8JPQ-2 | 2026-09-01 02:31:32 | 46.98780 | 15.58426 | 106° | 75km/h | 5964m | 6.8m/s | -12.9°C | 4.4% | 0hPa | 3.0V | 00:00:00 | 00:45:04 | 00:00:00 | |
| PETON7-10 | 2026-09-01 02:31:29 | 46.98796 | 15.58340 | 106° | 75km/h | 5949m | 5.1m/s | 0°C | 0% | 0hPa | 3.0V | 00:00:00 | 00:00:00 | 00:00:00 | |
| OE5DRO-10 | 2026-09-01 02:31:27 | 46.98807 | 15.58287 | 109° | 71km/h | 5939m | 5.4m/s | -13.0°C | 4.4% | 0hPa | 3.0V | 00:00:00 | 00:00:00 | 00:00:00 | |
| PG1ADW-2 | 2026-09-01 02:31:23 | 46.98832 | 15.58186 | 110° | 75km/h | 5918m | 5.3m/s | 0°C | 0% | 0hPa | 3.0V | 00:00:00 | 00:44:55 | 00:00:00 | |
| PETON7-10 | 2026-09-01 02:31:14 | 46.98874 | 15.57946 | 103° | 68km/h | 5871m | 5.8m/s | 0°C | 0% | 0hPa | 3.0V | 00:00:00 | 00:44:46 | 00:00:00 | |
| OE8JPQ-2 | 2026-09-01 02:31:12 | 46.98882 | 15.57898 | 105° | 71km/h | 5861m | 3.9m/s | -13.4°C | 5.2% | 0hPa | 3.0V | 00:00:00 | 00:00:00 | 00:00:00 | |
| OE3JTB-15 | 2026-09-01 02:31:06 | 46.98908 | 15.57757 | 105° | 71km/h | 5832m | 4.5m/s | 0°C | 0% | 0hPa | 3.0V | 00:00:00 | 00:44:38 | 00:00:00 | |
| PG1ADW-2 | 2026-09-01 02:31:03 | 46.98920 | 15.57679 | 101° | 73km/h | 5815m | 7.3m/s | 0°C | 0% | 0hPa | 3.0V | 00:00:00 | 00:00:00 | 00:00:00 | |
| PETON7-10 | 2026-09-01 02:30:58 | 46.98938 | 15.57554 | 103° | 73km/h | 5786m | 6.6m/s | 0°C | 0% | 0hPa | 3.0V | 00:00:00 | 00:00:00 | 00:00:00 | |
| OE8JPQ-2 | 2026-09-01 02:30:52 | 46.98962 | 15.57395 | 102° | 69km/h | 5756m | 5.3m/s | -13.6°C | 8.1% | 0hPa | 3.0V | 00:00:00 | 00:00:00 | 00:00:00 | |
| OE5DRO-10 | 2026-09-01 02:30:49 | 46.98972 | 15.57312 | 97° | 69km/h | 5741m | 4.9m/s | -13.7°C | 11.1% | 0hPa | 3.0V | 00:00:00 | 00:00:00 | 00:00:00 | |
| PG1ADW-2 | 2026-09-01 02:30:43 | 46.98983 | 15.57150 | 99° | 68km/h | 5711m | 5.3m/s | 0°C | 0% | 0hPa | 2.9V | 00:00:00 | 00:00:00 | 00:00:00 | |
| OE3JTB-15 | 2026-09-01 02:30:37 | 46.98999 | 15.57006 | 99° | 71km/h | 5681m | 4.9m/s | 0°C | 0% | 0hPa | 2.9V | 00:00:00 | 00:00:00 | 00:00:00 | |
| OE8JPQ-2 | 2026-09-01 02:30:32 | 46.99009 | 15.56882 | 92° | 77km/h | 5651m | 6.4m/s | -14.0°C | 24.8% | 0hPa | 2.9V | 00:00:00 | 00:44:04 | 00:00:00 | |
| OE5DRO-10 | 2026-09-01 02:30:30 | 46.99011 | 15.56822 | 96° | 75km/h | 5639m | 6.0m/s | -13.9°C | 44.8% | 0hPa | 2.9V | 00:00:00 | 00:00:00 | 00:00:00 | |
| OE8JPQ-2 | 2026-09-01 02:30:12 | 46.99006 | 15.56320 | 88° | 71km/h | 5537m | 5.1m/s | -12.7°C | 0% | 0hPa | 2.9V | 00:00:00 | 00:00:00 | 00:00:00 | |
| S52SK | 2026-09-01 02:30:11 | 46.99006 | 15.56293 | 89° | 73km/h | 5532m | 5.3m/s | -12.6°C | 97.2% | 0hPa | 3.0V | 00:00:00 | 00:00:00 | 00:00:00 | |
| OE8JPQ-2 | 2026-09-01 02:29:52 | 46.98950 | 15.55799 | 76° | 75km/h | 5426m | 8.9m/s | -11.8°C | 0% | 0hPa | 3.0V | 00:00:00 | 00:00:00 | 00:00:00 | |
| OE3JTB-15 | 2026-09-01 02:29:45 | 46.98920 | 15.55610 | 81° | 75km/h | 5372m | 6.8m/s | 0°C | 0% | 0hPa | 3.0V | 00:00:00 | 00:00:00 | 00:00:00 | |
| OE5DRO-10 | 2026-09-01 02:29:33 | 46.98882 | 15.55278 | 78° | 73km/h | 5295m | 5.6m/s | 0°C | 0% | 0hPa | 3.0V | 00:00:00 | 00:00:00 | 00:00:00 | |
| OE8JPQ-2 | 2026-09-01 02:29:32 | 46.98880 | 15.55253 | 83° | 75km/h | 5289m | 6.6m/s | -10.8°C | 0% | 0hPa | 3.0V | 00:00:00 | 00:43:04 | 00:00:00 | |
| OE3JTB-15 | 2026-09-01 02:29:16 | 46.98832 | 15.54815 | 71° | 69km/h | 5174m | 6.2m/s | 0°C | 0% | 0hPa | 3.0V | 00:00:00 | 00:42:48 | 00:00:00 | |
| OE5DRO-10 | 2026-09-01 02:29:14 | 46.98819 | 15.54765 | 73° | 71km/h | 5158m | 8.5m/s | 0°C | 0% | 0hPa | 3.0V | 00:00:00 | 00:00:00 | 00:00:00 | |
| OE8JPQ-2 | 2026-09-01 02:29:12 | 46.98810 | 15.54713 | 77° | 68km/h | 5147m | 4.2m/s | -9.5°C | 0% | 0hPa | 3.0V | 00:00:00 | 00:00:00 | 08:30:00 | |
| OE5DRO-10 | 2026-09-01 02:28:55 | 46.98719 | 15.54301 | 79° | 68km/h | 5042m | 6.2m/s | 0°C | 0% | 0hPa | 3.0V | 00:00:00 | 00:00:00 | 00:00:00 | |
| OE8JPQ-2 | 2026-09-01 02:28:52 | 46.98705 | 15.54232 | 67° | 66km/h | 5026m | 7.2m/s | -8.7°C | 0% | 0hPa | 3.0V | 00:00:00 | 00:00:00 | 00:00:00 | |
| OE3JTB-15 | 2026-09-01 02:28:47 | 46.98676 | 15.54114 | 80° | 62km/h | 4999m | 3.4m/s | 0°C | 0% | 0hPa | 3.0V | 00:00:00 | 00:00:00 | 00:00:00 | |
| OE8JPQ-2 | 2026-09-01 02:28:32 | 46.98606 | 15.53764 | 71° | 58km/h | 4913m | 6.2m/s | -7.8°C | 0% | 0hPa | 3.0V | 00:00:00 | 00:42:04 | 00:00:00 | |
| OE3JTB-15 | 2026-09-01 02:28:18 | 46.98548 | 15.53473 | 67° | 64km/h | 4836m | 7.6m/s | 0°C | 0% | 0hPa | 3.0V | 00:00:00 | 00:00:00 | 00:00:00 | |
| OE8JPQ-2 | 2026-09-01 02:28:12 | 46.98518 | 15.53346 | 70° | 64km/h | 4802m | 6.2m/s | -7.0°C | 0% | 0hPa | 3.0V | 00:00:00 | 00:00:00 | 00:00:00 | |
| OE8JPQ-2 | 2026-09-01 02:27:52 | 46.98415 | 15.52892 | 66° | 68km/h | 4681m | 5.6m/s | -6.3°C | 0% | 0hPa | 3.0V | 00:00:00 | 00:00:00 | 00:00:00 | |
| OE3JTB-15 | 2026-09-01 02:27:49 | 46.98393 | 15.52822 | 67° | 62km/h | 4663m | 5.7m/s | 0°C | 0% | 0hPa | 3.0V | 00:00:00 | 00:41:21 | 00:00:00 | |
| OE8JPQ-2 | 2026-09-01 02:27:32 | 46.98283 | 15.52434 | 66° | 62km/h | 4554m | 7.2m/s | -5.4°C | 0% | 0hPa | 3.0V | 00:00:00 | 00:41:04 | 00:00:00 | |
| OE3JTB-15 | 2026-09-01 02:27:18 | 46.98188 | 15.52149 | 62° | 62km/h | 4463m | 5.3m/s | 0°C | 0% | 0hPa | 3.0V | 00:00:00 | 00:00:00 | 08:30:00 | |
| OE8JPQ-2 | 2026-09-01 02:27:12 | 46.98146 | 15.52026 | 60° | 62km/h | 4425m | 5.5m/s | -4.6°C | 0% | 0hPa | 3.0V | 00:00:00 | 00:00:00 | 00:00:00 | |
| OE8JPQ-2 | 2026-09-01 02:26:52 | 46.97991 | 15.51636 | 63° | 55km/h | 4300m | 5.0m/s | 0°C | 0% | 0hPa | 0V | 00:00:00 | 00:00:00 | 00:00:00 | |
| OE8JPQ-2 | 2026-09-01 02:26:32 | 46.97868 | 15.51269 | 75° | 53km/h | 4179m | 5.7m/s | 0°C | 0% | 0hPa | 0V | 00:00:00 | 00:40:04 | 00:00:00 | |
| OE8JPQ-2 | 2026-09-01 02:26:12 | 46.97769 | 15.50910 | 68° | 49km/h | 4048m | 4.5m/s | 0°C | 0% | 0hPa | 0V | 00:00:00 | 00:00:00 | 00:00:00 | |
| S52SK | 2026-09-01 02:25:59 | 46.97695 | 15.50691 | 71° | 51km/h | 3961m | 2.6m/s | 0°C | 0% | 0hPa | 0V | 00:00:00 | 00:00:00 | 00:00:00 | |
| S52SK | 2026-09-01 02:25:54 | 46.97666 | 15.50602 | 61° | 46km/h | 3933m | 5.6m/s | 0°C | 0% | 0hPa | 0V | 00:00:00 | 00:00:00 | 00:00:00 | |
| S52SK | 2026-09-01 02:25:48 | 46.97634 | 15.50517 | 59° | 42km/h | 3901m | 7.8m/s | 0°C | 0% | 0hPa | 0V | 00:00:00 | 00:00:00 | 00:00:00 | |
| S52SK | 2026-09-01 02:24:42 | 46.97316 | 15.49521 | 66° | 42km/h | 3528m | 5.8m/s | 0°C | 0% | 0hPa | 0V | 00:00:00 | 00:00:00 | 00:00:00 | |
| S52SK | 2026-09-01 02:24:36 | 46.97288 | 15.49439 | 69° | 49km/h | 3495m | 5.6m/s | 0°C | 0% | 0hPa | 0V | 00:00:00 | 00:00:00 | 00:00:00 | |
| S52SK | 2026-09-01 02:24:30 | 46.97261 | 15.49356 | 64° | 49km/h | 3467m | 5.9m/s | 0°C | 0% | 0hPa | 0V | 00:00:00 | 00:00:00 | 00:00:00 | |
| S52SK | 2026-09-01 02:23:24 | 46.97139 | 15.48634 | 93° | 20km/h | 3123m | 6.6m/s | 0°C | 0% | 0hPa | 0V | 00:00:00 | 00:00:00 | 00:00:00 | |
| S52SK | 2026-09-01 02:23:19 | 46.97136 | 15.48571 | 97° | 27km/h | 3086m | 5.0m/s | 0°C | 0% | 0hPa | 0V | 00:00:00 | 00:00:00 | 00:00:00 | |
| S52SK | 2026-09-01 02:23:13 | 46.97136 | 15.48512 | 90° | 35km/h | 3059m | 4.9m/s | 0°C | 0% | 0hPa | 0V | 00:00:00 | 00:00:00 | 00:00:00 | |
| S52SK | 2026-09-01 02:22:07 | 46.97270 | 15.47703 | 123° | 47km/h | 2697m | 7.3m/s | 0°C | 0% | 0hPa | 0V | 00:00:00 | 00:00:00 | 00:00:00 | |
| S52SK | 2026-09-01 02:22:02 | 46.97299 | 15.47636 | 127° | 46km/h | 2669m | 7.0m/s | 0°C | 0% | 0hPa | 0V | 00:00:00 | 00:00:00 | 00:00:00 | |
| S52SK | 2026-09-01 02:21:56 | 46.97334 | 15.47547 | 126° | 49km/h | 2636m | 5.3m/s | 0°C | 0% | 0hPa | 0V | 00:00:00 | 00:00:00 | 00:00:00 | |
| S52SK | 2026-09-01 02:20:44 | 46.97926 | 15.46507 | 140° | 49km/h | 2257m | 5.7m/s | 0°C | 0% | 0hPa | 0V | 00:00:00 | 00:00:00 | 00:00:00 | |
| S52SK | 2026-09-01 02:20:39 | 46.97981 | 15.46445 | 136° | 57km/h | 2234m | 5.5m/s | 0°C | 0% | 0hPa | 0V | 00:00:00 | 00:00:00 | 00:00:00 | |
| S52SK | 2026-09-01 02:19:28 | 46.98600 | 15.45735 | 146° | 38km/h | 1868m | 7.3m/s | 0°C | 0% | 0hPa | 0V | 00:00:00 | 00:00:00 | 00:00:00 | |
| S52SK | 2026-09-01 02:19:22 | 46.98644 | 15.45682 | 152° | 37km/h | 1835m | 5.0m/s | 0°C | 0% | 0hPa | 0V | 00:00:00 | 00:00:00 | 00:00:00 | |
| S52SK | 2026-09-01 02:18:15 | 46.99136 | 15.45191 | 147° | 35km/h | 1479m | 5.3m/s | 0°C | 0% | 0hPa | 0V | 00:00:00 | 00:00:00 | 00:00:00 | |
| S52SK | 2026-09-01 02:18:09 | 46.99164 | 15.45156 | 143° | 31km/h | 1451m | 6.2m/s | 0°C | 0% | 0hPa | 0V | 00:00:00 | 00:00:00 | 00:00:00 | |
| S52SK | 2026-09-01 02:16:57 | 46.99372 | 15.44956 | 117° | 11km/h | 1057m | 6.5m/s | 0°C | 0% | 0hPa | 0V | 00:00:00 | 00:00:00 | 00:00:00 | |
| S52SK | 2026-09-01 02:16:53 | 46.99376 | 15.44950 | 60° | 7km/h | 1031m | 4.6m/s | 0°C | 0% | 0hPa | 0V | 00:00:00 | 00:00:00 | 00:00:00 | |
| S52SK | 2026-09-01 02:16:47 | 46.99376 | 15.44943 | 75° | 4km/h | 1001m | 4.6m/s | 0°C | 0% | 0hPa | 0V | 00:00:00 | 00:00:00 | 00:00:00 |